# Wetter Temperatur Luftdruck Luftfeuchtigkeit Sichtweite Windgeschwindigkeit Windrichtung Zeit
1 Clouds 25 1013 88 10000 3.09 190 06:38 02.10.2022
2 Clouds 25 1013 94 10000 3.6 180 02:54 02.10.2022
3 Clouds 28 1010 78 10000 4.12 180 00:45 02.10.2022
4 Rain 30 1008 66 10000 3.6 40 23:42 01.10.2022
5 Rain 33 1009 55 10000 4.63 60 22:31 01.10.2022
6 Rain 33 1010 55 10000 2.57 80 19:58 01.10.2022
7 Clouds 31 1013 66 10000 3.09 80 17:46 01.10.2022
8 Clear 30 1013 74 9000 4.12 90 16:28 01.10.2022
9 Clear 28 1012 78 8000 1.54 90 14:19 01.10.2022
10 Clear 25 1011 88 6000 1.03 90 12:35 01.10.2022
11 Clear 24 1010 94 10000 1.03 170 11:57 01.10.2022
12 Clear 24 1010 94 10000 1.54 110 11:18 01.10.2022
13 Clear 24 1010 94 10000 1.03 170 10:30 01.10.2022
14 Clear 24 1010 94 10000 1.03 170 10:30 01.10.2022
15 Clear 24 1009 94 10000 2.57 80 09:26 01.10.2022
16 Clear 24 1010 94 10000 1.54 100 08:40 01.10.2022
17 Thunderstorm 25 1010 88 10000 2.06 80 03:52 01.10.2022
18 Thunderstorm 25 1010 88 10000 2.06 80 03:24 01.10.2022
19 Clouds 34 1006 46 10000 2.57 350 23:30 30.09.2022
20 Clouds 35 1007 43 10000 4.12 70 22:19 30.09.2022
21 Clouds 35 1007 43 10000 4.12 80 21:22 30.09.2022
22 Clouds 35 1008 46 10000 4.12 50 20:42 30.09.2022
23 Clouds 34 1009 49 10000 4.63 40 19:30 30.09.2022
24 Clouds 32 1011 62 8000 3.09 70 16:58 30.09.2022
25 Clouds 28 1012 74 8000 1.54 160 14:49 30.09.2022
26 Clouds 27 1012 78 8000 2.06 160 13:24 30.09.2022
27 Clouds 26 1010 83 6000 1.54 170 11:56 30.09.2022
28 Clear 27 1009 78 8000 1.03 100 09:45 30.09.2022
29 Clear 28 1008 74 10000 2.06 70 08:19 30.09.2022
30 Clear 30 1010 66 10000 2.57 60 04:21 30.09.2022
31 Clear 31 1008 58 10000 4.12 70 02:22 30.09.2022
32 Clouds 36 1006 38 10000 3.09 30 22:23 29.09.2022
33 Clouds 36 1006 38 10000 3.09 30 21:25 29.09.2022
34 Clouds 36 1008 38 10000 3.6 30 19:58 29.09.2022
35 Clouds 36 1010 41 10000 3.6 20 18:30 29.09.2022
36 Clouds 36 1010 41 10000 3.6 20 18:30 29.09.2022
37 Clear 34 1011 46 10000 3.6 60 16:29 29.09.2022
38 Clear 33 1011 49 10000 3.09 50 15:37 29.09.2022
39 Clear 33 1011 49 10000 3.09 50 14:59 29.09.2022
40 Clear 28 1010 74 10000 1.54 360 12:45 29.09.2022
41 Clear 29 1008 61 10000 2.06 10 08:51 29.09.2022
42 Clear 29 1010 70 10000 1.54 80 05:35 29.09.2022
43 Clear 31 1008 58 10000 1.03 80 02:37 29.09.2022
44 Clouds 34 1007 49 10000 2.06 20 23:29 28.09.2022
45 Clouds 36 1006 41 10000 2.57 10 22:22 28.09.2022
46 Clouds 36 1007 38 10000 3.6 50 21:25 28.09.2022
47 Clouds 36 1009 38 10000 3.6 20 19:57 28.09.2022
48 Clouds 33 1012 52 10000 4.63 60 16:52 28.09.2022
49 Clear 31 1011 58 10000 3.6 60 14:35 28.09.2022
50 Clear 27 1009 78 10000 2.06 40 11:49 28.09.2022
51 Clear 28 1009 69 10000 2.06 60 09:49 28.09.2022
52 Clear 28 1011 78 10000 1.03 30 07:53 28.09.2022
53 Clear 28 1011 78 10000 2.06 70 06:27 28.09.2022
54 Clear 31 1008 58 10000 1.54 80 01:47 28.09.2022
55 Clear 31 1008 58 10000 1.54 80 01:25 28.09.2022
56 Clouds 35 1008 46 10000 1.54 0 22:49 27.09.2022
57 Clouds 35 1009 49 10000 3.6 50 21:20 27.09.2022
58 Clouds 35 1010 49 10000 3.09 40 20:35 27.09.2022
59 Clouds 34 1011 49 10000 3.6 70 19:45 27.09.2022
60 Clouds 33 1013 52 10000 4.63 70 17:47 27.09.2022
61 Clouds 33 1013 52 10000 4.63 70 17:29 27.09.2022
62 Clouds 32 1014 55 10000 3.6 40 15:18 27.09.2022
63 Clear 30 1013 66 10000 2.57 30 14:21 27.09.2022
64 Clear 26 1012 83 10000 2.06 30 12:39 27.09.2022
65 Clear 26 1012 83 10000 2.06 30 12:39 27.09.2022
66 Clear 27 1011 78 10000 1.54 20 10:45 27.09.2022
67 Clear 27 1010 78 10000 2.06 30 08:36 27.09.2022
68 Clear 28 1011 74 10000 2.06 280 05:22 27.09.2022
69 Clouds 30 1008 62 10000 2.06 30 01:40 27.09.2022
70 Clouds 30 1008 58 10000 3.09 30 00:23 27.09.2022
71 Clouds 33 1008 52 10000 3.09 70 23:24 26.09.2022
72 Clouds 35 1008 49 10000 3.6 10 21:35 26.09.2022
73 Clouds 35 1009 46 10000 4.12 30 20:18 26.09.2022
74 Clear 34 1010 49 10000 4.63 20 19:19 26.09.2022
75 Clear 31 1012 58 10000 5.14 50 17:26 26.09.2022
76 Clear 29 1013 61 10000 4.63 90 15:25 26.09.2022
77 Clear 24 1011 83 10000 2.57 80 12:31 26.09.2022
78 Clear 26 1010 78 10000 3.6 100 10:44 26.09.2022
79 Clear 26 1010 78 10000 3.6 100 10:23 26.09.2022
80 Clear 26 1010 78 10000 3.6 100 09:59 26.09.2022
81 Clear 26 1010 78 10000 4.63 100 09:41 26.09.2022
82 Clear 26 1010 78 10000 4.63 100 09:20 26.09.2022
83 Clear 28 1011 69 10000 2.06 40 05:30 26.09.2022
84 Clear 29 1009 74 10000 1.54 90 02:35 26.09.2022
85 Clouds 34 1007 52 10000 2.06 180 23:24 25.09.2022
86 Clouds 35 1007 41 10000 2.57 150 21:47 25.09.2022
87 Clouds 35 1007 41 10000 2.57 150 21:25 25.09.2022
88 Clouds 35 1008 46 10000 3.09 160 20:36 25.09.2022
89 Clouds 35 1010 49 10000 3.6 230 18:55 25.09.2022
90 Clouds 35 1011 49 10000 3.6 230 18:24 25.09.2022
91 Clouds 34 1011 49 9000 1.54 160 17:24 25.09.2022
92 Clouds 31 1012 62 8000 1.54 170 16:21 25.09.2022
93 Clear 30 1011 70 6000 1.54 250 14:49 25.09.2022
94 Clouds 30 1011 70 6000 1.54 250 14:18 25.09.2022
95 Clear 25 1010 88 10000 0 0 11:34 25.09.2022
96 Clear 26 1009 94 10000 1.03 310 09:44 25.09.2022
97 Clear 26 1009 89 10000 1.03 300 07:42 25.09.2022
98 Clear 28 1010 74 10000 1.03 290 05:22 25.09.2022
99 Clouds 34 1007 46 10000 1.03 90 23:37 24.09.2022
100 Clouds 36 1008 44 10000 2.06 80 21:20 24.09.2022
101 Clouds 35 1010 43 10000 2.57 190 19:45 24.09.2022
102 Clouds 35 1010 43 10000 2.57 190 19:20 24.09.2022
103 Clouds 31 1013 66 9000 3.09 180 16:51 24.09.2022
104 Clear 31 1013 70 8000 1.54 170 15:23 24.09.2022
105 Clear 31 1013 70 8000 1.54 170 15:23 24.09.2022
106 Clear 29 1012 79 6000 2.06 170 14:36 24.09.2022
107 Mist 28 1011 83 5000 1.03 170 13:18 24.09.2022
108 Mist 27 1010 94 10000 1.03 180 12:22 24.09.2022
109 Clear 26 1009 94 10000 0.51 150 09:59 24.09.2022
110 Clear 27 1010 89 10000 0 0 08:56 24.09.2022
111 Clear 28 1010 83 10000 0.51 30 07:41 24.09.2022
112 Clear 27 1011 89 10000 1.03 60 04:52 24.09.2022
113 Clear 27 1011 89 10000 1.03 60 04:19 24.09.2022
114 Clouds 32 1008 62 10000 3.09 40 22:54 23.09.2022
115 Clouds 33 1009 55 10000 3.09 10 21:33 23.09.2022
116 Clouds 33 1009 55 10000 3.09 360 20:57 23.09.2022
117 Clouds 34 1010 49 10000 3.09 80 20:37 23.09.2022
118 Clouds 33 1011 58 10000 3.09 20 19:19 23.09.2022
119 Clouds 29 1014 74 10000 2.57 230 15:31 23.09.2022
120 Clouds 25 1011 94 10000 0 0 12:39 23.09.2022
121 Clear 24 1010 94 10000 1.03 40 09:36 23.09.2022
122 Clear 25 1011 94 10000 0 0 06:51 23.09.2022
123 Clouds 29 1008 65 10000 1.54 360 00:42 23.09.2022
124 Rain 29 1008 65 10000 2.06 30 23:23 22.09.2022
125 Rain 31 1007 58 10000 3.6 30 22:27 22.09.2022
126 Clouds 34 1007 52 10000 1.03 0 21:19 22.09.2022
127 Clouds 34 1009 55 10000 2.06 30 19:58 22.09.2022
128 Clouds 33 1012 55 10000 3.6 80 17:41 22.09.2022
129 Clear 28 1011 74 10000 1.03 360 13:38 22.09.2022
130 Clear 27 1009 78 10000 2.57 10 10:37 22.09.2022
131 Clear 27 1009 78 10000 2.57 10 10:37 22.09.2022
132 Clear 28 1009 74 10000 3.09 20 08:58 22.09.2022
133 Clear 29 1009 70 10000 2.06 330 07:27 22.09.2022
134 Clear 31 1010 66 10000 2.06 290 04:36 22.09.2022
135 Clouds 34 1006 46 10000 1.54 160 23:33 21.09.2022
136 Clouds 33 1007 49 10000 2.06 0 21:52 21.09.2022
137 Clouds 35 1008 46 10000 2.57 80 20:53 21.09.2022
138 Clouds 31 1011 62 10000 2.06 230 17:51 21.09.2022
139 Clouds 31 1011 62 10000 2.06 230 17:21 21.09.2022
140 Clear 27 1011 69 10000 3.6 300 14:52 21.09.2022
141 Clear 26 1011 69 10000 5.14 320 13:24 21.09.2022
142 Clear 26 1009 69 10000 3.09 320 11:30 21.09.2022
143 Clear 26 1008 69 10000 2.57 330 10:34 21.09.2022
144 Clear 27 1009 74 10000 1.03 300 09:36 21.09.2022
145 Clouds 27 1010 74 10000 3.09 320 07:58 21.09.2022
146 Clouds 30 1009 66 10000 2.57 20 02:51 21.09.2022
147 Clouds 30 1009 66 10000 2.57 20 02:32 21.09.2022
148 Clouds 31 1008 66 10000 3.09 340 01:49 21.09.2022
149 Clouds 34 1006 49 10000 3.09 170 23:19 20.09.2022
150 Clouds 35 1007 46 10000 2.57 0 21:33 20.09.2022
151 Clouds 35 1008 49 10000 2.57 160 19:57 20.09.2022
152 Clouds 33 1011 58 10000 2.06 90 17:38 20.09.2022
153 Clear 30 1011 70 10000 1.03 160 14:53 20.09.2022
154 Clear 30 1011 70 10000 1.03 160 13:58 20.09.2022
155 Clear 25 1009 94 10000 1.54 70 10:41 20.09.2022
156 Clear 29 1009 74 10000 0 0 08:29 20.09.2022
157 Clear 26 1009 94 10000 0.51 270 07:27 20.09.2022
158 Clear 26 1010 94 10000 0 0 04:29 20.09.2022
159 Clouds 30 1008 62 10000 2.57 70 23:49 19.09.2022
160 Rain 34 1008 55 10000 2.57 190 22:29 19.09.2022
161 Clouds 33 1009 58 10000 3.09 90 20:59 19.09.2022
162 Clouds 33 1009 58 10000 3.09 90 20:39 19.09.2022
163 Clouds 32 1011 58 10000 2.06 50 18:41 19.09.2022
164 Clouds 29 1012 79 10000 2.06 150 15:56 19.09.2022
165 Clouds 25 1011 94 10000 0.51 350 13:39 19.09.2022
166 Clear 24 1009 94 10000 1.54 300 11:30 19.09.2022
167 Clear 24 1009 94 10000 1.03 0 09:20 19.09.2022
168 Clouds 24 1010 94 10000 1.03 0 08:20 19.09.2022
169 Clouds 25 1011 88 10000 2.57 260 02:31 19.09.2022
170 Rain 25 1009 83 10000 2.06 150 23:24 18.09.2022
171 Rain 25 1010 83 10000 2.06 140 21:47 18.09.2022
172 Rain 24 1010 94 9000 4.63 130 20:34 18.09.2022
173 Clouds 29 1011 79 10000 5.14 250 18:41 18.09.2022
174 Clouds 30 1012 70 10000 5.14 260 17:43 18.09.2022
175 Clouds 30 1013 70 10000 4.63 270 16:31 18.09.2022
176 Clouds 27 1011 83 10000 3.09 310 14:35 18.09.2022
177 Clouds 26 1011 83 10000 2.57 330 12:55 18.09.2022
178 Clouds 23 1010 94 10000 3.09 310 11:46 18.09.2022
179 Clear 28 1010 83 10000 2.57 320 06:30 18.09.2022
180 Rain 28 1009 78 10000 2.06 300 01:30 18.09.2022
181 Rain 28 1008 74 10000 3.6 260 00:42 18.09.2022
182 Rain 30 1007 70 10000 2.06 310 21:54 17.09.2022
183 Thunderstorm 30 1008 66 10000 3.09 0 20:48 17.09.2022
184 Clouds 34 1009 59 10000 3.6 180 19:19 17.09.2022
185 Clouds 33 1012 62 10000 3.6 0 17:19 17.09.2022
186 Clear 29 1012 79 10000 1.54 170 13:59 17.09.2022
187 Rain 26 1010 89 10000 1.03 80 12:29 17.09.2022
188 Rain 26 1010 94 10000 1.03 190 10:28 17.09.2022
189 Clear 27 1011 83 10000 1.03 160 06:28 17.09.2022
190 Clear 30 1010 70 10000 2.06 280 02:43 17.09.2022
191 Clear 32 1009 58 10000 1.03 0 23:23 16.09.2022
192 Clouds 33 1009 55 10000 2.57 200 21:33 16.09.2022
193 Clouds 33 1010 55 10000 2.57 200 20:41 16.09.2022
194 Clouds 31 1012 66 10000 3.09 80 18:18 16.09.2022
195 Clear 28 1013 78 10000 2.06 180 15:57 16.09.2022
196 Clear 27 1013 83 10000 2.06 180 14:32 16.09.2022
197 Clear 27 1011 83 10000 1.03 200 12:31 16.09.2022
198 Clouds 28 1011 74 10000 2.06 210 09:34 16.09.2022
199 Clear 27 1011 83 10000 1.03 230 07:21 16.09.2022
200 Clear 28 1012 83 10000 1.54 250 06:47 16.09.2022
201 Clear 28 1012 83 10000 1.03 240 04:42 16.09.2022
202 Clouds 33 1009 52 10000 2.57 70 23:50 15.09.2022
203 Clouds 36 1009 41 10000 5.14 350 21:24 15.09.2022
204 Clouds 35 1010 46 10000 5.14 70 20:25 15.09.2022
205 Clouds 34 1012 52 10000 3.6 80 18:53 15.09.2022
206 Clouds 34 1013 59 10000 5.66 70 17:33 15.09.2022
207 Clouds 34 1013 59 10000 5.66 70 16:54 15.09.2022
208 Clouds 29 1013 79 10000 1.54 100 14:42 15.09.2022
209 Clear 25 1012 94 10000 0 0 12:48 15.09.2022
210 Clear 25 1011 94 10000 0 0 10:34 15.09.2022
211 Clear 25 1011 94 10000 0 0 08:57 15.09.2022
212 Clear 29 1011 74 10000 3.09 60 04:24 15.09.2022
213 Clouds 30 1009 70 10000 1.54 80 01:57 15.09.2022
214 Clouds 34 1008 52 10000 2.57 360 22:26 14.09.2022
215 Clouds 33 1011 58 10000 4.12 360 19:59 14.09.2022
216 Clouds 33 1011 58 10000 3.09 360 19:26 14.09.2022
217 Clouds 33 1013 55 10000 2.57 20 17:25 14.09.2022
218 Clouds 32 1013 58 10000 2.06 0 15:56 14.09.2022
219 Clear 28 1013 78 10000 2.06 50 14:34 14.09.2022
220 Clear 24 1011 88 10000 0.51 130 11:40 14.09.2022
221 Clear 24 1010 94 10000 1.54 300 09:48 14.09.2022
222 Clear 25 1011 94 10000 1.03 0 07:39 14.09.2022
223 Clear 25 1012 88 10000 0 0 06:47 14.09.2022
224 Clear 27 1012 78 10000 2.06 70 04:33 14.09.2022
225 Clouds 28 1010 74 10000 2.06 50 01:48 14.09.2022
226 Clouds 28 1010 74 10000 2.06 50 01:27 14.09.2022
227 Clouds 28 1009 74 10000 1.54 90 00:50 14.09.2022
228 Clouds 30 1008 66 10000 1.54 80 23:54 13.09.2022
229 Clouds 30 1008 66 10000 1.54 80 23:36 13.09.2022
230 Clouds 30 1008 66 10000 1.54 80 23:18 13.09.2022
231 Clouds 30 1008 62 10000 1.54 90 22:20 13.09.2022
232 Clouds 29 1012 65 10000 1.54 360 19:52 13.09.2022
233 Clouds 30 1013 58 10000 2.06 230 18:18 13.09.2022
234 Clouds 28 1014 61 10000 2.57 310 15:55 13.09.2022
235 Clouds 24 1013 83 10000 3.6 340 14:36 13.09.2022
236 Clouds 24 1013 83 10000 3.6 340 14:36 13.09.2022
237 Clouds 24 1012 83 10000 3.6 340 13:20 13.09.2022
238 Rain 23 1011 94 10000 2.06 140 09:23 13.09.2022
239 Rain 27 1011 74 10000 3.09 60 06:24 13.09.2022
240 Clouds 30 1008 66 10000 3.09 320 00:22 13.09.2022
241 Rain 30 1007 70 10000 3.6 260 22:50 12.09.2022
242 Clouds 30 1007 70 10000 3.6 260 21:55 12.09.2022
243 Clouds 31 1008 58 10000 2.06 360 20:25 12.09.2022
244 Rain 32 1011 51 10000 3.09 310 18:44 12.09.2022
245 Clouds 30 1012 74 10000 4.63 300 16:38 12.09.2022
246 Clear 31 1012 62 10000 1.03 220 14:37 12.09.2022
247 Clear 27 1010 83 10000 0 0 11:30 12.09.2022
248 Clear 27 1010 83 10000 1.54 30 09:56 12.09.2022
249 Clear 31 1012 55 10000 2.57 350 04:51 12.09.2022
250 Clear 31 1012 55 10000 2.57 350 04:24 12.09.2022
251 Clouds 34 1008 46 10000 2.57 220 23:34 11.09.2022
252 Clouds 35 1009 43 10000 2.57 180 22:18 11.09.2022
253 Clouds 36 1010 41 10000 3.09 0 20:48 11.09.2022
254 Clouds 36 1010 41 10000 3.09 0 19:56 11.09.2022
255 Clouds 36 1012 38 10000 3.09 180 19:23 11.09.2022
256 Clouds 34 1013 43 10000 2.57 230 18:21 11.09.2022
257 Clear 33 1014 52 10000 1.54 0 16:36 11.09.2022
258 Clear 31 1014 62 10000 1.03 0 14:33 11.09.2022
259 Clear 26 1013 83 10000 0.51 290 12:42 11.09.2022
260 Clear 27 1013 89 10000 1.03 260 08:59 11.09.2022
261 Clear 25 1013 94 10000 0 0 07:18 11.09.2022
262 Clouds 31 1011 58 10000 1.54 70 00:50 11.09.2022
263 Clouds 33 1011 52 10000 1.03 140 22:55 10.09.2022
264 Clouds 35 1011 49 10000 2.06 10 21:25 10.09.2022
265 Clouds 35 1013 49 10000 4.12 10 19:47 10.09.2022
266 Clouds 35 1013 49 10000 4.12 10 19:29 10.09.2022
267 Clouds 35 1014 49 10000 4.12 10 18:54 10.09.2022
268 Clear 32 1015 58 10000 5.14 20 16:39 10.09.2022
269 Clear 28 1014 74 10000 2.06 200 14:42 10.09.2022
270 Clear 24 1012 88 10000 1.03 100 12:52 10.09.2022
271 Clear 25 1011 83 10000 1.54 30 10:58 10.09.2022
272 Clear 26 1011 78 10000 1.54 10 09:37 10.09.2022
273 Clear 25 1012 88 10000 1.03 320 08:36 10.09.2022
274 Clear 25 1013 83 10000 0.51 150 06:43 10.09.2022
275 Clouds 28 1010 61 10000 4.63 40 00:40 10.09.2022
276 Clouds 30 1010 58 10000 3.09 50 23:33 09.09.2022
277 Thunderstorm 31 1009 55 10000 5.66 70 22:18 09.09.2022
278 Clouds 33 1010 58 10000 3.6 50 20:46 09.09.2022
279 Clouds 34 1012 55 10000 2.57 50 19:24 09.09.2022
280 Clouds 33 1013 55 10000 4.63 40 18:46 09.09.2022
281 Clouds 31 1014 66 10000 1.54 180 16:23 09.09.2022
282 Clear 26 1012 83 10000 2.06 320 13:49 09.09.2022
283 Clear 26 1011 83 10000 1.54 300 12:30 09.09.2022
284 Clear 26 1010 83 10000 1.54 330 09:53 09.09.2022
285 Rain 26 1012 83 10000 0 0 04:57 09.09.2022
286 Clear 26 1011 89 10000 2.06 300 02:54 09.09.2022
287 Rain 26 1009 78 10000 1.54 20 21:52 08.09.2022
288 Rain 27 1010 78 10000 2.57 60 20:51 08.09.2022
289 Clouds 27 1010 78 10000 2.57 60 20:31 08.09.2022
290 Rain 26 1010 83 7000 3.6 40 19:49 08.09.2022
291 Clouds 33 1013 55 10000 2.06 0 17:48 08.09.2022
292 Clouds 30 1013 66 10000 2.06 200 16:19 08.09.2022
293 Clear 29 1012 65 10000 1.54 320 14:40 08.09.2022
294 Clear 27 1012 74 10000 2.57 340 13:23 08.09.2022
295 Clear 26 1010 78 10000 3.09 320 11:37 08.09.2022
296 Clear 26 1010 83 10000 3.09 340 10:48 08.09.2022
297 Clear 27 1011 78 10000 3.09 320 07:57 08.09.2022
298 Rain 28 1012 69 10000 2.06 340 06:41 08.09.2022
299 Clouds 29 1011 74 10000 2.57 350 02:36 08.09.2022
300 Clouds 29 1011 74 10000 2.57 350 02:18 08.09.2022
301 Clouds 30 1010 70 10000 1.54 280 00:27 08.09.2022
302 Clouds 32 1009 58 10000 2.06 270 22:36 07.09.2022
303 Clouds 33 1010 58 10000 2.06 0 21:41 07.09.2022
304 Clouds 32 1011 62 10000 1.54 0 20:38 07.09.2022
305 Clouds 32 1012 62 10000 2.57 10 19:30 07.09.2022
306 Clouds 30 1015 66 10000 4.12 40 17:22 07.09.2022
307 Clear 24 1014 83 10000 1.03 130 12:41 07.09.2022
308 Clear 24 1013 88 10000 1.03 110 10:45 07.09.2022
309 Clear 26 1013 78 10000 1.54 350 08:33 07.09.2022
310 Clear 25 1015 78 10000 2.06 70 06:51 07.09.2022
311 Clouds 26 1014 78 10000 2.57 0 01:50 07.09.2022
312 Clouds 31 1011 58 10000 5.14 350 22:35 06.09.2022
313 Clouds 34 1011 55 10000 2.57 160 21:38 06.09.2022
314 Clouds 33 1011 58 10000 2.06 180 19:57 06.09.2022
315 Clouds 32 1014 66 10000 3.09 160 18:42 06.09.2022
316 Clouds 32 1015 58 10000 2.06 220 17:51 06.09.2022
317 Clouds 30 1016 70 10000 3.09 210 16:53 06.09.2022
318 Clouds 30 1016 70 10000 3.09 210 16:26 06.09.2022
319 Clouds 28 1015 78 9000 2.57 270 14:54 06.09.2022
320 Clouds 26 1014 89 9000 2.57 240 13:44 06.09.2022
321 Clouds 26 1014 89 9000 2.57 240 13:44 06.09.2022
322 Clouds 26 1014 89 9000 2.57 240 13:20 06.09.2022
323 Clear 26 1013 83 10000 1.54 270 10:57 06.09.2022
324 Clear 27 1013 78 10000 2.57 250 09:56 06.09.2022
325 Clear 26 1010 83 10000 1.03 150 08:27 06.09.2022
326 Clouds 26 1014 83 10000 1.03 270 06:22 06.09.2022
327 Clouds 28 1011 74 10000 2.57 220 01:23 06.09.2022
328 Rain 30 1010 66 9000 2.06 160 23:19 05.09.2022
329 Rain 35 1010 49 10000 2.57 190 21:39 05.09.2022
330 Clouds 35 1011 49 10000 2.57 0 20:32 05.09.2022
331 Clouds 34 1012 55 10000 2.57 0 18:53 05.09.2022
332 Clouds 34 1013 55 10000 2.06 170 18:26 05.09.2022
333 Clouds 34 1013 55 10000 2.06 170 17:57 05.09.2022
334 Clouds 31 1014 66 9000 1.54 150 15:54 05.09.2022
335 Clouds 29 1014 70 8000 1.54 250 14:48 05.09.2022
336 Clear 26 1012 83 10000 1.54 20 12:53 05.09.2022
337 Clear 28 1012 74 10000 1.54 330 11:21 05.09.2022
338 Clear 27 1011 78 10000 1.54 340 08:58 05.09.2022
339 Clear 28 1012 78 10000 0.51 260 05:20 05.09.2022
340 Clear 29 1010 70 10000 1.03 70 01:19 05.09.2022
341 Clouds 33 1008 52 10000 4.12 70 22:29 04.09.2022
342 Clouds 33 1008 52 10000 4.12 70 21:59 04.09.2022
343 Clouds 35 1010 52 10000 2.06 210 20:35 04.09.2022
344 Clouds 34 1012 55 8000 2.06 330 18:39 04.09.2022
345 Clouds 32 1013 58 8000 3.09 60 17:43 04.09.2022
346 Clouds 30 1014 62 8000 3.09 30 16:24 04.09.2022
347 Clouds 27 1013 78 8000 3.6 40 14:25 04.09.2022
348 Mist 26 1011 83 10000 2.06 20 12:52 04.09.2022
349 Clear 26 1010 83 10000 2.06 30 11:28 04.09.2022
350 Clear 28 1010 74 10000 1.03 20 09:38 04.09.2022
351 Clear 28 1011 83 10000 2.06 70 06:35 04.09.2022
352 Clear 29 1010 74 10000 2.06 80 03:18 04.09.2022
353 Clouds 33 1008 55 10000 3.6 70 22:56 03.09.2022
354 Clouds 34 1009 52 10000 3.09 70 21:42 03.09.2022
355 Clouds 34 1009 52 10000 3.09 70 21:22 03.09.2022
356 Clouds 34 1012 49 10000 3.6 70 18:49 03.09.2022
357 Clouds 33 1013 55 10000 4.12 40 17:22 03.09.2022
358 Clear 31 1013 66 10000 2.06 40 15:54 03.09.2022
359 Clouds 29 1013 74 10000 2.57 70 14:42 03.09.2022
360 Clouds 28 1012 78 8000 1.54 70 13:50 03.09.2022
361 Clear 26 1011 89 10000 0.51 70 11:33 03.09.2022
362 Clear 27 1011 83 10000 1.03 350 09:36 03.09.2022
363 Clear 27 1012 89 10000 1.54 30 07:53 03.09.2022
364 Clear 27 1012 83 10000 1.03 140 04:51 03.09.2022
365 Clouds 29 1011 70 10000 1.03 80 02:40 03.09.2022
366 Clouds 30 1008 66 10000 2.06 70 23:44 02.09.2022
367 Clouds 33 1008 58 10000 4.12 10 22:21 02.09.2022
368 Clouds 34 1009 55 10000 2.06 0 20:42 02.09.2022
369 Clouds 33 1011 58 10000 2.57 190 19:47 02.09.2022
370 Clouds 32 1012 62 10000 3.09 150 18:50 02.09.2022
371 Clouds 32 1012 62 10000 3.09 150 18:25 02.09.2022
372 Clouds 30 1012 66 9000 2.06 210 17:24 02.09.2022
373 Clouds 29 1012 74 9000 3.09 240 16:31 02.09.2022
374 Clouds 27 1011 78 9000 1.54 10 13:32 02.09.2022
375 Clear 25 1010 88 10000 1.54 20 10:43 02.09.2022
376 Clear 26 1010 89 10000 2.57 20 09:42 02.09.2022
377 Clear 26 1009 83 10000 1.54 360 08:45 02.09.2022
378 Clear 35 1011 52 10000 3.09 340 06:46 02.09.2022
379 Clear 35 1011 52 10000 3.09 340 06:18 02.09.2022
380 Rain 28 1008 74 10000 1.03 0 23:19 01.09.2022
381 Clouds 27 1009 78 10000 2.06 180 21:47 01.09.2022
382 Thunderstorm 29 1008 70 10000 2.57 230 21:27 01.09.2022
383 Rain 29 1009 70 10000 3.6 280 20:52 01.09.2022
384 Rain 31 1010 55 10000 2.06 0 19:25 01.09.2022
385 Clouds 32 1011 58 10000 2.06 0 18:18 01.09.2022
386 Clouds 30 1012 70 10000 3.6 250 16:51 01.09.2022
387 Clouds 28 1012 78 8000 3.09 320 14:51 01.09.2022
388 Mist 27 1011 78 8000 2.57 330 13:21 01.09.2022
389 Mist 27 1010 78 10000 3.09 320 12:42 01.09.2022
390 Clear 27 1010 78 10000 1.54 340 11:50 01.09.2022
391 Clear 27 1010 78 10000 1.54 340 11:19 01.09.2022
392 Clear 26 1009 94 10000 1.03 170 09:20 01.09.2022
393 Clear 28 1011 69 10000 1.03 10 06:28 01.09.2022
394 Clouds 28 1010 69 10000 1.54 170 01:45 01.09.2022
395 Clouds 29 1009 70 10000 3.09 170 00:33 01.09.2022
396 Clouds 33 1009 49 10000 4.12 280 22:22 31.08.2022
397 Clouds 32 1011 58 10000 4.63 260 20:27 31.08.2022
398 Clouds 31 1013 66 10000 4.12 260 18:19 31.08.2022
399 Clouds 30 1015 74 10000 4.63 270 16:32 31.08.2022
400 Clouds 29 1015 74 10000 3.6 280 14:58 31.08.2022
401 Clouds 26 1013 94 7000 2.06 240 12:25 31.08.2022
402 Clear 27 1012 83 10000 2.06 230 11:38 31.08.2022
403 Clear 28 1012 78 10000 2.06 250 09:25 31.08.2022
404 Clear 28 1013 78 10000 2.06 260 06:19 31.08.2022
405 Clouds 33 1009 52 10000 1.03 150 23:25 30.08.2022
406 Clouds 34 1009 49 10000 3.6 180 21:49 30.08.2022
407 Clouds 34 1010 52 10000 2.57 220 20:59 30.08.2022
408 Clouds 32 1013 62 10000 2.06 0 18:52 30.08.2022
409 Clear 29 1014 79 10000 3.6 260 15:29 30.08.2022
410 Clear 27 1013 83 10000 2.06 300 13:25 30.08.2022
411 Clear 27 1012 83 10000 2.06 320 11:22 30.08.2022
412 Clear 27 1012 83 10000 2.06 320 10:57 30.08.2022
413 Clear 26 1013 83 10000 1.03 300 07:50 30.08.2022
414 Clear 28 1012 74 10000 1.03 90 02:55 30.08.2022
415 Clouds 32 1010 58 10000 1.54 270 23:22 29.08.2022
416 Clouds 33 1010 55 10000 2.57 280 22:28 29.08.2022
417 Clouds 33 1010 55 10000 2.57 190 21:26 29.08.2022
418 Clouds 32 1012 58 10000 2.57 270 19:54 29.08.2022
419 Clouds 29 1014 70 10000 2.57 240 17:54 29.08.2022
420 Clouds 29 1014 70 10000 2.57 240 17:25 29.08.2022
421 Clouds 28 1014 78 10000 2.57 280 16:40 29.08.2022
422 Clouds 27 1014 83 10000 1.54 270 14:47 29.08.2022
423 Clear 25 1013 94 10000 1.54 340 13:23 29.08.2022
424 Clear 23 1011 100 10000 1.54 240 11:20 29.08.2022
425 Clear 23 1011 100 10000 1.54 240 11:20 29.08.2022
426 Clouds 23 1011 94 10000 0 0 10:19 29.08.2022
427 Clear 23 1012 94 10000 1.54 60 08:37 29.08.2022
428 Clouds 26 1014 83 10000 3.09 340 05:35 29.08.2022
429 Rain 27 1010 74 10000 2.06 360 00:22 29.08.2022
430 Rain 28 1010 74 10000 2.06 30 22:41 28.08.2022
431 Clouds 27 1010 74 10000 2.57 270 21:44 28.08.2022
432 Clouds 24 1013 94 7000 2.57 170 20:55 28.08.2022
433 Rain 30 1013 70 10000 1.54 280 19:26 28.08.2022
434 Clouds 31 1014 70 10000 2.57 220 18:20 28.08.2022
435 Clouds 30 1015 70 10000 2.57 210 17:22 28.08.2022
436 Clouds 29 1015 70 10000 2.06 220 16:27 28.08.2022
437 Clouds 27 1014 78 10000 2.06 260 14:41 28.08.2022
438 Clouds 26 1012 89 10000 2.06 240 12:32 28.08.2022
439 Clear 26 1011 83 10000 1.03 220 10:43 28.08.2022
440 Clear 26 1011 83 10000 2.06 260 09:49 28.08.2022
441 Clear 26 1011 83 10000 2.06 250 08:37 28.08.2022
442 Clear 27 1012 78 10000 2.57 260 07:43 28.08.2022
443 Clouds 30 1009 66 10000 3.6 50 02:39 28.08.2022
444 Clouds 30 1008 66 10000 1.54 0 00:26 28.08.2022
445 Clouds 33 1007 55 10000 2.57 210 22:34 27.08.2022
446 Clouds 33 1008 55 10000 5.14 210 21:28 27.08.2022
447 Clouds 33 1011 52 10000 3.09 30 19:44 27.08.2022
448 Clouds 32 1014 58 10000 3.09 30 17:29 27.08.2022
449 Clear 30 1014 66 10000 2.57 50 15:53 27.08.2022
450 Clear 30 1014 66 10000 2.57 50 15:24 27.08.2022
451 Clear 25 1012 83 10000 1.54 10 12:23 27.08.2022
452 Clear 26 1012 83 10000 1.54 360 11:25 27.08.2022
453 Clear 25 1011 83 10000 1.54 20 09:48 27.08.2022
454 Clear 26 1012 83 10000 1.03 10 07:37 27.08.2022
455 Clouds 27 1011 74 10000 2.57 30 02:34 27.08.2022
456 Clouds 28 1009 69 10000 6.17 70 23:57 26.08.2022
457 Clouds 30 1009 66 10000 4.12 100 22:37 26.08.2022
458 Clouds 33 1011 55 10000 2.57 80 20:42 26.08.2022
459 Clouds 33 1012 55 10000 2.57 0 19:23 26.08.2022
460 Clouds 31 1015 66 10000 2.06 360 16:46 26.08.2022
461 Clouds 30 1015 74 10000 1.03 90 15:27 26.08.2022
462 Clouds 29 1015 79 10000 1.03 0 14:29 26.08.2022
463 Clouds 25 1013 94 9000 0.51 20 12:47 26.08.2022
464 Clear 26 1013 89 10000 1.03 320 11:27 26.08.2022
465 Clear 25 1013 94 10000 1.54 70 10:25 26.08.2022
466 Clear 26 1013 89 10000 0.51 320 07:28 26.08.2022
467 Clouds 29 1012 65 10000 4.12 340 01:28 26.08.2022
468 Clouds 30 1011 70 10000 1.54 290 23:30 25.08.2022
469 Clouds 31 1011 58 10000 2.06 120 21:27 25.08.2022
470 Rain 31 1012 62 10000 5.66 290 20:26 25.08.2022
471 Clouds 29 1014 74 10000 2.57 250 18:49 25.08.2022
472 Clouds 29 1015 70 10000 3.6 250 17:44 25.08.2022
473 Clouds 29 1015 70 10000 3.6 250 17:24 25.08.2022
474 Clouds 28 1015 74 10000 3.6 310 15:39 25.08.2022
475 Mist 27 1015 78 10000 3.6 320 14:33 25.08.2022
476 Clouds 26 1013 89 10000 2.57 330 11:52 25.08.2022
477 Clouds 26 1012 89 10000 2.57 320 10:46 25.08.2022
478 Thunderstorm 26 1013 83 10000 2.06 340 08:52 25.08.2022
479 Clear 28 1014 74 10000 3.09 340 05:19 25.08.2022
480 Clouds 30 1011 70 10000 3.09 270 00:30 25.08.2022
481 Clouds 31 1010 58 10000 3.6 220 23:25 24.08.2022
482 Clouds 32 1011 55 10000 3.09 240 22:21 24.08.2022
483 Clouds 32 1011 58 9000 3.09 200 21:33 24.08.2022
484 Clouds 31 1012 55 9000 3.6 250 20:24 24.08.2022
485 Clouds 30 1015 58 10000 2.06 0 18:39 24.08.2022
486 Clouds 30 1016 70 9000 2.06 340 16:23 24.08.2022
487 Clouds 26 1016 89 8000 2.06 320 15:48 24.08.2022
488 Mist 26 1014 78 5000 2.06 20 12:55 24.08.2022
489 Clear 26 1013 78 10000 3.09 350 11:22 24.08.2022
490 Clear 27 1012 78 10000 1.54 310 09:20 24.08.2022
491 Clear 28 1013 69 10000 1.54 250 07:43 24.08.2022
492 Clear 29 1011 65 10000 2.57 250 01:43 24.08.2022
493 Clouds 31 1010 58 10000 3.6 280 22:53 23.08.2022
494 Clouds 31 1010 58 10000 3.6 280 22:24 23.08.2022
495 Clouds 32 1010 55 10000 3.09 270 21:22 23.08.2022
496 Clouds 32 1012 51 9000 4.12 260 19:43 23.08.2022
497 Clouds 31 1014 62 8000 4.12 270 18:30 23.08.2022
498 Clouds 29 1014 65 7000 4.12 260 17:46 23.08.2022
499 Clouds 29 1014 65 7000 2.57 300 16:33 23.08.2022
500 Clouds 28 1015 69 6000 2.06 20 15:20 23.08.2022
501 Mist 25 1014 88 5000 2.06 30 13:25 23.08.2022
502 Clear 26 1012 78 10000 2.06 320 11:21 23.08.2022
503 Clear 26 1012 83 10000 2.57 310 10:35 23.08.2022
504 Clear 27 1012 78 10000 2.57 320 09:46 23.08.2022
505 Clear 27 1012 78 10000 2.06 300 08:48 23.08.2022
506 Clear 27 1012 78 10000 2.06 300 08:20 23.08.2022
507 Clear 28 1013 74 10000 2.57 300 07:33 23.08.2022
508 Clear 28 1011 69 10000 2.57 290 06:26 23.08.2022
509 Clouds 29 1012 65 8000 2.57 250 01:55 23.08.2022
510 Clouds 29 1012 65 8000 2.57 250 01:55 23.08.2022
511 Clouds 29 1011 65 8000 2.06 250 00:27 23.08.2022
512 Clouds 30 1010 58 8000 3.09 260 23:32 22.08.2022
513 Clouds 31 1010 55 10000 4.12 240 22:29 22.08.2022
514 Clouds 31 1011 55 10000 3.6 270 20:58 22.08.2022
515 Clouds 31 1012 58 10000 4.12 230 19:47 22.08.2022
516 Clouds 31 1013 58 10000 4.63 240 18:38 22.08.2022
517 Clouds 31 1013 58 10000 4.63 240 18:38 22.08.2022
518 Clouds 28 1015 69 8000 5.14 270 16:26 22.08.2022
519 Clouds 27 1015 74 8000 4.63 280 15:38 22.08.2022
520 Clear 25 1013 83 10000 3.09 310 12:57 22.08.2022
521 Clear 27 1013 74 10000 3.09 280 10:20 22.08.2022
522 Clear 27 1013 74 10000 2.57 270 07:40 22.08.2022
523 Clear 28 1014 69 10000 3.09 270 02:50 22.08.2022
524 Clear 28 1012 65 10000 2.57 250 00:37 22.08.2022
525 Clear 29 1012 58 10000 2.06 260 23:43 21.08.2022
526 Clear 29 1012 58 10000 2.57 280 21:57 21.08.2022
527 Clear 30 1012 54 10000 2.57 200 21:21 21.08.2022
528 Clear 29 1013 58 9000 2.57 200 20:21 21.08.2022
529 Clouds 27 1015 61 8000 3.09 180 18:59 21.08.2022
530 Clouds 26 1016 69 8000 3.09 170 16:52 21.08.2022
531 Clouds 25 1016 73 10000 3.6 160 15:52 21.08.2022
532 Clouds 24 1016 78 10000 3.6 160 14:57 21.08.2022
533 Clouds 24 1015 78 10000 3.6 170 13:51 21.08.2022
534 Clouds 24 1014 83 10000 3.6 180 12:56 21.08.2022
535 Clear 25 1013 83 10000 4.12 190 10:41 21.08.2022
536 Clear 25 1013 83 10000 4.12 190 09:21 21.08.2022
537 Clear 25 1013 83 10000 2.57 230 08:46 21.08.2022
538 Clear 25 1013 83 10000 2.57 230 08:28 21.08.2022
539 Clouds 25 1014 83 10000 3.6 170 06:37 21.08.2022
540 Clouds 27 1012 78 9000 3.09 190 01:50 21.08.2022
541 Clouds 28 1011 74 6000 3.09 190 23:35 20.08.2022
542 Clouds 28 1011 74 6000 3.6 240 21:57 20.08.2022
543 Clouds 29 1012 65 6000 3.6 210 20:56 20.08.2022
544 Clouds 28 1012 69 7000 2.06 0 19:44 20.08.2022
545 Clouds 29 1013 65 7000 3.09 190 18:50 20.08.2022
546 Clouds 29 1013 65 7000 3.09 190 18:26 20.08.2022
547 Clouds 28 1014 69 6000 2.57 170 17:21 20.08.2022
548 Clouds 27 1015 74 6000 4.12 160 16:20 20.08.2022
549 Mist 26 1014 78 5000 3.6 160 14:26 20.08.2022
550 Clouds 25 1013 94 10000 3.09 210 11:58 20.08.2022
551 Clouds 25 1013 94 10000 3.09 210 11:58 20.08.2022
552 Clouds 25 1012 94 3000 3.09 210 11:37 20.08.2022
553 Clouds 26 1011 83 10000 3.09 140 09:20 20.08.2022
554 Clouds 27 1012 78 10000 3.6 140 07:31 20.08.2022
555 Clouds 28 1012 78 10000 2.06 130 05:22 20.08.2022
556 Clear 30 1009 66 10000 3.09 70 00:58 20.08.2022
557 Clouds 31 1008 62 10000 5.14 70 23:45 19.08.2022
558 Clouds 32 1009 58 10000 5.66 80 22:45 19.08.2022
559 Clouds 33 1009 55 10000 4.63 80 21:20 19.08.2022
560 Clouds 33 1011 55 10000 5.66 60 19:22 19.08.2022
561 Clear 31 1013 66 10000 4.12 20 16:23 19.08.2022
562 Clear 27 1012 78 10000 2.06 50 13:56 19.08.2022
563 Clear 27 1011 83 10000 1.54 50 11:51 19.08.2022
564 Clear 27 1010 78 10000 2.06 30 10:33 19.08.2022
565 Clear 28 1011 78 10000 2.06 40 08:43 19.08.2022
566 Clear 28 1012 78 10000 2.06 80 04:43 19.08.2022
567 Clouds 31 1009 62 10000 3.09 80 00:42 19.08.2022
568 Clouds 31 1009 62 10000 3.09 80 00:19 19.08.2022
569 Clouds 34 1008 52 10000 4.63 70 22:57 18.08.2022
570 Clouds 34 1008 52 10000 4.12 50 22:23 18.08.2022
571 Clouds 34 1008 52 10000 4.12 60 21:49 18.08.2022
572 Clouds 34 1009 52 10000 3.6 50 20:47 18.08.2022
573 Clouds 34 1010 52 10000 3.09 70 19:35 18.08.2022
574 Clouds 34 1011 52 10000 3.09 70 18:43 18.08.2022
575 Clouds 32 1011 62 10000 2.06 190 17:32 18.08.2022
576 Clear 31 1012 62 10000 2.57 310 15:51 18.08.2022
577 Clear 29 1012 70 10000 1.54 330 14:21 18.08.2022
578 Clear 27 1011 78 10000 2.06 310 13:44 18.08.2022
579 Clear 27 1010 78 10000 2.57 340 12:28 18.08.2022
580 Clear 27 1010 78 10000 3.09 330 11:18 18.08.2022
581 Clear 29 1010 70 10000 2.06 340 09:43 18.08.2022
582 Clear 28 1011 83 10000 1.03 270 07:27 18.08.2022
583 Clear 28 1011 78 10000 2.06 300 05:33 18.08.2022
584 Clear 31 1008 62 10000 2.06 90 00:45 18.08.2022
585 Clouds 34 1008 49 10000 1.54 140 22:28 17.08.2022
586 Clouds 34 1009 46 10000 2.57 0 20:21 17.08.2022
587 Clouds 34 1009 46 10000 2.57 0 20:21 17.08.2022
588 Clouds 35 1011 46 10000 2.06 0 19:33 17.08.2022
589 Clouds 34 1012 49 10000 3.6 80 18:32 17.08.2022
590 Clear 30 1013 66 10000 2.06 220 16:50 17.08.2022
591 Clear 30 1013 66 10000 2.06 250 15:31 17.08.2022
592 Clear 29 1012 65 10000 1.03 280 14:18 17.08.2022
593 Clear 25 1010 88 10000 0.51 240 11:45 17.08.2022
594 Clear 26 1010 78 10000 0 0 10:25 17.08.2022
595 Clear 26 1010 78 10000 0 0 10:25 17.08.2022
596 Clear 27 1011 78 10000 1.03 30 08:25 17.08.2022
597 Clear 29 1011 65 10000 2.06 330 04:20 17.08.2022
598 Clouds 31 1009 62 10000 3.6 70 00:46 17.08.2022
599 Clouds 32 1008 55 10000 4.63 70 22:53 16.08.2022
600 Clouds 32 1009 58 10000 2.57 0 20:59 16.08.2022
601 Clouds 34 1010 55 10000 2.06 80 19:55 16.08.2022
602 Clouds 33 1011 55 10000 1.54 80 19:22 16.08.2022
603 Clouds 33 1013 55 10000 3.09 10 17:54 16.08.2022
604 Clouds 31 1013 62 10000 3.6 0 16:35 16.08.2022
605 Clear 30 1013 66 10000 2.57 60 15:39 16.08.2022
606 Clear 28 1012 69 10000 2.06 80 14:43 16.08.2022
607 Clear 28 1012 69 10000 2.06 80 14:25 16.08.2022
608 Clear 26 1010 73 10000 1.54 40 11:39 16.08.2022
609 Clear 25 1010 83 10000 2.06 360 09:58 16.08.2022
610 Clear 25 1011 83 10000 1.03 10 08:49 16.08.2022
611 Clear 25 1011 83 10000 1.03 10 08:19 16.08.2022
612 Clouds 26 1012 89 10000 0.51 40 05:28 16.08.2022
613 Clouds 29 1009 65 10000 2.57 240 23:18 15.08.2022
614 Thunderstorm 29 1010 61 10000 5.14 360 22:18 15.08.2022
615 Clouds 32 1010 58 10000 3.09 340 21:41 15.08.2022
616 Clouds 32 1011 58 10000 3.09 340 20:30 15.08.2022
617 Clouds 31 1012 62 10000 4.12 360 18:56 15.08.2022
618 Clouds 32 1012 58 10000 3.6 360 17:56 15.08.2022
619 Clouds 30 1013 66 10000 3.6 20 16:23 15.08.2022
620 Clear 28 1012 74 10000 1.03 60 14:40 15.08.2022
621 Clear 25 1012 88 10000 1.54 30 13:19 15.08.2022
622 Clear 25 1012 83 10000 10.8 220 10:36 15.08.2022
623 Clear 25 1012 78 10000 1.03 30 08:53 15.08.2022
624 Clear 24 1014 83 10000 0.51 180 06:49 15.08.2022
625 Clear 25 1014 83 10000 1.03 320 03:56 15.08.2022
626 Rain 27 1011 74 10000 1.54 90 23:38 14.08.2022
627 Rain 26 1011 73 10000 4.63 40 21:48 14.08.2022
628 Rain 32 1012 62 10000 3.09 190 20:41 14.08.2022
629 Clouds 31 1013 62 10000 2.57 0 19:45 14.08.2022
630 Rain 31 1014 62 10000 2.57 0 18:32 14.08.2022
631 Clouds 28 1015 69 10000 1.54 360 17:37 14.08.2022
632 Clouds 28 1015 69 10000 3.6 60 16:23 14.08.2022
633 Clouds 29 1015 65 10000 2.57 70 15:34 14.08.2022
634 Clouds 26 1014 83 10000 1.54 280 13:51 14.08.2022
635 Clouds 26 1014 83 10000 1.54 280 13:31 14.08.2022
636 Clear 25 1013 94 10000 2.06 240 12:45 14.08.2022
637 Clear 25 1013 94 10000 1.03 250 11:30 14.08.2022
638 Clouds 26 1013 78 10000 1.03 30 09:34 14.08.2022
639 Clear 27 1014 74 10000 2.06 10 06:53 14.08.2022
640 Clouds 27 1014 74 10000 2.06 20 05:45 14.08.2022
641 Clouds 29 1012 70 10000 1.03 0 01:43 14.08.2022
642 Clouds 30 1011 66 10000 2.57 70 23:22 13.08.2022
643 Clouds 32 1011 58 10000 4.12 70 22:28 13.08.2022
644 Clouds 31 1013 62 10000 2.57 210 20:51 13.08.2022
645 Clouds 30 1014 66 10000 2.57 0 19:49 13.08.2022
646 Clouds 30 1014 66 10000 2.57 0 19:18 13.08.2022
647 Clouds 29 1016 65 10000 2.06 50 17:21 13.08.2022
648 Rain 25 1016 78 10000 1.54 0 14:50 13.08.2022
649 Clear 26 1014 89 10000 1.54 310 13:50 13.08.2022
650 Clear 26 1014 89 10000 1.54 310 13:50 13.08.2022
651 Clear 26 1014 89 10000 1.54 310 13:28 13.08.2022
652 Clear 26 1013 94 10000 1.03 30 11:33 13.08.2022
653 Clear 27 1012 89 10000 2.06 250 09:26 13.08.2022
654 Clear 26 1014 83 10000 1.03 130 06:54 13.08.2022
655 Clouds 28 1012 69 10000 1.03 140 01:52 13.08.2022
656 Clouds 30 1011 62 10000 3.09 130 23:32 12.08.2022
657 Clouds 31 1011 58 10000 5.14 130 21:39 12.08.2022
658 Clouds 32 1013 58 10000 2.57 190 19:48 12.08.2022
659 Clouds 32 1013 58 10000 2.57 190 19:23 12.08.2022
660 Clouds 31 1014 58 10000 3.6 150 18:26 12.08.2022
661 Clouds 30 1015 70 10000 3.6 160 16:27 12.08.2022
662 Clear 29 1015 70 10000 3.09 160 15:19 12.08.2022
663 Clear 27 1014 83 10000 1.54 230 13:43 12.08.2022
664 Clear 26 1014 83 10000 1.54 160 12:32 12.08.2022
665 Clear 27 1013 83 10000 1.54 180 08:52 12.08.2022
666 Clear 27 1014 83 10000 1.54 160 07:45 12.08.2022
667 Clear 27 1014 83 10000 1.54 160 06:21 12.08.2022
668 Clouds 30 1011 66 10000 2.06 110 00:32 12.08.2022
669 Clouds 30 1011 66 10000 3.09 170 23:55 11.08.2022
670 Clouds 32 1011 55 10000 3.09 170 23:22 11.08.2022
671 Clouds 33 1011 55 10000 2.57 190 21:53 11.08.2022
672 Clouds 33 1011 55 10000 2.57 190 21:28 11.08.2022
673 Clouds 32 1012 58 10000 2.57 0 20:30 11.08.2022
674 Clouds 31 1013 62 10000 3.6 200 19:33 11.08.2022
675 Clouds 31 1013 62 10000 2.06 170 18:56 11.08.2022
676 Clear 29 1015 65 10000 3.6 130 16:47 11.08.2022
677 Clouds 28 1015 74 10000 3.6 140 15:43 11.08.2022
678 Clouds 27 1015 78 10000 3.09 160 14:36 11.08.2022
679 Clear 25 1013 88 10000 2.06 180 11:56 11.08.2022
680 Clear 26 1013 83 10000 2.06 120 09:22 11.08.2022
681 Clouds 28 1014 78 10000 3.09 170 06:49 11.08.2022
682 Clouds 28 1012 65 10000 1.54 80 02:38 11.08.2022
683 Clouds 33 1011 49 10000 3.6 70 23:41 10.08.2022
684 Clouds 33 1011 55 10000 5.14 90 21:47 10.08.2022
685 Clouds 33 1012 55 10000 5.66 70 20:56 10.08.2022
686 Clouds 33 1012 55 10000 5.66 70 20:27 10.08.2022
687 Clouds 32 1014 62 10000 3.09 80 18:48 10.08.2022
688 Clouds 30 1015 70 10000 3.6 60 17:27 10.08.2022
689 Clear 27 1016 78 10000 2.06 90 14:36 10.08.2022
690 Clear 26 1015 83 10000 1.03 160 13:32 10.08.2022
691 Clear 24 1013 88 10000 2.06 90 10:47 10.08.2022
692 Clouds 25 1013 83 10000 1.54 80 08:37 10.08.2022
693 Clouds 26 1013 78 10000 4.12 120 07:23 10.08.2022
694 Clouds 29 1013 70 10000 2.06 80 04:50 10.08.2022
695 Clouds 31 1011 58 10000 3.6 70 00:50 10.08.2022
696 Clouds 33 1010 52 10000 4.12 70 23:29 09.08.2022
697 Clouds 34 1010 55 10000 5.14 70 21:41 09.08.2022
698 Clouds 34 1010 55 10000 5.14 70 21:22 09.08.2022
699 Clouds 33 1013 62 10000 4.63 80 18:56 09.08.2022
700 Clouds 31 1014 66 10000 3.6 70 17:31 09.08.2022
701 Clouds 30 1014 74 10000 3.09 80 16:46 09.08.2022
702 Clouds 30 1014 74 10000 3.09 80 15:59 09.08.2022
703 Clear 30 1013 66 10000 1.54 360 14:43 09.08.2022
704 Clear 26 1011 83 10000 1.54 80 11:29 09.08.2022
705 Clear 27 1011 74 10000 1.54 40 08:52 09.08.2022
706 Clear 27 1011 74 10000 1.54 40 07:57 09.08.2022
707 Clear 27 1011 78 10000 1.03 80 04:49 09.08.2022
708 Clouds 31 1009 58 10000 4.63 70 00:36 09.08.2022
709 Clouds 33 1008 52 10000 4.12 90 23:24 08.08.2022
710 Clouds 34 1008 49 10000 3.6 70 22:38 08.08.2022
711 Clouds 34 1009 52 10000 3.6 80 21:40 08.08.2022
712 Clouds 33 1011 55 10000 4.12 40 19:58 08.08.2022
713 Clouds 33 1011 55 10000 4.12 40 19:31 08.08.2022
714 Clouds 32 1012 62 10000 4.63 30 17:56 08.08.2022
715 Clear 30 1013 70 10000 4.63 40 15:47 08.08.2022
716 Clear 28 1012 78 10000 2.57 50 14:46 08.08.2022
717 Clear 24 1011 88 10000 1.03 100 12:30 08.08.2022
718 Clear 27 1010 69 10000 2.06 80 10:25 08.08.2022
719 Clear 27 1011 74 10000 2.57 70 07:49 08.08.2022
720 Clear 28 1011 74 10000 1.54 80 03:39 08.08.2022
721 Clouds 33 1008 52 10000 2.06 80 22:52 07.08.2022
722 Clouds 34 1008 49 10000 3.6 30 21:41 07.08.2022
723 Clouds 34 1008 49 10000 3.6 10 20:55 07.08.2022
724 Rain 34 1009 49 10000 3.6 10 20:18 07.08.2022
725 Rain 34 1010 49 10000 3.6 350 19:50 07.08.2022
726 Clouds 33 1012 52 10000 4.63 10 18:41 07.08.2022
727 Clouds 33 1012 49 10000 5.14 30 17:21 07.08.2022
728 Clear 31 1013 58 10000 4.12 10 16:41 07.08.2022
729 Clear 30 1013 62 10000 3.6 50 15:26 07.08.2022
730 Clear 27 1011 74 10000 3.09 60 13:47 07.08.2022
731 Clear 26 1011 78 10000 2.57 40 12:19 07.08.2022
732 Clear 26 1010 78 10000 1.54 10 10:42 07.08.2022
733 Clear 26 1010 78 10000 2.57 40 09:35 07.08.2022
734 Clear 28 1011 78 10000 1.54 80 04:33 07.08.2022
735 Clear 30 1009 70 10000 2.06 80 01:58 07.08.2022
736 Clouds 33 1008 55 10000 3.6 40 22:30 06.08.2022
737 Clouds 34 1008 52 10000 2.57 10 21:43 06.08.2022
738 Clouds 33 1010 55 10000 3.6 20 19:42 06.08.2022
739 Clouds 33 1011 55 10000 4.12 30 18:33 06.08.2022
740 Clouds 32 1012 58 10000 6.17 40 17:39 06.08.2022
741 Clear 30 1012 62 10000 3.6 60 15:21 06.08.2022
742 Clear 27 1011 74 10000 2.06 50 13:50 06.08.2022
743 Clear 26 1011 78 10000 1.54 40 12:21 06.08.2022
744 Clear 26 1009 78 10000 1.54 70 10:37 06.08.2022
745 Clear 26 1010 78 10000 1.54 50 09:21 06.08.2022
746 Clear 28 1010 74 10000 2.06 80 03:55 06.08.2022
747 Clouds 31 1007 62 10000 4.63 10 23:56 05.08.2022
748 Clouds 32 1007 58 10000 2.06 10 22:34 05.08.2022
749 Clouds 34 1009 52 10000 3.6 30 20:30 05.08.2022
750 Clouds 33 1010 55 10000 3.6 40 18:53 05.08.2022
751 Clouds 33 1011 58 10000 3.6 40 18:35 05.08.2022
752 Clear 32 1012 55 10000 4.63 10 16:51 05.08.2022
753 Clear 30 1012 62 10000 3.6 70 15:23 05.08.2022
754 Clear 29 1012 65 10000 2.57 50 14:34 05.08.2022
755 Clear 27 1011 74 10000 2.57 40 13:26 05.08.2022
756 Clear 25 1010 83 10000 2.06 50 12:45 05.08.2022
757 Clear 25 1010 83 10000 2.06 50 10:59 05.08.2022
758 Clear 26 1010 83 10000 1.54 50 08:45 05.08.2022
759 Clear 27 1011 74 10000 2.06 80 07:28 05.08.2022
760 Clouds 27 1008 78 10000 3.09 70 01:52 05.08.2022
761 Clouds 33 1008 55 10000 3.6 10 22:40 04.08.2022
762 Clouds 32 1009 55 10000 3.09 30 21:27 04.08.2022
763 Clouds 34 1009 49 10000 4.12 360 20:45 04.08.2022
764 Clouds 34 1009 49 10000 4.12 30 19:58 04.08.2022
765 Clouds 33 1011 52 10000 5.66 40 18:52 04.08.2022
766 Clouds 33 1011 52 10000 5.66 40 18:32 04.08.2022
767 Clouds 28 1012 74 10000 2.06 30 14:45 04.08.2022
768 Clear 26 1011 83 10000 1.03 20 13:22 04.08.2022
769 Clear 25 1010 88 10000 1.03 360 11:37 04.08.2022
770 Clear 26 1011 83 10000 2.06 10 07:56 04.08.2022
771 Clear 26 1011 83 10000 2.06 10 07:31 04.08.2022
772 Clear 28 1010 74 10000 2.06 40 02:42 04.08.2022
773 Clouds 30 1008 70 10000 1.54 350 23:52 03.08.2022
774 Clouds 30 1008 70 10000 1.54 350 23:33 03.08.2022
775 Clouds 32 1008 58 10000 4.12 60 21:26 03.08.2022
776 Clouds 32 1009 62 10000 3.6 30 19:56 03.08.2022
777 Clouds 33 1012 62 10000 3.6 40 18:40 03.08.2022
778 Clear 30 1013 70 10000 3.09 40 16:27 03.08.2022
779 Clear 30 1013 70 10000 3.09 60 15:53 03.08.2022
780 Clouds 25 1011 83 10000 1.54 40 13:32 03.08.2022
781 Clear 25 1010 83 10000 2.06 30 09:55 03.08.2022
782 Rain 27 1011 78 10000 2.06 70 06:46 03.08.2022
783 Clear 28 1011 78 10000 3.09 80 04:22 03.08.2022
784 Clouds 28 1010 74 10000 2.57 70 02:35 03.08.2022
785 Clouds 30 1008 66 10000 4.12 80 23:54 02.08.2022
786 Clouds 30 1009 66 10000 2.57 120 21:59 02.08.2022
787 Clouds 30 1009 66 10000 2.57 120 21:41 02.08.2022
788 Rain 31 1010 62 10000 2.06 80 20:27 02.08.2022
789 Clouds 29 1013 74 10000 2.06 70 16:52 02.08.2022
790 Clouds 26 1012 83 10000 2.06 60 14:33 02.08.2022
791 Clouds 25 1011 88 10000 0 0 10:44 02.08.2022
792 Clouds 25 1011 88 10000 1.03 320 08:36 02.08.2022
793 Clouds 26 1012 83 10000 2.06 350 07:51 02.08.2022
794 Clouds 26 1012 89 10000 5.14 10 04:56 02.08.2022
795 Clouds 27 1010 83 10000 1.03 340 02:30 02.08.2022
796 Clouds 30 1009 70 10000 2.57 50 23:25 01.08.2022
797 Clouds 32 1009 62 10000 1.03 90 21:42 01.08.2022
798 Rain 32 1010 58 10000 2.57 340 20:19 01.08.2022
799 Clouds 31 1013 66 10000 4.12 60 18:55 01.08.2022
800 Clouds 29 1014 70 10000 2.06 70 16:58 01.08.2022
801 Clouds 29 1014 70 10000 2.06 70 16:39 01.08.2022
802 Clouds 28 1014 78 10000 2.57 50 15:44 01.08.2022
803 Clouds 28 1014 78 10000 2.57 50 14:57 01.08.2022
804 Clouds 26 1013 83 10000 1.54 70 13:32 01.08.2022
805 Clear 25 1012 88 10000 1.54 40 11:18 01.08.2022
806 Clear 26 1011 83 10000 1.54 60 08:55 01.08.2022
807 Clear 26 1012 83 10000 3.09 30 07:23 01.08.2022
808 Clear 27 1012 83 10000 2.06 50 04:32 01.08.2022
809 Clouds 28 1010 74 10000 1.54 70 01:33 01.08.2022
810 Rain 30 1010 70 10000 1.54 220 22:47 31.07.2022
811 Clouds 30 1010 70 10000 1.54 220 22:29 31.07.2022
812 Rain 29 1012 74 10000 1.54 80 20:39 31.07.2022
813 Clouds 32 1014 66 10000 3.6 350 18:40 31.07.2022
814 Clouds 31 1014 58 10000 2.06 20 16:55 31.07.2022
815 Clear 27 1014 78 10000 3.09 30 14:38 31.07.2022
816 Rain 25 1013 88 10000 3.09 20 12:58 31.07.2022
817 Clear 25 1012 94 10000 2.57 40 11:39 31.07.2022
818 Clear 25 1013 94 10000 1.54 360 08:47 31.07.2022
819 Clouds 26 1014 89 10000 2.06 90 05:38 31.07.2022
820 Clouds 28 1012 65 7000 2.06 320 01:21 31.07.2022
821 Clouds 29 1011 70 7000 4.12 260 22:46 30.07.2022
822 Clouds 30 1011 62 6000 4.63 260 21:52 30.07.2022
823 Clouds 30 1011 62 6000 4.63 260 21:33 30.07.2022
824 Haze 30 1012 62 5000 4.12 250 20:33 30.07.2022
825 Clouds 29 1013 70 7000 2.57 240 19:50 30.07.2022
826 Clouds 27 1014 78 6000 2.57 240 17:53 30.07.2022
827 Clouds 26 1015 83 8000 2.57 10 16:38 30.07.2022
828 Clouds 25 1014 88 9000 0 0 15:30 30.07.2022
829 Clouds 23 1013 94 4000 4.12 360 13:23 30.07.2022
830 Clouds 23 1013 94 5000 3.09 20 12:22 30.07.2022
831 Clouds 23 1013 100 6000 3.09 40 11:51 30.07.2022
832 Clouds 23 1013 100 3000 2.06 0 10:19 30.07.2022
833 Clear 26 1012 83 10000 2.06 300 08:54 30.07.2022
834 Clear 26 1013 83 10000 3.6 350 06:58 30.07.2022
835 Clouds 27 1012 78 10000 3.09 30 02:33 30.07.2022
836 Clouds 27 1011 78 10000 1.54 360 23:57 29.07.2022
837 Clouds 27 1011 74 10000 2.06 0 21:37 29.07.2022
838 Clouds 28 1011 65 10000 2.57 250 20:50 29.07.2022
839 Clouds 27 1013 69 10000 3.6 250 19:45 29.07.2022
840 Clouds 30 1014 66 10000 1.54 190 16:59 29.07.2022
841 Clouds 28 1013 78 10000 0 0 14:48 29.07.2022
842 Clouds 26 1012 89 10000 1.03 20 12:42 29.07.2022
843 Clear 28 1011 69 10000 1.54 360 08:52 29.07.2022
844 Clear 28 1011 69 10000 1.54 360 08:23 29.07.2022
845 Clear 29 1012 61 10000 2.06 40 05:19 29.07.2022
846 Clouds 31 1009 62 10000 1.03 160 23:59 28.07.2022
847 Clouds 33 1010 49 10000 2.57 130 21:39 28.07.2022
848 Clouds 33 1011 52 10000 2.57 60 20:54 28.07.2022
849 Clouds 33 1011 52 10000 2.57 60 20:18 28.07.2022
850 Clouds 33 1012 55 10000 3.09 210 19:40 28.07.2022
851 Clouds 32 1013 58 10000 2.57 180 18:19 28.07.2022
852 Clouds 30 1013 70 10000 2.06 0 17:36 28.07.2022
853 Clear 29 1013 74 10000 3.09 240 16:41 28.07.2022
854 Clear 26 1012 83 10000 3.09 350 13:57 28.07.2022
855 Clear 26 1011 78 10000 3.09 340 12:40 28.07.2022
856 Clear 26 1011 78 10000 1.54 360 09:21 28.07.2022
857 Clear 27 1013 78 10000 1.54 20 05:41 28.07.2022
858 Clear 27 1013 78 10000 1.54 20 05:21 28.07.2022
859 Clouds 31 1009 62 10000 3.6 110 23:41 27.07.2022
860 Clouds 33 1010 58 10000 5.66 80 21:31 27.07.2022
861 Clouds 33 1011 55 10000 4.12 70 20:19 27.07.2022
862 Clouds 33 1012 55 10000 4.63 70 19:26 27.07.2022
863 Clear 30 1014 70 10000 2.57 240 16:32 27.07.2022
864 Clear 29 1014 74 10000 2.06 240 15:51 27.07.2022
865 Clear 28 1013 74 10000 2.57 360 14:42 27.07.2022
866 Clear 27 1013 78 10000 2.06 320 13:45 27.07.2022
867 Clear 26 1012 83 10000 1.54 260 10:39 27.07.2022
868 Clouds 28 1013 74 10000 1.03 320 07:53 27.07.2022
869 Clouds 29 1013 70 10000 1.54 30 04:54 27.07.2022
870 Clouds 33 1009 55 10000 4.12 80 23:25 26.07.2022
871 Clouds 33 1009 55 10000 4.63 90 21:52 26.07.2022
872 Clouds 33 1009 55 10000 4.12 80 20:58 26.07.2022
873 Clouds 33 1012 55 10000 2.57 190 19:32 26.07.2022
874 Clouds 34 1013 55 10000 2.57 210 18:40 26.07.2022
875 Clouds 34 1013 55 10000 2.57 210 17:54 26.07.2022
876 Clear 30 1014 66 10000 1.54 300 15:43 26.07.2022
877 Clear 30 1013 66 10000 2.06 300 14:43 26.07.2022
878 Clear 26 1012 83 10000 0.51 30 12:32 26.07.2022
879 Clear 28 1011 74 10000 2.06 340 09:59 26.07.2022
880 Clear 27 1011 78 10000 2.06 20 08:27 26.07.2022
881 Clouds 28 1009 74 10000 1.03 70 01:52 26.07.2022
882 Clouds 28 1009 74 10000 1.03 70 01:52 26.07.2022
883 Clouds 30 1009 70 10000 2.57 80 00:19 26.07.2022
884 Clouds 33 1009 55 10000 2.06 140 22:40 25.07.2022
885 Clouds 33 1009 55 10000 2.06 140 22:40 25.07.2022
886 Clouds 32 1010 58 10000 4.63 80 21:43 25.07.2022
887 Clouds 34 1011 52 10000 3.09 90 20:43 25.07.2022
888 Clouds 34 1011 52 10000 3.09 90 20:23 25.07.2022
889 Clouds 33 1012 52 10000 2.06 230 19:24 25.07.2022
890 Clouds 32 1014 58 10000 1.54 0 17:37 25.07.2022
891 Clouds 32 1014 62 10000 1.54 0 16:44 25.07.2022
892 Clear 27 1013 78 10000 1.03 20 13:22 25.07.2022
893 Clear 26 1011 83 10000 0.51 40 10:48 25.07.2022
894 Clear 27 1012 78 10000 0.51 10 07:32 25.07.2022
895 Clouds 30 1009 62 10000 3.09 80 00:38 25.07.2022
896 Clouds 31 1009 58 10000 4.63 70 23:45 24.07.2022
897 Clouds 33 1009 52 10000 3.09 70 22:44 24.07.2022
898 Clouds 33 1009 55 10000 2.57 80 21:41 24.07.2022
899 Clouds 33 1011 55 10000 2.06 70 20:58 24.07.2022
900 Clouds 33 1011 55 10000 2.06 70 20:37 24.07.2022
901 Clouds 33 1011 55 10000 2.57 60 19:18 24.07.2022
902 Clouds 33 1012 52 10000 2.57 20 17:56 24.07.2022
903 Clear 32 1013 58 10000 3.09 360 15:54 24.07.2022
904 Clear 27 1012 78 10000 2.57 20 14:41 24.07.2022
905 Clear 26 1011 83 10000 2.57 10 13:47 24.07.2022
906 Clear 26 1011 83 10000 2.06 350 12:27 24.07.2022
907 Clear 26 1010 83 10000 1.03 340 11:30 24.07.2022
908 Clear 27 1010 83 10000 1.03 10 09:44 24.07.2022
909 Clear 26 1011 89 10000 1.03 270 07:53 24.07.2022
910 Clear 26 1011 89 10000 1.03 270 07:26 24.07.2022
911 Clear 27 1010 78 10000 1.03 80 02:52 24.07.2022
912 Clouds 30 1009 62 10000 3.09 90 22:45 23.07.2022
913 Clouds 32 1010 66 10000 3.6 90 20:47 23.07.2022
914 Clouds 30 1011 70 10000 3.09 50 18:59 23.07.2022
915 Clouds 30 1012 66 10000 2.57 120 17:58 23.07.2022
916 Clouds 29 1013 74 10000 2.06 10 17:25 23.07.2022
917 Clear 29 1013 74 10000 1.03 0 16:21 23.07.2022
918 Clear 28 1013 78 10000 1.03 0 15:21 23.07.2022
919 Clear 27 1012 78 10000 1.03 0 14:50 23.07.2022
920 Clear 25 1011 88 10000 1.54 20 13:58 23.07.2022
921 Clear 25 1010 83 10000 1.03 360 11:48 23.07.2022
922 Clear 26 1010 83 10000 1.03 320 10:36 23.07.2022
923 Clear 25 1010 83 10000 1.54 20 09:34 23.07.2022
924 Clear 25 1011 94 10000 1.03 20 06:46 23.07.2022
925 Clear 26 1011 83 10000 2.06 50 03:37 23.07.2022
926 Clouds 27 1009 78 10000 3.09 60 00:27 23.07.2022
927 Clouds 31 1009 66 10000 3.09 0 21:28 22.07.2022
928 Clouds 31 1010 62 10000 2.57 220 20:29 22.07.2022
929 Rain 33 1010 48 10000 1.3 108 18:42 22.07.2022
930 Clouds 30 1013 70 10000 2.06 230 17:39 22.07.2022
931 Clouds 29 1013 70 10000 2.06 360 15:46 22.07.2022
932 Clear 24 1011 94 10000 1.54 360 12:47 22.07.2022
933 Clear 25 1010 94 10000 2.06 350 09:56 22.07.2022
934 Clear 25 1010 94 10000 1.03 10 09:21 22.07.2022
935 Clear 24 1011 100 10000 1.03 250 07:51 22.07.2022
936 Clear 25 1011 94 10000 0.51 140 04:23 22.07.2022
937 Rain 27 1009 83 10000 0.51 210 23:36 21.07.2022
938 Rain 27 1010 78 10000 2.57 180 21:41 21.07.2022
939 Clouds 29 1011 74 10000 4.63 210 19:42 21.07.2022
940 Clouds 30 1012 74 10000 2.06 210 18:30 21.07.2022
941 Clouds 30 1013 74 10000 2.57 340 17:21 21.07.2022
942 Clouds 28 1013 78 10000 1.54 340 15:58 21.07.2022
943 Clouds 26 1013 83 10000 2.06 360 14:46 21.07.2022
944 Clouds 26 1013 83 10000 2.06 360 13:53 21.07.2022
945 Clear 26 1011 83 10000 2.06 350 11:54 21.07.2022
946 Clear 26 1011 83 10000 3.09 350 09:54 21.07.2022
947 Clear 26 1011 83 10000 2.57 350 08:53 21.07.2022
948 Clear 26 1012 78 10000 2.57 340 07:50 21.07.2022
949 Rain 26 1013 83 10000 2.57 320 06:27 21.07.2022
950 Clouds 26 1011 89 10000 2.06 270 02:35 21.07.2022
951 Clouds 29 1009 65 10000 2.06 250 22:46 20.07.2022
952 Clouds 29 1009 65 10000 2.06 250 22:18 20.07.2022
953 Rain 28 1011 78 10000 1.03 0 20:46 20.07.2022
954 Clouds 28 1012 74 10000 4.12 20 19:46 20.07.2022
955 Clouds 28 1013 74 10000 5.66 70 18:53 20.07.2022
956 Clouds 28 1013 74 10000 7.72 40 18:30 20.07.2022
957 Clouds 30 1014 74 10000 4.12 10 17:25 20.07.2022
958 Clouds 29 1013 79 10000 3.6 70 15:33 20.07.2022
959 Clear 28 1013 83 10000 2.57 60 14:36 20.07.2022
960 Clear 26 1012 89 10000 2.06 40 12:51 20.07.2022
961 Clear 26 1011 89 10000 1.54 40 10:57 20.07.2022
962 Clear 27 1013 83 10000 1.54 360 06:21 20.07.2022
963 Rain 29 1011 70 10000 2.57 60 01:40 20.07.2022
964 Clouds 30 1010 66 10000 3.6 70 00:41 20.07.2022
965 Clouds 32 1010 62 10000 4.63 80 22:35 19.07.2022
966 Clouds 32 1010 62 10000 4.63 80 21:54 19.07.2022
967 Clouds 33 1011 58 10000 5.66 90 20:49 19.07.2022
968 Clouds 32 1012 62 10000 5.14 70 19:22 19.07.2022
969 Clouds 32 1013 66 10000 3.6 90 18:41 19.07.2022
970 Clouds 32 1013 66 10000 4.12 80 17:53 19.07.2022
971 Clouds 29 1014 79 10000 4.63 30 15:27 19.07.2022
972 Clear 27 1013 83 10000 2.06 60 13:33 19.07.2022
973 Clear 27 1012 83 10000 2.57 50 11:32 19.07.2022
974 Clear 27 1011 89 10000 4.12 20 09:51 19.07.2022
975 Clear 28 1012 83 10000 2.06 70 08:46 19.07.2022
976 Clear 27 1012 83 10000 1.03 90 07:19 19.07.2022
977 Clear 29 1012 74 10000 1.54 80 06:27 19.07.2022
978 Clear 29 1013 70 10000 1.54 80 05:18 19.07.2022
979 Clouds 29 1011 70 10000 2.57 70 02:37 19.07.2022
980 Clouds 32 1010 55 10000 4.12 70 23:52 18.07.2022
981 Clouds 32 1010 55 10000 4.12 70 23:19 18.07.2022
982 Clouds 32 1010 58 10000 5.66 70 22:26 18.07.2022
983 Clouds 33 1011 55 10000 5.14 60 21:20 18.07.2022
984 Clouds 32 1011 58 10000 6.69 80 20:22 18.07.2022
985 Clouds 32 1013 62 10000 3.6 90 18:29 18.07.2022
986 Clouds 31 1014 62 10000 3.09 360 16:30 18.07.2022
987 Clear 30 1014 70 10000 2.06 360 15:26 18.07.2022
988 Clear 28 1013 74 10000 1.03 40 13:31 18.07.2022
989 Clear 26 1012 83 10000 1.54 80 11:43 18.07.2022
990 Clear 27 1012 74 10000 1.54 70 09:55 18.07.2022
991 Clear 27 1012 83 10000 1.54 60 07:54 18.07.2022
992 Clear 26 1011 89 10000 3.09 80 03:32 18.07.2022
993 Clouds 33 1010 55 10000 4.12 70 22:56 17.07.2022
994 Clouds 33 1010 55 10000 4.12 70 22:29 17.07.2022
995 Clouds 32 1011 62 10000 4.12 70 21:35 17.07.2022
996 Clouds 31 1011 66 10000 3.09 30 20:45 17.07.2022
997 Clouds 32 1012 62 10000 3.09 60 19:50 17.07.2022
998 Clouds 32 1012 62 10000 3.09 60 19:21 17.07.2022
999 Clear 32 1014 62 10000 3.6 50 17:43 17.07.2022
1000 Clear 32 1014 62 10000 3.6 50 17:25 17.07.2022
1001 Clear 31 1014 66 10000 4.63 40 16:32 17.07.2022
1002 Clear 30 1014 70 10000 4.63 30 15:49 17.07.2022
1003 Clear 27 1013 83 10000 1.54 80 13:51 17.07.2022
1004 Clear 26 1012 83 10000 2.06 70 12:42 17.07.2022
1005 Clear 26 1012 78 10000 2.06 60 10:19 17.07.2022
1006 Clear 27 1012 89 10000 2.06 80 06:59 17.07.2022
1007 Clear 28 1010 78 10000 2.06 300 02:34 17.07.2022
1008 Clear 28 1010 78 10000 2.06 300 02:34 17.07.2022
1009 Clouds 31 1009 62 10000 3.6 50 23:23 16.07.2022
1010 Clouds 33 1009 58 10000 2.06 80 21:59 16.07.2022
1011 Clouds 32 1010 62 10000 2.57 0 20:29 16.07.2022
1012 Clouds 32 1012 66 10000 3.09 30 18:54 16.07.2022
1013 Clouds 31 1013 66 10000 3.6 30 17:25 16.07.2022
1014 Clear 30 1013 70 10000 2.57 70 15:50 16.07.2022
1015 Clear 26 1012 83 10000 1.54 20 12:26 16.07.2022
1016 Clear 26 1011 89 10000 0.51 70 10:18 16.07.2022
1017 Clear 26 1011 94 10000 1.03 300 09:25 16.07.2022
1018 Clear 26 1011 89 10000 0 0 08:40 16.07.2022
1019 Clear 26 1012 83 10000 1.03 80 06:57 16.07.2022
1020 Clouds 28 1011 74 10000 1.03 20 03:32 16.07.2022
1021 Clouds 29 1009 74 10000 2.57 360 23:54 15.07.2022
1022 Clouds 31 1009 66 10000 2.57 50 22:46 15.07.2022
1023 Clouds 32 1010 62 10000 3.09 340 21:52 15.07.2022
1024 Clouds 32 1011 58 10000 2.06 210 20:35 15.07.2022
1025 Clouds 32 1013 55 10000 3.09 60 18:46 15.07.2022
1026 Clouds 31 1013 66 10000 3.09 70 17:51 15.07.2022
1027 Clear 30 1013 70 10000 2.57 10 16:23 15.07.2022
1028 Clear 25 1012 83 10000 2.06 30 13:58 15.07.2022
1029 Clear 25 1012 83 10000 1.03 10 12:22 15.07.2022
1030 Clear 26 1011 78 10000 3.09 10 10:52 15.07.2022
1031 Clear 27 1012 78 10000 2.57 10 07:47 15.07.2022
1032 Clouds 28 1011 78 10000 1.03 0 02:47 15.07.2022
1033 Clouds 28 1010 78 10000 1.03 90 00:39 15.07.2022
1034 Rain 31 1010 62 10000 2.06 180 22:54 14.07.2022
1035 Rain 30 1010 70 10000 2.06 180 21:59 14.07.2022
1036 Rain 30 1010 70 10000 1.54 280 21:33 14.07.2022
1037 Rain 30 1011 74 10000 2.06 240 20:57 14.07.2022
1038 Rain 30 1011 74 10000 2.06 240 20:37 14.07.2022
1039 Clouds 30 1011 74 10000 2.06 240 20:18 14.07.2022
1040 Clouds 28 1014 78 10000 2.06 210 16:42 14.07.2022
1041 Clouds 28 1014 78 10000 2.06 210 16:18 14.07.2022
1042 Clear 27 1013 78 10000 3.09 10 14:44 14.07.2022
1043 Clear 26 1012 78 10000 2.06 200 13:33 14.07.2022
1044 Clear 26 1012 73 10000 2.57 360 12:19 14.07.2022
1045 Clear 26 1011 78 10000 1.54 20 11:25 14.07.2022
1046 Clear 27 1011 69 10000 2.57 350 10:39 14.07.2022
1047 Clouds 27 1011 69 10000 3.09 350 08:22 14.07.2022
1048 Clear 29 1012 70 10000 3.09 10 03:36 14.07.2022
1049 Clouds 29 1010 61 10000 2.06 70 00:55 14.07.2022
1050 Rain 29 1010 61 10000 4.12 70 23:41 13.07.2022
1051 Clouds 30 1010 66 10000 3.6 70 22:27 13.07.2022
1052 Clouds 32 1010 58 10000 4.63 90 21:32 13.07.2022
1053 Clouds 32 1011 55 10000 4.12 70 20:38 13.07.2022
1054 Clouds 31 1014 62 10000 3.09 60 17:59 13.07.2022
1055 Clouds 31 1014 62 10000 3.09 60 17:20 13.07.2022
1056 Clear 30 1014 70 10000 3.6 80 15:59 13.07.2022
1057 Clear 27 1012 83 10000 1.03 20 13:50 13.07.2022
1058 Clouds 26 1012 89 10000 1.03 300 11:24 13.07.2022
1059 Clouds 27 1011 83 10000 1.03 30 10:40 13.07.2022
1060 Clear 26 1011 89 10000 1.54 300 09:28 13.07.2022
1061 Clear 27 1012 89 10000 1.03 60 08:21 13.07.2022
1062 Clear 28 1012 78 10000 2.06 80 04:36 13.07.2022
1063 Clouds 30 1010 66 10000 3.6 70 00:47 13.07.2022
1064 Clouds 32 1010 58 10000 4.63 60 22:46 12.07.2022
1065 Clouds 32 1010 58 10000 4.12 90 21:46 12.07.2022
1066 Clouds 32 1012 55 10000 4.63 80 20:53 12.07.2022
1067 Clouds 32 1013 55 10000 5.14 80 19:48 12.07.2022
1068 Clouds 32 1013 58 10000 3.6 110 18:35 12.07.2022
1069 Clear 31 1014 66 10000 2.57 200 16:24 12.07.2022
1070 Clear 29 1013 74 10000 1.03 0 14:32 12.07.2022
1071 Clear 27 1012 78 10000 1.03 30 13:35 12.07.2022
1072 Clear 26 1012 83 10000 1.03 360 11:54 12.07.2022
1073 Clear 25 1011 88 10000 1.03 340 10:26 12.07.2022
1074 Clear 26 1011 89 10000 1.54 360 08:57 12.07.2022
1075 Clear 27 1011 83 10000 1.54 50 07:48 12.07.2022
1076 Clear 26 1012 83 10000 1.54 80 05:45 12.07.2022
1077 Clouds 26 1012 89 10000 1.03 140 04:57 12.07.2022
1078 Clouds 27 1009 78 10000 2.57 80 00:54 12.07.2022
1079 Clouds 32 1008 62 10000 3.6 90 22:43 11.07.2022
1080 Clouds 32 1009 58 10000 1.54 70 21:34 11.07.2022
1081 Clouds 33 1010 58 10000 3.09 190 20:32 11.07.2022
1082 Clouds 33 1010 58 10000 3.09 190 20:32 11.07.2022
1083 Clouds 32 1011 62 10000 2.57 220 19:18 11.07.2022
1084 Clouds 31 1012 66 10000 2.06 190 18:28 11.07.2022
1085 Clouds 30 1013 70 10000 1.54 230 16:30 11.07.2022
1086 Clouds 29 1013 74 10000 1.54 240 15:28 11.07.2022
1087 Clouds 27 1012 78 10000 1.54 300 13:19 11.07.2022
1088 Clouds 25 1011 88 10000 1.03 330 11:23 11.07.2022
1089 Clear 26 1010 83 10000 1.03 10 09:55 11.07.2022
1090 Clear 26 1010 83 10000 1.03 10 09:27 11.07.2022
1091 Clear 26 1011 89 10000 1.03 230 08:31 11.07.2022
1092 Clear 28 1010 74 10000 2.06 50 00:59 11.07.2022
1093 Clouds 30 1009 70 10000 4.63 60 23:54 10.07.2022
1094 Clouds 32 1010 58 10000 3.6 80 22:45 10.07.2022
1095 Clouds 31 1010 62 10000 3.09 220 20:56 10.07.2022
1096 Clouds 31 1012 58 10000 3.09 220 20:36 10.07.2022
1097 Clouds 31 1012 66 10000 2.06 180 19:30 10.07.2022
1098 Clouds 31 1012 66 10000 2.06 180 19:30 10.07.2022
1099 Clouds 30 1013 66 10000 3.09 170 18:25 10.07.2022
1100 Clouds 29 1014 74 10000 2.57 240 17:33 10.07.2022
1101 Clouds 28 1015 78 10000 3.6 240 16:21 10.07.2022
1102 Clouds 27 1014 83 10000 1.54 290 14:47 10.07.2022
1103 Clouds 26 1013 89 10000 1.54 290 13:30 10.07.2022
1104 Clear 26 1013 83 10000 2.06 320 11:44 10.07.2022
1105 Clear 25 1012 88 10000 1.03 250 09:45 10.07.2022
1106 Clear 27 1013 83 10000 2.06 330 08:43 10.07.2022
1107 Clear 27 1013 83 10000 2.57 350 07:19 10.07.2022
1108 Clouds 29 1010 74 10000 4.12 70 23:50 09.07.2022
1109 Clouds 29 1011 74 10000 4.12 60 22:26 09.07.2022
1110 Clouds 29 1011 74 10000 4.12 60 22:26 09.07.2022
1111 Clouds 29 1011 70 10000 4.12 60 21:41 09.07.2022
1112 Thunderstorm 28 1014 78 8000 6.17 20 19:50 09.07.2022
1113 Clouds 30 1014 70 10000 3.09 30 18:28 09.07.2022
1114 Clouds 30 1015 70 10000 3.09 20 17:32 09.07.2022
1115 Clouds 29 1016 74 10000 5.66 50 16:36 09.07.2022
1116 Clear 29 1015 74 10000 2.57 60 15:39 09.07.2022
1117 Clear 26 1015 83 10000 2.06 50 14:24 09.07.2022
1118 Clouds 25 1014 88 10000 2.06 50 13:48 09.07.2022
1119 Clouds 25 1014 88 10000 2.06 50 12:22 09.07.2022
1120 Clear 25 1013 88 10000 4.12 20 10:27 09.07.2022
1121 Clear 25 1013 88 10000 4.12 20 09:57 09.07.2022
1122 Clear 25 1014 88 10000 2.06 30 07:44 09.07.2022
1123 Clear 26 1014 89 10000 4.12 40 04:50 09.07.2022
1124 Rain 27 1011 78 10000 4.63 50 00:38 09.07.2022
1125 Clouds 31 1011 62 10000 7.72 80 22:41 08.07.2022
1126 Clouds 32 1011 58 10000 5.66 70 21:27 08.07.2022
1127 Clouds 32 1012 58 10000 5.66 80 20:40 08.07.2022
1128 Clouds 31 1013 62 10000 6.17 70 19:48 08.07.2022
1129 Clouds 31 1014 66 10000 6.69 70 17:57 08.07.2022
1130 Clear 29 1015 74 10000 5.66 50 16:37 08.07.2022
1131 Clear 28 1015 78 10000 3.6 30 14:51 08.07.2022
1132 Clear 26 1013 83 10000 2.06 60 12:42 08.07.2022
1133 Clear 26 1013 83 10000 2.06 70 11:24 08.07.2022
1134 Clear 26 1013 89 10000 2.06 70 10:21 08.07.2022
1135 Clear 26 1013 83 10000 2.57 250 07:55 08.07.2022
1136 Clear 26 1013 83 10000 2.06 50 06:47 08.07.2022
1137 Clouds 28 1011 74 10000 2.57 30 01:19 08.07.2022
1138 Clouds 31 1009 66 10000 4.63 70 22:57 07.07.2022
1139 Clouds 31 1010 66 10000 5.14 80 21:52 07.07.2022
1140 Clouds 29 1012 74 10000 4.12 10 19:47 07.07.2022
1141 Clouds 32 1013 62 10000 3.6 80 17:56 07.07.2022
1142 Clouds 30 1014 70 10000 3.6 70 16:32 07.07.2022
1143 Clouds 28 1013 78 10000 2.57 30 14:21 07.07.2022
1144 Clouds 25 1012 94 10000 1.03 70 12:46 07.07.2022
1145 Clouds 25 1012 94 10000 1.03 70 12:23 07.07.2022
1146 Clear 25 1011 88 10000 1.03 60 11:34 07.07.2022
1147 Clear 25 1011 88 10000 0.51 30 10:46 07.07.2022
1148 Clear 25 1011 88 10000 0.51 30 10:27 07.07.2022
1149 Clear 25 1011 88 10000 0.51 280 09:32 07.07.2022
1150 Clear 26 1012 83 10000 1.54 20 06:31 07.07.2022
1151 Clouds 25 1009 83 10000 1.29 338 00:28 07.07.2022
1152 Clouds 25 1009 83 10000 1.29 338 23:36 06.07.2022
1153 Clouds 26 1009 79 10000 1.71 347 23:18 06.07.2022
1154 Clouds 30 1010 66 10000 3.6 60 22:51 06.07.2022
1155 Clouds 30 1010 66 10000 3.6 60 22:33 06.07.2022
1156 Clouds 28 1011 78 10000 3.6 120 20:23 06.07.2022
1157 Rain 28 1012 69 10000 4.63 70 19:22 06.07.2022
1158 Clouds 31 1014 66 10000 4.12 70 17:21 06.07.2022
1159 Clouds 29 1014 79 10000 1.54 70 15:55 06.07.2022
1160 Clear 25 1013 94 10000 0.51 60 12:44 06.07.2022
1161 Clear 25 1012 94 10000 1.54 310 11:52 06.07.2022
1162 Clear 25 1012 94 10000 0 0 10:54 06.07.2022
1163 Clear 26 1012 83 10000 1.03 40 09:25 06.07.2022
1164 Clear 25 1013 94 10000 0 0 07:44 06.07.2022
1165 Clear 26 1013 89 10000 0 0 06:44 06.07.2022
1166 Clouds 30 1010 66 10000 2.06 80 23:42 05.07.2022
1167 Clouds 31 1011 62 10000 3.6 80 22:42 05.07.2022
1168 Clouds 30 1012 70 10000 2.57 20 20:49 05.07.2022
1169 Clouds 30 1012 70 10000 2.57 20 20:21 05.07.2022
1170 Clouds 31 1013 66 10000 2.57 10 19:37 05.07.2022
1171 Clouds 30 1014 70 10000 4.63 50 17:50 05.07.2022
1172 Clouds 30 1014 70 10000 4.63 50 17:19 05.07.2022
1173 Clouds 29 1014 74 10000 3.09 50 16:18 05.07.2022
1174 Clouds 28 1014 78 10000 4.12 50 14:54 05.07.2022
1175 Clouds 24 1013 94 10000 1.03 60 12:59 05.07.2022
1176 Clouds 24 1013 94 10000 1.03 60 12:22 05.07.2022
1177 Clouds 25 1013 94 10000 1.03 20 10:45 05.07.2022
1178 Clear 25 1013 94 10000 1.54 70 09:52 05.07.2022
1179 Clear 25 1013 94 10000 1.03 40 08:21 05.07.2022
1180 Clouds 26 1014 89 10000 2.06 70 06:48 05.07.2022
1181 Clouds 26 1014 89 10000 1.03 70 04:30 05.07.2022
1182 Clouds 27 1011 83 10000 2.06 80 00:47 05.07.2022
1183 Clouds 28 1011 78 10000 3.09 50 23:37 04.07.2022
1184 Clouds 28 1011 78 10000 3.09 50 22:54 04.07.2022
1185 Rain 28 1011 78 10000 3.09 10 21:56 04.07.2022
1186 Rain 28 1013 74 10000 3.09 80 20:55 04.07.2022
1187 Rain 28 1013 74 10000 3.09 80 20:35 04.07.2022
1188 Rain 29 1014 74 10000 2.57 70 19:56 04.07.2022
1189 Rain 29 1014 74 10000 2.57 70 19:36 04.07.2022
1190 Clouds 28 1014 74 10000 3.09 340 18:34 04.07.2022
1191 Rain 26 1016 83 10000 3.09 10 16:36 04.07.2022
1192 Clouds 25 1016 88 10000 4.12 30 15:34 04.07.2022
1193 Clouds 24 1014 88 10000 4.63 40 13:35 04.07.2022
1194 Clouds 25 1013 88 10000 3.6 30 12:38 04.07.2022
1195 Clear 25 1012 94 10000 1.03 30 10:39 04.07.2022
1196 Clear 25 1012 94 10000 1.03 30 10:18 04.07.2022
1197 Rain 25 1013 94 10000 1.54 30 08:31 04.07.2022
1198 Rain 25 1014 94 10000 1.54 20 05:34 04.07.2022
1199 Rain 25 1012 94 10000 3.09 120 00:43 04.07.2022
1200 Rain 25 1011 88 10000 2.57 80 23:25 03.07.2022
1201 Thunderstorm 27 1012 74 10000 3.09 280 21:58 03.07.2022
1202 Clouds 30 1012 74 10000 2.06 10 20:41 03.07.2022
1203 Clouds 30 1013 70 10000 3.09 360 19:42 03.07.2022
1204 Clouds 30 1013 70 10000 3.09 360 19:23 03.07.2022
1205 Clouds 29 1015 74 10000 3.09 40 17:45 03.07.2022
1206 Clouds 29 1015 74 10000 3.09 40 16:58 03.07.2022
1207 Clouds 26 1015 89 10000 3.6 60 15:25 03.07.2022
1208 Clouds 25 1014 88 10000 3.09 70 14:37 03.07.2022
1209 Clouds 24 1013 94 10000 2.57 70 13:49 03.07.2022
1210 Clouds 23 1014 100 5000 6.17 70 12:41 03.07.2022
1211 Clear 27 1012 78 10000 2.06 70 11:39 03.07.2022
1212 Clear 27 1012 78 10000 2.57 70 10:39 03.07.2022
1213 Clear 27 1012 83 10000 2.06 70 09:59 03.07.2022
1214 Clear 27 1013 89 10000 2.06 60 07:36 03.07.2022
1215 Clear 27 1013 83 10000 2.06 70 05:18 03.07.2022
1216 Clouds 28 1010 78 10000 2.57 70 00:23 03.07.2022
1217 Clouds 30 1010 70 10000 3.6 60 22:35 02.07.2022
1218 Clouds 31 1011 66 10000 5.66 90 21:38 02.07.2022
1219 Clouds 31 1013 66 10000 4.12 70 19:52 02.07.2022
1220 Clouds 31 1013 66 10000 4.12 70 19:23 02.07.2022
1221 Clouds 30 1014 70 10000 5.66 60 17:51 02.07.2022
1222 Clouds 30 1014 70 10000 5.66 60 17:33 02.07.2022
1223 Clouds 27 1014 83 10000 2.06 60 14:52 02.07.2022
1224 Clouds 24 1012 100 10000 1.03 70 12:22 02.07.2022
1225 Clear 24 1012 94 10000 0.51 0 11:27 02.07.2022
1226 Rain 25 1012 94 10000 1.03 170 10:46 02.07.2022
1227 Rain 25 1012 94 10000 1.03 350 09:37 02.07.2022
1228 Clouds 26 1012 94 10000 1.54 310 08:36 02.07.2022
1229 Clouds 26 1012 94 10000 1.54 310 08:18 02.07.2022
1230 Clear 27 1010 74 10000 1.54 80 02:51 02.07.2022
1231 Clouds 29 1009 65 10000 3.09 70 00:26 02.07.2022
1232 Rain 30 1009 62 10000 6.17 80 22:58 01.07.2022
1233 Clouds 31 1010 58 10000 5.14 70 21:49 01.07.2022
1234 Clouds 31 1010 58 10000 5.14 70 21:29 01.07.2022
1235 Clouds 31 1011 62 10000 4.12 70 20:43 01.07.2022
1236 Clouds 31 1012 66 10000 4.63 60 19:47 01.07.2022
1237 Clouds 31 1013 66 10000 3.09 90 17:58 01.07.2022
1238 Clouds 28 1013 83 10000 2.57 60 16:24 01.07.2022
1239 Clear 26 1012 83 10000 1.54 40 13:55 01.07.2022
1240 Clouds 25 1012 83 10000 2.06 50 12:55 01.07.2022
1241 Clear 25 1011 83 10000 1.03 30 10:45 01.07.2022
1242 Clear 25 1011 83 10000 1.03 30 10:18 01.07.2022
1243 Clear 27 1013 74 10000 1.54 20 05:27 01.07.2022
1244 Clear 28 1010 78 10000 2.06 70 01:27 01.07.2022
1245 Rain 29 1010 65 10000 2.06 80 23:26 30.06.2022
1246 Rain 31 1010 58 10000 3.09 90 22:44 30.06.2022
1247 Rain 31 1010 58 10000 3.09 90 22:26 30.06.2022
1248 Clouds 29 1010 74 10000 3.6 80 21:48 30.06.2022
1249 Clouds 31 1011 58 10000 2.06 0 20:30 30.06.2022
1250 Clouds 31 1011 58 10000 3.09 220 19:55 30.06.2022
1251 Rain 31 1012 62 10000 3.09 220 19:26 30.06.2022
1252 Clouds 30 1013 70 10000 2.06 0 18:42 30.06.2022
1253 Clouds 30 1014 74 10000 1.54 90 17:44 30.06.2022
1254 Clouds 29 1014 74 10000 1.54 0 16:55 30.06.2022
1255 Clouds 28 1014 74 10000 2.06 40 15:42 30.06.2022
1256 Clouds 26 1013 78 10000 2.06 20 13:36 30.06.2022
1257 Clouds 26 1013 78 10000 2.06 40 12:35 30.06.2022
1258 Clear 25 1012 83 10000 1.03 290 11:43 30.06.2022
1259 Clear 26 1012 73 10000 1.03 10 09:55 30.06.2022
1260 Clear 27 1012 74 10000 1.03 40 09:35 30.06.2022
1261 Rain 27 1012 74 10000 2.06 20 08:19 30.06.2022
1262 Clear 27 1013 78 10000 2.06 100 07:23 30.06.2022
1263 Clear 27 1012 78 10000 2.06 70 01:47 30.06.2022
1264 Clouds 31 1011 58 10000 4.12 130 23:35 29.06.2022
1265 Clouds 32 1011 55 10000 3.09 130 22:41 29.06.2022
1266 Clouds 31 1011 58 10000 3.6 140 21:43 29.06.2022
1267 Clouds 32 1013 58 10000 2.57 120 20:34 29.06.2022
1268 Clouds 31 1014 66 10000 3.6 110 19:48 29.06.2022
1269 Clouds 31 1015 66 10000 4.12 130 17:54 29.06.2022
1270 Clouds 29 1015 70 10000 1.03 0 16:48 29.06.2022
1271 Clear 28 1015 78 10000 1.54 200 15:32 29.06.2022
1272 Clear 26 1014 83 10000 0.51 40 13:20 29.06.2022
1273 Clear 25 1014 88 10000 1.03 30 11:57 29.06.2022
1274 Clear 25 1014 88 10000 1.54 10 09:35 29.06.2022
1275 Clear 25 1014 94 10000 1.54 10 08:46 29.06.2022
1276 Clear 26 1015 89 10000 1.54 50 05:42 29.06.2022
1277 Clear 25 1013 94 10000 0.51 140 02:21 29.06.2022
1278 Clouds 27 1012 78 10000 1.54 90 00:38 29.06.2022
1279 Clouds 29 1011 70 10000 1.03 100 23:26 28.06.2022
1280 Clouds 29 1012 74 10000 2.57 280 22:48 28.06.2022
1281 Clouds 29 1012 74 10000 2.57 280 21:55 28.06.2022
1282 Clouds 29 1012 79 10000 2.57 170 21:33 28.06.2022
1283 Clouds 28 1013 78 10000 1.54 90 20:55 28.06.2022
1284 Clouds 29 1014 74 10000 2.06 230 19:48 28.06.2022
1285 Clouds 29 1014 74 10000 2.06 230 19:24 28.06.2022
1286 Clouds 28 1015 74 10000 3.09 310 17:49 28.06.2022
1287 Clouds 27 1015 78 10000 2.57 340 16:29 28.06.2022
1288 Clouds 27 1015 78 10000 2.57 340 15:53 28.06.2022
1289 Clouds 24 1015 94 10000 1.54 30 14:21 28.06.2022
1290 Clouds 25 1014 83 10000 2.06 310 13:55 28.06.2022
1291 Clouds 25 1014 83 10000 2.06 310 13:26 28.06.2022
1292 Clouds 24 1013 88 10000 3.6 300 11:37 28.06.2022
1293 Clouds 25 1013 83 10000 5.14 320 09:41 28.06.2022
1294 Clouds 25 1013 83 10000 5.14 310 08:45 28.06.2022
1295 Clouds 25 1013 83 10000 5.14 310 07:58 28.06.2022
1296 Clouds 26 1013 83 10000 4.12 320 07:19 28.06.2022
1297 Rain 28 1011 69 10000 1.54 30 01:33 28.06.2022
1298 Clouds 29 1009 70 10000 1.54 130 23:45 27.06.2022
1299 Rain 30 1009 66 10000 1.54 80 22:55 27.06.2022
1300 Clouds 31 1010 62 10000 3.09 140 21:38 27.06.2022
1301 Clouds 31 1010 62 10000 3.09 140 20:54 27.06.2022
1302 Clouds 30 1012 66 10000 3.6 150 19:40 27.06.2022
1303 Rain 30 1013 70 10000 1.54 190 18:33 27.06.2022
1304 Clouds 27 1014 89 10000 3.09 250 16:44 27.06.2022
1305 Clouds 26 1014 89 10000 3.09 260 15:42 27.06.2022
1306 Fog 24 1012 100 3000 2.57 310 13:39 27.06.2022
1307 Fog 24 1012 100 800 2.57 310 12:57 27.06.2022
1308 Fog 25 1011 94 10000 1.03 300 10:41 27.06.2022
1309 Fog 26 1011 94 10000 1.03 230 09:23 27.06.2022
1310 Clouds 26 1011 94 10000 1.54 300 08:31 27.06.2022
1311 Fog 26 1012 94 10000 2.06 290 07:38 27.06.2022
1312 Clouds 27 1013 83 10000 2.06 240 04:21 27.06.2022
1313 Clouds 27 1011 78 10000 1.54 310 01:18 27.06.2022
1314 Clouds 30 1010 66 10000 2.06 190 22:27 26.06.2022
1315 Rain 30 1010 66 10000 1.54 0 20:53 26.06.2022
1316 Clouds 28 1012 78 10000 1.03 290 19:44 26.06.2022
1317 Clouds 25 1013 88 10000 2.06 360 18:32 26.06.2022
1318 Thunderstorm 25 1014 94 2000 1.54 110 17:22 26.06.2022
1319 Clouds 27 1014 89 10000 2.06 260 15:27 26.06.2022
1320 Clouds 27 1014 89 10000 2.06 280 13:53 26.06.2022
1321 Clouds 27 1013 83 10000 2.06 300 13:20 26.06.2022
1322 Clear 25 1012 100 10000 1.03 270 11:27 26.06.2022
1323 Clear 25 1011 100 10000 1.03 290 10:28 26.06.2022
1324 Clear 26 1011 94 10000 1.54 240 09:39 26.06.2022
1325 Clear 26 1012 94 10000 1.03 250 07:45 26.06.2022
1326 Clear 28 1012 78 10000 2.06 70 02:52 26.06.2022
1327 Clouds 28 1011 78 10000 2.06 90 00:21 26.06.2022
1328 Clouds 31 1010 66 10000 3.09 80 23:51 25.06.2022
1329 Clouds 31 1010 66 10000 3.09 80 23:23 25.06.2022
1330 Clouds 31 1010 70 10000 4.12 100 22:27 25.06.2022
1331 Clouds 31 1011 66 10000 3.09 80 21:41 25.06.2022
1332 Clouds 31 1011 66 10000 3.09 80 21:18 25.06.2022
1333 Clouds 31 1012 66 10000 4.12 90 20:28 25.06.2022
1334 Clouds 31 1013 66 10000 4.12 90 19:42 25.06.2022
1335 Clouds 31 1013 66 10000 4.12 70 17:57 25.06.2022
1336 Clouds 29 1014 74 10000 3.6 60 17:22 25.06.2022
1337 Clear 29 1014 74 10000 2.57 40 15:36 25.06.2022
1338 Clear 25 1013 94 10000 1.03 60 13:34 25.06.2022
1339 Clear 24 1012 88 10000 1.03 90 12:38 25.06.2022
1340 Clear 25 1010 83 10000 1.54 40 10:35 25.06.2022
1341 Clear 25 1011 83 10000 1.54 50 08:59 25.06.2022
1342 Clear 25 1011 83 10000 1.54 50 08:36 25.06.2022
1343 Clear 26 1011 83 10000 1.54 20 07:54 25.06.2022
1344 Clear 27 1012 78 10000 2.06 80 03:34 25.06.2022
1345 Clouds 29 1010 70 10000 4.63 70 00:35 25.06.2022
1346 Clouds 30 1009 66 10000 6.69 70 22:54 24.06.2022
1347 Clouds 31 1009 62 10000 7.2 80 21:41 24.06.2022
1348 Clouds 31 1010 66 10000 9.26 60 20:45 24.06.2022
1349 Clouds 31 1010 66 10000 9.26 60 20:18 24.06.2022
1350 Clouds 31 1012 70 10000 6.69 80 19:21 24.06.2022
1351 Clouds 30 1012 74 10000 6.17 70 18:48 24.06.2022
1352 Clouds 30 1012 74 10000 6.17 70 18:30 24.06.2022
1353 Clouds 30 1013 74 10000 4.63 70 17:19 24.06.2022
1354 Clouds 29 1013 74 10000 1.54 70 15:29 24.06.2022
1355 Clouds 27 1013 89 10000 1.03 30 14:26 24.06.2022
1356 Clouds 27 1013 89 10000 1.03 30 13:54 24.06.2022
1357 Clouds 25 1011 94 10000 1.03 220 11:43 24.06.2022
1358 Clouds 24 1011 100 10000 1.03 230 10:47 24.06.2022
1359 Clouds 24 1010 100 10000 4.63 300 09:42 24.06.2022
1360 Clouds 24 1010 100 10000 4.63 300 09:19 24.06.2022
1361 Clouds 25 1011 94 8000 1.54 170 08:42 24.06.2022
1362 Rain 25 1012 94 10000 2.06 100 06:47 24.06.2022
1363 Clouds 25 1012 94 10000 2.06 100 06:29 24.06.2022
1364 Rain 26 1012 94 10000 3.09 50 05:52 24.06.2022
1365 Clouds 25 1010 88 10000 2.06 70 00:57 24.06.2022
1366 Clouds 29 1009 74 10000 2.57 110 22:44 23.06.2022
1367 Clouds 30 1009 70 10000 3.09 120 21:52 23.06.2022
1368 Clouds 30 1010 70 10000 3.09 100 20:53 23.06.2022
1369 Clouds 30 1010 70 10000 3.09 100 20:31 23.06.2022
1370 Clouds 29 1013 74 10000 4.12 40 18:43 23.06.2022
1371 Clouds 29 1013 74 10000 2.57 70 17:37 23.06.2022
1372 Clouds 28 1014 83 10000 3.6 70 16:34 23.06.2022
1373 Clouds 28 1013 78 10000 2.57 80 15:27 23.06.2022
1374 Clouds 26 1013 89 10000 1.03 70 14:51 23.06.2022
1375 Clear 25 1011 88 10000 1.03 50 11:54 23.06.2022
1376 Clear 25 1011 88 10000 1.54 50 10:56 23.06.2022
1377 Clear 25 1010 94 10000 1.54 40 09:20 23.06.2022
1378 Clear 26 1012 89 10000 1.03 30 05:48 23.06.2022
1379 Clouds 26 1010 89 10000 0 0 01:21 23.06.2022
1380 Clouds 27 1010 78 10000 2.06 90 00:18 23.06.2022
1381 Clouds 29 1009 70 10000 2.57 80 23:22 22.06.2022
1382 Clouds 29 1010 65 10000 2.57 170 21:44 22.06.2022
1383 Clouds 30 1011 66 10000 1.54 0 20:52 22.06.2022
1384 Clouds 30 1011 66 10000 1.54 0 20:20 22.06.2022
1385 Clouds 29 1012 74 10000 2.57 240 19:43 22.06.2022
1386 Clouds 27 1013 83 10000 3.09 260 17:40 22.06.2022
1387 Clouds 26 1014 89 10000 3.09 240 16:43 22.06.2022
1388 Clouds 26 1013 83 10000 1.54 310 15:29 22.06.2022
1389 Fog 26 1013 83 10000 2.06 360 14:51 22.06.2022
1390 Fog 24 1012 100 10000 2.06 360 13:48 22.06.2022
1391 Fog 24 1012 100 10000 2.06 360 13:24 22.06.2022
1392 Fog 24 1012 100 10000 1.54 290 12:18 22.06.2022
1393 Fog 24 1012 100 10000 1.54 340 11:45 22.06.2022
1394 Fog 25 1012 94 10000 1.54 320 10:46 22.06.2022
1395 Fog 25 1012 94 10000 1.54 310 09:40 22.06.2022
1396 Clouds 26 1013 83 10000 2.57 300 06:55 22.06.2022
1397 Clouds 26 1012 89 10000 3.09 260 02:26 22.06.2022
1398 Clouds 26 1011 83 10000 2.06 250 00:57 22.06.2022
1399 Clouds 26 1011 83 10000 2.06 250 00:57 22.06.2022
1400 Rain 28 1011 83 10000 3.6 80 22:53 21.06.2022
1401 Clouds 31 1011 70 10000 3.09 180 20:58 21.06.2022
1402 Clouds 30 1012 70 10000 3.09 190 19:24 21.06.2022
1403 Clouds 28 1013 78 10000 2.06 240 17:56 21.06.2022
1404 Clouds 27 1014 83 10000 1.03 200 16:47 21.06.2022
1405 Clouds 25 1012 88 10000 1.03 310 11:59 21.06.2022
1406 Clouds 25 1011 88 10000 2.06 340 10:46 21.06.2022
1407 Clear 25 1011 88 10000 2.57 340 09:24 21.06.2022
1408 Clear 25 1012 88 10000 1.54 10 07:49 21.06.2022
1409 Thunderstorm 26 1013 89 10000 3.09 310 04:57 21.06.2022
1410 Clouds 27 1010 83 10000 1.03 0 00:23 21.06.2022
1411 Rain 28 1010 74 10000 1.54 160 22:21 20.06.2022
1412 Rain 28 1010 74 10000 1.54 160 22:21 20.06.2022
1413 Clouds 30 1010 70 10000 2.57 200 21:37 20.06.2022
1414 Clouds 30 1011 70 10000 2.57 180 20:28 20.06.2022
1415 Clouds 30 1012 74 10000 2.57 190 19:36 20.06.2022
1416 Clouds 29 1013 74 10000 2.06 360 18:26 20.06.2022
1417 Clouds 29 1014 79 10000 1.54 340 17:49 20.06.2022
1418 Clouds 28 1014 78 10000 1.03 200 16:26 20.06.2022
1419 Rain 27 1015 78 10000 1.03 20 15:20 20.06.2022
1420 Fog 24 1013 94 10000 1.54 330 12:18 20.06.2022
1421 Clear 24 1012 88 10000 1.03 220 09:57 20.06.2022
1422 Clear 23 1012 94 10000 0 0 08:54 20.06.2022
1423 Clouds 24 1013 88 10000 1.03 340 07:51 20.06.2022
1424 Clouds 23 1013 94 10000 4.12 10 05:18 20.06.2022
1425 Clear 27 1011 78 10000 1.54 10 01:32 20.06.2022
1426 Clouds 29 1010 74 10000 1.54 280 23:49 19.06.2022
1427 Clouds 30 1010 66 10000 2.57 60 22:25 19.06.2022
1428 Clouds 30 1010 70 10000 2.06 320 21:43 19.06.2022
1429 Clouds 29 1011 74 10000 3.6 70 20:55 19.06.2022
1430 Clouds 29 1011 74 10000 3.6 70 20:25 19.06.2022
1431 Clouds 28 1012 74 10000 4.12 40 19:45 19.06.2022
1432 Clouds 28 1013 74 10000 5.14 90 18:33 19.06.2022
1433 Clouds 30 1013 66 10000 3.6 70 17:48 19.06.2022
1434 Clouds 30 1013 66 10000 3.6 70 17:20 19.06.2022
1435 Clouds 26 1014 89 10000 3.09 100 16:34 19.06.2022
1436 Clouds 26 1014 94 10000 4.63 80 15:35 19.06.2022
1437 Clouds 24 1014 100 5000 1.03 130 14:43 19.06.2022
1438 Clouds 26 1012 89 10000 1.03 180 13:54 19.06.2022
1439 Clear 25 1011 88 10000 1.03 0 12:26 19.06.2022
1440 Clear 25 1011 94 10000 1.54 140 10:53 19.06.2022
1441 Clear 26 1011 89 10000 2.06 160 09:31 19.06.2022
1442 Clear 26 1012 83 10000 2.57 150 08:35 19.06.2022
1443 Clear 27 1012 83 10000 1.03 0 07:30 19.06.2022
1444 Clear 26 1012 83 10000 1.03 220 04:27 19.06.2022
1445 Clouds 28 1011 74 10000 1.03 200 01:28 19.06.2022
1446 Clouds 29 1010 65 10000 1.54 140 00:23 19.06.2022
1447 Clouds 30 1010 62 10000 2.57 130 23:35 18.06.2022
1448 Clouds 30 1010 66 10000 3.6 140 22:33 18.06.2022
1449 Clouds 32 1012 58 10000 3.09 90 20:54 18.06.2022
1450 Clouds 32 1012 58 10000 3.09 90 20:24 18.06.2022
1451 Clouds 31 1013 62 10000 3.6 90 19:21 18.06.2022
1452 Clouds 30 1013 66 10000 3.6 110 18:42 18.06.2022
1453 Clouds 30 1013 70 10000 3.6 90 17:30 18.06.2022
1454 Clouds 29 1014 74 10000 3.6 80 16:20 18.06.2022
1455 Clear 29 1014 74 10000 1.54 70 15:18 18.06.2022
1456 Clear 28 1013 83 10000 1.54 170 14:41 18.06.2022
1457 Clear 23 1012 94 10000 0.51 290 12:46 18.06.2022
1458 Clear 24 1011 88 10000 1.03 20 11:29 18.06.2022
1459 Clear 24 1011 94 10000 1.03 80 10:23 18.06.2022
1460 Clear 26 1011 83 10000 2.06 80 09:19 18.06.2022
1461 Clear 26 1011 83 10000 2.06 70 07:58 18.06.2022
1462 Clear 25 1012 88 10000 1.54 80 06:24 18.06.2022
1463 Clear 24 1011 83 10000 1.03 80 02:53 18.06.2022
1464 Clear 24 1010 83 10000 1.54 90 01:23 18.06.2022
1465 Clouds 27 1010 78 10000 2.06 100 00:39 18.06.2022
1466 Clouds 31 1010 55 10000 3.6 100 23:42 17.06.2022
1467 Clouds 31 1010 58 10000 4.12 80 22:49 17.06.2022
1468 Clouds 30 1011 58 10000 3.6 90 20:33 17.06.2022
1469 Clouds 30 1012 70 10000 2.57 70 19:24 17.06.2022
1470 Clouds 30 1013 66 10000 3.09 200 18:24 17.06.2022
1471 Clouds 29 1013 70 10000 3.09 170 17:22 17.06.2022
1472 Clouds 29 1014 70 10000 1.54 40 16:37 17.06.2022
1473 Clouds 28 1014 74 10000 1.03 0 15:41 17.06.2022
1474 Clear 28 1013 74 10000 0.51 0 14:37 17.06.2022
1475 Clear 28 1013 74 10000 0.51 0 14:18 17.06.2022
1476 Clear 25 1013 83 10000 1.03 340 13:41 17.06.2022
1477 Clear 23 1012 94 10000 1.54 360 12:42 17.06.2022
1478 Clear 24 1012 88 10000 1.03 360 11:56 17.06.2022
1479 Clear 24 1012 88 10000 1.03 360 11:34 17.06.2022
1480 Clear 25 1012 88 10000 1.03 10 09:49 17.06.2022
1481 Clear 24 1012 100 10000 0.51 30 08:27 17.06.2022
1482 Clear 24 1013 94 10000 1.03 80 06:51 17.06.2022
1483 Clear 24 1013 94 10000 1.03 30 04:49 17.06.2022
1484 Clouds 25 1011 88 10000 2.57 90 01:57 17.06.2022
1485 Clouds 28 1010 74 10000 3.6 70 00:26 17.06.2022
1486 Clouds 30 1010 66 10000 3.09 80 22:42 16.06.2022
1487 Rain 31 1011 62 10000 4.12 50 21:23 16.06.2022
1488 Rain 30 1012 70 10000 4.63 60 20:56 16.06.2022
1489 Clouds 30 1012 70 10000 4.63 60 20:36 16.06.2022
1490 Clouds 30 1012 70 10000 4.63 60 20:36 16.06.2022
1491 Clouds 30 1013 70 10000 3.09 50 19:45 16.06.2022
1492 Clouds 30 1014 74 10000 2.57 200 18:26 16.06.2022
1493 Clouds 29 1015 74 10000 2.06 360 17:43 16.06.2022
1494 Clouds 29 1015 74 10000 1.03 150 16:39 16.06.2022
1495 Clouds 27 1015 83 10000 1.54 200 15:22 16.06.2022
1496 Clouds 27 1015 83 10000 1.03 280 14:37 16.06.2022
1497 Clouds 25 1014 94 10000 1.54 270 13:22 16.06.2022
1498 Clouds 24 1014 94 10000 1.03 260 12:36 16.06.2022
1499 Clouds 24 1013 100 10000 1.03 260 11:51 16.06.2022
1500 Clouds 25 1013 94 10000 1.54 250 10:56 16.06.2022
1501 Clouds 25 1013 94 10000 1.54 250 10:20 16.06.2022
1502 Fog 25 1013 94 10000 1.03 240 09:21 16.06.2022
1503 Clouds 24 1013 94 10000 1.54 260 08:30 16.06.2022
1504 Clear 25 1014 88 10000 1.03 260 07:26 16.06.2022
1505 Clear 26 1014 83 10000 1.03 320 04:50 16.06.2022
1506 Rain 26 1013 78 10000 1.03 0 02:20 16.06.2022
1507 Clouds 26 1012 78 10000 1.54 30 01:35 16.06.2022
1508 Clouds 26 1011 83 10000 1.54 40 00:56 16.06.2022
1509 Clouds 27 1011 83 10000 2.06 20 23:43 15.06.2022
1510 Rain 28 1011 74 10000 3.6 320 22:35 15.06.2022
1511 Clouds 30 1011 66 10000 2.57 310 21:22 15.06.2022
1512 Clouds 30 1011 66 10000 3.09 90 20:42 15.06.2022
1513 Clouds 30 1011 66 10000 3.09 90 20:23 15.06.2022
1514 Clouds 29 1013 70 10000 3.6 90 19:20 15.06.2022
1515 Clouds 29 1014 70 10000 1.54 0 17:56 15.06.2022
1516 Clouds 27 1015 83 10000 2.57 70 16:55 15.06.2022
1517 Clouds 25 1015 88 10000 3.6 30 15:37 15.06.2022
1518 Clouds 25 1014 94 10000 3.09 60 14:18 15.06.2022
1519 Clouds 23 1013 100 10000 1.03 80 12:54 15.06.2022
1520 Clouds 24 1013 94 10000 1.54 90 11:53 15.06.2022
1521 Clouds 24 1012 100 10000 1.54 100 10:24 15.06.2022
1522 Clouds 24 1012 100 10000 1.54 170 09:42 15.06.2022
1523 Clouds 24 1013 94 10000 2.06 130 08:37 15.06.2022
1524 Clouds 25 1014 88 10000 2.06 150 06:34 15.06.2022
1525 Clouds 25 1014 88 10000 1.03 260 04:34 15.06.2022
1526 Clear 27 1012 78 10000 2.57 250 01:54 15.06.2022
1527 Clouds 28 1011 74 10000 2.57 190 00:50 15.06.2022
1528 Clouds 28 1010 74 10000 3.6 190 23:39 14.06.2022
1529 Clouds 28 1010 74 10000 3.6 190 23:19 14.06.2022
1530 Clouds 29 1010 70 10000 4.12 280 22:21 14.06.2022
1531 Clouds 29 1011 70 10000 4.12 200 21:36 14.06.2022
1532 Clouds 29 1012 70 10000 4.12 200 20:54 14.06.2022
1533 Clouds 29 1012 70 10000 3.09 160 20:28 14.06.2022
1534 Clouds 29 1013 70 10000 2.57 0 19:18 14.06.2022
1535 Clouds 27 1015 74 10000 2.06 210 17:54 14.06.2022
1536 Clouds 27 1015 78 10000 2.06 190 16:43 14.06.2022
1537 Clouds 26 1015 83 10000 2.06 180 15:50 14.06.2022
1538 Clouds 26 1015 83 10000 2.06 180 15:24 14.06.2022
1539 Clouds 25 1014 88 10000 1.54 180 14:33 14.06.2022
1540 Fog 24 1014 94 10000 1.03 0 13:42 14.06.2022
1541 Clouds 24 1013 100 10000 1.03 210 12:44 14.06.2022
1542 Clouds 23 1013 100 6000 1.03 20 11:32 14.06.2022
1543 Clouds 24 1013 88 10000 1.03 360 10:47 14.06.2022
1544 Clouds 24 1013 88 10000 1.03 360 10:20 14.06.2022
1545 Clouds 24 1014 94 10000 1.03 340 08:47 14.06.2022
1546 Clouds 24 1014 94 10000 1.54 40 07:33 14.06.2022
1547 Clouds 24 1015 94 10000 1.03 60 05:21 14.06.2022
1548 Clouds 25 1014 88 10000 1.54 150 02:57 14.06.2022
1549 Clouds 26 1013 83 10000 2.06 130 00:32 14.06.2022
1550 Rain 26 1013 83 10000 2.06 170 23:27 13.06.2022
1551 Clouds 27 1013 74 10000 2.57 140 22:26 13.06.2022
1552 Clouds 27 1013 74 10000 3.09 160 21:49 13.06.2022
1553 Clouds 27 1014 74 10000 2.06 160 20:31 13.06.2022
1554 Clouds 26 1015 78 10000 2.06 130 19:34 13.06.2022
1555 Clouds 25 1016 83 10000 2.06 130 18:25 13.06.2022
1556 Clouds 25 1017 83 10000 2.57 140 17:46 13.06.2022
1557 Rain 24 1017 88 10000 3.09 140 16:52 13.06.2022
1558 Rain 24 1017 88 10000 2.57 170 15:38 13.06.2022
1559 Rain 23 1016 94 10000 2.57 190 14:43 13.06.2022
1560 Rain 23 1016 100 10000 3.09 150 13:53 13.06.2022
1561 Clouds 23 1015 94 1800 3.09 170 12:47 13.06.2022
1562 Clouds 24 1014 94 5000 2.57 140 11:26 13.06.2022
1563 Rain 24 1014 94 4000 3.09 250 10:27 13.06.2022
1564 Clouds 24 1014 94 4000 2.06 180 09:38 13.06.2022
1565 Clouds 24 1015 88 10000 3.09 170 07:51 13.06.2022
1566 Rain 24 1016 88 10000 3.6 180 05:49 13.06.2022
1567 Clouds 25 1014 83 10000 5.14 180 02:55 13.06.2022
1568 Clouds 26 1014 83 10000 3.09 240 01:37 13.06.2022
1569 Clouds 26 1013 83 10000 3.09 210 00:21 13.06.2022
1570 Clouds 27 1012 78 10000 3.09 200 23:25 12.06.2022
1571 Clouds 28 1012 78 10000 4.12 270 22:22 12.06.2022
1572 Clouds 27 1012 78 10000 2.57 230 21:22 12.06.2022
1573 Clouds 28 1013 74 10000 2.57 230 20:33 12.06.2022
1574 Clouds 28 1014 69 10000 1.54 190 19:30 12.06.2022
1575 Clouds 27 1015 74 10000 2.06 160 17:53 12.06.2022
1576 Clouds 27 1016 74 10000 2.06 170 16:34 12.06.2022
1577 Clouds 25 1016 83 10000 1.54 170 15:18 12.06.2022
1578 Clouds 24 1016 88 10000 1.54 180 14:29 12.06.2022
1579 Clouds 24 1016 88 10000 2.06 170 13:55 12.06.2022
1580 Clouds 24 1014 88 9000 1.54 200 12:43 12.06.2022
1581 Clouds 24 1013 88 9000 1.54 170 11:40 12.06.2022
1582 Clouds 24 1013 88 10000 2.06 190 10:38 12.06.2022
1583 Clouds 24 1013 88 10000 1.54 20 09:19 12.06.2022
1584 Clouds 24 1013 88 10000 1.54 170 08:45 12.06.2022
1585 Rain 24 1013 83 10000 2.06 170 07:33 12.06.2022
1586 Clouds 24 1014 88 10000 2.06 120 04:52 12.06.2022
1587 Clouds 24 1014 88 10000 2.57 180 03:24 12.06.2022
1588 Clouds 24 1013 94 10000 1.54 210 01:42 12.06.2022
1589 Clouds 24 1012 94 10000 3.09 240 00:58 12.06.2022
1590 Clouds 24 1012 94 10000 3.09 240 00:20 12.06.2022
1591 Rain 24 1012 94 10000 3.09 240 23:44 11.06.2022
1592 Clouds 24 1012 94 10000 3.09 250 22:38 11.06.2022
1593 Rain 24 1013 88 10000 2.57 250 21:52 11.06.2022
1594 Rain 24 1013 94 10000 2.06 230 20:36 11.06.2022
1595 Rain 25 1014 88 10000 1.54 190 19:46 11.06.2022
1596 Clouds 25 1014 88 10000 1.54 190 19:25 11.06.2022
1597 Rain 25 1014 88 10000 2.06 180 18:33 11.06.2022
1598 Rain 25 1015 88 10000 2.06 150 17:51 11.06.2022
1599 Rain 25 1015 88 10000 2.06 150 17:26 11.06.2022
1600 Rain 25 1015 88 10000 2.06 150 16:55 11.06.2022
1601 Clouds 24 1015 94 10000 2.06 130 16:27 11.06.2022
1602 Rain 24 1015 94 8000 2.06 170 15:30 11.06.2022
1603 Rain 23 1014 100 6000 3.09 130 13:53 11.06.2022
1604 Rain 24 1013 94 10000 3.6 140 12:51 11.06.2022
1605 Rain 24 1012 100 10000 3.09 140 10:46 11.06.2022
1606 Rain 24 1011 100 10000 3.09 130 09:48 11.06.2022
1607 Thunderstorm 23 1012 100 5000 2.57 110 08:51 11.06.2022
1608 Thunderstorm 23 1012 100 1000 5.14 90 07:40 11.06.2022
1609 Rain 24 1012 94 10000 3.09 80 06:25 11.06.2022
1610 Clouds 27 1012 83 10000 2.06 80 04:23 11.06.2022
1611 Clear 26 1010 89 10000 1.54 60 01:52 11.06.2022
1612 Clear 26 1010 89 10000 1.54 60 01:27 11.06.2022
1613 Clouds 30 1008 70 10000 3.09 80 23:34 10.06.2022
1614 Clouds 30 1008 70 10000 4.63 80 22:31 10.06.2022
1615 Clouds 31 1009 66 10000 4.63 80 21:50 10.06.2022
1616 Clouds 30 1010 70 10000 4.12 70 20:40 10.06.2022
1617 Clouds 30 1010 70 10000 4.12 70 20:21 10.06.2022
1618 Clouds 30 1010 70 10000 4.12 70 20:21 10.06.2022
1619 Clouds 30 1011 62 10000 4.12 70 19:19 10.06.2022
1620 Clouds 30 1011 62 10000 4.12 70 18:55 10.06.2022
1621 Clouds 29 1013 70 10000 4.12 80 17:55 10.06.2022
1622 Clouds 29 1013 70 10000 3.09 60 17:33 10.06.2022
1623 Clouds 29 1014 70 10000 3.6 70 16:47 10.06.2022
1624 Clouds 28 1014 78 10000 2.06 60 15:40 10.06.2022
1625 Clouds 27 1014 83 10000 2.57 30 14:34 10.06.2022
1626 Clouds 25 1013 94 10000 1.54 30 13:23 10.06.2022
1627 Clear 25 1012 88 10000 1.03 50 11:59 10.06.2022
1628 Clear 25 1012 94 10000 1.54 50 11:25 10.06.2022
1629 Clear 25 1011 94 10000 1.03 40 10:35 10.06.2022
1630 Clear 25 1011 94 10000 1.54 20 09:21 10.06.2022
1631 Clear 26 1012 89 10000 1.54 0 07:51 10.06.2022
1632 Clear 26 1012 89 10000 2.57 70 06:47 10.06.2022
1633 Clear 26 1012 89 10000 2.57 70 06:28 10.06.2022
1634 Clear 26 1012 89 10000 2.57 50 04:55 10.06.2022
1635 Rain 26 1011 83 10000 1.54 70 02:31 10.06.2022
1636 Clouds 26 1010 83 10000 5.14 70 01:37 10.06.2022
1637 Clouds 31 1009 66 10000 2.06 180 23:58 09.06.2022
1638 Clouds 31 1008 62 10000 2.57 170 22:30 09.06.2022
1639 Clouds 31 1009 66 10000 3.09 210 21:43 09.06.2022
1640 Clouds 31 1009 66 10000 3.09 210 21:24 09.06.2022
1641 Clouds 31 1010 66 10000 2.06 200 20:38 09.06.2022
1642 Clouds 30 1011 70 10000 2.06 0 19:43 09.06.2022
1643 Clouds 31 1013 62 10000 2.57 360 18:37 09.06.2022
1644 Clouds 29 1014 74 10000 3.09 20 17:31 09.06.2022
1645 Clouds 29 1014 74 10000 3.09 350 16:28 09.06.2022
1646 Clouds 25 1013 94 10000 2.57 10 14:52 09.06.2022
1647 Clouds 25 1013 94 10000 2.06 60 14:27 09.06.2022
1648 Clouds 25 1012 94 10000 1.03 10 13:30 09.06.2022
1649 Clouds 25 1012 94 10000 1.03 10 12:55 09.06.2022
1650 Clouds 24 1011 94 10000 1.54 70 11:33 09.06.2022
1651 Clouds 23 1011 25 10000 1.03 70 09:55 09.06.2022
1652 Clouds 23 1011 25 10000 1.03 70 09:55 09.06.2022
1653 Clouds 23 1011 100 10000 0 0 09:37 09.06.2022
1654 Clouds 24 1011 100 10000 1.03 90 08:33 09.06.2022
1655 Clouds 24 1011 100 10000 1.54 70 07:24 09.06.2022
1656 Clouds 24 1011 94 10000 2.06 70 03:29 09.06.2022
1657 Rain 25 1009 88 10000 2.06 80 00:32 09.06.2022
1658 Clouds 26 1009 89 10000 2.06 50 22:59 08.06.2022
1659 Rain 26 1009 89 10000 2.06 50 22:30 08.06.2022
1660 Clouds 26 1010 83 10000 2.06 80 21:59 08.06.2022
1661 Rain 26 1010 83 10000 2.06 80 21:31 08.06.2022
1662 Rain 26 1011 83 10000 4.63 60 20:24 08.06.2022
1663 Clouds 27 1012 83 10000 2.57 80 19:40 08.06.2022
1664 Clouds 31 1013 66 10000 2.57 160 18:48 08.06.2022
1665 Clouds 30 1013 62 10000 2.06 80 17:35 08.06.2022
1666 Clouds 29 1014 70 10000 2.06 360 15:52 08.06.2022
1667 Clouds 26 1013 83 10000 1.54 20 14:31 08.06.2022
1668 Clear 24 1011 94 10000 1.03 30 12:46 08.06.2022
1669 Clear 25 1011 88 10000 1.03 20 11:35 08.06.2022
1670 Clear 25 1010 94 10000 1.03 60 10:37 08.06.2022
1671 Clear 24 1011 100 10000 1.03 90 09:28 08.06.2022
1672 Clear 25 1011 88 10000 0.51 80 08:49 08.06.2022
1673 Clear 26 1012 83 10000 1.54 10 06:43 08.06.2022
1674 Clear 26 1012 89 10000 1.54 60 04:35 08.06.2022
1675 Clouds 27 1009 78 10000 1.03 320 00:57 08.06.2022
1676 Clouds 30 1009 66 10000 2.06 130 23:31 07.06.2022
1677 Clouds 30 1009 62 10000 2.57 180 22:50 07.06.2022
1678 Clouds 30 1009 62 10000 2.57 180 22:31 07.06.2022
1679 Clouds 30 1010 62 10000 2.57 180 21:35 07.06.2022
1680 Clouds 30 1010 62 10000 3.09 190 20:59 07.06.2022
1681 Clouds 30 1010 62 10000 3.09 190 20:33 07.06.2022
1682 Clouds 30 1011 70 10000 2.06 200 19:48 07.06.2022
1683 Clouds 28 1012 74 10000 2.06 170 18:25 07.06.2022
1684 Clouds 28 1013 78 10000 3.09 210 17:31 07.06.2022
1685 Clouds 27 1014 83 10000 1.54 60 16:43 07.06.2022
1686 Clouds 26 1014 83 10000 1.54 60 15:57 07.06.2022
1687 Clouds 26 1014 83 10000 1.54 60 15:27 07.06.2022
1688 Clouds 25 1013 88 10000 2.57 50 14:52 07.06.2022
1689 Clouds 25 1013 88 10000 2.57 50 14:34 07.06.2022
1690 Clear 23 1013 94 10000 2.57 60 13:32 07.06.2022
1691 Clear 23 1012 94 10000 1.54 20 12:52 07.06.2022
1692 Clear 23 1011 94 10000 2.06 40 11:48 07.06.2022
1693 Clear 23 1011 94 10000 1.03 30 10:27 07.06.2022
1694 Clear 23 1012 94 10000 2.06 40 08:51 07.06.2022
1695 Clouds 24 1012 94 10000 4.63 20 07:34 07.06.2022
1696 Rain 24 1012 94 10000 1.54 10 06:38 07.06.2022
1697 Rain 24 1012 94 10000 1.54 10 06:38 07.06.2022
1698 Rain 24 1012 94 10000 1.03 320 04:20 07.06.2022
1699 Clouds 24 1011 94 10000 2.06 90 01:27 07.06.2022
1700 Rain 24 1012 88 10000 2.06 30 23:46 06.06.2022
1701 Rain 24 1012 88 8000 3.6 40 22:54 06.06.2022
1702 Rain 24 1012 88 8000 3.6 40 22:28 06.06.2022
1703 Rain 25 1012 88 9000 2.57 30 20:42 06.06.2022
1704 Clouds 29 1013 74 10000 1.54 80 19:24 06.06.2022
1705 Clouds 28 1014 78 10000 2.57 70 18:48 06.06.2022
1706 Clouds 27 1015 83 10000 2.57 50 17:59 06.06.2022
1707 Clouds 27 1015 83 10000 2.06 360 16:57 06.06.2022
1708 Clouds 27 1015 83 10000 2.06 360 15:57 06.06.2022
1709 Mist 26 1015 89 10000 1.54 50 14:59 06.06.2022
1710 Mist 26 1015 89 10000 1.54 50 14:59 06.06.2022
1711 Fog 24 1014 94 9000 1.54 360 14:26 06.06.2022
1712 Fog 24 1013 94 8000 1.54 360 13:20 06.06.2022
1713 Fog 23 1013 94 10000 1.54 350 12:35 06.06.2022
1714 Fog 23 1012 100 10000 1.03 350 11:49 06.06.2022
1715 Fog 24 1012 94 10000 1.54 340 09:53 06.06.2022
1716 Fog 24 1012 94 10000 1.54 320 09:18 06.06.2022
1717 Clouds 23 1012 100 10000 1.03 10 08:31 06.06.2022
1718 Clear 23 1012 100 10000 1.54 70 07:20 06.06.2022
1719 Clear 23 1013 94 10000 0.51 150 04:39 06.06.2022
1720 Clouds 24 1011 88 10000 2.06 170 01:57 06.06.2022
1721 Clouds 24 1011 88 10000 2.06 130 00:57 06.06.2022
1722 Clouds 24 1011 88 10000 2.06 130 00:34 06.06.2022
1723 Clouds 25 1011 83 10000 2.06 130 23:20 05.06.2022
1724 Clouds 25 1011 88 10000 2.57 40 22:26 05.06.2022
1725 Clouds 23 1012 94 10000 2.57 50 20:29 05.06.2022
1726 Clouds 22 1014 100 5000 4.63 80 19:26 05.06.2022
1727 Rain 22 1016 100 1000 7.72 110 18:19 05.06.2022
1728 Rain 26 1015 83 10000 3.09 170 17:39 05.06.2022
1729 Clouds 27 1015 83 10000 3.09 170 17:21 05.06.2022
1730 Rain 27 1015 83 10000 2.57 180 16:47 05.06.2022
1731 Clouds 26 1015 89 10000 3.09 270 15:28 05.06.2022
1732 Clouds 26 1013 89 10000 2.57 270 14:21 05.06.2022
1733 Clouds 25 1012 94 10000 2.06 320 11:59 05.06.2022
1734 Clouds 25 1012 94 10000 2.57 340 10:45 05.06.2022
1735 Clouds 25 1012 94 10000 2.57 340 10:24 05.06.2022
1736 Clouds 25 1012 94 10000 2.06 310 09:42 05.06.2022
1737 Clouds 25 1012 94 10000 2.06 310 08:25 05.06.2022
1738 Clouds 26 1012 94 10000 3.09 290 06:25 05.06.2022
1739 Clouds 25 1013 94 10000 2.06 300 05:19 05.06.2022
1740 Clouds 25 1011 100 10000 2.57 250 02:48 05.06.2022
1741 Clouds 26 1011 89 10000 2.06 290 01:24 05.06.2022
1742 Rain 26 1010 89 10000 3.6 260 23:36 04.06.2022
1743 Rain 25 1010 100 8000 3.6 300 21:30 04.06.2022
1744 Rain 27 1012 83 10000 3.09 250 19:36 04.06.2022
1745 Clouds 26 1013 89 10000 1.03 180 17:21 04.06.2022
1746 Thunderstorm 26 1014 89 10000 2.06 160 16:20 04.06.2022
1747 Clouds 26 1014 94 10000 2.57 220 15:45 04.06.2022
1748 Clouds 25 1013 94 10000 2.06 250 14:18 04.06.2022
1749 Clouds 25 1012 94 7000 1.54 240 11:43 04.06.2022
1750 Clouds 25 1012 94 10000 1.54 250 10:55 04.06.2022
1751 Clouds 25 1012 100 10000 1.54 290 09:59 04.06.2022
1752 Clouds 25 1012 100 10000 1.54 290 09:38 04.06.2022
1753 Rain 25 1012 100 10000 1.54 320 08:39 04.06.2022
1754 Rain 23 1012 95 10000 0.9 122 07:00 04.06.2022
1755 Clouds 27 1012 89 6000 4.12 110 04:29 04.06.2022
1756 Clouds 27 1009 83 10000 2.57 70 00:24 04.06.2022
1757 Clouds 28 1009 78 10000 3.09 90 23:19 03.06.2022
1758 Clouds 29 1009 74 10000 4.12 70 22:20 03.06.2022
1759 Clouds 31 1011 70 10000 3.6 80 20:42 03.06.2022
1760 Clouds 31 1011 70 10000 3.6 80 20:42 03.06.2022
1761 Clouds 31 1011 70 10000 3.6 80 19:58 03.06.2022
1762 Clouds 30 1013 74 10000 1.54 100 16:59 03.06.2022
1763 Clouds 29 1014 79 10000 3.6 70 16:30 03.06.2022
1764 Clouds 27 1013 89 10000 1.54 70 14:47 03.06.2022
1765 Clear 25 1012 94 10000 0.51 90 12:26 03.06.2022
1766 Clear 25 1011 88 10000 0.51 300 09:58 03.06.2022
1767 Clear 25 1011 88 10000 0.51 300 09:29 03.06.2022
1768 Clear 24 1012 94 10000 1.03 220 07:50 03.06.2022
1769 Clear 24 1012 94 10000 1.03 220 07:19 03.06.2022
1770 Clear 26 1012 83 10000 2.06 250 06:30 03.06.2022
1771 Clear 26 1012 83 10000 2.06 10 04:35 03.06.2022
1772 Clouds 27 1010 74 10000 3.09 360 00:21 03.06.2022
1773 Rain 29 1009 74 10000 2.57 110 22:34 02.06.2022
1774 Clouds 30 1009 70 10000 3.6 170 20:58 02.06.2022
1775 Clouds 30 1010 70 10000 3.6 180 19:59 02.06.2022
1776 Clouds 30 1011 70 10000 3.6 180 19:40 02.06.2022
1777 Clouds 30 1012 74 10000 2.06 150 18:59 02.06.2022
1778 Clouds 27 1014 78 10000 1.54 180 16:30 02.06.2022
1779 Clouds 27 1014 83 10000 1.54 120 15:47 02.06.2022
1780 Clouds 25 1013 94 10000 1.54 170 13:32 02.06.2022
1781 Clouds 25 1012 94 10000 1.03 0 12:51 02.06.2022
1782 Clouds 24 1011 100 10000 1.03 0 10:48 02.06.2022
1783 Clouds 24 1011 100 10000 0 0 09:45 02.06.2022
1784 Clouds 24 1011 100 10000 0 0 09:26 02.06.2022
1785 Clouds 25 1011 94 10000 1.54 170 08:23 02.06.2022
1786 Clouds 24 1012 100 10000 0.51 0 06:21 02.06.2022
1787 Clouds 24 1011 94 10000 0.51 100 03:51 02.06.2022
1788 Clouds 24 1009 94 10000 1.03 120 01:33 02.06.2022
1789 Clouds 25 1009 88 10000 1.54 60 23:22 01.06.2022
1790 Clouds 25 1010 88 10000 3.09 70 22:18 01.06.2022
1791 Clouds 25 1010 88 10000 3.09 80 21:24 01.06.2022
1792 Clouds 25 1012 88 10000 4.12 80 20:39 01.06.2022
1793 Rain 24 1013 94 10000 3.09 100 19:52 01.06.2022
1794 Clouds 23 1013 94 8000 3.6 110 18:41 01.06.2022
1795 Clouds 27 1014 78 10000 3.09 230 16:58 01.06.2022
1796 Clouds 27 1014 78 10000 3.09 300 15:45 01.06.2022
1797 Clouds 25 1013 88 10000 3.09 310 14:50 01.06.2022
1798 Drizzle 24 1012 94 10000 2.57 360 13:26 01.06.2022
1799 Clouds 24 1011 94 10000 2.57 300 11:23 01.06.2022
1800 Clouds 24 1010 94 10000 2.57 330 09:30 01.06.2022
1801 Clouds 25 1010 88 10000 2.57 340 08:19 01.06.2022
1802 Clouds 25 1010 88 10000 3.09 320 07:20 01.06.2022
1803 Rain 26 1011 83 10000 2.06 360 04:41 01.06.2022
1804 Clouds 28 1008 78 10000 2.06 170 23:50 31.05.2022
1805 Rain 29 1009 74 10000 2.06 260 22:43 31.05.2022
1806 Rain 29 1009 74 10000 2.06 260 22:24 31.05.2022
1807 Clouds 28 1009 78 10000 1.54 0 21:39 31.05.2022
1808 Clouds 28 1009 78 10000 2.57 240 20:44 31.05.2022
1809 Clouds 27 1010 83 10000 2.57 320 19:46 31.05.2022
1810 Clouds 28 1011 78 10000 2.57 350 18:32 31.05.2022
1811 Clouds 28 1012 74 10000 1.54 0 17:38 31.05.2022
1812 Rain 25 1012 88 10000 1.54 190 15:55 31.05.2022
1813 Rain 25 1012 88 10000 1.54 190 15:34 31.05.2022
1814 Rain 24 1010 94 10000 2.06 310 12:56 31.05.2022
1815 Clouds 24 1010 94 10000 2.06 310 12:18 31.05.2022
1816 Clouds 25 1009 94 10000 1.03 20 10:25 31.05.2022
1817 Clouds 26 1010 94 10000 1.03 70 08:26 31.05.2022
1818 Clouds 26 1011 94 10000 2.06 250 06:21 31.05.2022
1819 Clouds 27 1011 83 10000 2.06 20 04:31 31.05.2022
1820 Clouds 28 1008 74 10000 3.6 80 23:45 30.05.2022
1821 Clouds 28 1008 74 10000 3.6 80 23:24 30.05.2022
1822 Clouds 29 1007 70 10000 4.12 60 22:37 30.05.2022
1823 Rain 31 1007 66 10000 5.66 70 21:40 30.05.2022
1824 Clouds 31 1009 70 10000 2.06 190 20:51 30.05.2022
1825 Clouds 31 1010 70 10000 3.09 170 19:43 30.05.2022
1826 Clouds 29 1013 74 10000 2.06 210 17:53 30.05.2022
1827 Clouds 29 1013 74 10000 2.06 210 17:21 30.05.2022
1828 Clouds 28 1013 78 10000 1.54 310 15:54 30.05.2022
1829 Clouds 26 1011 83 10000 1.03 350 13:32 30.05.2022
1830 Clear 24 1010 100 10000 1.03 350 11:40 30.05.2022
1831 Clouds 25 1010 94 10000 2.06 320 09:52 30.05.2022
1832 Thunderstorm 26 1011 89 10000 1.54 290 07:51 30.05.2022
1833 Clouds 26 1012 89 10000 1.54 300 06:22 30.05.2022
1834 Clouds 26 1011 94 10000 1.54 310 04:46 30.05.2022
1835 Clouds 26 1009 89 10000 1.03 0 00:18 30.05.2022
1836 Clouds 28 1009 78 10000 2.06 140 22:40 29.05.2022
1837 Clouds 27 1009 78 10000 1.54 70 21:44 29.05.2022
1838 Rain 26 1009 78 10000 1.54 0 20:21 29.05.2022
1839 Rain 25 1011 94 10000 2.57 70 19:28 29.05.2022
1840 Rain 25 1013 94 3000 2.06 150 17:56 29.05.2022
1841 Clouds 28 1013 83 10000 1.54 200 16:22 29.05.2022
1842 Clouds 26 1013 94 8000 2.57 240 15:43 29.05.2022
1843 Clouds 26 1012 94 10000 2.57 250 14:54 29.05.2022
1844 Clouds 26 1011 94 10000 2.06 320 12:33 29.05.2022
1845 Clouds 26 1010 94 10000 1.54 300 11:19 29.05.2022
1846 Clear 27 1010 89 10000 2.06 290 09:54 29.05.2022
1847 Clear 27 1011 89 10000 1.54 310 07:59 29.05.2022
1848 Clear 28 1012 83 10000 2.06 280 04:58 29.05.2022
1849 Clear 26 1012 89 10000 0 0 04:33 29.05.2022
1850 Clouds 27 1009 83 10000 1.03 80 01:23 29.05.2022
1851 Clouds 31 1008 66 10000 3.09 80 23:47 28.05.2022
1852 Clouds 31 1008 66 10000 3.09 80 23:19 28.05.2022
1853 Clouds 30 1008 66 10000 2.06 20 21:53 28.05.2022
1854 Rain 32 1009 58 10000 2.06 90 20:53 28.05.2022
1855 Clouds 31 1011 66 10000 4.12 60 19:20 28.05.2022
1856 Clouds 32 1012 66 10000 4.12 60 18:23 28.05.2022
1857 Clouds 29 1013 79 10000 4.12 30 17:32 28.05.2022
1858 Clouds 29 1014 74 10000 3.6 60 15:49 28.05.2022
1859 Clouds 29 1014 74 10000 3.6 60 15:20 28.05.2022
1860 Rain 27 1013 83 10000 0 0 13:36 28.05.2022
1861 Rain 25 1012 94 10000 1.03 0 12:42 28.05.2022
1862 Clouds 26 1011 89 10000 2.06 80 11:37 28.05.2022
1863 Rain 26 1011 89 10000 2.06 80 10:38 28.05.2022
1864 Rain 25 1011 88 10000 1.03 100 09:54 28.05.2022
1865 Clouds 27 1011 83 10000 1.03 20 08:24 28.05.2022
1866 Clouds 26 1012 94 10000 1.03 0 06:34 28.05.2022
1867 Clouds 27 1012 89 10000 1.03 0 04:46 28.05.2022
1868 Rain 26 1011 89 10000 1.54 310 02:18 28.05.2022
1869 Rain 29 1010 79 10000 3.09 90 23:55 27.05.2022
1870 Clouds 31 1009 66 10000 4.12 70 22:38 27.05.2022
1871 Clouds 32 1009 66 10000 5.14 60 21:22 27.05.2022
1872 Clouds 32 1010 62 10000 4.12 90 20:43 27.05.2022
1873 Clouds 32 1010 62 10000 4.12 90 20:18 27.05.2022
1874 Clouds 32 1012 66 10000 3.09 40 19:37 27.05.2022
1875 Clouds 32 1012 66 10000 3.09 40 19:18 27.05.2022
1876 Clouds 30 1014 70 10000 3.6 20 16:53 27.05.2022
1877 Clouds 30 1014 70 10000 3.6 20 15:55 27.05.2022
1878 Clear 28 1014 74 10000 1.54 50 14:47 27.05.2022
1879 Clear 27 1013 78 10000 1.54 50 13:40 27.05.2022
1880 Clear 26 1012 83 10000 2.57 40 11:53 27.05.2022
1881 Clear 26 1012 83 10000 3.09 40 11:27 27.05.2022
1882 Clear 26 1012 83 10000 2.06 20 10:38 27.05.2022
1883 Clear 26 1012 83 10000 2.06 20 09:58 27.05.2022
1884 Clear 26 1012 83 10000 2.06 20 09:28 27.05.2022
1885 Clear 27 1012 74 10000 1.54 60 06:58 27.05.2022
1886 Clear 29 1013 70 10000 2.57 70 02:59 27.05.2022
1887 Clouds 29 1010 70 10000 3.6 80 00:57 27.05.2022
1888 Clouds 31 1010 66 10000 5.66 70 23:23 26.05.2022
1889 Clouds 32 1010 62 10000 6.69 70 21:48 26.05.2022
1890 Clouds 32 1010 62 10000 6.69 70 21:27 26.05.2022
1891 Clouds 32 1013 62 10000 6.69 80 19:34 26.05.2022
1892 Clouds 31 1014 66 10000 6.69 70 18:31 26.05.2022
1893 Clouds 31 1015 70 10000 5.14 60 17:34 26.05.2022
1894 Clear 30 1015 74 10000 4.63 50 15:58 26.05.2022
1895 Clear 29 1015 74 10000 4.63 50 15:19 26.05.2022
1896 Clear 28 1015 83 10000 2.57 60 13:56 26.05.2022
1897 Clear 26 1012 83 10000 1.54 90 11:49 26.05.2022
1898 Clear 26 1011 83 10000 2.06 80 10:39 26.05.2022
1899 Clear 26 1012 83 10000 2.06 70 09:38 26.05.2022
1900 Clear 26 1012 89 10000 2.06 80 08:38 26.05.2022
1901 Clear 27 1013 83 10000 2.57 70 05:26 26.05.2022
1902 Clear 28 1011 78 10000 3.09 70 02:19 26.05.2022
1903 Clouds 30 1010 66 10000 4.12 60 23:41 25.05.2022
1904 Clouds 31 1010 62 10000 3.09 80 22:51 25.05.2022
1905 Thunderstorm 32 1011 62 10000 4.63 70 21:41 25.05.2022
1906 Clouds 31 1012 66 10000 6.17 80 20:47 25.05.2022
1907 Clouds 31 1013 66 10000 4.63 60 19:32 25.05.2022
1908 Clouds 31 1014 70 10000 5.14 50 18:36 25.05.2022
1909 Clear 30 1015 66 10000 6.69 50 16:53 25.05.2022
1910 Clear 30 1015 66 10000 5.14 30 16:25 25.05.2022
1911 Clear 29 1015 70 10000 4.63 70 15:36 25.05.2022
1912 Clear 28 1014 74 10000 5.14 50 14:42 25.05.2022
1913 Clear 28 1014 74 10000 5.14 50 14:24 25.05.2022
1914 Clear 26 1014 83 10000 2.57 260 13:21 25.05.2022
1915 Clear 25 1012 88 10000 2.06 30 11:32 25.05.2022
1916 Clear 26 1012 83 10000 2.57 70 10:24 25.05.2022
1917 Clear 27 1012 78 10000 2.57 70 09:29 25.05.2022
1918 Clouds 23 1012 91 10000 1.66 62 07:26 25.05.2022
1919 Clear 26 1013 83 10000 1.03 50 05:27 25.05.2022
1920 Clouds 25 1011 87 10000 1.61 94 01:51 25.05.2022
1921 Clouds 30 1009 66 10000 4.63 70 23:48 24.05.2022
1922 Clouds 31 1010 62 10000 5.14 70 22:58 24.05.2022
1923 Clouds 31 1010 62 10000 4.63 90 21:47 24.05.2022
1924 Clouds 31 1010 62 10000 4.63 90 21:23 24.05.2022
1925 Clouds 31 1011 66 10000 4.12 50 20:59 24.05.2022
1926 Clouds 31 1012 66 10000 5.14 80 19:20 24.05.2022
1927 Clouds 30 1014 70 10000 3.6 40 17:50 24.05.2022
1928 Clear 29 1014 74 10000 3.6 20 16:36 24.05.2022
1929 Clear 27 1014 83 10000 3.09 70 15:27 24.05.2022
1930 Clear 27 1014 83 10000 2.57 50 14:37 24.05.2022
1931 Clear 25 1013 88 10000 1.54 30 13:35 24.05.2022
1932 Clear 24 1013 94 10000 1.54 50 12:18 24.05.2022
1933 Clear 25 1012 94 10000 2.06 40 09:50 24.05.2022
1934 Clear 25 1012 94 10000 1.54 40 08:51 24.05.2022
1935 Clear 25 1013 94 10000 2.06 60 07:32 24.05.2022
1936 Clear 25 1013 88 10000 2.06 60 06:34 24.05.2022
1937 Clear 26 1013 89 10000 1.03 0 03:32 24.05.2022
1938 Clear 27 1011 83 10000 1.03 180 01:46 24.05.2022
1939 Clouds 27 1011 83 10000 1.03 30 00:21 24.05.2022
1940 Clouds 29 1011 70 10000 2.57 70 22:24 23.05.2022
1941 Clouds 30 1011 66 10000 2.06 160 21:45 23.05.2022
1942 Clouds 30 1012 70 10000 2.06 150 20:46 23.05.2022
1943 Clouds 29 1014 70 10000 2.06 100 19:47 23.05.2022
1944 Clouds 29 1014 70 10000 2.06 100 19:22 23.05.2022
1945 Rain 26 1015 78 10000 2.06 340 18:40 23.05.2022
1946 Rain 25 1016 88 10000 3.09 50 17:56 23.05.2022
1947 Clouds 28 1016 78 10000 2.06 220 16:28 23.05.2022
1948 Clouds 27 1016 78 10000 2.57 360 14:18 23.05.2022
1949 Clear 25 1014 88 10000 2.57 340 11:52 23.05.2022
1950 Clear 25 1013 83 10000 1.03 320 10:47 23.05.2022
1951 Clear 25 1013 88 10000 1.54 10 09:47 23.05.2022
1952 Clear 25 1014 88 10000 2.06 20 08:46 23.05.2022
1953 Clear 25 1014 88 10000 2.06 20 08:46 23.05.2022
1954 Clear 26 1014 83 10000 2.06 360 07:24 23.05.2022
1955 Clear 26 1015 83 10000 2.06 10 06:39 23.05.2022
1956 Clear 27 1015 78 10000 1.54 10 03:27 23.05.2022
1957 Clear 26 1014 83 10000 0.51 200 01:52 23.05.2022
1958 Clear 26 1014 83 10000 0.51 200 01:29 23.05.2022
1959 Clouds 29 1013 70 10000 2.57 190 23:18 22.05.2022
1960 Rain 30 1013 66 10000 3.09 160 22:27 22.05.2022
1961 Rain 28 1013 74 10000 3.6 160 21:51 22.05.2022
1962 Clouds 30 1014 70 10000 2.06 190 20:43 22.05.2022
1963 Clouds 30 1014 70 10000 2.06 190 20:21 22.05.2022
1964 Clouds 30 1015 66 10000 2.57 160 19:19 22.05.2022
1965 Clouds 29 1017 65 10000 2.06 250 18:46 22.05.2022
1966 Clouds 29 1017 65 10000 2.06 250 18:21 22.05.2022
1967 Clouds 28 1018 74 10000 3.6 260 16:51 22.05.2022
1968 Clouds 28 1018 74 10000 1.54 290 15:25 22.05.2022
1969 Clouds 27 1018 78 10000 2.57 310 14:44 22.05.2022
1970 Clouds 26 1017 78 10000 1.54 320 12:54 22.05.2022
1971 Clouds 26 1016 78 10000 1.03 320 12:31 22.05.2022
1972 Clear 26 1015 83 10000 1.54 320 10:53 22.05.2022
1973 Clear 25 1015 88 10000 1.54 360 09:31 22.05.2022
1974 Clear 25 1015 88 10000 2.06 350 07:49 22.05.2022
1975 Clear 25 1015 88 10000 2.06 350 07:20 22.05.2022
1976 Clear 26 1016 83 10000 1.54 10 04:19 22.05.2022
1977 Clouds 26 1015 83 10000 1.54 170 00:59 22.05.2022
1978 Clouds 28 1014 74 10000 2.57 140 23:57 21.05.2022
1979 Clouds 28 1014 74 10000 2.57 140 23:29 21.05.2022
1980 Clouds 29 1014 65 10000 2.06 180 21:59 21.05.2022
1981 Clouds 29 1014 65 10000 2.06 180 21:38 21.05.2022
1982 Clouds 30 1015 62 10000 2.57 180 20:47 21.05.2022
1983 Clouds 30 1015 62 10000 2.57 180 19:55 21.05.2022
1984 Clouds 30 1016 62 10000 2.57 190 19:20 21.05.2022
1985 Clouds 28 1018 74 10000 1.03 0 17:23 21.05.2022
1986 Clear 26 1017 78 10000 1.03 220 14:51 21.05.2022
1987 Clear 26 1017 78 10000 1.03 220 14:19 21.05.2022
1988 Clear 25 1016 83 10000 1.03 210 13:25 21.05.2022
1989 Clear 24 1016 88 10000 1.54 240 12:39 21.05.2022
1990 Clear 24 1015 94 10000 1.03 240 11:38 21.05.2022
1991 Clear 24 1015 88 10000 1.03 310 10:21 21.05.2022
1992 Clear 25 1015 83 10000 1.03 200 08:59 21.05.2022
1993 Clear 25 1015 83 10000 1.03 200 08:38 21.05.2022
1994 Clouds 22 1015 82 10000 0.8 21 06:20 21.05.2022
1995 Clear 26 1015 69 10000 1.03 210 01:42 21.05.2022
1996 Clouds 28 1015 57 10000 2.06 190 23:36 20.05.2022
1997 Clouds 28 1015 57 10000 2.57 190 22:40 20.05.2022
1998 Clouds 28 1015 57 10000 2.57 190 21:58 20.05.2022
1999 Clouds 29 1015 58 10000 2.57 200 21:19 20.05.2022
2000 Clouds 28 1015 61 10000 3.09 160 20:47 20.05.2022
2001 Clouds 27 1016 65 10000 3.09 210 19:45 20.05.2022
2002 Clouds 27 1017 65 10000 2.57 200 18:53 20.05.2022
2003 Clouds 27 1017 65 10000 2.57 200 18:18 20.05.2022
2004 Clouds 25 1018 73 10000 2.06 190 16:23 20.05.2022
2005 Clouds 25 1018 73 10000 2.06 170 15:54 20.05.2022
2006 Clouds 25 1017 73 10000 1.54 200 14:44 20.05.2022
2007 Clouds 25 1017 73 10000 1.54 200 14:26 20.05.2022
2008 Clear 24 1015 83 10000 1.03 210 11:52 20.05.2022
2009 Clear 24 1015 78 10000 1.54 260 10:45 20.05.2022
2010 Clear 24 1015 78 10000 1.54 250 09:23 20.05.2022
2011 Clear 21 1015 94 10000 0 0 08:24 20.05.2022
2012 Clear 24 1016 73 10000 2.57 260 06:42 20.05.2022
2013 Clear 24 1016 83 10000 2.57 260 05:39 20.05.2022
2014 Rain 25 1010 69 10000 2.06 250 01:29 20.05.2022
2015 Clouds 26 1013 65 10000 2.06 200 23:46 19.05.2022
2016 Clouds 26 1013 61 10000 1.03 170 22:35 19.05.2022
2017 Clouds 26 1014 65 10000 2.06 210 21:50 19.05.2022
2018 Clouds 26 1014 65 10000 2.06 210 21:23 19.05.2022
2019 Rain 26 1015 61 10000 2.06 190 20:43 19.05.2022
2020 Clouds 26 1015 61 10000 1.54 160 19:54 19.05.2022
2021 Clouds 26 1016 61 10000 1.03 170 18:59 19.05.2022
2022 Clouds 25 1017 65 10000 3.09 120 17:36 19.05.2022
2023 Rain 24 1017 73 10000 2.57 160 15:43 19.05.2022
2024 Clouds 24 1017 73 10000 2.06 180 14:39 19.05.2022
2025 Clouds 24 1017 73 10000 2.06 180 14:19 19.05.2022
2026 Clouds 24 1014 78 10000 3.09 150 11:53 19.05.2022
2027 Rain 24 1014 83 10000 3.09 160 10:30 19.05.2022
2028 Clouds 25 1014 78 10000 3.09 160 08:39 19.05.2022
2029 Clouds 25 1015 83 10000 3.6 150 07:18 19.05.2022
2030 Clouds 25 1015 94 10000 1.54 250 03:26 19.05.2022
2031 Rain 26 1013 89 10000 3.6 250 00:57 19.05.2022
2032 Clouds 27 1013 78 10000 2.06 250 23:35 18.05.2022
2033 Rain 27 1013 78 10000 2.06 210 22:43 18.05.2022
2034 Clouds 27 1013 78 10000 2.57 190 21:42 18.05.2022
2035 Clouds 27 1013 78 10000 2.57 190 21:20 18.05.2022
2036 Clouds 27 1014 78 10000 1.54 200 20:19 18.05.2022
2037 Clouds 26 1015 83 10000 3.09 130 18:53 18.05.2022
2038 Clouds 26 1016 83 10000 1.54 70 17:42 18.05.2022
2039 Clouds 26 1016 83 10000 1.54 70 17:23 18.05.2022
2040 Clouds 25 1016 83 10000 3.09 90 16:52 18.05.2022
2041 Clouds 25 1016 83 10000 3.6 140 15:43 18.05.2022
2042 Clouds 25 1016 83 10000 3.6 140 15:19 18.05.2022
2043 Clouds 25 1015 88 10000 3.6 130 13:53 18.05.2022
2044 Clouds 25 1014 88 10000 3.09 140 12:53 18.05.2022
2045 Rain 25 1013 88 10000 4.12 140 11:47 18.05.2022
2046 Clouds 25 1013 88 10000 4.12 140 11:29 18.05.2022
2047 Clouds 25 1013 94 10000 3.6 150 10:36 18.05.2022
2048 Clouds 25 1013 100 10000 2.06 190 07:56 18.05.2022
2049 Clouds 25 1015 94 10000 1.54 190 06:52 18.05.2022
2050 Clouds 26 1014 94 8000 1.54 0 02:47 18.05.2022
2051 Rain 25 1012 100 10000 0 0 00:41 18.05.2022
2052 Rain 26 1011 94 10000 1.54 180 22:59 17.05.2022
2053 Clouds 25 1011 94 10000 4.12 120 21:21 17.05.2022
2054 Clouds 25 1011 94 10000 4.12 120 21:21 17.05.2022
2055 Clouds 26 1011 89 5000 4.12 150 20:38 17.05.2022
2056 Clouds 29 1013 79 10000 2.57 190 19:29 17.05.2022
2057 Clouds 28 1014 78 10000 3.09 150 18:22 17.05.2022
2058 Clouds 28 1015 78 10000 2.06 170 17:28 17.05.2022
2059 Rain 27 1015 83 10000 4.12 160 16:53 17.05.2022
2060 Rain 26 1015 94 10000 3.09 140 15:45 17.05.2022
2061 Clouds 26 1014 94 10000 2.57 150 14:48 17.05.2022
2062 Clouds 26 1014 94 10000 2.57 150 14:23 17.05.2022
2063 Clouds 25 1013 100 10000 1.54 180 12:32 17.05.2022
2064 Rain 25 1012 94 10000 3.09 180 10:23 17.05.2022
2065 Thunderstorm 26 1013 94 10000 2.57 170 08:45 17.05.2022
2066 Clouds 26 1013 94 10000 1.54 220 07:40 17.05.2022
2067 Clouds 26 1014 100 10000 1.03 200 04:33 17.05.2022
2068 Clouds 26 1010 100 10000 0.51 250 00:47 17.05.2022
2069 Rain 27 1010 94 10000 1.54 190 22:45 16.05.2022
2070 Rain 27 1010 94 10000 1.54 190 22:18 16.05.2022
2071 Rain 26 1011 100 10000 2.57 170 20:50 16.05.2022
2072 Rain 26 1012 100 10000 2.57 180 19:59 16.05.2022
2073 Rain 26 1013 100 10000 1.03 160 18:32 16.05.2022
2074 Rain 29 1014 79 10000 2.06 350 16:37 16.05.2022
2075 Rain 27 1013 89 10000 1.03 310 14:46 16.05.2022
2076 Rain 26 1013 94 10000 0.51 230 13:26 16.05.2022
2077 Rain 25 1011 100 10000 1.03 20 11:34 16.05.2022
2078 Fog 26 1011 94 10000 1.03 10 10:30 16.05.2022
2079 Rain 26 1012 94 10000 1.03 20 07:45 16.05.2022
2080 Clouds 26 1013 94 10000 1.54 30 05:40 16.05.2022
2081 Clouds 27 1009 89 10000 2.06 20 23:59 15.05.2022
2082 Rain 28 1008 83 10000 2.06 360 22:36 15.05.2022
2083 Rain 27 1009 89 10000 3.09 360 21:48 15.05.2022
2084 Rain 27 1009 89 10000 3.09 360 21:21 15.05.2022
2085 Clouds 27 1010 89 10000 4.12 30 20:34 15.05.2022
2086 Clouds 30 1012 74 10000 3.09 40 17:56 15.05.2022
2087 Clouds 29 1013 84 10000 3.09 40 16:36 15.05.2022
2088 Clouds 27 1012 94 10000 0 0 14:18 15.05.2022
2089 Fog 26 1012 100 10000 1.03 300 13:35 15.05.2022
2090 Clouds 25 1010 100 10000 0.51 210 11:55 15.05.2022
2091 Clouds 26 1010 94 10000 1.03 180 10:35 15.05.2022
2092 Clear 25 1010 100 10000 0.51 160 08:52 15.05.2022
2093 Clouds 25 1011 100 10000 1.03 110 06:59 15.05.2022
2094 Rain 25 1011 100 10000 1.03 110 06:39 15.05.2022
2095 Clouds 26 1011 94 10000 1.54 0 02:24 15.05.2022
2096 Rain 28 1008 83 10000 3.09 360 23:56 14.05.2022
2097 Rain 27 1008 89 10000 1.54 160 23:34 14.05.2022
2098 Rain 32 1007 66 10000 3.09 340 21:45 14.05.2022
2099 Rain 32 1007 66 10000 3.09 340 21:19 14.05.2022
2100 Clouds 32 1010 66 10000 3.09 80 19:40 14.05.2022
2101 Clouds 32 1010 66 10000 3.09 80 19:40 14.05.2022
2102 Clouds 32 1010 66 10000 3.09 80 19:20 14.05.2022
2103 Clouds 32 1011 66 10000 3.6 360 18:47 14.05.2022
2104 Clouds 31 1012 70 10000 3.6 50 17:36 14.05.2022
2105 Clouds 29 1012 79 10000 1.54 220 15:47 14.05.2022
2106 Clouds 29 1012 79 10000 0 0 14:36 14.05.2022
2107 Clear 26 1011 89 10000 1.03 10 12:51 14.05.2022
2108 Clear 25 1010 94 10000 1.54 350 11:37 14.05.2022
2109 Clear 25 1010 94 10000 0 0 10:23 14.05.2022
2110 Clear 25 1010 94 10000 0 0 09:54 14.05.2022
2111 Clear 26 1010 89 10000 1.03 20 08:59 14.05.2022
2112 Clear 26 1011 89 10000 1.54 20 07:20 14.05.2022
2113 Clear 27 1011 89 10000 1.54 40 03:41 14.05.2022
2114 Rain 28 1008 78 10000 1.54 40 23:48 13.05.2022
2115 Rain 28 1008 78 10000 1.54 40 23:22 13.05.2022
2116 Rain 28 1008 78 10000 1.54 40 22:51 13.05.2022
2117 Rain 28 1008 78 10000 1.54 40 22:19 13.05.2022
2118 Rain 30 1009 74 10000 3.6 60 20:49 13.05.2022
2119 Rain 30 1009 74 10000 3.6 60 20:27 13.05.2022
2120 Rain 29 1011 79 10000 3.6 350 19:40 13.05.2022
2121 Clouds 31 1012 70 10000 4.12 90 18:41 13.05.2022
2122 Clouds 31 1013 74 10000 3.6 10 17:29 13.05.2022
2123 Clouds 29 1013 79 10000 4.12 30 16:23 13.05.2022
2124 Clouds 30 1013 74 10000 3.09 70 15:39 13.05.2022
2125 Clouds 28 1013 78 10000 2.06 20 13:54 13.05.2022
2126 Clouds 25 1011 94 10000 1.54 30 12:33 13.05.2022
2127 Clear 25 1010 94 10000 1.03 70 11:23 13.05.2022
2128 Clear 25 1010 94 10000 1.03 50 09:35 13.05.2022
2129 Clear 26 1010 89 10000 1.54 10 08:50 13.05.2022
2130 Clear 26 1011 83 10000 3.6 360 07:48 13.05.2022
2131 Clear 27 1012 78 10000 3.09 360 06:34 13.05.2022
2132 Clear 29 1011 74 10000 2.06 0 03:34 13.05.2022
2133 Rain 29 1009 74 10000 1.03 60 00:39 13.05.2022
2134 Clouds 29 1008 74 10000 3.6 70 22:45 12.05.2022
2135 Clouds 29 1008 74 10000 4.12 90 21:58 12.05.2022
2136 Clouds 32 1009 62 10000 5.66 80 20:37 12.05.2022
2137 Clouds 32 1010 66 10000 6.17 60 19:18 12.05.2022
2138 Clouds 31 1012 70 10000 3.09 60 17:27 12.05.2022
2139 Clouds 30 1013 79 10000 2.06 80 16:23 12.05.2022
2140 Clouds 28 1012 83 10000 3.09 40 14:42 12.05.2022
2141 Clouds 27 1012 83 10000 3.09 70 13:47 12.05.2022
2142 Clear 26 1009 89 10000 2.57 70 10:52 12.05.2022
2143 Clear 27 1010 83 10000 2.06 70 09:30 12.05.2022
2144 Clear 27 1010 83 10000 2.06 70 08:51 12.05.2022
2145 Clear 27 1011 89 10000 1.54 70 07:40 12.05.2022
2146 Clear 27 1011 83 10000 1.54 80 06:34 12.05.2022
2147 Clear 28 1010 78 10000 2.06 80 02:58 12.05.2022
2148 Clouds 29 1008 74 10000 2.57 70 00:36 12.05.2022
2149 Clouds 31 1008 62 10000 2.06 80 22:36 11.05.2022
2150 Clouds 32 1009 62 10000 3.09 170 21:50 11.05.2022
2151 Clouds 32 1009 62 10000 3.09 170 21:24 11.05.2022
2152 Clouds 31 1012 66 10000 2.57 0 18:49 11.05.2022
2153 Clouds 30 1013 70 10000 3.6 20 16:55 11.05.2022
2154 Clouds 28 1014 78 10000 3.6 360 15:31 11.05.2022
2155 Clouds 27 1013 83 10000 4.12 50 14:39 11.05.2022
2156 Clouds 27 1013 83 10000 4.12 50 14:39 11.05.2022
2157 Clouds 27 1013 83 10000 4.12 50 14:18 11.05.2022
2158 Clouds 25 1011 88 10000 1.54 70 11:54 11.05.2022
2159 Clouds 25 1011 88 10000 1.54 70 11:19 11.05.2022
2160 Clear 26 1011 83 10000 2.06 20 08:40 11.05.2022
2161 Clear 26 1012 83 10000 2.06 20 05:28 11.05.2022
2162 Clouds 29 1009 70 10000 2.57 80 00:43 11.05.2022
2163 Clouds 32 1009 62 10000 3.09 80 22:32 10.05.2022
2164 Clouds 32 1009 62 10000 3.09 80 21:57 10.05.2022
2165 Clouds 32 1010 58 10000 2.57 110 20:57 10.05.2022
2166 Clouds 31 1011 66 10000 2.06 120 19:37 10.05.2022
2167 Clouds 30 1013 70 10000 3.09 60 17:58 10.05.2022
2168 Clouds 30 1013 70 10000 2.57 50 17:21 10.05.2022
2169 Clouds 29 1013 84 10000 3.09 50 15:28 10.05.2022
2170 Clouds 24 1012 100 10000 1.03 70 12:39 10.05.2022
2171 Clear 25 1011 100 10000 1.03 340 11:50 10.05.2022
2172 Clear 25 1011 100 10000 1.03 340 11:20 10.05.2022
2173 Clear 25 1011 100 10000 1.03 10 10:26 10.05.2022
2174 Clear 25 1011 100 10000 1.03 10 09:25 10.05.2022
2175 Clear 25 1012 94 10000 1.03 80 06:54 10.05.2022
2176 Clear 25 1012 94 10000 1.03 80 03:30 10.05.2022
2177 Clouds 27 1010 83 10000 2.06 80 00:38 10.05.2022
2178 Clouds 27 1010 83 10000 2.06 10 22:56 09.05.2022
2179 Clouds 26 1011 94 10000 3.6 50 21:50 09.05.2022
2180 Clouds 30 1012 74 10000 2.57 20 20:52 09.05.2022
2181 Clouds 28 1015 78 10000 3.09 360 18:43 09.05.2022
2182 Clouds 27 1015 83 10000 2.57 30 17:44 09.05.2022
2183 Rain 26 1016 83 10000 3.09 50 16:30 09.05.2022
2184 Rain 26 1016 83 10000 3.09 50 16:30 09.05.2022
2185 Rain 25 1016 94 10000 4.12 50 15:51 09.05.2022
2186 Rain 25 1016 94 10000 4.12 50 14:54 09.05.2022
2187 Rain 25 1015 88 10000 3.09 40 14:29 09.05.2022
2188 Clouds 25 1014 94 10000 2.57 60 13:40 09.05.2022
2189 Clouds 24 1013 94 10000 2.06 40 12:18 09.05.2022
2190 Clouds 24 1013 100 10000 2.06 50 10:55 09.05.2022
2191 Clouds 24 1012 100 10000 1.54 30 10:36 09.05.2022
2192 Clouds 25 1013 94 10000 1.54 340 08:31 09.05.2022
2193 Clear 25 1013 94 10000 2.06 360 07:49 09.05.2022
2194 Clear 25 1013 94 10000 1.54 30 02:55 09.05.2022
2195 Rain 25 1010 88 10000 2.06 10 23:34 08.05.2022
2196 Rain 25 1011 83 10000 2.06 50 22:51 08.05.2022
2197 Rain 24 1011 94 10000 2.57 50 21:48 08.05.2022
2198 Rain 24 1011 94 10000 2.57 50 21:48 08.05.2022
2199 Thunderstorm 26 1012 78 10000 6.69 30 20:33 08.05.2022
2200 Rain 30 1013 70 10000 2.06 290 19:43 08.05.2022
2201 Clouds 29 1014 79 10000 1.54 190 18:52 08.05.2022
2202 Rain 29 1015 79 10000 1.54 170 17:52 08.05.2022
2203 Clouds 28 1015 83 10000 1.03 190 16:33 08.05.2022
2204 Clouds 28 1015 78 10000 2.06 250 15:25 08.05.2022
2205 Clouds 27 1014 83 10000 1.03 290 14:27 08.05.2022
2206 Clouds 25 1013 94 10000 2.06 290 11:53 08.05.2022
2207 Clouds 25 1012 94 10000 2.57 280 10:27 08.05.2022
2208 Rain 25 1012 94 10000 2.57 280 09:55 08.05.2022
2209 Thunderstorm 25 1013 94 10000 1.54 220 08:52 08.05.2022
2210 Thunderstorm 26 1013 89 10000 3.09 320 06:51 08.05.2022
2211 Clouds 27 1014 89 10000 2.06 300 03:25 08.05.2022
2212 Clouds 26 1012 94 10000 2.06 290 01:25 08.05.2022
2213 Rain 26 1011 94 10000 1.54 350 00:20 08.05.2022
2214 Rain 29 1011 74 10000 1.03 0 23:46 07.05.2022
2215 Clouds 28 1011 78 10000 2.57 170 22:46 07.05.2022
2216 Clouds 28 1011 78 10000 2.57 170 21:57 07.05.2022
2217 Clouds 28 1011 78 10000 2.06 0 21:32 07.05.2022
2218 Clouds 27 1013 83 10000 2.57 170 20:27 07.05.2022
2219 Clouds 27 1014 83 10000 2.57 30 18:59 07.05.2022
2220 Rain 26 1015 89 10000 2.06 70 17:31 07.05.2022
2221 Rain 24 1015 100 9000 1.03 170 15:18 07.05.2022
2222 Thunderstorm 24 1014 94 3000 4.63 110 12:23 07.05.2022
2223 Rain 25 1013 94 10000 1.03 200 10:18 07.05.2022
2224 Rain 25 1013 94 10000 1.03 270 08:34 07.05.2022
2225 Clear 25 1013 94 10000 1.03 340 07:30 07.05.2022
2226 Rain 25 1013 94 10000 1.54 330 06:42 07.05.2022
2227 Thunderstorm 25 1014 100 5000 4.63 350 04:21 07.05.2022
2228 Clouds 28 1011 78 10000 1.54 20 00:49 07.05.2022
2229 Clouds 30 1010 70 10000 1.54 340 22:41 06.05.2022
2230 Clouds 30 1010 70 10000 1.54 340 22:21 06.05.2022
2231 Clouds 31 1010 66 10000 1.54 20 21:32 06.05.2022
2232 Clouds 29 1013 74 10000 2.57 70 19:49 06.05.2022
2233 Rain 29 1013 74 10000 2.57 70 19:27 06.05.2022
2234 Clouds 29 1014 79 10000 3.09 100 18:43 06.05.2022
2235 Clouds 28 1015 83 10000 3.09 90 17:37 06.05.2022
2236 Clouds 26 1014 94 10000 2.57 100 15:54 06.05.2022
2237 Clouds 26 1014 94 10000 2.57 100 15:30 06.05.2022
2238 Clouds 25 1014 100 9000 3.09 120 13:50 06.05.2022
2239 Rain 26 1013 94 10000 3.09 140 12:51 06.05.2022
2240 Clouds 26 1013 94 10000 2.06 170 11:58 06.05.2022
2241 Clear 26 1012 94 10000 1.03 190 11:24 06.05.2022
2242 Clear 26 1011 94 10000 1.54 150 09:47 06.05.2022
2243 Clear 26 1011 94 10000 1.54 150 09:18 06.05.2022
2244 Clear 26 1011 100 10000 1.03 180 07:54 06.05.2022
2245 Clear 26 1012 94 10000 1.03 250 06:26 06.05.2022
2246 Clouds 27 1012 89 10000 1.03 180 03:42 06.05.2022
2247 Clouds 27 1011 89 10000 1.03 190 02:38 06.05.2022
2248 Clouds 31 1009 66 10000 3.6 80 22:58 05.05.2022
2249 Clouds 31 1010 66 10000 3.09 210 21:50 05.05.2022
2250 Clouds 31 1011 70 10000 2.57 240 20:37 05.05.2022
2251 Clouds 30 1013 74 10000 3.6 190 18:56 05.05.2022
2252 Clouds 29 1014 79 10000 2.06 30 16:42 05.05.2022
2253 Clouds 28 1015 78 10000 1.54 10 15:30 05.05.2022
2254 Fog 25 1013 94 10000 1.54 20 13:30 05.05.2022
2255 Fog 24 1013 94 10000 1.03 10 12:56 05.05.2022
2256 Clouds 23 1012 100 10000 1.54 10 11:22 05.05.2022
2257 Clouds 24 1012 94 10000 1.03 50 09:40 05.05.2022
2258 Clouds 24 1012 100 10000 1.03 30 08:40 05.05.2022
2259 Clouds 24 1013 100 10000 1.03 180 06:24 05.05.2022
2260 Clouds 25 1012 94 10000 1.03 70 02:23 05.05.2022
2261 Clouds 25 1011 94 10000 0.51 140 01:40 05.05.2022
2262 Clouds 26 1010 83 10000 2.57 20 00:43 05.05.2022
2263 Clouds 26 1011 89 10000 2.06 310 22:57 04.05.2022
2264 Clouds 26 1013 83 10000 0 0 21:59 04.05.2022
2265 Clouds 26 1013 83 10000 1.03 270 21:34 04.05.2022
2266 Rain 26 1013 83 10000 1.54 310 20:42 04.05.2022
2267 Clouds 26 1013 83 10000 2.06 320 19:59 04.05.2022
2268 Rain 26 1014 83 10000 2.57 360 19:35 04.05.2022
2269 Rain 25 1015 88 10000 2.57 360 18:23 04.05.2022
2270 Rain 25 1015 88 10000 2.57 350 17:59 04.05.2022
2271 Rain 25 1015 94 10000 2.06 40 16:30 04.05.2022
2272 Clouds 23 1015 100 10000 3.09 50 15:32 04.05.2022
2273 Rain 23 1015 94 8000 2.57 70 14:38 04.05.2022
2274 Rain 23 1015 94 8000 2.57 70 14:18 04.05.2022
2275 Thunderstorm 23 1013 100 3000 2.57 60 12:34 04.05.2022
2276 Thunderstorm 23 1013 100 4000 1.54 0 11:25 04.05.2022
2277 Clouds 24 1013 88 3000 4.12 80 09:50 04.05.2022
2278 Clouds 25 1012 100 4000 3.6 250 08:56 04.05.2022
2279 Clouds 27 1012 89 10000 2.57 300 07:33 04.05.2022
2280 Clear 27 1012 89 10000 1.03 160 03:50 04.05.2022
2281 Clouds 27 1010 83 10000 1.03 150 01:41 04.05.2022
2282 Clouds 30 1009 66 10000 1.03 190 22:59 03.05.2022
2283 Clouds 31 1010 66 10000 2.06 220 21:47 03.05.2022
2284 Clouds 31 1010 66 10000 2.06 220 21:21 03.05.2022
2285 Clouds 31 1010 66 10000 2.06 220 21:21 03.05.2022
2286 Clouds 30 1011 74 10000 3.09 180 20:38 03.05.2022
2287 Clouds 30 1012 74 10000 3.09 240 19:21 03.05.2022
2288 Clouds 29 1014 79 10000 2.57 230 18:42 03.05.2022
2289 Clouds 30 1014 79 10000 2.06 320 17:20 03.05.2022
2290 Clouds 30 1014 79 10000 2.06 320 17:20 03.05.2022
2291 Clouds 27 1014 89 10000 1.54 340 15:48 03.05.2022
2292 Clouds 26 1014 94 10000 2.06 60 14:22 03.05.2022
2293 Clouds 25 1012 100 10000 1.03 30 12:35 03.05.2022
2294 Clouds 25 1013 94 10000 0.51 30 11:24 03.05.2022
2295 Clouds 24 1012 100 10000 0 0 10:25 03.05.2022
2296 Clouds 25 1012 100 10000 1.03 10 08:18 03.05.2022
2297 Clouds 25 1013 100 10000 0 0 06:45 03.05.2022
2298 Clouds 24 1011 100 10000 1.54 130 01:59 03.05.2022
2299 Clouds 27 1010 83 10000 1.03 90 22:56 02.05.2022
2300 Clouds 27 1010 83 10000 2.57 100 22:28 02.05.2022
2301 Clouds 27 1011 83 10000 3.09 80 21:27 02.05.2022
2302 Clouds 27 1013 78 10000 1.03 30 19:22 02.05.2022
2303 Clouds 26 1015 83 9000 2.57 20 18:25 02.05.2022
2304 Clouds 26 1016 89 9000 2.06 20 17:38 02.05.2022
2305 Clouds 26 1016 83 10000 2.06 40 16:37 02.05.2022
2306 Clouds 27 1015 83 10000 3.09 30 15:41 02.05.2022
2307 Clouds 25 1014 88 10000 1.03 30 14:20 02.05.2022
2308 Clouds 24 1013 94 10000 2.06 320 13:19 02.05.2022
2309 Rain 24 1012 94 10000 2.57 50 11:41 02.05.2022
2310 Clouds 25 1012 94 5000 2.57 40 09:32 02.05.2022
2311 Clouds 25 1012 94 10000 2.57 320 07:57 02.05.2022
2312 Rain 26 1013 89 10000 2.06 340 05:59 02.05.2022
2313 Clouds 27 1009 78 10000 2.57 330 00:44 02.05.2022
2314 Clouds 27 1009 78 10000 2.57 330 00:21 02.05.2022
2315 Clouds 29 1008 74 10000 2.57 360 22:53 01.05.2022
2316 Clouds 30 1009 74 10000 2.57 220 21:41 01.05.2022
2317 Rain 31 1009 70 10000 2.06 160 20:29 01.05.2022
2318 Clouds 30 1011 70 10000 2.57 50 19:21 01.05.2022
2319 Clouds 28 1012 78 10000 2.06 290 18:52 01.05.2022
2320 Clouds 28 1013 78 10000 2.06 360 17:49 01.05.2022
2321 Clouds 27 1013 89 10000 1.03 210 16:29 01.05.2022
2322 Clouds 28 1014 78 10000 1.54 300 15:45 01.05.2022
2323 Rain 26 1013 94 10000 1.03 120 14:45 01.05.2022
2324 Rain 24 1012 100 4000 1.54 80 12:23 01.05.2022
2325 Clouds 26 1011 94 10000 1.03 0 10:22 01.05.2022
2326 Mist 25 1011 100 10000 1.54 280 08:49 01.05.2022
2327 Clouds 25 1012 94 10000 0 0 06:31 01.05.2022
2328 Clear 27 1010 89 10000 2.06 300 01:56 01.05.2022
2329 Rain 29 1008 74 10000 3.09 360 22:18 30.04.2022
2330 Rain 31 1008 66 10000 1.54 100 21:32 30.04.2022
2331 Clouds 30 1011 74 10000 2.57 70 19:53 30.04.2022
2332 Clouds 29 1012 74 10000 3.09 70 18:52 30.04.2022
2333 Clouds 29 1013 79 10000 3.09 10 17:26 30.04.2022
2334 Clouds 28 1014 78 10000 1.54 90 15:51 30.04.2022
2335 Clouds 28 1014 78 10000 1.54 90 14:58 30.04.2022
2336 Clouds 24 1012 100 10000 1.54 30 13:41 30.04.2022
2337 Mist 24 1011 94 10000 1.03 30 11:41 30.04.2022
2338 Rain 24 1011 94 10000 1.03 30 10:56 30.04.2022
2339 Fog 24 1010 100 10000 1.03 360 09:54 30.04.2022
2340 Clear 24 1012 100 10000 1.54 20 07:36 30.04.2022
2341 Rain 25 1013 94 10000 1.03 340 03:58 30.04.2022
2342 Clouds 26 1010 89 10000 0 0 23:55 29.04.2022
2343 Clouds 26 1010 89 10000 2.57 300 22:37 29.04.2022
2344 Clouds 26 1010 94 10000 2.06 280 21:56 29.04.2022
2345 Rain 26 1010 94 10000 2.06 260 21:24 29.04.2022
2346 Rain 25 1012 100 10000 2.06 140 19:55 29.04.2022
2347 Rain 25 1012 100 10000 2.06 140 19:26 29.04.2022
2348 Rain 25 1013 100 10000 0.51 140 17:34 29.04.2022
2349 Rain 24 1014 100 10000 2.06 90 16:36 29.04.2022
2350 Rain 25 1012 94 5000 2.06 80 14:34 29.04.2022
2351 Rain 25 1011 94 10000 4.12 130 13:36 29.04.2022
2352 Rain 26 1010 89 9000 5.66 60 12:36 29.04.2022
2353 Clouds 26 1009 94 10000 1.03 80 10:29 29.04.2022
2354 Clouds 26 1010 94 10000 1.54 30 07:52 29.04.2022
2355 Clouds 26 1010 94 10000 1.54 30 07:25 29.04.2022
2356 Clouds 27 1011 89 10000 1.03 80 06:29 29.04.2022
2357 Rain 27 1008 83 10000 1.03 60 00:52 29.04.2022
2358 Rain 28 1007 78 10000 2.06 50 23:52 28.04.2022
2359 Rain 29 1007 79 10000 2.57 70 22:47 28.04.2022
2360 Rain 31 1008 66 10000 6.69 30 21:59 28.04.2022
2361 Rain 31 1008 66 10000 6.69 30 21:37 28.04.2022
2362 Clouds 32 1009 66 10000 4.12 60 20:41 28.04.2022
2363 Clouds 31 1011 66 10000 4.63 70 19:49 28.04.2022
2364 Clouds 31 1011 66 10000 4.63 70 19:23 28.04.2022
2365 Clouds 30 1012 70 10000 2.06 0 18:38 28.04.2022
2366 Clouds 30 1012 74 10000 3.09 20 17:32 28.04.2022
2367 Clouds 30 1013 70 10000 3.6 70 16:50 28.04.2022
2368 Clouds 30 1013 70 10000 3.6 70 16:20 28.04.2022
2369 Clouds 30 1013 70 10000 3.6 70 16:20 28.04.2022
2370 Clouds 29 1013 84 10000 3.09 40 15:41 28.04.2022
2371 Clouds 27 1012 89 10000 2.57 70 14:47 28.04.2022
2372 Clouds 26 1011 94 10000 1.54 40 13:23 28.04.2022
2373 Clouds 25 1010 94 10000 1.54 10 12:28 28.04.2022
2374 Clouds 25 1010 100 10000 1.03 30 10:51 28.04.2022
2375 Clouds 25 1010 100 10000 1.03 30 10:26 28.04.2022
2376 Clouds 25 1010 100 10000 1.03 30 09:43 28.04.2022
2377 Clear 25 1010 94 10000 1.54 60 07:40 28.04.2022
2378 Clear 25 1010 94 10000 2.06 10 06:38 28.04.2022
2379 Clear 25 1011 94 10000 1.54 30 05:40 28.04.2022
2380 Clear 25 1011 94 10000 2.06 40 04:42 28.04.2022
2381 Rain 27 1009 78 10000 1.54 10 00:51 28.04.2022
2382 Clouds 28 1009 74 10000 3.6 30 22:52 27.04.2022
2383 Clouds 29 1009 70 10000 2.06 30 21:58 27.04.2022
2384 Rain 29 1009 70 10000 2.06 30 21:32 27.04.2022
2385 Rain 28 1009 78 10000 4.63 30 20:44 27.04.2022
2386 Clouds 28 1011 83 10000 3.09 330 19:41 27.04.2022
2387 Clouds 28 1011 83 10000 3.09 330 19:22 27.04.2022
2388 Clouds 28 1011 83 10000 3.09 330 19:22 27.04.2022
2389 Clouds 28 1012 89 10000 2.06 280 18:38 27.04.2022
2390 Clouds 28 1013 89 10000 2.57 300 17:26 27.04.2022
2391 Clouds 28 1013 83 10000 3.09 270 15:56 27.04.2022
2392 Fog 25 1010 94 10000 2.06 340 12:50 27.04.2022
2393 Mist 25 1010 94 10000 2.57 330 11:23 27.04.2022
2394 Fog 25 1009 94 10000 2.57 310 10:26 27.04.2022
2395 Clear 26 1010 89 10000 2.57 340 07:41 27.04.2022
2396 Clouds 26 1011 89 10000 1.54 350 06:36 27.04.2022
2397 Rain 27 1010 78 10000 3.6 20 02:25 27.04.2022
2398 Rain 29 1009 74 10000 4.63 340 01:18 27.04.2022
2399 Clouds 29 1008 70 10000 2.57 10 00:27 27.04.2022
2400 Clouds 30 1007 66 10000 2.57 30 23:23 26.04.2022
2401 Clouds 31 1007 70 10000 2.06 40 22:43 26.04.2022
2402 Rain 31 1007 70 10000 2.06 40 21:57 26.04.2022
2403 Clouds 31 1007 70 10000 4.12 60 20:58 26.04.2022
2404 Clouds 32 1008 62 10000 3.6 70 20:36 26.04.2022
2405 Rain 32 1009 66 10000 1.54 150 19:35 26.04.2022
2406 Clouds 31 1010 66 10000 4.63 50 18:53 26.04.2022
2407 Clouds 31 1010 66 10000 4.63 50 18:19 26.04.2022
2408 Clouds 31 1012 70 10000 2.57 80 17:33 26.04.2022
2409 Clouds 29 1012 79 10000 2.06 70 14:58 26.04.2022
2410 Clear 26 1010 94 10000 0 0 13:34 26.04.2022
2411 Clear 24 1010 100 10000 0 0 12:34 26.04.2022
2412 Clear 25 1009 100 10000 1.03 0 10:46 26.04.2022
2413 Clear 25 1009 100 10000 1.03 0 09:50 26.04.2022
2414 Clear 25 1009 94 10000 1.03 310 08:28 26.04.2022
2415 Clear 26 1010 94 10000 1.54 100 04:37 26.04.2022
2416 Rain 27 1009 89 10000 2.57 90 02:40 26.04.2022
2417 Clouds 29 1007 74 10000 3.09 70 00:28 26.04.2022
2418 Clouds 31 1007 66 10000 4.12 40 22:50 25.04.2022
2419 Clouds 32 1007 58 10000 3.09 60 21:44 25.04.2022
2420 Clouds 32 1009 62 10000 5.14 70 20:45 25.04.2022
2421 Clouds 32 1010 66 10000 5.14 80 19:39 25.04.2022
2422 Clouds 31 1011 70 10000 4.63 90 18:25 25.04.2022
2423 Clouds 31 1012 70 10000 5.14 90 17:32 25.04.2022
2424 Clouds 29 1012 74 10000 3.09 20 15:30 25.04.2022
2425 Clouds 28 1012 83 10000 3.09 20 14:54 25.04.2022
2426 Clouds 27 1011 89 10000 1.03 90 13:43 25.04.2022
2427 Clouds 26 1009 94 10000 1.03 160 11:53 25.04.2022
2428 Clouds 25 1009 100 10000 1.03 200 10:27 25.04.2022
2429 Clouds 26 1009 100 10000 1.03 40 09:20 25.04.2022
2430 Clear 26 1011 100 10000 1.03 220 06:49 25.04.2022
2431 Clear 26 1011 100 10000 1.03 210 05:23 25.04.2022
2432 Clouds 28 1009 83 10000 1.03 0 00:58 25.04.2022
2433 Clouds 30 1008 70 10000 1.54 70 23:52 24.04.2022
2434 Clouds 31 1008 62 10000 2.06 0 22:49 24.04.2022
2435 Clouds 31 1008 62 10000 2.06 0 22:29 24.04.2022
2436 Clouds 32 1008 66 10000 2.06 220 21:41 24.04.2022
2437 Clouds 32 1008 66 10000 2.06 220 21:18 24.04.2022
2438 Rain 32 1009 66 10000 2.06 340 20:35 24.04.2022
2439 Rain 31 1011 70 10000 2.57 210 19:48 24.04.2022
2440 Clouds 30 1012 70 10000 2.57 70 18:20 24.04.2022
2441 Clouds 29 1013 79 10000 5.14 30 17:32 24.04.2022
2442 Rain 29 1013 74 10000 5.14 30 16:59 24.04.2022
2443 Clouds 29 1013 74 10000 3.09 80 16:35 24.04.2022
2444 Clouds 29 1013 74 10000 3.09 80 15:55 24.04.2022
2445 Clouds 28 1013 78 10000 3.09 40 15:31 24.04.2022
2446 Clouds 28 1013 78 10000 3.09 40 15:31 24.04.2022
2447 Clouds 26 1011 89 10000 3.6 30 13:57 24.04.2022
2448 Clouds 26 1011 89 10000 1.54 20 13:25 24.04.2022
2449 Clear 24 1011 94 10000 2.06 70 12:30 24.04.2022
2450 Rain 24 1010 94 10000 1.03 50 11:28 24.04.2022
2451 Clear 24 1010 88 10000 1.54 20 10:25 24.04.2022
2452 Clear 24 1009 88 10000 2.06 360 09:23 24.04.2022
2453 Clear 25 1011 88 10000 2.06 30 06:34 24.04.2022
2454 Clear 26 1009 83 10000 2.06 30 03:43 24.04.2022
2455 Clouds 28 1008 78 10000 2.57 340 01:38 24.04.2022
2456 Clouds 28 1007 89 10000 1.54 280 00:22 24.04.2022
2457 Clouds 29 1006 84 10000 1.03 90 23:26 23.04.2022
2458 Clouds 29 1006 84 10000 3.09 40 22:55 23.04.2022
2459 Clouds 32 1007 58 10000 1.54 130 21:51 23.04.2022
2460 Clouds 32 1007 58 10000 1.54 130 21:32 23.04.2022
2461 Clouds 32 1009 62 10000 3.6 40 20:36 23.04.2022
2462 Clouds 31 1010 66 10000 3.6 360 19:46 23.04.2022
2463 Rain 31 1010 66 10000 3.6 360 19:19 23.04.2022
2464 Clouds 31 1011 70 10000 2.57 0 18:46 23.04.2022
2465 Clouds 30 1012 74 10000 2.06 0 17:48 23.04.2022
2466 Clouds 29 1012 84 10000 2.57 0 16:50 23.04.2022
2467 Clouds 29 1012 84 10000 2.57 0 16:21 23.04.2022
2468 Clouds 26 1011 94 10000 2.57 60 14:27 23.04.2022
2469 Clouds 25 1009 100 10000 1.54 60 12:22 23.04.2022
2470 Clouds 25 1009 100 10000 1.03 50 10:40 23.04.2022
2471 Clouds 25 1009 100 10000 1.03 50 10:40 23.04.2022
2472 Clouds 24 1009 100 10000 1.03 60 08:42 23.04.2022
2473 Clear 25 1011 100 10000 2.06 20 05:45 23.04.2022
2474 Clear 25 1011 100 10000 1.54 60 03:54 23.04.2022
2475 Clouds 26 1008 94 10000 1.54 360 00:18 23.04.2022
2476 Clouds 27 1008 89 10000 2.06 80 23:25 22.04.2022
2477 Rain 27 1009 89 10000 1.03 80 21:59 22.04.2022
2478 Rain 27 1009 89 10000 1.03 80 21:40 22.04.2022
2479 Clouds 28 1010 83 10000 1.54 180 20:37 22.04.2022
2480 Clouds 28 1011 78 10000 1.54 230 19:39 22.04.2022
2481 Rain 28 1011 78 10000 1.54 230 19:18 22.04.2022
2482 Clouds 27 1012 83 10000 2.57 30 18:28 22.04.2022
2483 Rain 26 1012 89 10000 2.57 360 17:24 22.04.2022
2484 Rain 25 1013 94 8000 3.09 10 16:29 22.04.2022
2485 Rain 25 1013 94 9000 2.57 10 15:31 22.04.2022
2486 Rain 24 1013 100 9000 1.54 20 14:38 22.04.2022
2487 Rain 24 1013 100 9000 1.54 20 14:38 22.04.2022
2488 Rain 24 1013 100 8000 1.54 50 13:42 22.04.2022
2489 Rain 24 1013 94 8000 1.54 90 12:48 22.04.2022
2490 Rain 24 1011 100 10000 1.54 10 11:23 22.04.2022
2491 Rain 24 1011 100 8000 1.54 30 10:57 22.04.2022
2492 Rain 24 1011 100 8000 1.54 30 10:34 22.04.2022
2493 Clouds 25 1011 94 8000 1.54 40 09:59 22.04.2022
2494 Clouds 25 1011 94 8000 0.51 350 09:22 22.04.2022
2495 Clear 25 1010 94 10000 1.54 20 08:48 22.04.2022
2496 Clear 25 1011 94 10000 1.54 300 06:42 22.04.2022
2497 Clouds 25 1011 94 8000 2.06 300 01:34 22.04.2022
2498 Clouds 28 1009 78 10000 3.6 260 23:35 21.04.2022
2499 Clouds 28 1009 78 10000 4.63 280 22:47 21.04.2022
2500 Clouds 28 1010 78 10000 4.63 280 21:42 21.04.2022
2501 Clouds 28 1011 78 10000 4.12 260 20:31 21.04.2022
2502 Rain 27 1014 83 10000 2.06 270 18:49 21.04.2022
2503 Rain 27 1014 83 10000 2.06 270 18:28 21.04.2022
2504 Clouds 27 1015 78 10000 2.57 270 17:19 21.04.2022
2505 Clouds 26 1014 83 10000 4.12 270 15:25 21.04.2022
2506 Clouds 26 1014 83 10000 3.6 270 14:52 21.04.2022
2507 Clouds 26 1014 83 10000 3.6 270 14:18 21.04.2022
2508 Clouds 25 1013 94 10000 1.54 300 13:21 21.04.2022
2509 Clouds 24 1012 100 10000 4.12 260 12:25 21.04.2022
2510 Clouds 25 1011 94 10000 3.6 250 09:36 21.04.2022
2511 Clouds 25 1011 94 10000 2.06 270 08:46 21.04.2022
2512 Clouds 25 1012 94 10000 1.54 260 06:44 21.04.2022
2513 Rain 25 1012 100 10000 2.06 260 03:41 21.04.2022
2514 Rain 25 1012 100 10000 2.06 260 03:22 21.04.2022
2515 Clear 25 1012 94 10000 1.54 250 02:44 21.04.2022
2516 Clear 25 1012 94 10000 1.54 250 02:44 21.04.2022
2517 Clouds 26 1010 89 10000 1.54 240 00:35 21.04.2022
2518 Clouds 27 1009 78 10000 2.57 240 23:37 20.04.2022
2519 Clouds 27 1009 78 10000 2.57 240 23:18 20.04.2022
2520 Clouds 27 1009 83 10000 2.06 190 22:34 20.04.2022
2521 Rain 27 1009 83 10000 1.54 170 21:43 20.04.2022
2522 Clouds 27 1010 83 10000 2.57 180 20:44 20.04.2022
2523 Clouds 27 1010 83 10000 2.57 180 20:44 20.04.2022
2524 Rain 27 1010 83 10000 2.57 180 20:21 20.04.2022
2525 Rain 26 1012 89 10000 2.06 160 19:44 20.04.2022
2526 Rain 25 1014 94 7000 1.03 160 18:46 20.04.2022
2527 Rain 25 1014 100 6000 1.54 100 17:49 20.04.2022
2528 Rain 25 1015 100 4000 2.06 40 16:39 20.04.2022
2529 Clouds 25 1013 100 5000 1.03 10 14:58 20.04.2022
2530 Fog 24 1011 100 10000 1.03 310 12:22 20.04.2022
2531 Fog 24 1010 100 10000 1.54 250 11:42 20.04.2022
2532 Fog 25 1010 94 10000 1.54 230 10:43 20.04.2022
2533 Clouds 25 1010 88 10000 1.03 240 09:28 20.04.2022
2534 Clouds 25 1011 94 10000 1.54 300 08:29 20.04.2022
2535 Fog 25 1011 100 10000 2.57 240 07:53 20.04.2022
2536 Fog 25 1012 94 10000 2.06 260 06:18 20.04.2022
2537 Clear 25 1009 94 10000 1.54 220 01:37 20.04.2022
2538 Clouds 25 1009 94 10000 1.03 250 00:21 20.04.2022
2539 Clouds 26 1008 89 10000 2.06 270 22:53 19.04.2022
2540 Clouds 26 1008 89 10000 2.06 270 22:23 19.04.2022
2541 Clouds 26 1009 89 10000 2.06 250 21:49 19.04.2022
2542 Rain 25 1010 100 10000 1.54 270 20:57 19.04.2022
2543 Rain 25 1010 100 10000 1.54 270 20:37 19.04.2022
2544 Rain 24 1012 100 5000 2.06 190 19:32 19.04.2022
2545 Thunderstorm 24 1014 100 1000 1.54 140 18:30 19.04.2022
2546 Rain 25 1013 100 2000 2.57 230 16:50 19.04.2022
2547 Rain 25 1013 100 8000 1.54 220 16:25 19.04.2022
2548 Rain 26 1013 89 4000 2.06 360 15:59 19.04.2022
2549 Clouds 26 1012 94 10000 1.54 290 14:44 19.04.2022
2550 Clouds 25 1011 100 5000 0.51 250 12:53 19.04.2022
2551 Clouds 25 1011 100 5000 0.51 250 12:33 19.04.2022
2552 Clouds 24 1010 100 10000 0 0 11:34 19.04.2022
2553 Clear 25 1010 88 10000 1.54 330 09:35 19.04.2022
2554 Clouds 25 1011 83 10000 1.54 20 07:43 19.04.2022
2555 Thunderstorm 26 1012 94 10000 1.54 300 04:25 19.04.2022
2556 Clouds 27 1009 94 10000 2.06 130 01:42 19.04.2022
2557 Clouds 30 1007 70 10000 2.06 340 23:49 18.04.2022
2558 Clouds 32 1007 62 10000 1.54 140 22:46 18.04.2022
2559 Clouds 31 1008 66 10000 2.06 0 21:25 18.04.2022
2560 Clouds 30 1009 70 10000 2.06 0 20:39 18.04.2022
2561 Clouds 30 1009 70 10000 2.06 0 20:19 18.04.2022
2562 Clouds 30 1011 70 10000 2.06 0 19:33 18.04.2022
2563 Clouds 30 1013 74 10000 2.06 70 18:45 18.04.2022
2564 Clouds 30 1013 74 10000 1.54 30 17:49 18.04.2022
2565 Clouds 30 1013 74 10000 1.54 30 17:19 18.04.2022
2566 Clouds 29 1013 79 10000 1.54 0 16:39 18.04.2022
2567 Clouds 28 1014 83 10000 1.54 50 15:32 18.04.2022
2568 Clouds 26 1013 89 10000 1.03 60 14:27 18.04.2022
2569 Mist 24 1011 100 10000 0 0 12:56 18.04.2022
2570 Fog 24 1011 100 10000 1.54 20 12:24 18.04.2022
2571 Clouds 24 1011 100 10000 0.51 140 10:58 18.04.2022
2572 Clouds 24 1010 100 10000 1.54 170 09:53 18.04.2022
2573 Clouds 24 1010 94 10000 1.54 300 09:27 18.04.2022
2574 Clouds 24 1012 100 10000 1.54 90 07:25 18.04.2022
2575 Clouds 24 1010 100 10000 1.03 50 02:45 18.04.2022
2576 Rain 25 1009 94 10000 2.57 70 23:23 17.04.2022
2577 Clouds 26 1010 94 7000 2.57 100 22:37 17.04.2022
2578 Clouds 26 1011 89 10000 3.09 100 21:34 17.04.2022
2579 Rain 26 1011 89 10000 2.06 130 20:52 17.04.2022
2580 Clouds 26 1011 89 10000 2.06 130 20:19 17.04.2022
2581 Rain 26 1013 94 9000 2.06 170 18:58 17.04.2022
2582 Rain 26 1014 94 10000 1.54 160 17:31 17.04.2022
2583 Rain 25 1014 100 9000 1.03 140 15:37 17.04.2022
2584 Rain 24 1013 94 9000 1.54 160 14:45 17.04.2022
2585 Rain 25 1012 100 6000 1.54 60 13:29 17.04.2022
2586 Rain 25 1011 94 10000 3.09 340 12:49 17.04.2022
2587 Rain 25 1010 94 10000 1.03 190 10:58 17.04.2022
2588 Rain 25 1010 94 10000 0.51 210 10:29 17.04.2022
2589 Rain 25 1010 100 10000 1.54 220 09:51 17.04.2022
2590 Rain 25 1010 100 10000 1.54 220 09:20 17.04.2022
2591 Clouds 25 1010 100 10000 1.03 170 08:41 17.04.2022
2592 Clouds 25 1012 100 10000 1.54 100 06:29 17.04.2022
2593 Clouds 25 1010 94 10000 1.03 100 02:26 17.04.2022
2594 Rain 27 1009 83 10000 2.57 70 00:41 17.04.2022
2595 Rain 28 1008 78 10000 1.54 360 23:30 16.04.2022
2596 Clouds 27 1009 89 10000 2.57 310 21:47 16.04.2022
2597 Clouds 25 1010 100 8000 2.57 280 20:54 16.04.2022
2598 Clouds 28 1011 78 10000 4.12 260 19:24 16.04.2022
2599 Clouds 28 1012 78 10000 3.6 250 18:43 16.04.2022
2600 Clouds 27 1014 83 10000 3.09 260 17:20 16.04.2022
2601 Clouds 27 1014 78 10000 2.06 300 15:51 16.04.2022
2602 Clouds 25 1013 88 10000 1.54 320 14:58 16.04.2022
2603 Clouds 25 1013 88 10000 1.54 320 14:37 16.04.2022
2604 Clouds 24 1012 94 10000 1.03 360 13:49 16.04.2022
2605 Fog 24 1011 94 10000 2.06 350 12:43 16.04.2022
2606 Fog 24 1011 94 10000 1.54 360 11:43 16.04.2022
2607 Rain 24 1010 94 10000 1.54 340 10:33 16.04.2022
2608 Clouds 24 1010 94 10000 1.03 30 09:37 16.04.2022
2609 Clouds 24 1010 94 10000 1.03 50 08:51 16.04.2022
2610 Clouds 24 1010 94 10000 1.54 240 07:21 16.04.2022
2611 Clouds 24 1012 94 10000 1.54 290 04:58 16.04.2022
2612 Rain 24 1010 94 10000 3.09 340 01:23 16.04.2022
2613 Rain 25 1009 94 10000 3.6 350 23:52 15.04.2022
2614 Rain 24 1009 100 10000 4.12 330 22:48 15.04.2022
2615 Thunderstorm 24 1009 100 10000 4.12 330 22:28 15.04.2022
2616 Clouds 29 1009 79 10000 3.6 260 21:21 15.04.2022
2617 Clouds 30 1009 70 10000 3.09 250 20:38 15.04.2022
2618 Clouds 29 1010 74 10000 2.57 190 19:44 15.04.2022
2619 Clouds 28 1012 78 10000 2.57 190 18:59 15.04.2022
2620 Clouds 28 1012 78 10000 4.12 170 18:41 15.04.2022
2621 Clouds 28 1012 78 10000 4.12 170 18:21 15.04.2022
2622 Clouds 29 1013 74 10000 2.06 270 17:26 15.04.2022
2623 Clouds 28 1013 78 10000 2.57 250 16:25 15.04.2022
2624 Clouds 26 1013 89 10000 1.54 230 15:45 15.04.2022
2625 Clouds 25 1011 88 10000 1.03 170 13:55 15.04.2022
2626 Clouds 24 1011 100 10000 1.03 250 12:52 15.04.2022
2627 Rain 24 1011 100 10000 1.03 250 12:24 15.04.2022
2628 Clouds 24 1010 100 10000 1.03 210 11:50 15.04.2022
2629 Clouds 24 1010 94 10000 1.54 220 10:46 15.04.2022
2630 Clouds 24 1010 100 10000 1.54 220 09:59 15.04.2022
2631 Clouds 24 1010 100 10000 1.54 220 09:22 15.04.2022
2632 Rain 24 1010 100 10000 1.54 250 08:39 15.04.2022
2633 Thunderstorm 24 1012 100 8000 2.57 240 06:48 15.04.2022
2634 Thunderstorm 24 1012 100 1000 2.06 150 04:43 15.04.2022
2635 Clouds 28 1007 83 10000 2.06 10 00:34 15.04.2022
2636 Thunderstorm 28 1007 83 10000 2.06 220 23:22 14.04.2022
2637 Rain 29 1007 79 10000 3.6 280 22:45 14.04.2022
2638 Rain 29 1007 79 10000 3.6 280 22:26 14.04.2022
2639 Clouds 28 1007 83 10000 4.12 260 21:47 14.04.2022
2640 Rain 28 1011 83 10000 2.57 40 19:24 14.04.2022
2641 Rain 26 1012 89 10000 1.54 30 18:53 14.04.2022
2642 Clouds 24 1012 100 10000 1.03 70 17:45 14.04.2022
2643 Thunderstorm 23 1013 100 10000 2.06 80 16:51 14.04.2022
2644 Clouds 23 1013 100 5000 5.66 360 15:51 14.04.2022
2645 Clouds 26 1010 100 10000 1.03 300 13:53 14.04.2022
2646 Clouds 26 1010 100 10000 1.03 300 13:20 14.04.2022
2647 Clouds 25 1009 100 10000 2.57 300 12:32 14.04.2022
2648 Clouds 26 1009 100 10000 0.51 30 11:37 14.04.2022
2649 Clouds 26 1008 100 10000 1.03 160 10:58 14.04.2022
2650 Clouds 26 1008 100 10000 1.03 160 10:31 14.04.2022
2651 Clouds 26 1008 100 10000 0.51 220 09:28 14.04.2022
2652 Clear 26 1009 100 10000 0.51 230 08:23 14.04.2022
2653 Clear 26 1010 89 10000 1.54 80 05:52 14.04.2022
2654 Clouds 28 1007 83 10000 3.6 50 00:29 14.04.2022
2655 Clouds 31 1006 66 10000 5.14 40 22:37 13.04.2022
2656 Clouds 32 1007 62 10000 3.09 50 21:42 13.04.2022
2657 Clouds 32 1008 66 10000 2.57 40 20:39 13.04.2022
2658 Clouds 31 1009 66 10000 2.06 0 19:48 13.04.2022
2659 Clouds 31 1010 70 10000 4.12 30 18:37 13.04.2022
2660 Clouds 30 1011 74 10000 2.57 70 17:25 13.04.2022
2661 Clouds 29 1012 74 10000 3.09 10 16:52 13.04.2022
2662 Clouds 29 1012 79 10000 3.6 10 15:45 13.04.2022
2663 Clouds 29 1012 79 10000 3.6 10 15:23 13.04.2022
2664 Clouds 27 1011 83 10000 2.06 60 14:34 13.04.2022
2665 Clouds 25 1010 94 10000 1.54 20 13:37 13.04.2022
2666 Clouds 24 1009 100 10000 1.03 340 12:45 13.04.2022
2667 Clear 24 1009 100 10000 1.03 310 11:32 13.04.2022
2668 Clear 24 1009 94 10000 1.03 130 10:27 13.04.2022
2669 Clear 25 1009 94 10000 2.06 40 08:45 13.04.2022
2670 Clear 25 1010 94 10000 2.06 40 07:44 13.04.2022
2671 Clear 25 1011 88 10000 1.03 40 06:47 13.04.2022
2672 Clear 25 1011 88 10000 1.03 40 06:23 13.04.2022
2673 Clouds 26 1009 89 10000 1.03 50 00:52 13.04.2022
2674 Clouds 26 1009 89 10000 1.03 50 00:19 13.04.2022
2675 Rain 26 1008 94 10000 2.57 10 22:33 12.04.2022
2676 Rain 26 1009 89 10000 2.57 50 21:47 12.04.2022
2677 Rain 25 1010 94 10000 4.63 60 20:44 12.04.2022
2678 Rain 25 1010 94 10000 4.63 60 20:18 12.04.2022
2679 Rain 25 1010 100 9000 4.63 70 19:39 12.04.2022
2680 Rain 25 1011 100 9000 4.63 70 18:53 12.04.2022
2681 Rain 26 1013 94 10000 2.06 70 17:38 12.04.2022
2682 Rain 26 1013 94 10000 1.54 20 16:38 12.04.2022
2683 Clouds 28 1013 78 7000 2.57 10 15:34 12.04.2022
2684 Clouds 25 1012 94 10000 2.57 50 14:41 12.04.2022
2685 Clouds 25 1011 100 10000 1.54 30 13:45 12.04.2022
2686 Clouds 25 1011 100 10000 1.54 30 13:23 12.04.2022
2687 Clear 25 1009 94 10000 1.03 320 11:49 12.04.2022
2688 Clear 25 1009 94 10000 1.03 320 11:28 12.04.2022
2689 Clouds 26 1009 94 10000 1.03 320 09:47 12.04.2022
2690 Clouds 26 1009 94 10000 2.06 330 08:32 12.04.2022
2691 Clouds 26 1010 94 10000 1.54 330 06:34 12.04.2022
2692 Clear 26 1011 100 10000 2.57 360 05:38 12.04.2022
2693 Thunderstorm 26 1009 94 10000 1.54 310 01:48 12.04.2022
2694 Clouds 30 1007 70 10000 2.06 210 23:20 11.04.2022
2695 Clouds 30 1008 74 10000 1.54 220 21:51 11.04.2022
2696 Clouds 30 1008 74 10000 1.54 220 21:18 11.04.2022
2697 Clouds 29 1009 79 10000 1.54 180 20:30 11.04.2022
2698 Clouds 29 1009 79 10000 1.54 180 19:58 11.04.2022
2699 Rain 30 1010 74 10000 1.54 130 19:25 11.04.2022
2700 Clouds 30 1011 74 10000 1.54 80 18:52 11.04.2022
2701 Clouds 29 1012 79 10000 3.6 170 17:57 11.04.2022
2702 Clouds 29 1012 79 10000 1.54 120 17:30 11.04.2022
2703 Clouds 27 1013 89 10000 2.06 160 16:25 11.04.2022
2704 Clouds 26 1012 94 10000 2.06 330 14:40 11.04.2022
2705 Clouds 25 1011 94 10000 1.03 130 13:19 11.04.2022
2706 Clouds 25 1010 94 10000 1.03 210 12:36 11.04.2022
2707 Clouds 24 1010 100 10000 1.03 250 11:42 11.04.2022
2708 Clouds 24 1009 100 10000 1.03 280 10:35 11.04.2022
2709 Clouds 24 1010 100 10000 1.03 310 09:34 11.04.2022
2710 Clouds 24 1010 100 10000 0.51 320 07:24 11.04.2022
2711 Clouds 24 1009 100 10000 1.03 40 02:36 11.04.2022
2712 Clouds 25 1008 94 10000 2.57 70 22:58 10.04.2022
2713 Rain 26 1008 89 10000 2.06 70 22:26 10.04.2022
2714 Rain 25 1009 88 10000 3.09 30 21:35 10.04.2022
2715 Rain 25 1010 88 10000 3.09 10 20:39 10.04.2022
2716 Rain 24 1011 94 10000 2.57 30 19:46 10.04.2022
2717 Rain 24 1011 94 10000 2.57 30 19:25 10.04.2022
2718 Rain 24 1013 94 6000 4.12 20 18:45 10.04.2022
2719 Rain 24 1014 94 8000 5.66 70 17:56 10.04.2022
2720 Thunderstorm 24 1014 94 8000 5.66 70 17:56 10.04.2022
2721 Thunderstorm 24 1014 94 8000 7.2 60 17:37 10.04.2022
2722 Thunderstorm 24 1014 94 7000 4.63 70 16:44 10.04.2022
2723 Clouds 28 1013 78 10000 1.03 330 15:37 10.04.2022
2724 Clouds 27 1012 78 10000 2.06 310 14:25 10.04.2022
2725 Clouds 25 1011 88 10000 2.06 310 12:35 10.04.2022
2726 Clouds 25 1011 88 10000 2.06 310 11:56 10.04.2022
2727 Clouds 25 1010 88 10000 1.54 360 11:29 10.04.2022
2728 Clouds 25 1010 88 10000 1.54 360 10:56 10.04.2022
2729 Clear 25 1010 88 10000 1.54 310 09:59 10.04.2022
2730 Clear 25 1010 88 10000 1.03 320 09:38 10.04.2022
2731 Clear 25 1010 88 10000 1.54 290 08:23 10.04.2022
2732 Clear 24 1011 94 10000 1.03 260 07:35 10.04.2022
2733 Clear 25 1011 88 10000 1.54 10 05:50 10.04.2022
2734 Clouds 26 1009 83 10000 1.54 360 02:25 10.04.2022
2735 Clouds 27 1009 78 10000 1.54 60 00:27 10.04.2022
2736 Clouds 28 1009 74 10000 3.09 50 23:48 09.04.2022
2737 Clouds 29 1009 70 10000 3.09 60 22:47 09.04.2022
2738 Clouds 28 1010 78 10000 2.57 350 21:35 09.04.2022
2739 Clouds 28 1011 74 10000 2.57 360 20:48 09.04.2022
2740 Clouds 28 1011 74 10000 2.57 360 20:25 09.04.2022
2741 Clouds 28 1013 74 10000 3.09 30 19:41 09.04.2022
2742 Clouds 28 1013 74 10000 3.09 30 18:55 09.04.2022
2743 Clouds 27 1014 78 10000 3.09 350 18:19 09.04.2022
2744 Clouds 25 1015 94 10000 2.57 60 17:39 09.04.2022
2745 Clouds 25 1015 94 10000 2.57 60 17:39 09.04.2022
2746 Rain 24 1015 94 8000 3.6 50 16:50 09.04.2022
2747 Clouds 23 1015 100 3000 4.12 40 15:55 09.04.2022
2748 Rain 23 1015 100 3000 4.12 40 15:29 09.04.2022
2749 Clouds 23 1015 100 2000 4.63 40 14:27 09.04.2022
2750 Clouds 23 1014 100 1000 5.14 50 13:54 09.04.2022
2751 Clouds 24 1013 100 10000 4.12 50 12:59 09.04.2022
2752 Clouds 24 1012 100 10000 1.54 50 12:34 09.04.2022
2753 Clear 24 1011 100 10000 1.03 50 11:21 09.04.2022
2754 Clear 24 1011 100 10000 1.03 20 10:20 09.04.2022
2755 Clouds 24 1011 100 10000 1.03 10 09:37 09.04.2022
2756 Clouds 24 1011 100 10000 1.03 40 08:50 09.04.2022
2757 Clear 24 1012 100 10000 1.03 330 05:58 09.04.2022
2758 Clouds 24 1009 100 10000 1.54 30 00:38 09.04.2022
2759 Rain 25 1009 94 10000 1.03 80 23:25 08.04.2022
2760 Rain 24 1008 94 9000 1.54 360 21:57 08.04.2022
2761 Rain 24 1010 94 4000 3.6 30 20:47 08.04.2022
2762 Rain 24 1011 94 3000 4.12 40 19:58 08.04.2022
2763 Rain 23 1012 100 4000 4.12 40 19:18 08.04.2022
2764 Clouds 24 1013 94 1000 7.2 60 18:25 08.04.2022
2765 Clouds 27 1013 94 10000 2.57 270 17:38 08.04.2022
2766 Clouds 27 1013 94 10000 2.57 270 17:19 08.04.2022
2767 Clouds 27 1014 94 10000 2.57 190 16:35 08.04.2022
2768 Clouds 28 1013 78 10000 1.54 290 15:39 08.04.2022
2769 Clouds 27 1013 89 10000 2.57 350 14:52 08.04.2022
2770 Clouds 27 1013 89 10000 2.57 350 14:21 08.04.2022
2771 Fog 26 1012 94 10000 1.54 350 13:41 08.04.2022
2772 Fog 26 1012 94 10000 1.54 350 13:22 08.04.2022
2773 Clouds 25 1010 100 10000 1.54 310 11:43 08.04.2022
2774 Clouds 25 1010 100 10000 0.51 140 10:26 08.04.2022
2775 Clear 26 1010 100 10000 1.03 190 09:25 08.04.2022
2776 Clear 26 1010 89 10000 1.03 190 08:25 08.04.2022
2777 Clear 26 1011 94 10000 1.03 160 06:47 08.04.2022
2778 Clear 26 1010 89 10000 1.54 260 03:48 08.04.2022
2779 Rain 28 1008 78 10000 1.03 60 00:32 08.04.2022
2780 Rain 29 1007 74 10000 2.06 30 23:53 07.04.2022
2781 Rain 29 1007 79 10000 1.54 70 22:57 07.04.2022
2782 Rain 29 1007 79 10000 1.54 70 22:37 07.04.2022
2783 Rain 29 1007 79 10000 3.09 220 22:19 07.04.2022
2784 Clouds 31 1007 74 10000 4.12 350 21:33 07.04.2022
2785 Clouds 31 1007 74 10000 3.09 190 20:56 07.04.2022
2786 Clouds 31 1009 70 10000 3.09 190 20:26 07.04.2022
2787 Clouds 30 1013 74 10000 2.06 10 17:45 07.04.2022
2788 Clouds 30 1013 74 10000 2.06 10 17:23 07.04.2022
2789 Clouds 28 1013 83 10000 3.09 20 16:42 07.04.2022
2790 Clouds 28 1013 83 10000 2.57 60 15:58 07.04.2022
2791 Clouds 26 1013 94 10000 2.06 50 14:28 07.04.2022
2792 Clouds 24 1012 100 10000 0.51 70 13:41 07.04.2022
2793 Clouds 24 1011 94 10000 1.03 140 12:28 07.04.2022
2794 Clouds 24 1011 94 10000 1.03 140 12:28 07.04.2022
2795 Clouds 24 1010 100 10000 0.51 10 10:57 07.04.2022
2796 Clouds 24 1009 100 10000 1.03 270 09:34 07.04.2022
2797 Clouds 24 1010 100 10000 1.03 60 08:27 07.04.2022
2798 Clouds 24 1011 100 10000 1.54 30 06:18 07.04.2022
2799 Clear 24 1010 100 10000 1.03 20 02:38 07.04.2022
2800 Clouds 26 1009 89 10000 1.54 150 00:47 07.04.2022
2801 Clouds 27 1009 83 10000 1.54 140 23:53 06.04.2022
2802 Clouds 26 1009 89 10000 1.03 180 22:45 06.04.2022
2803 Clouds 26 1009 89 10000 1.03 180 22:24 06.04.2022
2804 Rain 26 1009 89 10000 1.03 90 21:18 06.04.2022
2805 Rain 26 1010 89 10000 2.06 360 20:27 06.04.2022
2806 Rain 25 1012 100 10000 1.03 200 19:52 06.04.2022
2807 Rain 25 1013 100 9000 2.57 360 18:49 06.04.2022
2808 Rain 25 1014 100 7000 2.57 60 17:51 06.04.2022
2809 Rain 25 1014 100 7000 2.57 60 17:21 06.04.2022
2810 Clouds 25 1014 100 4000 2.06 70 16:34 06.04.2022
2811 Clouds 25 1013 100 9000 2.57 10 15:46 06.04.2022
2812 Clouds 25 1012 94 10000 1.54 20 13:57 06.04.2022
2813 Fog 25 1011 94 10000 2.06 10 12:37 06.04.2022
2814 Fog 24 1011 100 10000 1.03 10 11:48 06.04.2022
2815 Rain 24 1011 100 10000 1.03 10 10:42 06.04.2022
2816 Fog 24 1011 100 10000 1.03 10 10:18 06.04.2022
2817 Fog 24 1010 100 10000 1.54 360 09:26 06.04.2022
2818 Fog 24 1010 100 10000 0.51 60 08:26 06.04.2022
2819 Fog 25 1011 94 10000 1.03 340 07:37 06.04.2022
2820 Rain 25 1011 88 10000 1.54 30 02:19 06.04.2022
2821 Clouds 27 1007 83 10000 2.06 310 23:50 05.04.2022
2822 Rain 27 1009 83 10000 3.09 330 22:20 05.04.2022
2823 Rain 27 1010 83 10000 3.6 360 21:18 05.04.2022
2824 Rain 27 1010 83 10000 3.6 360 21:18 05.04.2022
2825 Rain 27 1010 83 10000 3.6 360 21:18 05.04.2022
2826 Rain 27 1010 83 10000 3.6 360 21:18 05.04.2022
2827 Rain 29 1010 79 10000 3.09 70 20:25 05.04.2022
2828 Clouds 30 1012 74 10000 2.57 170 18:53 05.04.2022
2829 Rain 30 1013 74 10000 1.54 140 17:30 05.04.2022
2830 Clouds 29 1013 74 10000 1.54 130 16:45 05.04.2022
2831 Clouds 27 1013 89 10000 1.54 170 15:52 05.04.2022
2832 Clouds 27 1013 89 10000 1.54 170 15:31 05.04.2022
2833 Clouds 25 1012 100 10000 0.51 110 13:59 05.04.2022
2834 Clouds 25 1011 100 10000 1.03 360 12:41 05.04.2022
2835 Clouds 25 1011 100 10000 0 0 11:43 05.04.2022
2836 Clouds 25 1011 100 10000 0 0 11:25 05.04.2022
2837 Clouds 25 1010 100 10000 0 0 09:41 05.04.2022
2838 Clouds 25 1011 94 10000 1.54 60 08:52 05.04.2022
2839 Rain 26 1012 94 10000 2.06 60 05:28 05.04.2022
2840 Clouds 27 1008 83 10000 2.06 80 23:51 04.04.2022
2841 Rain 28 1008 83 10000 4.12 350 22:41 04.04.2022
2842 Rain 28 1008 83 10000 3.09 70 21:57 04.04.2022
2843 Rain 30 1009 66 10000 1.54 80 21:21 04.04.2022
2844 Rain 31 1010 66 10000 2.06 350 20:48 04.04.2022
2845 Clouds 30 1011 66 10000 2.06 200 19:39 04.04.2022
2846 Clouds 30 1011 66 10000 2.06 200 18:59 04.04.2022
2847 Clouds 29 1014 74 10000 2.57 180 17:54 04.04.2022
2848 Clouds 29 1014 70 10000 1.54 100 16:36 04.04.2022
2849 Clouds 29 1014 70 10000 1.54 100 16:36 04.04.2022
2850 Clouds 28 1014 74 10000 1.03 130 15:34 04.04.2022
2851 Clouds 28 1014 74 10000 1.03 130 14:58 04.04.2022
2852 Clouds 26 1013 78 10000 1.54 40 14:40 04.04.2022
2853 Clouds 25 1012 83 10000 1.03 330 13:21 04.04.2022
2854 Clouds 24 1011 94 10000 1.03 10 11:48 04.04.2022
2855 Clouds 24 1011 94 10000 1.03 10 11:27 04.04.2022
2856 Clear 25 1012 94 10000 1.54 20 07:46 04.04.2022
2857 Clear 25 1012 94 10000 1.54 20 07:46 04.04.2022
2858 Clouds 26 1011 89 10000 1.03 0 03:19 04.04.2022
2859 Rain 26 1009 89 10000 0.51 140 00:25 04.04.2022
2860 Rain 28 1009 78 10000 3.09 340 22:31 03.04.2022
2861 Rain 29 1009 74 10000 2.06 170 21:37 03.04.2022
2862 Clouds 30 1010 70 10000 3.09 200 20:41 03.04.2022
2863 Clouds 30 1012 70 10000 3.09 190 19:45 03.04.2022
2864 Clouds 28 1013 78 10000 2.57 160 18:31 03.04.2022
2865 Clouds 27 1014 83 10000 1.54 130 17:44 03.04.2022
2866 Clouds 27 1014 83 10000 2.06 200 16:50 03.04.2022
2867 Clouds 27 1014 83 10000 2.06 200 16:31 03.04.2022
2868 Clouds 25 1013 94 10000 1.03 210 14:32 03.04.2022
2869 Mist 24 1012 100 10000 0.51 200 13:45 03.04.2022
2870 Fog 24 1011 94 10000 1.03 180 12:21 03.04.2022
2871 Fog 24 1010 94 10000 0.51 230 10:54 03.04.2022
2872 Fog 24 1011 94 10000 0.51 350 09:36 03.04.2022
2873 Rain 24 1012 94 10000 1.03 70 07:37 03.04.2022
2874 Rain 24 1014 94 10000 1.54 260 04:18 03.04.2022
2875 Rain 25 1012 94 6000 3.09 320 00:41 03.04.2022
2876 Rain 25 1011 94 6000 5.66 280 22:54 02.04.2022
2877 Rain 26 1010 89 10000 4.63 300 21:57 02.04.2022
2878 Rain 27 1011 83 10000 4.12 300 21:36 02.04.2022
2879 Rain 27 1011 83 10000 4.12 290 20:52 02.04.2022
2880 Rain 27 1012 83 10000 4.12 260 19:32 02.04.2022
2881 Rain 27 1013 89 10000 2.06 270 18:21 02.04.2022
2882 Rain 25 1014 100 8000 2.06 240 17:52 02.04.2022
2883 Thunderstorm 24 1015 94 1000 4.63 110 16:23 02.04.2022
2884 Thunderstorm 24 1014 94 1200 2.06 190 15:21 02.04.2022
2885 Rain 25 1014 94 1200 2.57 230 14:47 02.04.2022
2886 Rain 25 1012 94 5000 3.6 230 13:35 02.04.2022
2887 Rain 25 1012 100 10000 2.06 230 12:37 02.04.2022
2888 Rain 25 1011 100 10000 1.54 220 10:58 02.04.2022
2889 Rain 25 1011 100 10000 1.03 300 08:49 02.04.2022
2890 Rain 26 1012 94 10000 0.51 70 06:50 02.04.2022
2891 Clouds 27 1012 83 10000 2.57 20 03:45 02.04.2022
2892 Thunderstorm 28 1008 74 10000 4.63 40 23:56 01.04.2022
2893 Thunderstorm 28 1008 74 10000 6.69 130 23:18 01.04.2022
2894 Clouds 32 1007 66 10000 3.6 330 21:33 01.04.2022
2895 Clouds 32 1009 62 10000 3.09 50 20:51 01.04.2022
2896 Clouds 32 1009 62 10000 3.09 50 19:57 01.04.2022
2897 Clouds 31 1010 62 10000 3.6 30 19:31 01.04.2022
2898 Clouds 31 1012 66 10000 3.6 40 18:45 01.04.2022
2899 Clouds 30 1013 70 10000 5.14 60 17:46 01.04.2022
2900 Clouds 30 1014 70 10000 4.63 50 16:48 01.04.2022
2901 Clouds 28 1013 83 10000 5.66 40 15:36 01.04.2022
2902 Clouds 28 1013 89 10000 3.09 50 14:20 01.04.2022
2903 Clouds 25 1012 100 10000 1.54 40 13:33 01.04.2022
2904 Clouds 25 1011 100 10000 1.54 50 12:32 01.04.2022
2905 Clouds 24 1011 100 10000 1.03 70 11:37 01.04.2022
2906 Clouds 24 1011 100 10000 1.54 100 10:18 01.04.2022
2907 Clear 25 1010 94 10000 1.54 60 08:30 01.04.2022
2908 Clear 25 1011 94 10000 1.54 60 06:54 01.04.2022
2909 Clear 25 1012 94 10000 2.06 60 04:49 01.04.2022
2910 Clear 25 1012 94 10000 2.06 60 04:30 01.04.2022
2911 Clouds 25 1009 88 10000 2.06 80 01:56 01.04.2022
2912 Clouds 28 1008 74 10000 3.6 50 22:58 31.03.2022
2913 Clouds 30 1009 70 10000 2.06 0 21:50 31.03.2022
2914 Clouds 30 1009 70 10000 2.06 0 21:31 31.03.2022
2915 Clouds 28 1010 83 10000 1.54 170 20:29 31.03.2022
2916 Clouds 28 1012 78 10000 1.54 120 19:48 31.03.2022
2917 Rain 27 1013 83 10000 2.57 50 18:43 31.03.2022
2918 Rain 28 1013 78 10000 1.54 70 17:41 31.03.2022
2919 Clouds 27 1013 89 10000 2.06 90 16:37 31.03.2022
2920 Clouds 27 1013 89 10000 2.57 90 15:37 31.03.2022
2921 Clouds 26 1013 94 10000 2.57 90 15:19 31.03.2022
2922 Clouds 25 1012 100 10000 1.54 70 14:34 31.03.2022
2923 Clouds 24 1010 100 10000 1.03 30 11:34 31.03.2022
2924 Rain 24 1010 100 10000 0.51 50 10:41 31.03.2022
2925 Rain 24 1010 100 10000 0.51 50 09:44 31.03.2022
2926 Rain 25 1012 94 10000 6.17 100 07:53 31.03.2022
2927 Clouds 24 1012 100 10000 1.03 70 04:42 31.03.2022
2928 Rain 25 1009 94 10000 0.51 120 23:34 30.03.2022
2929 Rain 25 1009 94 8000 1.54 250 22:23 30.03.2022
2930 Clouds 24 1010 100 5000 0.51 20 21:33 30.03.2022
2931 Thunderstorm 24 1010 100 4000 1.54 280 20:44 30.03.2022
2932 Rain 26 1010 89 10000 2.57 150 19:59 30.03.2022
2933 Rain 26 1012 94 3000 2.06 10 18:50 30.03.2022
2934 Rain 27 1013 83 10000 1.03 160 17:53 30.03.2022
2935 Clouds 27 1013 83 10000 1.03 160 17:34 30.03.2022
2936 Rain 27 1013 83 10000 1.03 270 16:51 30.03.2022
2937 Clouds 27 1013 83 10000 1.03 270 16:30 30.03.2022
2938 Clouds 26 1013 89 10000 2.06 250 14:55 30.03.2022
2939 Clouds 24 1012 100 10000 0.51 220 13:32 30.03.2022
2940 Clouds 24 1010 100 10000 1.54 320 12:36 30.03.2022
2941 Clouds 24 1010 94 10000 2.06 310 10:54 30.03.2022
2942 Clouds 24 1010 100 10000 2.06 330 09:58 30.03.2022
2943 Clouds 24 1010 94 8000 1.54 310 08:29 30.03.2022
2944 Clouds 24 1011 94 8000 1.54 300 07:29 30.03.2022
2945 Rain 23 1012 100 9000 1.03 290 05:40 30.03.2022
2946 Rain 23 1012 100 10000 1.03 10 03:20 30.03.2022
2947 Rain 24 1010 94 2000 5.14 10 22:56 29.03.2022
2948 Rain 25 1010 100 3500 4.63 340 21:58 29.03.2022
2949 Rain 25 1010 100 3500 3.6 310 21:37 29.03.2022
2950 Rain 25 1011 100 1000 3.09 310 20:30 29.03.2022
2951 Rain 25 1012 100 10000 2.57 270 19:34 29.03.2022
2952 Rain 25 1013 100 10000 2.06 260 18:54 29.03.2022
2953 Rain 25 1014 100 8000 1.54 250 17:57 29.03.2022
2954 Rain 25 1014 100 8000 1.54 250 17:19 29.03.2022
2955 Rain 25 1015 94 5000 1.03 350 16:53 29.03.2022
2956 Rain 25 1014 94 10000 1.54 290 15:41 29.03.2022
2957 Rain 24 1013 94 10000 2.57 300 14:43 29.03.2022
2958 Rain 24 1013 94 10000 2.57 300 14:43 29.03.2022
2959 Rain 24 1012 94 5000 2.06 330 13:35 29.03.2022
2960 Rain 24 1012 94 10000 2.57 330 12:39 29.03.2022
2961 Rain 24 1011 94 10000 2.06 330 11:18 29.03.2022
2962 Rain 24 1011 100 10000 2.06 330 10:20 29.03.2022
2963 Rain 24 1012 100 10000 1.03 350 08:44 29.03.2022
2964 Rain 25 1012 94 10000 2.06 270 06:53 29.03.2022
2965 Clear 24 1011 94 10000 1.03 330 02:52 29.03.2022
2966 Clouds 25 1009 88 10000 0.51 120 23:37 28.03.2022
2967 Rain 25 1009 88 10000 2.06 30 22:57 28.03.2022
2968 Rain 25 1009 88 10000 2.06 30 22:31 28.03.2022
2969 Rain 25 1010 88 10000 2.06 60 21:43 28.03.2022
2970 Rain 25 1011 94 10000 2.57 10 20:35 28.03.2022
2971 Rain 24 1012 94 10000 3.09 60 19:48 28.03.2022
2972 Rain 24 1012 94 10000 3.09 60 19:30 28.03.2022
2973 Rain 23 1013 100 10000 2.06 80 18:50 28.03.2022
2974 Rain 23 1015 100 10000 2.57 100 17:41 28.03.2022
2975 Rain 23 1015 100 7000 2.06 300 16:48 28.03.2022
2976 Rain 26 1013 94 8000 6.17 20 14:56 28.03.2022
2977 Clouds 26 1013 94 8000 2.06 160 14:23 28.03.2022
2978 Clouds 25 1012 100 10000 2.06 180 13:18 28.03.2022
2979 Clouds 25 1011 100 10000 1.03 160 11:43 28.03.2022
2980 Clouds 25 1011 100 10000 0 0 09:55 28.03.2022
2981 Clouds 25 1010 100 10000 0 0 09:21 28.03.2022
2982 Clouds 25 1011 100 10000 1.54 20 08:23 28.03.2022
2983 Clouds 25 1011 100 10000 1.54 20 07:59 28.03.2022
2984 Clouds 25 1011 100 10000 0 0 06:30 28.03.2022
2985 Clouds 28 1009 83 8000 1.54 200 00:19 28.03.2022
2986 Clouds 29 1008 79 10000 3.6 70 22:34 27.03.2022
2987 Rain 29 1009 79 10000 2.06 40 21:42 27.03.2022
2988 Rain 29 1009 79 10000 2.06 40 20:58 27.03.2022
2989 Rain 30 1010 74 10000 2.06 190 20:18 27.03.2022
2990 Rain 30 1011 74 10000 2.57 180 19:36 27.03.2022
2991 Clouds 30 1012 70 10000 2.06 30 18:30 27.03.2022
2992 Clouds 30 1012 70 10000 2.06 30 17:55 27.03.2022
2993 Clouds 28 1013 78 10000 1.54 60 17:35 27.03.2022
2994 Clouds 28 1013 74 10000 1.54 320 15:46 27.03.2022
2995 Rain 25 1011 94 10000 1.54 240 13:57 27.03.2022
2996 Rain 25 1010 94 10000 1.03 330 12:50 27.03.2022
2997 Clouds 25 1010 94 10000 2.06 350 11:30 27.03.2022
2998 Mist 25 1009 94 10000 1.54 300 09:32 27.03.2022
2999 Clear 26 1011 89 10000 1.54 10 06:54 27.03.2022
3000 Clear 25 1010 94 10000 1.54 20 01:55 27.03.2022
3001 Clouds 27 1007 83 10000 2.57 340 00:25 27.03.2022
3002 Clouds 28 1006 74 10000 2.06 20 22:45 26.03.2022
3003 Clouds 28 1006 83 10000 2.57 50 21:50 26.03.2022
3004 Clouds 28 1006 83 10000 2.57 50 21:26 26.03.2022
3005 Rain 26 1008 94 10000 2.06 20 19:31 26.03.2022
3006 Thunderstorm 30 1009 74 10000 2.06 180 18:24 26.03.2022
3007 Clouds 29 1010 79 10000 2.06 200 17:33 26.03.2022
3008 Clouds 28 1011 83 10000 2.06 200 16:27 26.03.2022
3009 Clouds 28 1012 83 10000 1.54 350 15:23 26.03.2022
3010 Rain 26 1011 94 10000 1.03 220 13:54 26.03.2022
3011 Rain 26 1011 94 10000 1.03 220 13:19 26.03.2022
3012 Rain 25 1009 100 10000 1.03 210 11:41 26.03.2022
3013 Clouds 25 1009 100 10000 1.03 250 10:29 26.03.2022
3014 Clouds 26 1008 94 10000 2.06 280 08:44 26.03.2022
3015 Clear 26 1009 94 10000 2.57 360 06:25 26.03.2022
3016 Clear 31 1010 89 10000 1.54 310 05:28 26.03.2022
3017 Clouds 26 1007 89 10000 1.03 100 00:30 26.03.2022
3018 Clouds 30 1006 70 10000 2.06 80 21:51 25.03.2022
3019 Clouds 30 1008 70 10000 1.03 120 20:46 25.03.2022
3020 Clouds 30 1008 70 10000 1.03 120 20:20 25.03.2022
3021 Clouds 28 1010 83 10000 3.09 80 18:47 25.03.2022
3022 Clouds 27 1011 83 10000 4.63 60 17:47 25.03.2022
3023 Clouds 27 1011 83 10000 4.63 60 17:27 25.03.2022
3024 Clouds 28 1011 78 10000 3.09 70 16:18 25.03.2022
3025 Rain 24 1012 100 6000 2.06 30 14:26 25.03.2022
3026 Rain 24 1012 94 4000 2.57 70 12:57 25.03.2022
3027 Clouds 24 1010 100 800 4.63 50 10:22 25.03.2022
3028 Clouds 24 1009 100 10000 1.03 70 09:28 25.03.2022
3029 Clouds 24 1009 100 10000 1.03 110 08:24 25.03.2022
3030 Clouds 24 1010 94 10000 1.54 70 07:28 25.03.2022
3031 Clouds 24 1011 94 10000 1.54 90 05:55 25.03.2022
3032 Clouds 25 1009 93 10000 1.58 67 01:18 25.03.2022
3033 Clouds 26 1007 89 10000 2.06 360 22:51 24.03.2022
3034 Clouds 27 1008 83 10000 3.09 20 21:45 24.03.2022
3035 Rain 25 1009 88 10000 3.6 30 20:26 24.03.2022
3036 Clouds 25 1011 94 3000 5.14 360 19:47 24.03.2022
3037 Clouds 28 1012 83 10000 2.06 80 17:47 24.03.2022
3038 Clouds 30 1011 68 10000 1.99 60 17:19 24.03.2022
3039 Clouds 29 1013 79 10000 2.06 80 15:21 24.03.2022
3040 Clouds 28 1013 74 10000 2.06 300 14:47 24.03.2022
3041 Clouds 28 1013 74 10000 2.06 300 14:18 24.03.2022
3042 Clouds 25 1011 100 10000 1.03 120 12:52 24.03.2022
3043 Clouds 25 1010 94 10000 1.03 330 11:44 24.03.2022
3044 Clouds 24 1010 100 10000 0.51 240 09:53 24.03.2022
3045 Clouds 24 1010 100 10000 1.03 300 08:41 24.03.2022
3046 Clouds 24 1011 100 10000 1.03 270 06:48 24.03.2022
3047 Clouds 25 1010 94 10000 2.06 20 02:18 24.03.2022
3048 Rain 27 1009 89 10000 2.06 330 23:18 23.03.2022
3049 Thunderstorm 26 1008 94 2000 3.6 40 21:27 23.03.2022
3050 Rain 29 1008 74 10000 3.09 300 20:49 23.03.2022
3051 Rain 30 1009 70 10000 4.12 320 19:45 23.03.2022
3052 Rain 30 1010 74 10000 3.6 30 18:30 23.03.2022
3053 Clouds 30 1012 74 10000 2.57 10 17:36 23.03.2022
3054 Clouds 30 1013 79 10000 2.06 350 16:21 23.03.2022
3055 Clouds 29 1013 79 10000 2.57 30 14:50 23.03.2022
3056 Clouds 29 1013 79 10000 2.57 30 14:21 23.03.2022
3057 Clouds 25 1011 94 10000 0 0 12:24 23.03.2022
3058 Clouds 25 1009 88 10000 2.06 40 09:38 23.03.2022
3059 Clouds 25 1010 94 10000 2.06 50 06:40 23.03.2022
3060 Clouds 25 1011 100 10000 2.06 50 03:58 23.03.2022
3061 Clouds 28 1007 78 10000 2.06 360 00:29 23.03.2022
3062 Clouds 30 1006 70 10000 1.03 110 22:26 22.03.2022
3063 Clouds 31 1007 62 10000 1.54 200 21:29 22.03.2022
3064 Clouds 32 1007 62 10000 1.03 210 20:39 22.03.2022
3065 Clouds 32 1009 62 10000 3.09 30 19:39 22.03.2022
3066 Clouds 32 1009 62 10000 3.09 30 19:18 22.03.2022
3067 Clouds 31 1012 66 10000 3.09 80 17:58 22.03.2022
3068 Clouds 31 1012 66 10000 3.09 80 17:25 22.03.2022
3069 Clouds 30 1013 74 10000 2.06 100 15:54 22.03.2022
3070 Clouds 30 1013 74 10000 2.06 100 15:22 22.03.2022
3071 Clouds 28 1013 78 10000 3.09 40 14:46 22.03.2022
3072 Clouds 28 1013 78 10000 3.09 40 14:25 22.03.2022
3073 Clouds 24 1011 94 10000 2.06 40 12:46 22.03.2022
3074 Rain 24 1011 94 10000 1.54 20 11:36 22.03.2022
3075 Clouds 24 1010 94 10000 1.54 20 10:23 22.03.2022
3076 Clear 24 1010 94 10000 2.06 350 07:48 22.03.2022
3077 Clear 24 1012 88 10000 2.57 10 05:19 22.03.2022
3078 Clouds 25 1011 83 10000 2.57 10 03:38 22.03.2022
3079 Rain 25 1008 88 10000 2.06 340 23:41 21.03.2022
3080 Clouds 25 1008 88 10000 4.12 340 21:51 21.03.2022
3081 Rain 27 1009 83 10000 5.14 360 20:45 21.03.2022
3082 Clouds 27 1009 83 10000 5.14 360 20:26 21.03.2022
3083 Clouds 29 1010 70 10000 3.09 340 19:53 21.03.2022
3084 Clouds 29 1010 70 10000 3.09 340 19:23 21.03.2022
3085 Clouds 28 1013 78 10000 1.54 170 17:45 21.03.2022
3086 Clouds 28 1013 78 10000 1.54 170 17:18 21.03.2022
3087 Clouds 28 1014 78 10000 2.06 320 16:37 21.03.2022
3088 Clouds 27 1014 74 10000 1.54 20 15:46 21.03.2022
3089 Clouds 27 1013 78 10000 1.03 70 14:48 21.03.2022
3090 Clouds 25 1012 94 10000 2.06 30 13:35 21.03.2022
3091 Fog 23 1011 100 10000 1.54 20 12:31 21.03.2022
3092 Fog 23 1010 100 10000 1.03 20 11:39 21.03.2022
3093 Clouds 24 1010 94 10000 1.03 330 09:54 21.03.2022
3094 Clouds 24 1010 94 10000 1.54 240 08:26 21.03.2022
3095 Clouds 24 1012 94 10000 1.03 220 06:31 21.03.2022
3096 Clouds 23 1012 100 10000 2.06 220 02:33 21.03.2022
3097 Clouds 24 1009 100 10000 1.03 250 23:32 20.03.2022
3098 Rain 24 1008 94 10000 1.54 280 22:42 20.03.2022
3099 Rain 24 1009 94 8000 2.06 310 21:49 20.03.2022
3100 Rain 24 1009 94 8000 2.06 310 20:59 20.03.2022
3101 Rain 24 1009 94 8000 2.06 310 20:59 20.03.2022
3102 Rain 23 1010 100 5000 3.09 310 20:39 20.03.2022
3103 Rain 23 1011 100 3000 2.57 320 19:56 20.03.2022
3104 Rain 23 1011 100 3000 2.57 320 19:25 20.03.2022
3105 Thunderstorm 23 1013 100 600 4.12 360 17:50 20.03.2022
3106 Thunderstorm 23 1013 100 600 4.12 360 17:28 20.03.2022
3107 Rain 28 1012 78 10000 3.09 230 16:41 20.03.2022
3108 Clouds 27 1013 83 10000 2.06 290 14:54 20.03.2022
3109 Clouds 26 1012 89 10000 1.54 290 13:46 20.03.2022
3110 Clouds 26 1011 89 10000 1.54 310 12:21 20.03.2022
3111 Clear 25 1010 88 10000 1.54 290 10:39 20.03.2022
3112 Clear 26 1009 83 10000 1.54 320 08:35 20.03.2022
3113 Clear 25 1011 88 10000 1.54 10 06:40 20.03.2022
3114 Clear 26 1011 89 10000 3.09 360 03:27 20.03.2022
3115 Clouds 27 1008 83 10000 2.57 360 00:59 20.03.2022
3116 Clouds 27 1008 83 10000 2.57 360 00:35 20.03.2022
3117 Clouds 29 1007 74 10000 3.09 10 22:42 19.03.2022
3118 Rain 29 1008 74 10000 2.57 30 21:27 19.03.2022
3119 Clouds 28 1011 83 10000 2.57 10 19:42 19.03.2022
3120 Rain 25 1012 100 10000 3.09 50 18:44 19.03.2022
3121 Clouds 25 1012 100 10000 3.09 50 17:57 19.03.2022
3122 Clouds 28 1013 78 10000 5.14 40 17:33 19.03.2022
3123 Clouds 27 1014 89 10000 2.06 160 15:41 19.03.2022
3124 Rain 26 1014 94 10000 1.54 170 14:21 19.03.2022
3125 Clouds 25 1012 94 10000 1.03 230 12:56 19.03.2022
3126 Rain 25 1012 94 10000 1.03 230 12:37 19.03.2022
3127 Rain 24 1011 100 10000 1.54 290 11:47 19.03.2022
3128 Rain 24 1011 100 4000 3.09 40 09:55 19.03.2022
3129 Rain 25 1013 94 3500 2.06 60 05:48 19.03.2022
3130 Clouds 27 1011 89 10000 2.57 30 02:37 19.03.2022
3131 Clouds 27 1009 83 10000 2.06 200 00:54 19.03.2022
3132 Clouds 29 1008 74 10000 2.57 40 23:19 18.03.2022
3133 Rain 29 1008 74 10000 1.54 230 22:22 18.03.2022
3134 Clouds 30 1008 74 10000 3.6 240 20:40 18.03.2022
3135 Clouds 30 1009 70 10000 2.06 280 19:48 18.03.2022
3136 Clouds 30 1009 70 10000 2.06 280 19:19 18.03.2022
3137 Clouds 28 1013 83 10000 3.6 70 17:27 18.03.2022
3138 Rain 30 1014 74 10000 3.09 300 16:42 18.03.2022
3139 Clouds 28 1014 83 10000 1.54 20 14:30 18.03.2022
3140 Clouds 27 1013 83 10000 2.06 30 13:41 18.03.2022
3141 Clouds 25 1012 94 10000 1.03 10 12:18 18.03.2022
3142 Clouds 25 1010 100 10000 1.03 50 10:27 18.03.2022
3143 Clouds 25 1010 94 10000 1.03 80 09:20 18.03.2022
3144 Clouds 25 1011 100 10000 1.03 30 07:43 18.03.2022
3145 Clouds 25 1012 94 10000 2.06 60 05:20 18.03.2022
3146 Clouds 25 1011 94 10000 2.06 20 01:55 18.03.2022
3147 Rain 25 1010 94 10000 2.57 270 00:21 18.03.2022
3148 Rain 29 1008 65 10000 2.57 360 22:54 17.03.2022
3149 Rain 29 1008 65 10000 2.57 360 22:20 17.03.2022
3150 Rain 30 1008 66 10000 2.06 350 21:46 17.03.2022
3151 Rain 29 1008 70 10000 3.6 330 20:58 17.03.2022
3152 Clouds 29 1008 70 10000 3.6 330 20:29 17.03.2022
3153 Clouds 29 1009 70 10000 4.12 320 19:39 17.03.2022
3154 Clouds 29 1009 70 10000 4.12 320 18:55 17.03.2022
3155 Rain 29 1013 70 10000 3.6 330 17:47 17.03.2022
3156 Rain 28 1014 74 10000 3.09 360 16:29 17.03.2022
3157 Clouds 27 1014 78 10000 3.09 330 15:43 17.03.2022
3158 Clouds 27 1014 78 10000 3.09 330 15:18 17.03.2022
3159 Clouds 25 1012 88 10000 2.57 340 13:47 17.03.2022
3160 Clouds 24 1011 94 10000 3.09 330 12:47 17.03.2022
3161 Clouds 24 1011 94 10000 2.06 320 11:36 17.03.2022
3162 Clouds 24 1011 94 10000 2.06 320 10:58 17.03.2022
3163 Clouds 24 1010 94 10000 2.57 310 09:40 17.03.2022
3164 Clear 24 1010 94 10000 3.09 310 08:20 17.03.2022
3165 Clear 25 1012 88 10000 3.09 330 05:53 17.03.2022
3166 Clear 25 1012 88 10000 3.09 330 05:23 17.03.2022
3167 Clouds 25 1009 94 10000 3.09 340 00:27 17.03.2022
3168 Rain 25 1008 94 10000 2.57 10 22:57 16.03.2022
3169 Rain 25 1008 94 10000 2.57 10 22:36 16.03.2022
3170 Rain 25 1008 94 10000 2.57 360 21:56 16.03.2022
3171 Rain 25 1009 94 2500 4.63 340 20:47 16.03.2022
3172 Rain 27 1010 83 10000 4.12 290 19:24 16.03.2022
3173 Thunderstorm 26 1010 89 8000 3.09 330 18:43 16.03.2022
3174 Rain 28 1012 74 10000 7.2 340 17:50 16.03.2022
3175 Thunderstorm 28 1012 74 10000 7.2 340 17:31 16.03.2022
3176 Clouds 29 1012 74 10000 2.06 80 16:35 16.03.2022
3177 Clouds 28 1013 78 10000 2.57 10 14:58 16.03.2022
3178 Clouds 26 1012 89 10000 1.03 90 13:36 16.03.2022
3179 Clouds 25 1011 88 10000 1.54 60 12:55 16.03.2022
3180 Clouds 25 1010 94 10000 2.57 300 11:23 16.03.2022
3181 Clear 25 1009 94 10000 2.06 30 10:32 16.03.2022
3182 Clear 25 1009 94 10000 2.06 30 09:56 16.03.2022
3183 Clear 26 1010 89 10000 2.06 60 07:43 16.03.2022
3184 Clear 25 1011 100 10000 0 0 02:46 16.03.2022
3185 Clouds 27 1009 83 10000 1.03 20 22:56 15.03.2022
3186 Clouds 30 1008 62 10000 1.54 80 22:35 15.03.2022
3187 Clouds 30 1008 66 10000 2.57 90 20:59 15.03.2022
3188 Clouds 31 1010 62 10000 1.54 170 19:39 15.03.2022
3189 Clouds 30 1013 70 10000 2.57 210 17:46 15.03.2022
3190 Clouds 28 1014 78 10000 1.54 120 16:38 15.03.2022
3191 Clouds 28 1014 78 10000 2.57 90 15:38 15.03.2022
3192 Clouds 26 1014 89 10000 2.06 60 14:54 15.03.2022
3193 Clouds 24 1013 100 10000 1.54 40 13:56 15.03.2022
3194 Clouds 24 1013 100 10000 1.54 40 13:22 15.03.2022
3195 Clouds 23 1011 100 10000 1.54 20 11:33 15.03.2022
3196 Rain 24 1011 100 10000 1.03 10 10:27 15.03.2022
3197 Rain 24 1010 100 10000 1.03 20 09:20 15.03.2022
3198 Rain 24 1010 94 10000 1.54 10 08:21 15.03.2022
3199 Rain 24 1010 94 10000 1.03 40 07:36 15.03.2022
3200 Mist 24 1010 100 10000 1.54 20 05:55 15.03.2022
3201 Rain 24 1011 100 10000 1.03 350 00:31 15.03.2022
3202 Clouds 24 1011 100 10000 1.03 30 23:29 14.03.2022
3203 Clouds 24 1011 94 5000 2.06 70 22:49 14.03.2022
3204 Rain 23 1011 100 3000 1.03 100 21:51 14.03.2022
3205 Rain 28 1011 78 10000 2.57 260 20:55 14.03.2022
3206 Rain 28 1011 78 10000 4.12 210 20:24 14.03.2022
3207 Rain 27 1012 78 10000 2.57 180 19:22 14.03.2022
3208 Rain 27 1013 78 10000 1.54 180 17:55 14.03.2022
3209 Rain 26 1014 89 10000 2.06 140 17:33 14.03.2022
3210 Rain 26 1014 94 6000 2.06 160 16:28 14.03.2022
3211 Clouds 26 1010 89 10000 1.54 310 14:47 14.03.2022
3212 Clouds 25 1013 88 10000 1.03 270 13:20 14.03.2022
3213 Rain 24 1010 100 10000 1.03 20 10:59 14.03.2022
3214 Rain 24 1010 94 10000 1.03 360 09:56 14.03.2022
3215 Rain 24 1010 94 10000 1.03 360 09:24 14.03.2022
3216 Rain 24 1010 94 10000 1.03 360 08:57 14.03.2022
3217 Rain 24 1010 94 10000 1.03 330 08:24 14.03.2022
3218 Rain 24 1012 94 10000 2.06 290 05:51 14.03.2022
3219 Rain 24 1012 100 10000 2.57 250 02:57 14.03.2022
3220 Rain 24 1012 94 10000 4.12 280 01:33 14.03.2022
3221 Rain 24 1010 94 7000 5.14 270 23:25 13.03.2022
3222 Thunderstorm 25 1009 94 1500 5.14 260 21:40 13.03.2022
3223 Thunderstorm 25 1009 94 1500 5.14 260 21:19 13.03.2022
3224 Thunderstorm 25 1009 94 3000 2.57 60 20:43 13.03.2022
3225 Thunderstorm 25 1008 94 5000 4.63 10 20:20 13.03.2022
3226 Thunderstorm 31 1008 66 10000 3.09 290 19:40 13.03.2022
3227 Rain 31 1008 66 10000 4.12 340 19:20 13.03.2022
3228 Rain 32 1009 70 10000 5.14 240 18:40 13.03.2022
3229 Clouds 31 1011 70 10000 3.6 220 17:48 13.03.2022
3230 Clouds 31 1011 70 10000 3.6 220 17:22 13.03.2022
3231 Clouds 30 1012 74 10000 2.06 180 16:43 13.03.2022
3232 Clouds 30 1011 65 10000 1.42 106 16:20 13.03.2022
3233 Clouds 29 1013 74 10000 2.06 170 15:33 13.03.2022
3234 Clouds 27 1012 89 10000 1.54 180 13:53 13.03.2022
3235 Clouds 27 1012 89 10000 1.54 180 13:19 13.03.2022
3236 Clouds 26 1011 94 10000 2.06 230 12:20 13.03.2022
3237 Clouds 25 1010 100 10000 1.54 170 11:36 13.03.2022
3238 Clear 25 1009 94 10000 2.06 100 10:48 13.03.2022
3239 Clear 25 1009 94 10000 2.06 100 10:25 13.03.2022
3240 Clouds 25 1009 94 10000 1.03 180 09:41 13.03.2022
3241 Clouds 25 1009 94 10000 1.03 180 09:41 13.03.2022
3242 Clear 26 1009 89 10000 1.54 160 08:47 13.03.2022
3243 Clouds 25 1009 100 10000 1.54 90 07:47 13.03.2022
3244 Clouds 26 1011 94 10000 1.03 160 05:48 13.03.2022
3245 Clouds 27 1010 89 10000 1.03 80 02:50 13.03.2022
3246 Rain 28 1008 78 10000 2.06 70 00:20 13.03.2022
3247 Clouds 30 1006 70 10000 3.09 70 22:37 12.03.2022
3248 Clouds 32 1007 66 10000 2.57 20 20:54 12.03.2022
3249 Rain 32 1009 62 10000 2.57 340 19:50 12.03.2022
3250 Clouds 32 1009 62 10000 2.57 340 19:32 12.03.2022
3251 Clouds 31 1010 66 10000 2.57 90 18:27 12.03.2022
3252 Clouds 31 1011 70 10000 3.6 60 17:34 12.03.2022
3253 Clouds 30 1012 74 10000 3.6 20 16:24 12.03.2022
3254 Clouds 29 1012 74 10000 4.63 50 15:24 12.03.2022
3255 Clouds 28 1012 83 10000 3.6 60 14:50 12.03.2022
3256 Clouds 26 1011 94 10000 2.57 80 13:32 12.03.2022
3257 Clouds 25 1010 100 10000 1.54 100 11:56 12.03.2022
3258 Clouds 23 1010 100 10000 0.51 50 11:38 12.03.2022
3259 Clouds 23 1010 100 10000 0.51 50 10:58 12.03.2022
3260 Clouds 24 1010 100 10000 1.03 110 09:45 12.03.2022
3261 Clouds 24 1010 100 10000 1.03 110 08:56 12.03.2022
3262 Clear 24 1010 100 10000 0.51 40 07:27 12.03.2022
3263 Clouds 25 1011 94 10000 1.54 180 03:36 12.03.2022
3264 Rain 25 1008 88 8000 2.57 60 23:56 11.03.2022
3265 Clouds 25 1008 88 8000 2.57 60 23:18 11.03.2022
3266 Rain 31 1008 74 10000 5.14 10 21:35 11.03.2022
3267 Rain 29 1008 79 10000 2.57 110 20:55 11.03.2022
3268 Rain 29 1008 79 10000 4.12 80 20:34 11.03.2022
3269 Rain 30 1009 79 10000 3.09 30 19:49 11.03.2022
3270 Rain 30 1009 79 10000 3.09 30 19:22 11.03.2022
3271 Rain 29 1012 74 10000 4.12 20 17:30 11.03.2022
3272 Rain 28 1013 83 10000 2.57 10 16:27 11.03.2022
3273 Clouds 28 1013 78 10000 2.57 10 15:53 11.03.2022
3274 Clouds 27 1013 89 10000 2.06 30 14:19 11.03.2022
3275 Clear 25 1011 94 10000 2.06 20 12:44 11.03.2022
3276 Clear 25 1011 94 10000 2.06 20 12:21 11.03.2022
3277 Clear 24 1010 94 10000 2.06 30 11:51 11.03.2022
3278 Clear 24 1009 100 10000 2.06 10 09:40 11.03.2022
3279 Clear 24 1010 94 10000 1.54 30 08:47 11.03.2022
3280 Clear 24 1010 94 10000 1.03 50 07:53 11.03.2022
3281 Clear 24 1010 94 10000 1.03 50 07:28 11.03.2022
3282 Clear 24 1011 100 10000 0 0 05:44 11.03.2022
3283 Clear 24 1012 100 10000 0.51 190 03:41 11.03.2022
3284 Clouds 25 1008 94 10000 2.06 40 23:31 10.03.2022
3285 Clouds 25 1008 88 10000 3.09 50 22:29 10.03.2022
3286 Rain 26 1008 78 10000 3.6 10 21:27 10.03.2022
3287 Rain 28 1010 78 10000 4.12 30 20:49 10.03.2022
3288 Clouds 29 1010 70 10000 2.06 180 19:23 10.03.2022
3289 Clouds 30 1012 70 10000 2.06 260 18:39 10.03.2022
3290 Clouds 28 1014 78 10000 1.54 50 16:54 10.03.2022
3291 Clouds 27 1014 78 10000 1.03 20 15:41 10.03.2022
3292 Clouds 26 1010 89 10000 1.54 300 14:23 10.03.2022
3293 Clouds 25 1012 88 10000 1.54 70 12:49 10.03.2022
3294 Rain 24 1011 94 10000 1.54 60 11:39 10.03.2022
3295 Rain 24 1010 94 10000 2.06 70 10:19 10.03.2022
3296 Rain 24 1011 100 10000 2.57 70 08:48 10.03.2022
3297 Rain 25 1012 94 10000 2.06 70 05:50 10.03.2022
3298 Rain 25 1011 94 10000 1.03 30 03:33 10.03.2022
3299 Rain 25 1009 94 10000 0.51 20 00:23 10.03.2022
3300 Rain 26 1009 89 10000 1.03 330 22:45 09.03.2022
3301 Rain 27 1009 83 10000 1.03 100 21:48 09.03.2022
3302 Rain 27 1010 89 10000 2.06 120 20:59 09.03.2022
3303 Rain 26 1011 89 10000 2.06 320 19:28 09.03.2022
3304 Rain 27 1011 83 10000 2.06 310 17:57 09.03.2022
3305 Rain 26 1012 83 10000 2.06 310 17:23 09.03.2022
3306 Rain 26 1014 89 10000 2.06 360 15:42 09.03.2022
3307 Rain 25 1013 94 8000 1.54 350 14:27 09.03.2022
3308 Rain 25 1012 94 8000 1.03 310 13:50 09.03.2022
3309 Rain 25 1011 94 10000 1.54 320 12:25 09.03.2022
3310 Rain 24 1010 94 10000 1.03 320 11:48 09.03.2022
3311 Rain 24 1010 94 10000 1.03 320 10:55 09.03.2022
3312 Rain 24 1008 94 9000 1.03 100 09:28 09.03.2022
3313 Rain 24 1009 94 10000 1.03 190 08:44 09.03.2022
3314 Rain 24 1010 94 10000 2.06 20 06:25 09.03.2022
3315 Rain 24 1010 100 10000 1.54 180 00:58 09.03.2022
3316 Rain 25 1009 94 10000 2.06 200 23:48 08.03.2022
3317 Rain 25 1009 94 10000 2.06 160 22:46 08.03.2022
3318 Rain 25 1008 100 10000 3.6 160 21:47 08.03.2022
3319 Rain 25 1008 100 10000 2.06 180 21:19 08.03.2022
3320 Rain 26 1008 94 7000 5.14 180 20:19 08.03.2022
3321 Rain 29 1010 79 10000 5.14 250 18:57 08.03.2022
3322 Rain 29 1010 79 10000 5.14 250 18:21 08.03.2022
3323 Rain 28 1012 74 10000 2.57 230 16:40 08.03.2022
3324 Rain 26 1012 89 10000 2.06 240 14:55 08.03.2022
3325 Clouds 26 1011 89 10000 2.06 220 13:39 08.03.2022
3326 Clouds 24 1010 100 10000 1.03 70 12:20 08.03.2022
3327 Clouds 24 1010 94 10000 1.54 290 11:42 08.03.2022
3328 Clouds 24 1010 94 7000 1.03 340 10:28 08.03.2022
3329 Clear 24 1009 94 10000 1.03 350 08:54 08.03.2022
3330 Rain 23 1010 94 10000 2.57 30 05:49 08.03.2022
3331 Rain 23 1009 100 10000 0.51 360 01:49 08.03.2022
3332 Rain 24 1007 94 10000 2.06 30 22:41 07.03.2022
3333 Rain 24 1007 94 5000 3.09 350 21:36 07.03.2022
3334 Rain 24 1009 100 5000 3.09 20 20:55 07.03.2022
3335 Rain 24 1009 100 5000 3.09 20 20:29 07.03.2022
3336 Rain 25 1009 94 5000 3.09 10 19:48 07.03.2022
3337 Thunderstorm 25 1011 94 5000 3.09 350 18:48 07.03.2022
3338 Thunderstorm 25 1011 94 5000 3.09 350 18:25 07.03.2022
3339 Clouds 25 1012 94 4000 4.12 70 16:56 07.03.2022
3340 Clouds 25 1011 94 7000 5.66 40 16:37 07.03.2022
3341 Clouds 27 1012 89 10000 2.57 190 14:41 07.03.2022
3342 Clouds 25 1009 94 10000 1.54 190 12:34 07.03.2022
3343 Clouds 26 1009 94 10000 1.54 190 10:48 07.03.2022
3344 Clouds 26 1009 94 10000 1.54 190 10:25 07.03.2022
3345 Clear 26 1009 94 10000 1.54 200 07:24 07.03.2022
3346 Clouds 27 1006 78 10000 1.03 110 00:24 07.03.2022
3347 Clouds 27 1006 78 10000 1.03 110 23:58 06.03.2022
3348 Clouds 30 1006 70 10000 1.54 220 23:18 06.03.2022
3349 Clouds 31 1006 62 10000 1.54 180 22:24 06.03.2022
3350 Clouds 31 1006 66 10000 2.06 170 20:56 06.03.2022
3351 Clouds 31 1007 62 10000 1.54 110 20:28 06.03.2022
3352 Clouds 31 1009 58 10000 2.57 190 19:31 06.03.2022
3353 Clouds 30 1010 66 10000 2.06 300 18:25 06.03.2022
3354 Clouds 29 1011 70 10000 2.57 80 17:22 06.03.2022
3355 Clouds 28 1013 74 10000 2.57 20 16:44 06.03.2022
3356 Clouds 28 1013 74 10000 2.57 20 16:20 06.03.2022
3357 Clouds 27 1013 78 10000 2.57 60 14:57 06.03.2022
3358 Clouds 26 1013 83 10000 1.54 60 14:38 06.03.2022
3359 Clouds 25 1012 83 10000 1.54 30 13:36 06.03.2022
3360 Clouds 24 1011 88 10000 2.06 10 12:35 06.03.2022
3361 Clouds 23 1010 94 10000 2.06 10 11:27 06.03.2022
3362 Clear 23 1010 94 10000 1.54 40 10:29 06.03.2022
3363 Clouds 24 1010 88 10000 2.57 50 08:40 06.03.2022
3364 Clouds 24 1010 88 10000 2.57 50 08:20 06.03.2022
3365 Rain 24 1010 94 10000 3.09 60 06:22 06.03.2022
3366 Clouds 25 1010 88 10000 5.14 40 01:32 06.03.2022
3367 Clouds 27 1009 83 10000 4.12 30 00:33 06.03.2022
3368 Clouds 27 1008 78 10000 1.54 40 23:41 05.03.2022
3369 Clouds 27 1008 78 10000 1.54 40 23:18 05.03.2022
3370 Clouds 28 1007 74 10000 2.57 320 22:25 05.03.2022
3371 Clouds 28 1007 78 10000 2.06 30 21:24 05.03.2022
3372 Clouds 28 1009 78 10000 2.06 70 19:53 05.03.2022
3373 Rain 28 1011 83 10000 2.57 60 18:56 05.03.2022
3374 Rain 28 1011 83 10000 3.09 70 18:27 05.03.2022
3375 Clouds 28 1012 78 10000 2.06 180 16:52 05.03.2022
3376 Clouds 27 1013 83 10000 1.03 100 15:40 05.03.2022
3377 Clouds 26 1012 89 10000 1.54 170 14:52 05.03.2022
3378 Clouds 26 1012 89 10000 1.54 170 14:33 05.03.2022
3379 Clouds 26 1011 89 10000 1.54 170 13:22 05.03.2022
3380 Clouds 25 1009 94 10000 1.03 170 11:49 05.03.2022
3381 Clouds 25 1009 94 10000 1.03 170 11:19 05.03.2022
3382 Clouds 25 1009 94 10000 1.03 160 10:20 05.03.2022
3383 Clouds 25 1009 94 10000 1.03 170 09:26 05.03.2022
3384 Clouds 25 1010 94 10000 1.54 170 07:51 05.03.2022
3385 Clouds 25 1011 100 10000 2.06 240 05:43 05.03.2022
3386 Rain 26 1012 89 10000 1.54 190 04:33 05.03.2022
3387 Rain 25 1008 94 10000 1.03 100 23:38 04.03.2022
3388 Rain 26 1008 83 10000 2.06 10 22:44 04.03.2022
3389 Rain 26 1008 83 10000 2.06 10 22:23 04.03.2022
3390 Rain 28 1008 78 10000 5.66 360 20:57 04.03.2022
3391 Rain 30 1008 74 10000 2.57 290 20:27 04.03.2022
3392 Rain 31 1009 66 10000 2.06 330 19:36 04.03.2022
3393 Rain 29 1011 70 10000 4.12 350 18:45 04.03.2022
3394 Rain 28 1012 78 10000 2.57 50 17:48 04.03.2022
3395 Rain 28 1012 78 10000 2.57 50 17:28 04.03.2022
3396 Clouds 28 1013 78 10000 1.54 170 15:30 04.03.2022
3397 Clouds 28 1012 83 10000 2.57 180 14:33 04.03.2022
3398 Clouds 27 1012 94 10000 1.54 120 13:26 04.03.2022
3399 Clouds 24 1010 100 10000 1.03 140 11:54 04.03.2022
3400 Clouds 24 1010 100 10000 1.03 140 10:55 04.03.2022
3401 Clouds 25 1010 100 10000 1.03 230 09:58 04.03.2022
3402 Clouds 24 1009 100 10000 0 0 08:40 04.03.2022
3403 Clouds 24 1009 100 10000 0 0 08:40 04.03.2022
3404 Clouds 25 1010 94 10000 1.03 90 07:38 04.03.2022
3405 Clouds 26 1011 94 10000 3.09 280 04:31 04.03.2022
3406 Clouds 27 1007 78 10000 1.54 10 00:38 04.03.2022
3407 Clouds 29 1008 70 10000 4.12 30 22:39 03.03.2022
3408 Clouds 29 1008 70 10000 3.6 50 21:50 03.03.2022
3409 Clouds 29 1008 70 10000 3.6 50 21:29 03.03.2022
3410 Clouds 31 1008 66 10000 4.63 50 20:18 03.03.2022
3411 Clouds 31 1009 58 10000 5.14 60 18:55 03.03.2022
3412 Clouds 32 1010 66 10000 2.57 80 18:24 03.03.2022
3413 Clouds 31 1012 70 10000 2.57 30 17:31 03.03.2022
3414 Clouds 31 1013 70 10000 4.12 60 16:25 03.03.2022
3415 Clouds 29 1013 79 10000 2.57 50 15:24 03.03.2022
3416 Clouds 28 1013 83 10000 3.09 60 14:43 03.03.2022
3417 Clouds 28 1013 83 10000 3.09 60 14:20 03.03.2022
3418 Clouds 28 1013 83 10000 3.09 60 14:20 03.03.2022
3419 Clouds 25 1012 100 10000 1.54 110 12:23 03.03.2022
3420 Clouds 25 1010 94 10000 1.03 160 10:48 03.03.2022
3421 Clouds 25 1010 100 10000 1.03 180 09:41 03.03.2022
3422 Clouds 25 1010 100 10000 1.03 200 07:50 03.03.2022
3423 Clear 26 1009 94 10000 1.03 170 06:37 03.03.2022
3424 Clouds 26 1011 89 10000 1.03 70 03:21 03.03.2022
3425 Clouds 27 1008 78 10000 2.06 80 23:39 02.03.2022
3426 Clouds 27 1008 78 10000 4.12 70 22:52 02.03.2022
3427 Clouds 27 1008 78 10000 4.12 60 21:35 02.03.2022
3428 Clouds 29 1009 74 10000 3.6 60 20:55 02.03.2022
3429 Clouds 29 1009 74 10000 3.6 60 20:24 02.03.2022
3430 Clouds 26 1010 89 8000 6.69 20 19:36 02.03.2022
3431 Clouds 29 1011 79 8000 4.12 40 18:48 02.03.2022
3432 Clouds 30 1012 74 10000 3.6 350 18:19 02.03.2022
3433 Clouds 29 1013 79 10000 3.6 30 17:34 02.03.2022
3434 Clouds 29 1014 79 10000 3.6 50 16:51 02.03.2022
3435 Clouds 27 1015 83 10000 2.57 60 14:49 02.03.2022
3436 Clouds 25 1013 94 10000 3.09 60 13:29 02.03.2022
3437 Mist 24 1012 100 9000 1.54 20 12:44 02.03.2022
3438 Fog 24 1011 100 6000 1.54 60 11:53 02.03.2022
3439 Mist 24 1011 94 2000 1.03 80 11:25 02.03.2022
3440 Fog 23 1010 100 900 1.03 110 10:25 02.03.2022
3441 Fog 24 1009 94 10000 1.54 310 09:25 02.03.2022
3442 Fog 24 1010 100 10000 1.54 10 07:52 02.03.2022
3443 Fog 24 1010 100 10000 2.06 310 06:57 02.03.2022
3444 Rain 24 1012 100 10000 1.03 110 02:54 02.03.2022
3445 Rain 24 1010 94 10000 1.03 160 00:33 02.03.2022
3446 Rain 23 1009 100 6000 2.06 30 22:50 01.03.2022
3447 Rain 23 1009 100 6000 2.06 30 22:31 01.03.2022
3448 Thunderstorm 23 1010 100 4000 5.14 30 21:25 01.03.2022
3449 Thunderstorm 23 1010 100 2000 7.2 40 20:32 01.03.2022
3450 Clouds 25 1010 94 1000 6.17 360 19:45 01.03.2022
3451 Clouds 30 1011 70 10000 3.09 180 18:51 01.03.2022
3452 Clouds 30 1011 70 10000 3.09 180 18:21 01.03.2022
3453 Clouds 30 1012 74 10000 2.06 120 17:30 01.03.2022
3454 Clouds 29 1013 79 10000 1.03 130 16:35 01.03.2022
3455 Clouds 28 1014 83 10000 2.06 360 15:42 01.03.2022
3456 Clouds 28 1014 83 10000 1.03 120 14:41 01.03.2022
3457 Clouds 28 1014 83 10000 1.03 120 14:23 01.03.2022
3458 Clouds 27 1012 78 10000 1.54 200 13:25 01.03.2022
3459 Clear 24 1011 100 10000 1.03 210 12:34 01.03.2022
3460 Clouds 23 1010 100 10000 1.03 240 10:37 01.03.2022
3461 Clouds 24 1010 94 10000 1.54 330 09:18 01.03.2022
3462 Clouds 24 1011 94 9000 0.51 130 07:54 01.03.2022
3463 Clear 25 1012 88 10000 1.54 350 06:26 01.03.2022
3464 Rain 24 1011 94 10000 0.51 190 02:44 01.03.2022
3465 Clear 24 1009 88 10000 0.51 70 00:36 01.03.2022
3466 Rain 25 1008 83 10000 2.57 10 23:31 28.02.2022
3467 Rain 25 1008 88 10000 2.57 30 22:18 28.02.2022
3468 Rain 25 1009 88 10000 2.57 30 21:39 28.02.2022
3469 Clouds 25 1009 83 10000 4.12 10 19:59 28.02.2022
3470 Rain 24 1010 94 10000 5.66 340 19:40 28.02.2022
3471 Clouds 26 1010 89 8000 4.63 340 18:44 28.02.2022
3472 Clouds 28 1012 78 10000 4.12 240 17:33 28.02.2022
3473 Clouds 28 1013 78 10000 3.09 260 16:43 28.02.2022
3474 Clouds 28 1013 78 10000 3.6 260 15:27 28.02.2022
3475 Clouds 27 1013 83 10000 3.09 280 14:32 28.02.2022
3476 Clouds 26 1012 89 10000 4.12 290 13:48 28.02.2022
3477 Clouds 25 1011 94 10000 1.54 310 12:48 28.02.2022
3478 Clouds 25 1010 94 10000 2.57 310 11:58 28.02.2022
3479 Clouds 25 1010 94 10000 2.57 310 10:49 28.02.2022
3480 Clouds 25 1010 94 10000 2.57 310 10:21 28.02.2022
3481 Clouds 25 1010 94 8000 2.06 300 09:33 28.02.2022
3482 Clouds 25 1010 94 10000 2.06 310 08:32 28.02.2022
3483 Clouds 25 1010 94 10000 2.57 300 07:35 28.02.2022
3484 Rain 26 1011 89 10000 2.57 350 05:21 28.02.2022
3485 Rain 26 1012 94 10000 2.57 30 04:27 28.02.2022
3486 Rain 26 1008 89 10000 1.54 240 23:44 27.02.2022
3487 Rain 26 1007 89 10000 1.03 200 22:35 27.02.2022
3488 Rain 26 1007 89 10000 2.57 320 21:52 27.02.2022
3489 Clouds 26 1007 89 10000 2.57 320 21:21 27.02.2022
3490 Thunderstorm 28 1008 83 8000 6.17 10 20:32 27.02.2022
3491 Clouds 31 1008 66 10000 7.72 110 19:58 27.02.2022
3492 Clouds 31 1008 66 10000 2.57 190 19:27 27.02.2022
3493 Clouds 30 1010 70 10000 3.09 160 18:47 27.02.2022
3494 Clouds 27 1011 94 8000 1.54 210 17:56 27.02.2022
3495 Clouds 29 1011 79 10000 3.09 240 17:20 27.02.2022
3496 Clouds 27 1013 83 10000 2.06 270 16:22 27.02.2022
3497 Clouds 26 1013 94 10000 1.54 250 13:40 27.02.2022
3498 Clouds 25 1012 100 10000 1.54 250 12:33 27.02.2022
3499 Clouds 25 1011 100 10000 1.03 220 11:27 27.02.2022
3500 Clouds 25 1010 94 10000 1.03 230 10:20 27.02.2022
3501 Clouds 25 1010 100 10000 1.54 230 09:50 27.02.2022
3502 Clouds 25 1010 100 10000 1.54 230 09:20 27.02.2022
3503 Clouds 25 1010 100 10000 2.57 250 08:20 27.02.2022
3504 Clouds 25 1010 100 10000 2.57 250 08:20 27.02.2022
3505 Rain 26 1012 94 10000 2.06 330 05:38 27.02.2022
3506 Thunderstorm 26 1011 94 10000 1.54 260 02:35 27.02.2022
3507 Clouds 27 1009 83 9000 1.54 300 23:30 26.02.2022
3508 Clouds 27 1009 83 9000 1.54 300 23:30 26.02.2022
3509 Clouds 30 1008 70 10000 2.06 260 22:31 26.02.2022
3510 Clouds 30 1009 70 10000 2.57 90 21:19 26.02.2022
3511 Clouds 29 1010 74 10000 4.12 80 20:27 26.02.2022
3512 Clouds 28 1011 78 10000 3.09 60 19:52 26.02.2022
3513 Clouds 28 1011 78 10000 3.09 60 19:29 26.02.2022
3514 Clouds 27 1012 78 10000 2.06 70 17:55 26.02.2022
3515 Clouds 26 1013 89 10000 3.09 70 17:29 26.02.2022
3516 Clouds 26 1013 89 10000 3.09 70 17:29 26.02.2022
3517 Rain 25 1015 94 9000 3.09 30 16:33 26.02.2022
3518 Clouds 25 1015 100 8000 3.6 10 15:26 26.02.2022
3519 Clouds 25 1015 100 8000 2.57 50 14:57 26.02.2022
3520 Rain 24 1014 100 8000 1.03 10 14:38 26.02.2022
3521 Thunderstorm 24 1014 100 8000 2.57 70 13:40 26.02.2022
3522 Thunderstorm 24 1013 100 5000 2.57 20 12:52 26.02.2022
3523 Clouds 26 1012 94 1000 2.06 360 11:38 26.02.2022
3524 Clouds 26 1010 89 10000 1.03 300 10:56 26.02.2022
3525 Clouds 26 1010 94 10000 1.54 240 09:21 26.02.2022
3526 Clouds 26 1010 94 10000 1.54 250 07:57 26.02.2022
3527 Clouds 26 1012 94 10000 0.51 210 03:21 26.02.2022
3528 Clouds 28 1009 83 10000 1.54 80 23:32 25.02.2022
3529 Clouds 31 1009 66 10000 2.06 300 21:49 25.02.2022
3530 Rain 31 1009 66 10000 2.06 300 21:29 25.02.2022
3531 Thunderstorm 31 1010 70 10000 3.6 240 20:33 25.02.2022
3532 Clouds 29 1011 74 10000 1.03 120 19:41 25.02.2022
3533 Clouds 28 1013 78 10000 3.09 10 17:48 25.02.2022
3534 Clouds 28 1013 78 10000 4.12 30 16:46 25.02.2022
3535 Rain 29 1014 79 10000 4.12 40 15:49 25.02.2022
3536 Rain 29 1014 79 10000 4.12 40 15:23 25.02.2022
3537 Clouds 27 1013 83 10000 3.09 70 14:49 25.02.2022
3538 Clouds 27 1013 83 10000 3.09 70 14:18 25.02.2022
3539 Clouds 26 1012 89 10000 4.63 40 13:20 25.02.2022
3540 Clouds 26 1012 89 10000 4.63 40 13:20 25.02.2022
3541 Clouds 25 1011 88 10000 2.57 50 11:39 25.02.2022
3542 Clouds 25 1011 88 10000 2.57 50 11:18 25.02.2022
3543 Clouds 25 1009 88 10000 2.06 60 10:23 25.02.2022
3544 Clouds 25 1010 88 10000 1.03 50 09:36 25.02.2022
3545 Rain 25 1010 88 10000 1.03 70 07:47 25.02.2022
3546 Clouds 26 1010 83 10000 3.09 40 06:45 25.02.2022
3547 Clouds 26 1011 83 10000 2.06 300 05:37 25.02.2022
3548 Clouds 27 1009 83 10000 2.06 350 00:31 25.02.2022
3549 Clouds 29 1007 79 10000 2.57 290 22:29 24.02.2022
3550 Rain 31 1007 66 10000 2.06 90 21:43 24.02.2022
3551 Rain 31 1007 66 10000 2.06 90 21:43 24.02.2022
3552 Rain 31 1007 66 10000 2.06 90 21:21 24.02.2022
3553 Clouds 31 1007 70 10000 3.09 190 20:42 24.02.2022
3554 Clouds 31 1009 70 10000 2.06 70 19:19 24.02.2022
3555 Clouds 30 1011 74 10000 2.57 80 18:20 24.02.2022
3556 Clouds 29 1012 79 10000 2.57 30 17:46 24.02.2022
3557 Clouds 29 1013 79 10000 3.09 60 16:57 24.02.2022
3558 Clouds 29 1013 79 10000 3.09 60 16:25 24.02.2022
3559 Rain 27 1013 89 10000 2.57 70 15:31 24.02.2022
3560 Clouds 27 1013 83 10000 0.51 90 14:43 24.02.2022
3561 Clouds 25 1012 94 10000 1.03 190 13:45 24.02.2022
3562 Clouds 25 1012 94 10000 1.03 190 13:27 24.02.2022
3563 Clouds 23 1010 100 10000 0.51 200 10:50 24.02.2022
3564 Clouds 24 1009 100 10000 1.03 220 09:42 24.02.2022
3565 Clouds 24 1010 100 10000 1.03 230 08:43 24.02.2022
3566 Clouds 24 1010 100 10000 1.03 230 08:43 24.02.2022
3567 Clear 24 1011 94 10000 1.03 260 06:27 24.02.2022
3568 Rain 24 1012 94 10000 1.03 360 05:36 24.02.2022
3569 Clouds 23 1008 100 10000 1.03 50 00:30 24.02.2022
3570 Clouds 26 1008 83 10000 2.06 110 21:56 23.02.2022
3571 Rain 24 1010 94 10000 1.03 80 20:43 23.02.2022
3572 Rain 24 1010 94 10000 1.03 80 20:19 23.02.2022
3573 Rain 24 1011 100 5000 1.03 140 19:23 23.02.2022
3574 Rain 24 1013 94 7000 2.57 80 17:56 23.02.2022
3575 Rain 23 1014 100 2500 4.63 50 16:18 23.02.2022
3576 Clouds 25 1013 94 10000 1.54 200 13:36 23.02.2022
3577 Clouds 25 1011 94 10000 2.57 180 12:29 23.02.2022
3578 Rain 25 1009 94 10000 2.57 240 10:55 23.02.2022
3579 Clouds 25 1009 100 10000 2.06 240 09:38 23.02.2022
3580 Rain 25 1010 100 10000 2.57 260 08:36 23.02.2022
3581 Clouds 26 1010 94 10000 2.06 220 07:47 23.02.2022
3582 Clouds 26 1011 89 10000 1.03 240 02:23 23.02.2022
3583 Clouds 28 1007 74 10000 2.57 10 23:50 22.02.2022
3584 Clouds 28 1007 74 10000 2.57 10 23:31 22.02.2022
3585 Rain 28 1007 78 10000 3.6 20 22:28 22.02.2022
3586 Rain 29 1007 74 10000 2.57 20 21:44 22.02.2022
3587 Rain 29 1007 74 10000 2.57 20 21:20 22.02.2022
3588 Rain 28 1007 78 10000 3.6 20 20:31 22.02.2022
3589 Clouds 31 1009 74 10000 3.09 340 19:56 22.02.2022
3590 Clouds 31 1009 74 10000 3.09 340 19:33 22.02.2022
3591 Clouds 30 1010 74 10000 2.06 180 18:35 22.02.2022
3592 Clouds 29 1011 84 10000 4.12 40 17:27 22.02.2022
3593 Clouds 28 1012 83 10000 3.09 60 16:55 22.02.2022
3594 Rain 28 1012 83 10000 3.09 60 16:20 22.02.2022
3595 Rain 27 1013 89 10000 1.54 100 15:21 22.02.2022
3596 Clouds 26 1013 94 10000 2.06 100 14:19 22.02.2022
3597 Clouds 25 1010 100 10000 0 0 11:38 22.02.2022
3598 Clouds 25 1010 100 10000 0 0 09:44 22.02.2022
3599 Clear 26 1011 94 10000 1.03 310 07:30 22.02.2022
3600 Clear 25 1011 100 10000 0 0 06:54 22.02.2022
3601 Clear 28 1010 78 10000 1.54 30 02:50 22.02.2022
3602 Clouds 29 1008 74 10000 1.54 350 23:18 21.02.2022
3603 Clouds 29 1007 70 10000 4.12 40 22:36 21.02.2022
3604 Clouds 31 1008 66 10000 7.2 30 20:52 21.02.2022
3605 Clouds 30 1011 74 10000 3.6 80 18:47 21.02.2022
3606 Clouds 30 1011 74 10000 3.6 80 18:19 21.02.2022
3607 Clouds 30 1013 70 10000 6.69 30 16:23 21.02.2022
3608 Clouds 28 1012 78 10000 4.12 20 14:23 21.02.2022
3609 Clouds 26 1011 83 10000 4.63 40 13:31 21.02.2022
3610 Clouds 25 1010 94 10000 2.06 50 12:46 21.02.2022
3611 Clouds 25 1010 94 10000 2.06 50 12:21 21.02.2022
3612 Clouds 25 1010 100 10000 1.54 60 10:27 21.02.2022
3613 Clouds 25 1010 100 10000 1.03 160 07:48 21.02.2022
3614 Clouds 26 1009 83 10000 1.54 20 00:35 21.02.2022
3615 Clouds 28 1008 74 10000 2.57 40 22:32 20.02.2022
3616 Clouds 28 1008 78 10000 3.09 40 21:44 20.02.2022
3617 Clouds 28 1008 78 10000 3.09 40 21:24 20.02.2022
3618 Clouds 27 1009 89 10000 5.66 30 20:43 20.02.2022
3619 Clouds 27 1010 83 10000 5.14 70 19:49 20.02.2022
3620 Clouds 27 1010 83 10000 5.14 70 18:55 20.02.2022
3621 Clouds 30 1011 70 10000 3.6 60 18:36 20.02.2022
3622 Clouds 29 1012 74 10000 5.14 50 17:55 20.02.2022
3623 Clouds 29 1012 74 10000 5.14 50 16:59 20.02.2022
3624 Clouds 26 1012 89 10000 4.63 40 14:55 20.02.2022
3625 Clouds 25 1012 94 10000 3.6 40 13:58 20.02.2022
3626 Clouds 25 1011 94 10000 2.06 80 12:42 20.02.2022
3627 Clouds 24 1010 100 10000 1.54 60 11:30 20.02.2022
3628 Clouds 24 1010 100 10000 1.54 30 10:20 20.02.2022
3629 Clouds 24 1010 100 10000 1.54 80 09:24 20.02.2022
3630 Clouds 25 1010 88 10000 1.54 60 02:54 20.02.2022
3631 Clouds 26 1008 83 10000 1.54 30 00:31 20.02.2022
3632 Clouds 27 1007 78 10000 2.06 40 23:30 19.02.2022
3633 Clouds 27 1007 78 10000 3.09 30 22:23 19.02.2022
3634 Rain 28 1008 78 10000 2.06 60 21:45 19.02.2022
3635 Rain 27 1009 83 10000 2.06 70 20:25 19.02.2022
3636 Rain 27 1009 83 10000 2.06 70 20:25 19.02.2022
3637 Rain 27 1009 83 10000 2.06 70 20:24 19.02.2022
3638 Rain 27 1010 83 10000 2.57 80 19:34 19.02.2022
3639 Rain 28 1011 74 10000 2.57 50 18:38 19.02.2022
3640 Rain 27 1012 78 10000 2.06 20 17:37 19.02.2022
3641 Rain 27 1013 78 10000 2.06 30 16:47 19.02.2022
3642 Clouds 26 1014 83 10000 1.54 30 15:20 19.02.2022
3643 Clouds 25 1013 88 10000 2.06 20 14:53 19.02.2022
3644 Clouds 24 1012 94 10000 0 0 13:50 19.02.2022
3645 Rain 23 1011 100 10000 0.51 310 11:40 19.02.2022
3646 Rain 23 1010 100 10000 0.51 30 10:30 19.02.2022
3647 Rain 23 1010 100 10000 1.03 20 08:54 19.02.2022
3648 Rain 23 1011 100 10000 1.03 10 06:45 19.02.2022
3649 Rain 24 1009 100 10000 3.6 10 23:55 18.02.2022
3650 Clouds 24 1009 100 8000 3.09 360 22:24 18.02.2022
3651 Clouds 24 1009 100 1000 5.66 10 20:57 18.02.2022
3652 Clouds 27 1010 83 10000 4.63 330 19:55 18.02.2022
3653 Clouds 27 1011 89 10000 3.09 10 18:50 18.02.2022
3654 Clouds 27 1011 89 10000 3.09 10 18:24 18.02.2022
3655 Clouds 26 1012 89 6000 2.57 340 17:55 18.02.2022
3656 Rain 24 1013 100 3000 1.54 350 15:23 18.02.2022
3657 Clouds 24 1012 94 2000 2.57 310 13:56 18.02.2022
3658 Clouds 24 1012 94 2000 2.57 310 13:25 18.02.2022
3659 Clouds 25 1011 94 10000 1.03 340 12:40 18.02.2022
3660 Clouds 24 1010 94 10000 1.03 290 11:40 18.02.2022
3661 Clouds 25 1010 88 10000 1.54 300 10:23 18.02.2022
3662 Fog 25 1010 94 10000 1.54 340 06:57 18.02.2022
3663 Rain 24 1012 100 10000 0.51 220 05:41 18.02.2022
3664 Rain 24 1010 100 8000 1.03 340 23:43 17.02.2022
3665 Thunderstorm 24 1009 94 1500 4.12 350 21:46 17.02.2022
3666 Thunderstorm 25 1009 94 1000 5.14 350 21:20 17.02.2022
3667 Clouds 25 1009 94 3500 5.14 300 20:39 17.02.2022
3668 Clouds 28 1010 78 10000 3.6 290 19:50 17.02.2022
3669 Clouds 30 1010 70 10000 3.09 110 18:52 17.02.2022
3670 Clouds 29 1012 74 10000 3.09 110 17:55 17.02.2022
3671 Clouds 28 1013 78 10000 3.09 100 16:42 17.02.2022
3672 Clouds 26 1013 89 10000 2.57 60 15:38 17.02.2022
3673 Clouds 25 1013 94 9000 4.12 90 14:28 17.02.2022
3674 Clouds 25 1012 94 10000 3.09 60 12:43 17.02.2022
3675 Clouds 25 1011 100 10000 2.06 90 11:27 17.02.2022
3676 Clouds 25 1011 100 10000 1.03 70 09:18 17.02.2022
3677 Clear 26 1013 89 10000 2.06 70 04:20 17.02.2022
3678 Clouds 28 1009 78 10000 1.54 70 23:21 16.02.2022
3679 Clouds 30 1009 66 10000 3.09 300 21:44 16.02.2022
3680 Clouds 30 1010 66 10000 1.54 220 19:57 16.02.2022
3681 Clouds 31 1013 66 10000 2.57 340 18:39 16.02.2022
3682 Clouds 30 1014 70 10000 3.6 350 17:53 16.02.2022
3683 Clouds 28 1015 74 10000 4.63 10 15:39 16.02.2022
3684 Clouds 28 1015 74 10000 4.63 10 15:18 16.02.2022
3685 Clouds 23 1013 100 10000 2.57 330 12:59 16.02.2022
3686 Fog 23 1013 100 10000 1.54 30 12:19 16.02.2022
3687 Clouds 22 1012 100 10000 1.03 320 11:26 16.02.2022
3688 Clouds 22 1012 100 10000 1.54 20 10:33 16.02.2022
3689 Clear 23 1012 94 10000 2.57 20 07:54 16.02.2022
3690 Clear 23 1012 94 10000 1.54 20 06:26 16.02.2022
3691 Clouds 26 1010 89 10000 5.66 350 23:45 15.02.2022
3692 Rain 26 1010 94 10000 4.12 70 22:29 15.02.2022
3693 Rain 25 1010 94 8000 3.6 60 21:47 15.02.2022
3694 Rain 25 1010 94 8000 3.6 60 21:27 15.02.2022
3695 Rain 25 1010 94 3000 3.6 40 20:56 15.02.2022
3696 Clouds 28 1010 78 10000 1.54 340 19:57 15.02.2022
3697 Clouds 28 1012 78 7000 1.54 360 18:56 15.02.2022
3698 Clouds 28 1013 83 10000 1.54 360 18:21 15.02.2022
3699 Clouds 28 1014 78 10000 1.54 170 17:49 15.02.2022
3700 Clouds 27 1014 83 10000 1.03 130 16:38 15.02.2022
3701 Clouds 26 1014 89 10000 1.03 10 15:26 15.02.2022
3702 Clouds 25 1012 94 10000 1.03 150 13:27 15.02.2022
3703 Clouds 24 1011 100 10000 1.03 100 11:58 15.02.2022
3704 Clouds 24 1011 100 10000 1.54 130 11:27 15.02.2022
3705 Rain 24 1011 100 10000 1.03 170 09:31 15.02.2022
3706 Rain 24 1013 100 10000 1.54 220 06:52 15.02.2022
3707 Rain 24 1013 100 10000 1.54 270 03:55 15.02.2022
3708 Rain 24 1010 94 10000 2.06 340 22:36 14.02.2022
3709 Rain 24 1010 94 10000 3.6 360 21:35 14.02.2022
3710 Rain 23 1011 100 8000 3.09 10 20:30 14.02.2022
3711 Rain 23 1012 100 4000 2.57 360 19:32 14.02.2022
3712 Thunderstorm 23 1012 94 3000 5.14 140 18:30 14.02.2022
3713 Clouds 25 1013 94 10000 3.6 260 17:58 14.02.2022
3714 Clouds 25 1013 94 10000 3.6 260 17:24 14.02.2022
3715 Rain 24 1013 100 9000 3.6 210 15:59 14.02.2022
3716 Rain 24 1012 100 9000 2.57 250 13:44 14.02.2022
3717 Rain 24 1012 100 9000 2.57 250 13:23 14.02.2022
3718 Rain 24 1010 94 10000 2.06 250 12:32 14.02.2022
3719 Clouds 24 1010 94 10000 2.06 250 11:54 14.02.2022
3720 Clouds 25 1009 100 10000 2.06 200 10:31 14.02.2022
3721 Clouds 25 1009 100 10000 3.09 100 08:37 14.02.2022
3722 Rain 26 1010 94 10000 1.03 180 07:27 14.02.2022
3723 Clouds 26 1007 89 10000 2.06 100 23:41 13.02.2022
3724 Clouds 26 1007 94 10000 2.06 140 22:42 13.02.2022
3725 Clouds 26 1007 94 10000 2.06 140 22:23 13.02.2022
3726 Clouds 27 1007 83 3000 1.54 60 21:28 13.02.2022
3727 Clouds 27 1007 83 10000 2.06 180 20:32 13.02.2022
3728 Rain 27 1009 83 10000 1.03 180 19:24 13.02.2022
3729 Rain 27 1011 78 10000 1.54 190 18:42 13.02.2022
3730 Rain 27 1012 78 10000 1.54 220 17:54 13.02.2022
3731 Rain 24 1013 94 10000 2.57 180 15:54 13.02.2022
3732 Rain 24 1013 94 10000 2.57 180 15:54 13.02.2022
3733 Rain 26 1013 89 10000 4.63 180 14:58 13.02.2022
3734 Rain 25 1012 94 10000 1.54 150 13:59 13.02.2022
3735 Rain 25 1012 94 10000 1.54 150 13:59 13.02.2022
3736 Rain 24 1011 100 10000 2.57 110 12:50 13.02.2022
3737 Rain 24 1010 94 10000 2.06 80 11:26 13.02.2022
3738 Rain 24 1009 94 10000 2.57 40 10:30 13.02.2022
3739 Clouds 25 1009 88 10000 3.09 20 09:45 13.02.2022
3740 Rain 25 1009 83 10000 3.09 30 07:21 13.02.2022
3741 Clouds 27 1008 89 10000 1.54 310 00:35 13.02.2022
3742 Clouds 28 1006 83 10000 2.57 10 23:39 12.02.2022
3743 Clouds 30 1006 66 10000 2.57 70 22:33 12.02.2022
3744 Clouds 32 1006 62 10000 5.66 80 21:20 12.02.2022
3745 Clouds 32 1007 66 10000 2.06 160 20:32 12.02.2022
3746 Clouds 32 1008 62 10000 2.57 70 19:21 12.02.2022
3747 Clouds 31 1010 66 10000 2.57 70 18:52 12.02.2022
3748 Clouds 31 1010 66 10000 2.57 70 18:34 12.02.2022
3749 Clouds 30 1011 70 10000 2.57 80 16:56 12.02.2022
3750 Clouds 29 1012 74 10000 1.54 120 16:25 12.02.2022
3751 Clouds 28 1012 78 10000 1.54 30 15:50 12.02.2022
3752 Clouds 26 1012 89 10000 2.06 80 14:31 12.02.2022
3753 Clouds 25 1012 94 10000 1.03 50 12:58 12.02.2022
3754 Rain 24 1009 100 10000 2.06 110 10:40 12.02.2022
3755 Clouds 24 1009 100 10000 1.03 60 09:39 12.02.2022
3756 Clouds 24 1009 100 10000 1.54 70 08:50 12.02.2022
3757 Rain 24 1009 100 10000 1.54 70 07:53 12.02.2022
3758 Clouds 25 1011 94 10000 2.06 30 05:33 12.02.2022
3759 Clouds 25 1011 100 10000 1.54 30 04:27 12.02.2022
3760 Clear 25 1009 94 10000 1.03 160 02:18 12.02.2022
3761 Clouds 26 1007 83 10000 1.54 200 22:28 11.02.2022
3762 Clouds 27 1008 78 10000 1.03 190 21:51 11.02.2022
3763 Rain 26 1009 89 10000 1.54 210 20:40 11.02.2022
3764 Rain 26 1010 83 10000 2.57 180 19:40 11.02.2022
3765 Rain 26 1010 83 10000 2.57 180 19:20 11.02.2022
3766 Rain 26 1012 89 10000 2.06 90 17:48 11.02.2022
3767 Rain 26 1012 89 10000 2.06 90 17:22 11.02.2022
3768 Rain 25 1013 94 10000 0.51 160 15:56 11.02.2022
3769 Rain 24 1012 100 10000 2.57 110 14:43 11.02.2022
3770 Rain 24 1012 100 10000 2.57 110 14:21 11.02.2022
3771 Rain 24 1012 100 10000 2.57 110 13:57 11.02.2022
3772 Rain 24 1012 100 10000 3.09 110 13:39 11.02.2022
3773 Rain 24 1009 100 10000 2.57 80 11:41 11.02.2022
3774 Clouds 24 1008 94 10000 2.06 60 09:57 11.02.2022
3775 Clouds 25 1008 94 10000 3.09 20 08:42 11.02.2022
3776 Clouds 25 1008 94 10000 3.09 20 08:42 11.02.2022
3777 Clouds 25 1008 94 10000 3.09 20 08:22 11.02.2022
3778 Clouds 25 1009 94 10000 2.06 50 06:33 11.02.2022
3779 Clouds 26 1009 89 10000 1.54 70 02:26 11.02.2022
3780 Clouds 26 1007 89 10000 2.57 60 00:51 11.02.2022
3781 Clouds 28 1006 78 10000 1.54 30 22:49 10.02.2022
3782 Clouds 28 1006 78 10000 1.03 140 21:45 10.02.2022
3783 Clouds 28 1006 78 10000 1.03 140 20:57 10.02.2022
3784 Rain 27 1009 83 10000 1.03 160 20:30 10.02.2022
3785 Rain 26 1008 83 10000 3.6 30 19:25 10.02.2022
3786 Rain 28 1010 83 10000 5.14 50 18:44 10.02.2022
3787 Clouds 28 1011 83 10000 2.57 30 17:26 10.02.2022
3788 Clouds 28 1011 78 10000 3.09 60 16:50 10.02.2022
3789 Clouds 28 1012 83 10000 2.06 80 15:47 10.02.2022
3790 Clouds 28 1012 83 10000 2.06 80 15:28 10.02.2022
3791 Clouds 28 1012 83 10000 2.06 70 14:46 10.02.2022
3792 Clouds 28 1012 83 10000 2.06 70 14:23 10.02.2022
3793 Clouds 27 1011 89 10000 0.51 70 13:22 10.02.2022
3794 Clouds 26 1010 94 10000 0 0 12:23 10.02.2022
3795 Clouds 25 1010 100 10000 0.51 60 11:33 10.02.2022
3796 Clouds 25 1009 100 10000 0.51 90 10:43 10.02.2022
3797 Clouds 25 1009 100 10000 0 0 09:50 10.02.2022
3798 Clouds 25 1009 100 10000 0 0 09:18 10.02.2022
3799 Clouds 26 1010 94 10000 2.06 80 06:50 10.02.2022
3800 Clouds 26 1011 94 10000 1.54 330 03:55 10.02.2022
3801 Clouds 28 1009 69 10000 1.54 280 01:43 10.02.2022
3802 Clouds 28 1008 74 10000 2.57 280 00:42 10.02.2022
3803 Clouds 28 1008 74 10000 2.57 280 00:24 10.02.2022
3804 Rain 29 1008 65 10000 3.6 270 22:58 09.02.2022
3805 Clouds 30 1007 66 10000 3.09 290 22:33 09.02.2022
3806 Clouds 30 1007 74 10000 3.6 250 21:49 09.02.2022
3807 Clouds 30 1007 74 10000 3.6 250 21:28 09.02.2022
3808 Clouds 29 1008 74 10000 5.14 270 20:45 09.02.2022
3809 Clouds 29 1008 74 10000 5.14 270 20:23 09.02.2022
3810 Clouds 28 1009 78 10000 3.09 10 19:43 09.02.2022
3811 Clouds 28 1010 78 10000 3.09 10 18:55 09.02.2022
3812 Clouds 30 1011 66 10000 2.06 170 17:24 09.02.2022
3813 Clouds 29 1012 70 10000 3.09 170 16:25 09.02.2022
3814 Clouds 28 1013 78 10000 1.54 200 15:27 09.02.2022
3815 Clouds 26 1012 94 10000 1.54 190 13:32 09.02.2022
3816 Clouds 24 1010 94 10000 1.03 210 11:52 09.02.2022
3817 Clear 25 1010 94 10000 1.03 240 10:37 09.02.2022
3818 Clear 25 1010 94 10000 1.03 240 09:56 09.02.2022
3819 Clear 24 1010 88 10000 1.03 170 09:22 09.02.2022
3820 Clear 24 1010 88 10000 1.03 80 08:46 09.02.2022
3821 Clear 24 1011 94 10000 1.03 70 06:56 09.02.2022
3822 Clouds 25 1012 88 10000 1.54 10 04:36 09.02.2022
3823 Clouds 25 1012 88 10000 2.06 20 03:49 09.02.2022
3824 Clouds 26 1008 83 10000 3.09 360 23:45 08.02.2022
3825 Clouds 26 1008 83 10000 3.09 360 23:19 08.02.2022
3826 Clouds 26 1008 83 10000 3.09 360 23:19 08.02.2022
3827 Rain 25 1008 94 10000 4.63 350 22:38 08.02.2022
3828 Rain 25 1008 94 10000 4.63 350 22:38 08.02.2022
3829 Rain 25 1008 94 10000 4.63 350 22:20 08.02.2022
3830 Thunderstorm 25 1008 94 9000 7.72 70 21:22 08.02.2022
3831 Clouds 25 1008 94 9000 10.8 70 20:58 08.02.2022
3832 Clouds 30 1008 70 9000 8.23 80 20:38 08.02.2022
3833 Clouds 31 1009 66 10000 3.09 160 19:28 08.02.2022
3834 Clouds 30 1010 70 10000 2.57 190 18:24 08.02.2022
3835 Clouds 29 1012 70 10000 2.57 170 17:30 08.02.2022
3836 Clouds 28 1013 83 10000 2.57 160 15:47 08.02.2022
3837 Clouds 28 1013 83 10000 2.57 160 15:27 08.02.2022
3838 Clouds 26 1012 94 10000 1.54 200 13:50 08.02.2022
3839 Fog 26 1011 100 10000 1.54 220 12:24 08.02.2022
3840 Mist 26 1010 94 10000 1.54 260 10:49 08.02.2022
3841 Mist 26 1009 94 10000 1.03 220 09:49 08.02.2022
3842 Mist 26 1010 94 10000 1.54 250 08:39 08.02.2022
3843 Clouds 26 1010 100 10000 1.03 240 06:38 08.02.2022
3844 Clouds 27 1011 89 10000 1.03 210 04:40 08.02.2022
3845 Clouds 27 1011 89 10000 1.03 210 04:22 08.02.2022
3846 Clouds 27 1011 89 10000 1.03 220 03:36 08.02.2022
3847 Clouds 27 1011 89 10000 1.03 220 03:18 08.02.2022
3848 Clouds 27 1011 89 10000 1.03 220 02:59 08.02.2022
3849 Clouds 26 1010 94 10000 1.54 250 02:36 08.02.2022
3850 Clouds 26 1010 94 10000 1.54 250 02:18 08.02.2022
3851 Clouds 26 1009 94 10000 1.03 180 01:44 08.02.2022
3852 Clouds 26 1009 94 10000 1.03 180 01:25 08.02.2022
3853 Clouds 26 1009 94 10000 1.03 180 01:25 08.02.2022
3854 Clouds 26 1009 94 10000 1.54 250 00:55 08.02.2022
3855 Clouds 26 1009 94 10000 1.54 250 00:21 08.02.2022
3856 Clouds 27 1008 83 10000 2.06 160 23:44 07.02.2022
3857 Clouds 27 1008 83 10000 2.06 160 23:18 07.02.2022
3858 Clouds 27 1008 83 10000 2.06 160 22:59 07.02.2022
3859 Rain 29 1008 74 10000 1.54 360 22:19 07.02.2022
3860 Thunderstorm 30 1008 66 10000 2.57 40 21:50 07.02.2022
3861 Thunderstorm 30 1008 66 10000 2.57 40 21:27 07.02.2022
3862 Thunderstorm 31 1009 62 10000 1.54 130 20:43 07.02.2022
3863 Thunderstorm 31 1009 62 10000 1.54 130 20:24 07.02.2022
3864 Clouds 30 1010 66 10000 2.06 70 19:47 07.02.2022
3865 Clouds 31 1011 62 10000 3.09 330 18:34 07.02.2022
3866 Clouds 30 1014 74 10000 2.06 80 16:53 07.02.2022
3867 Clouds 30 1014 74 10000 2.06 80 16:24 07.02.2022
3868 Clouds 29 1014 79 10000 2.57 30 15:48 07.02.2022
3869 Clouds 26 1012 89 10000 1.03 70 13:39 07.02.2022
3870 Clouds 26 1012 89 10000 1.03 70 13:21 07.02.2022
3871 Clouds 25 1012 94 10000 1.03 310 11:58 07.02.2022
3872 Clouds 24 1011 100 10000 2.06 20 11:38 07.02.2022
3873 Clouds 24 1011 100 10000 2.06 20 10:53 07.02.2022
3874 Clear 24 1010 100 10000 2.06 40 10:33 07.02.2022
3875 Clear 24 1010 100 10000 2.06 40 09:53 07.02.2022
3876 Clear 24 1011 100 10000 2.06 40 09:18 07.02.2022
3877 Clear 25 1011 94 10000 2.57 30 08:44 07.02.2022
3878 Clouds 25 1012 94 10000 1.03 50 07:30 07.02.2022
3879 Clouds 25 1012 100 10000 2.06 70 06:34 07.02.2022
3880 Rain 25 1012 94 10000 1.03 330 03:49 07.02.2022
3881 Clouds 27 1009 89 10000 2.57 270 00:54 07.02.2022
3882 Clouds 27 1008 83 10000 2.57 270 23:50 06.02.2022
3883 Clouds 27 1008 83 10000 2.57 270 23:50 06.02.2022
3884 Clouds 27 1008 83 10000 2.57 270 23:19 06.02.2022
3885 Clouds 28 1008 78 10000 2.57 230 22:34 06.02.2022
3886 Clouds 28 1008 78 10000 2.06 230 21:36 06.02.2022
3887 Clouds 28 1009 83 10000 2.06 250 20:58 06.02.2022
3888 Clouds 28 1009 83 10000 2.06 250 20:36 06.02.2022
3889 Clouds 26 1011 89 10000 3.09 330 19:46 06.02.2022
3890 Clouds 26 1012 89 10000 4.12 20 18:50 06.02.2022
3891 Clouds 28 1012 74 4000 6.17 360 18:24 06.02.2022
3892 Clouds 30 1013 74 10000 3.09 60 17:26 06.02.2022
3893 Clouds 29 1014 74 10000 1.54 120 16:48 06.02.2022
3894 Rain 27 1014 83 10000 0.51 10 15:50 06.02.2022
3895 Clouds 27 1014 83 10000 0.51 10 15:27 06.02.2022
3896 Clouds 26 1013 89 10000 1.03 220 14:50 06.02.2022
3897 Clouds 24 1013 100 10000 1.54 260 13:51 06.02.2022
3898 Clouds 24 1013 100 10000 1.54 260 13:20 06.02.2022
3899 Thunderstorm 23 1011 100 10000 1.03 250 11:39 06.02.2022
3900 Thunderstorm 23 1011 100 5000 2.06 180 10:31 06.02.2022
3901 Thunderstorm 23 1011 100 5000 2.06 180 10:31 06.02.2022
3902 Thunderstorm 25 1011 94 5000 2.06 30 09:25 06.02.2022
3903 Rain 25 1011 94 10000 1.03 340 08:40 06.02.2022
3904 Clouds 26 1012 89 10000 2.57 340 05:36 06.02.2022
3905 Clouds 26 1011 89 10000 2.06 10 03:31 06.02.2022
3906 Clouds 27 1010 83 10000 1.54 350 02:24 06.02.2022
3907 Clouds 27 1009 78 10000 1.03 30 00:30 06.02.2022
3908 Clouds 27 1008 83 10000 1.03 30 23:18 05.02.2022
3909 Clouds 30 1008 70 10000 1.03 90 21:33 05.02.2022
3910 Clouds 31 1009 66 10000 1.54 100 20:25 05.02.2022
3911 Clouds 29 1010 74 10000 2.06 80 19:49 05.02.2022
3912 Clouds 29 1010 74 10000 2.06 80 19:18 05.02.2022
3913 Clouds 30 1012 70 10000 2.57 80 18:23 05.02.2022
3914 Clouds 29 1013 74 10000 1.54 230 17:31 05.02.2022
3915 Clouds 27 1014 83 10000 1.54 210 15:42 05.02.2022
3916 Clouds 27 1014 83 10000 1.54 210 15:24 05.02.2022
3917 Clouds 25 1013 88 10000 1.54 240 12:54 05.02.2022
3918 Clouds 24 1012 100 10000 1.03 320 12:33 05.02.2022
3919 Clouds 24 1011 100 10000 1.03 240 10:53 05.02.2022
3920 Clouds 24 1011 100 10000 1.03 240 10:25 05.02.2022
3921 Clouds 24 1011 100 10000 1.54 240 09:46 05.02.2022
3922 Clouds 24 1011 100 10000 1.54 250 08:20 05.02.2022
3923 Clouds 24 1012 100 10000 1.54 220 06:57 05.02.2022
3924 Rain 24 1013 100 10000 0.51 250 04:30 05.02.2022
3925 Clouds 24 1010 94 10000 1.54 280 01:19 05.02.2022
3926 Rain 24 1009 94 10000 2.57 320 00:53 05.02.2022
3927 Rain 25 1009 94 10000 1.03 50 23:46 04.02.2022
3928 Rain 25 1009 94 10000 1.03 50 23:28 04.02.2022
3929 Clouds 25 1008 94 10000 1.54 70 21:59 04.02.2022
3930 Rain 24 1009 100 8000 1.54 40 21:36 04.02.2022
3931 Rain 24 1009 100 8000 1.54 40 21:18 04.02.2022
3932 Rain 23 1010 100 5000 1.03 130 20:20 04.02.2022
3933 Clouds 28 1013 78 10000 5.66 40 17:43 04.02.2022
3934 Clouds 28 1013 83 10000 1.03 110 15:42 04.02.2022
3935 Clouds 28 1013 83 10000 1.03 110 14:55 04.02.2022
3936 Clouds 27 1013 83 10000 1.54 130 13:39 04.02.2022
3937 Clouds 25 1012 94 10000 1.54 320 12:43 04.02.2022
3938 Fog 25 1011 94 10000 1.54 340 11:42 04.02.2022
3939 Fog 25 1010 94 10000 2.06 320 10:36 04.02.2022
3940 Fog 25 1010 94 10000 2.06 320 10:36 04.02.2022
3941 Fog 26 1010 83 10000 1.54 340 08:42 04.02.2022
3942 Clear 26 1010 83 10000 2.06 350 06:57 04.02.2022
3943 Clouds 26 1010 83 10000 2.06 10 02:46 04.02.2022
3944 Clouds 26 1009 89 10000 1.54 30 01:52 04.02.2022
3945 Rain 28 1008 78 10000 2.57 270 23:29 03.02.2022
3946 Rain 28 1008 69 10000 3.09 70 22:33 03.02.2022
3947 Rain 30 1008 70 10000 2.06 20 21:49 03.02.2022
3948 Clouds 30 1009 66 10000 1.03 180 20:39 03.02.2022
3949 Clouds 30 1009 66 10000 1.03 180 20:18 03.02.2022
3950 Clouds 30 1010 74 10000 2.06 70 19:30 03.02.2022
3951 Clouds 28 1011 78 10000 1.03 10 18:35 03.02.2022
3952 Clouds 29 1012 74 10000 2.06 40 17:32 03.02.2022
3953 Clouds 28 1013 78 10000 2.06 10 16:26 03.02.2022
3954 Clouds 25 1013 94 9000 4.63 280 14:45 03.02.2022
3955 Rain 25 1012 100 3000 1.54 160 12:52 03.02.2022
3956 Fog 24 1011 100 10000 0.51 360 10:58 03.02.2022
3957 Fog 24 1010 100 10000 1.03 20 08:36 03.02.2022
3958 Clouds 24 1012 100 10000 1.54 80 04:27 03.02.2022
3959 Clouds 23 1009 100 10000 0.51 90 00:31 03.02.2022
3960 Clouds 24 1009 94 10000 0.51 70 23:36 02.02.2022
3961 Rain 23 1009 100 10000 2.57 10 21:54 02.02.2022
3962 Rain 23 1009 100 10000 2.57 10 21:30 02.02.2022
3963 Rain 23 1010 100 7000 1.54 50 20:38 02.02.2022
3964 Rain 24 1010 94 5000 1.03 60 19:55 02.02.2022
3965 Thunderstorm 24 1012 94 5000 3.6 160 19:26 02.02.2022
3966 Thunderstorm 24 1012 100 3000 4.12 170 18:34 02.02.2022
3967 Thunderstorm 25 1012 100 3500 3.6 170 17:38 02.02.2022
3968 Rain 26 1013 100 5000 2.06 170 17:19 02.02.2022
3969 Rain 27 1012 83 10000 1.54 40 16:31 02.02.2022
3970 Clouds 26 1011 89 10000 2.06 350 12:55 02.02.2022
3971 Clouds 26 1011 89 10000 2.06 350 12:18 02.02.2022
3972 Clouds 25 1010 94 10000 1.54 10 11:31 02.02.2022
3973 Clear 26 1009 83 10000 1.54 20 09:46 02.02.2022
3974 Clear 26 1010 83 10000 2.57 30 07:32 02.02.2022
3975 Clouds 30 1007 70 10000 3.09 60 22:46 01.02.2022
3976 Clouds 32 1007 62 10000 2.57 90 21:36 01.02.2022
3977 Clouds 32 1009 62 10000 2.57 70 19:57 01.02.2022
3978 Clouds 30 1011 70 10000 3.6 70 17:38 01.02.2022
3979 Clouds 30 1012 74 10000 3.6 60 16:33 01.02.2022
3980 Clear 27 1012 83 10000 2.06 40 13:28 01.02.2022
3981 Clear 24 1011 94 10000 1.54 30 12:30 01.02.2022
3982 Clear 24 1010 94 10000 1.54 40 10:44 01.02.2022
3983 Clear 26 1011 83 10000 2.06 30 02:30 01.02.2022
3984 Clouds 28 1008 74 10000 2.06 80 23:40 31.01.2022
3985 Clouds 28 1008 74 10000 2.06 80 22:43 31.01.2022
3986 Clouds 29 1008 74 10000 3.09 70 21:38 31.01.2022
3987 Clouds 28 1009 74 10000 3.09 70 20:44 31.01.2022
3988 Clouds 28 1009 74 10000 3.09 70 20:24 31.01.2022
3989 Clouds 28 1011 78 10000 5.14 60 18:54 31.01.2022
3990 Clouds 28 1011 78 10000 5.14 60 18:18 31.01.2022
3991 Clouds 28 1012 78 10000 5.14 100 17:24 31.01.2022
3992 Clouds 27 1012 83 10000 5.14 80 16:25 31.01.2022
3993 Clouds 27 1012 89 10000 3.09 60 14:54 31.01.2022
3994 Clouds 26 1012 94 10000 3.09 60 13:43 31.01.2022
3995 Clouds 25 1011 94 10000 1.54 40 12:38 31.01.2022
3996 Rain 24 1010 100 10000 1.54 60 11:31 31.01.2022
3997 Clouds 24 1009 100 10000 1.54 40 10:48 31.01.2022
3998 Clouds 25 1009 94 10000 1.03 60 09:38 31.01.2022
3999 Clouds 25 1009 94 10000 1.03 60 08:56 31.01.2022
4000 Clouds 24 1010 100 10000 1.03 60 08:20 31.01.2022
4001 Rain 24 1010 100 10000 0 0 07:43 31.01.2022
4002 Rain 24 1012 100 10000 0 0 05:33 31.01.2022
4003 Clouds 25 1010 94 10000 1.54 80 00:36 31.01.2022
4004 Clouds 25 1009 94 10000 2.57 80 22:33 30.01.2022
4005 Clouds 28 1008 83 10000 1.03 70 21:46 30.01.2022
4006 Clouds 28 1008 83 10000 1.03 70 21:26 30.01.2022
4007 Clouds 28 1009 83 10000 1.03 90 20:54 30.01.2022
4008 Clouds 28 1009 83 10000 1.03 90 20:31 30.01.2022
4009 Clouds 28 1010 78 10000 2.06 70 19:56 30.01.2022
4010 Clouds 27 1011 83 10000 3.09 70 18:52 30.01.2022
4011 Clouds 27 1011 83 10000 3.09 70 18:22 30.01.2022
4012 Clouds 27 1012 83 10000 3.09 70 17:31 30.01.2022
4013 Clouds 27 1012 83 10000 3.09 70 17:31 30.01.2022
4014 Clouds 27 1012 83 10000 3.09 70 17:31 30.01.2022
4015 Clouds 26 1013 89 10000 2.57 70 16:44 30.01.2022
4016 Clouds 26 1013 89 10000 2.57 70 16:23 30.01.2022
4017 Clouds 25 1013 94 10000 2.06 80 15:55 30.01.2022
4018 Clouds 25 1013 94 10000 2.06 80 15:33 30.01.2022
4019 Clouds 25 1013 94 10000 2.06 70 14:48 30.01.2022
4020 Clouds 25 1012 94 10000 1.03 180 13:49 30.01.2022
4021 Clouds 24 1011 100 10000 0.51 310 12:46 30.01.2022
4022 Rain 24 1010 100 10000 0.51 160 11:23 30.01.2022
4023 Clouds 24 1010 100 10000 1.03 30 10:26 30.01.2022
4024 Clouds 24 1009 100 10000 0.51 340 09:26 30.01.2022
4025 Rain 24 1009 100 10000 1.54 70 08:32 30.01.2022
4026 Rain 24 1010 100 10000 4.12 80 02:55 30.01.2022
4027 Rain 24 1010 94 10000 2.06 60 01:54 30.01.2022
4028 Rain 24 1008 94 10000 1.03 100 23:49 29.01.2022
4029 Rain 24 1008 94 10000 1.03 300 22:58 29.01.2022
4030 Rain 24 1008 94 10000 3.09 340 21:35 29.01.2022
4031 Thunderstorm 23 1009 100 4000 2.06 300 20:59 29.01.2022
4032 Thunderstorm 23 1009 100 4000 2.06 300 20:20 29.01.2022
4033 Thunderstorm 23 1010 94 5000 2.06 340 19:33 29.01.2022
4034 Thunderstorm 23 1010 100 5000 2.57 320 18:44 29.01.2022
4035 Clouds 27 1011 83 1000 5.14 330 17:55 29.01.2022
4036 Clouds 28 1012 78 10000 2.57 40 16:59 29.01.2022
4037 Clouds 27 1012 83 10000 1.54 70 15:27 29.01.2022
4038 Clouds 26 1010 89 10000 2.57 60 13:48 29.01.2022
4039 Clouds 26 1010 89 10000 2.57 60 13:27 29.01.2022
4040 Clouds 26 1010 89 10000 2.57 60 12:58 29.01.2022
4041 Clouds 24 1009 100 10000 1.54 50 11:39 29.01.2022
4042 Clouds 24 1008 100 10000 1.54 80 10:33 29.01.2022
4043 Clouds 24 1008 100 10000 1.54 60 08:19 29.01.2022
4044 Clouds 25 1010 94 10000 1.54 40 02:26 29.01.2022
4045 Clouds 25 1007 88 10000 2.06 20 00:32 29.01.2022
4046 Clouds 26 1007 83 10000 3.6 30 23:29 28.01.2022
4047 Clouds 28 1006 78 10000 2.06 80 22:46 28.01.2022
4048 Clouds 28 1006 78 10000 2.06 80 22:19 28.01.2022
4049 Rain 28 1007 78 10000 1.54 190 20:41 28.01.2022
4050 Rain 28 1009 78 10000 1.03 180 19:56 28.01.2022
4051 Rain 27 1010 83 10000 1.54 60 18:52 28.01.2022
4052 Rain 27 1012 89 10000 1.03 100 17:52 28.01.2022
4053 Rain 25 1012 100 3000 1.54 70 15:52 28.01.2022
4054 Rain 25 1012 94 5000 1.54 140 14:50 28.01.2022
4055 Rain 25 1011 100 10000 1.03 60 12:41 28.01.2022
4056 Clouds 25 1010 94 10000 1.54 50 11:43 28.01.2022
4057 Clouds 25 1009 94 10000 1.03 20 10:26 28.01.2022
4058 Clouds 25 1009 94 10000 1.54 360 09:46 28.01.2022
4059 Clouds 25 1009 100 10000 1.54 70 07:41 28.01.2022
4060 Rain 25 1011 100 10000 1.03 10 05:31 28.01.2022
4061 Clouds 26 1011 94 10000 1.03 210 03:50 28.01.2022
4062 Rain 25 1011 100 10000 1.03 350 02:24 28.01.2022
4063 Thunderstorm 25 1010 100 7000 1.03 60 01:35 28.01.2022
4064 Thunderstorm 25 1009 100 3000 4.12 350 00:33 28.01.2022
4065 Clouds 30 1008 70 10000 1.54 100 21:58 27.01.2022
4066 Clouds 30 1008 70 10000 1.54 100 21:34 27.01.2022
4067 Clouds 31 1009 70 10000 1.54 80 20:55 27.01.2022
4068 Clouds 28 1010 83 8000 1.03 100 19:35 27.01.2022
4069 Clouds 25 1011 94 4000 3.6 260 17:58 27.01.2022
4070 Clouds 28 1013 83 10000 1.03 100 15:43 27.01.2022
4071 Clouds 25 1012 94 10000 1.03 40 13:39 27.01.2022
4072 Clouds 24 1011 100 10000 1.03 50 12:46 27.01.2022
4073 Clouds 24 1010 94 10000 1.54 10 10:59 27.01.2022
4074 Clouds 24 1010 94 10000 1.03 20 09:27 27.01.2022
4075 Clouds 24 1010 94 10000 1.54 60 08:38 27.01.2022
4076 Clouds 24 1011 94 10000 1.03 350 07:23 27.01.2022
4077 Rain 24 1012 100 10000 2.57 50 02:59 27.01.2022
4078 Rain 24 1010 100 10000 1.54 80 23:45 26.01.2022
4079 Rain 24 1009 100 5000 1.54 80 22:27 26.01.2022
4080 Thunderstorm 25 1009 100 3000 3.09 70 21:41 26.01.2022
4081 Clouds 29 1009 74 10000 1.03 190 20:41 26.01.2022
4082 Clouds 29 1009 74 10000 1.03 190 20:23 26.01.2022
4083 Clouds 28 1010 78 10000 2.06 170 19:27 26.01.2022
4084 Clouds 27 1011 83 10000 2.06 210 18:46 26.01.2022
4085 Clouds 28 1012 78 10000 2.57 200 17:51 26.01.2022
4086 Rain 28 1012 78 10000 2.57 200 17:24 26.01.2022
4087 Rain 27 1013 83 10000 2.06 190 16:35 26.01.2022
4088 Rain 26 1013 89 10000 1.03 190 15:49 26.01.2022
4089 Rain 25 1012 94 10000 1.03 190 14:21 26.01.2022
4090 Clouds 25 1010 94 10000 1.03 220 11:54 26.01.2022
4091 Clouds 25 1010 100 10000 0 0 10:43 26.01.2022
4092 Clouds 25 1009 100 7000 0.51 20 09:48 26.01.2022
4093 Clouds 25 1009 100 10000 0 0 08:27 26.01.2022
4094 Clouds 25 1010 100 10000 0 0 05:42 26.01.2022
4095 Clouds 27 1007 89 10000 3.09 70 23:58 25.01.2022
4096 Clouds 27 1007 89 10000 3.09 70 23:20 25.01.2022
4097 Clouds 26 1006 94 10000 1.54 80 22:26 25.01.2022
4098 Clouds 28 1007 78 6000 4.63 50 21:59 25.01.2022
4099 Clouds 30 1007 74 10000 1.54 80 20:59 25.01.2022
4100 Clouds 30 1007 74 10000 1.54 80 20:40 25.01.2022
4101 Clouds 30 1008 74 10000 1.54 80 19:53 25.01.2022
4102 Clouds 30 1010 66 10000 3.09 30 18:38 25.01.2022
4103 Clouds 29 1011 70 10000 3.6 20 17:45 25.01.2022
4104 Clouds 28 1012 74 10000 2.06 70 16:45 25.01.2022
4105 Clouds 28 1012 74 10000 2.06 70 16:21 25.01.2022
4106 Rain 27 1012 78 10000 1.54 80 15:38 25.01.2022
4107 Clouds 27 1012 78 10000 1.54 80 14:57 25.01.2022
4108 Clouds 25 1011 88 10000 2.57 60 13:42 25.01.2022
4109 Clouds 25 1010 88 10000 2.57 40 10:51 25.01.2022
4110 Clear 24 1009 94 10000 2.57 50 08:37 25.01.2022
4111 Clear 25 1009 88 10000 1.54 90 07:29 25.01.2022
4112 Clear 25 1009 88 10000 2.06 30 06:49 25.01.2022
4113 Clear 25 1009 88 10000 3.6 50 05:22 25.01.2022
4114 Clouds 27 1007 83 10000 2.06 80 23:37 24.01.2022
4115 Clouds 27 1007 83 10000 2.06 80 23:18 24.01.2022
4116 Clouds 29 1007 79 10000 2.06 80 22:59 24.01.2022
4117 Clouds 29 1007 79 10000 2.06 80 22:41 24.01.2022
4118 Clouds 29 1007 74 10000 3.09 80 21:53 24.01.2022
4119 Clouds 29 1007 74 10000 3.09 80 21:53 24.01.2022
4120 Clouds 29 1007 74 10000 3.09 80 21:29 24.01.2022
4121 Clouds 30 1008 70 10000 2.06 80 20:30 24.01.2022
4122 Clouds 29 1009 74 10000 2.06 80 19:50 24.01.2022
4123 Clouds 29 1009 74 10000 2.06 80 19:24 24.01.2022
4124 Rain 27 1011 78 10000 1.54 70 17:59 24.01.2022
4125 Rain 26 1011 83 10000 0.51 170 17:24 24.01.2022
4126 Rain 24 1012 100 5000 2.06 360 16:52 24.01.2022
4127 Rain 24 1012 100 5000 2.06 360 16:19 24.01.2022
4128 Rain 24 1013 100 10000 1.03 30 14:38 24.01.2022
4129 Thunderstorm 24 1011 100 4000 3.6 20 12:58 24.01.2022
4130 Rain 24 1011 100 4000 3.09 40 12:23 24.01.2022
4131 Rain 25 1009 88 10000 1.03 120 10:30 24.01.2022
4132 Clouds 25 1009 94 10000 1.03 140 09:48 24.01.2022
4133 Clouds 25 1009 94 10000 1.54 80 08:34 24.01.2022
4134 Clouds 26 1010 94 10000 1.03 80 06:40 24.01.2022
4135 Rain 27 1009 83 10000 1.54 80 01:30 24.01.2022
4136 Clear 26 1008 89 10000 1.03 80 00:36 24.01.2022
4137 Clear 28 1008 78 10000 1.03 80 23:52 23.01.2022
4138 Clouds 30 1007 70 10000 1.54 80 22:32 23.01.2022
4139 Clouds 29 1008 74 10000 0.51 90 21:49 23.01.2022
4140 Clouds 29 1008 74 10000 0.51 90 21:25 23.01.2022
4141 Clouds 29 1009 70 10000 1.03 170 20:44 23.01.2022
4142 Clouds 29 1010 70 10000 1.54 190 19:44 23.01.2022
4143 Clouds 28 1011 78 10000 2.06 200 18:51 23.01.2022
4144 Clouds 28 1012 78 10000 1.03 200 17:44 23.01.2022
4145 Clouds 27 1013 83 10000 1.03 220 16:47 23.01.2022
4146 Clouds 25 1013 94 10000 2.06 100 14:59 23.01.2022
4147 Clouds 25 1013 94 10000 2.06 100 14:25 23.01.2022
4148 Clouds 25 1013 94 10000 2.06 100 14:25 23.01.2022
4149 Clouds 24 1011 94 10000 1.54 340 12:54 23.01.2022
4150 Clouds 24 1011 94 10000 1.54 340 12:22 23.01.2022
4151 Clouds 24 1011 94 10000 1.54 340 12:22 23.01.2022
4152 Clouds 24 1011 94 10000 1.03 70 11:52 23.01.2022
4153 Clouds 24 1011 94 10000 1.03 70 11:18 23.01.2022
4154 Clouds 24 1010 100 10000 1.54 10 10:27 23.01.2022
4155 Clouds 24 1010 94 10000 1.54 40 09:51 23.01.2022
4156 Clouds 24 1010 94 10000 1.54 10 08:53 23.01.2022
4157 Rain 25 1011 94 10000 1.54 20 05:56 23.01.2022
4158 Rain 25 1010 94 10000 2.06 260 01:52 23.01.2022
4159 Clouds 25 1010 94 10000 2.06 260 01:26 23.01.2022
4160 Rain 25 1010 94 10000 2.57 280 00:23 23.01.2022
4161 Rain 25 1009 88 10000 2.06 330 23:56 22.01.2022
4162 Rain 26 1007 83 10000 3.6 320 22:46 22.01.2022
4163 Rain 26 1008 89 10000 4.12 320 21:36 22.01.2022
4164 Thunderstorm 26 1009 89 10000 4.12 20 19:51 22.01.2022
4165 Clouds 25 1009 94 8000 5.66 20 18:50 22.01.2022
4166 Clouds 32 1010 70 10000 1.54 120 18:18 22.01.2022
4167 Clouds 30 1011 74 10000 2.06 180 17:40 22.01.2022
4168 Clouds 30 1012 74 10000 2.06 170 16:56 22.01.2022
4169 Clouds 29 1012 79 10000 2.06 170 15:50 22.01.2022
4170 Clouds 28 1012 83 10000 2.06 160 14:58 22.01.2022
4171 Clouds 26 1012 94 10000 1.54 170 13:42 22.01.2022
4172 Clouds 26 1011 94 10000 1.54 170 12:50 22.01.2022
4173 Clouds 26 1011 94 10000 1.54 170 12:28 22.01.2022
4174 Rain 26 1009 94 10000 1.03 200 10:56 22.01.2022
4175 Rain 26 1009 94 10000 1.03 200 10:29 22.01.2022
4176 Rain 25 1009 100 10000 0 0 09:58 22.01.2022
4177 Clouds 26 1009 94 10000 1.03 300 08:51 22.01.2022
4178 Rain 26 1010 94 10000 1.03 80 07:34 22.01.2022
4179 Clouds 26 1011 100 10000 1.03 220 04:52 22.01.2022
4180 Clouds 26 1011 100 10000 1.03 220 04:52 22.01.2022
4181 Clouds 27 1009 89 10000 2.57 250 01:34 22.01.2022
4182 Rain 26 1007 94 10000 1.54 110 23:38 21.01.2022
4183 Rain 27 1007 94 10000 1.03 120 22:27 21.01.2022
4184 Clouds 31 1007 74 10000 2.06 80 20:20 21.01.2022
4185 Clouds 31 1010 70 10000 4.12 60 18:39 21.01.2022
4186 Clouds 31 1011 70 10000 3.6 70 17:28 21.01.2022
4187 Clouds 29 1013 84 10000 1.54 140 15:30 21.01.2022
4188 Clouds 27 1012 89 10000 1.54 170 13:29 21.01.2022
4189 Clouds 27 1011 94 10000 1.03 160 12:37 21.01.2022
4190 Clouds 26 1010 94 10000 1.03 130 11:27 21.01.2022
4191 Clouds 24 1010 100 10000 1.03 90 10:19 21.01.2022
4192 Clouds 26 1010 100 10000 1.03 130 08:23 21.01.2022
4193 Clear 26 1011 94 10000 1.03 20 04:49 21.01.2022
4194 Clear 26 1011 94 10000 1.03 20 04:49 21.01.2022
4195 Clouds 27 1007 94 10000 1.03 40 23:31 20.01.2022
4196 Clouds 28 1007 83 4000 2.57 40 22:21 20.01.2022
4197 Clouds 32 1007 62 10000 1.03 80 21:42 20.01.2022
4198 Clouds 32 1008 62 10000 2.06 70 20:43 20.01.2022
4199 Clouds 31 1010 70 10000 3.09 70 19:19 20.01.2022
4200 Clouds 29 1011 74 10000 3.09 80 18:44 20.01.2022
4201 Clouds 28 1013 78 10000 2.06 60 16:58 20.01.2022
4202 Clouds 25 1014 94 10000 3.09 20 15:41 20.01.2022
4203 Clouds 24 1014 94 6000 6.17 50 14:41 20.01.2022
4204 Clouds 26 1013 89 3000 3.09 60 13:33 20.01.2022
4205 Clouds 26 1012 89 10000 2.06 70 12:32 20.01.2022
4206 Clouds 25 1011 94 10000 2.57 60 11:50 20.01.2022
4207 Clear 25 1011 94 10000 1.03 50 10:38 20.01.2022
4208 Clear 25 1011 94 10000 1.54 60 09:36 20.01.2022
4209 Clear 26 1011 94 10000 1.54 90 07:50 20.01.2022
4210 Clouds 28 1010 78 10000 2.06 40 00:44 20.01.2022
4211 Clouds 30 1009 70 10000 2.57 80 22:54 19.01.2022
4212 Clouds 31 1010 66 10000 2.57 80 21:48 19.01.2022
4213 Clouds 31 1010 66 10000 2.57 80 21:23 19.01.2022
4214 Clouds 31 1011 66 10000 2.06 90 20:46 19.01.2022
4215 Clouds 31 1012 66 10000 2.06 70 19:42 19.01.2022
4216 Clouds 30 1013 70 10000 4.12 70 17:55 19.01.2022
4217 Clouds 29 1014 74 10000 4.12 70 17:35 19.01.2022
4218 Clouds 28 1015 78 10000 2.57 70 16:27 19.01.2022
4219 Clouds 26 1015 94 10000 1.54 20 13:42 19.01.2022
4220 Clouds 25 1014 100 10000 1.03 80 12:41 19.01.2022
4221 Clouds 25 1013 100 10000 1.54 120 11:39 19.01.2022
4222 Clouds 25 1012 100 10000 1.03 100 10:20 19.01.2022
4223 Clouds 24 1012 100 10000 1.03 70 09:33 19.01.2022
4224 Clear 24 1012 100 10000 1.54 90 06:35 19.01.2022
4225 Clear 25 1012 88 10000 2.06 10 01:55 19.01.2022
4226 Clouds 26 1010 83 10000 2.06 40 23:19 18.01.2022
4227 Clouds 26 1010 83 10000 3.6 60 22:18 18.01.2022
4228 Rain 27 1011 78 10000 2.57 40 20:55 18.01.2022
4229 Rain 27 1011 78 10000 5.14 50 19:54 18.01.2022
4230 Clouds 31 1011 66 10000 4.63 80 19:35 18.01.2022
4231 Clouds 31 1012 70 10000 1.54 130 18:36 18.01.2022
4232 Clouds 30 1013 74 10000 2.06 80 17:51 18.01.2022
4233 Clouds 30 1014 74 10000 2.06 60 16:35 18.01.2022
4234 Clouds 28 1015 78 10000 1.03 130 15:39 18.01.2022
4235 Clouds 28 1015 78 10000 1.03 130 15:19 18.01.2022
4236 Fog 23 1011 100 10000 2.06 360 11:53 18.01.2022
4237 Fog 23 1010 100 10000 2.06 10 10:43 18.01.2022
4238 Mist 23 1011 100 10000 1.03 20 08:49 18.01.2022
4239 Clouds 24 1011 100 10000 1.54 310 07:46 18.01.2022
4240 Clouds 25 1013 94 10000 1.54 180 02:31 18.01.2022
4241 Clouds 25 1010 94 10000 1.03 70 23:22 17.01.2022
4242 Clouds 25 1010 94 10000 1.03 90 22:19 17.01.2022
4243 Clouds 25 1010 88 10000 1.54 50 21:32 17.01.2022
4244 Clouds 23 1012 100 8000 1.03 70 19:51 17.01.2022
4245 Thunderstorm 23 1014 100 4000 1.54 160 18:28 17.01.2022
4246 Thunderstorm 23 1015 100 4000 1.03 90 17:24 17.01.2022
4247 Thunderstorm 22 1015 100 5000 3.09 70 16:27 17.01.2022
4248 Thunderstorm 24 1015 94 1000 6.17 80 14:59 17.01.2022
4249 Rain 25 1013 100 5000 3.09 170 14:33 17.01.2022
4250 Clouds 26 1013 94 10000 1.54 180 13:20 17.01.2022
4251 Clouds 25 1012 100 10000 1.54 240 12:52 17.01.2022
4252 Clouds 25 1011 94 10000 1.03 280 11:47 17.01.2022
4253 Clouds 25 1011 100 10000 1.03 300 10:21 17.01.2022
4254 Clouds 26 1010 83 10000 1.54 260 08:44 17.01.2022
4255 Clear 26 1011 83 10000 2.06 290 07:22 17.01.2022
4256 Rain 28 1011 74 10000 2.57 340 02:20 17.01.2022
4257 Rain 27 1010 78 10000 2.57 30 00:43 17.01.2022
4258 Clouds 32 1008 66 10000 2.06 70 21:26 16.01.2022
4259 Clouds 32 1009 62 10000 2.06 80 20:30 16.01.2022
4260 Clouds 31 1012 66 10000 2.06 100 18:48 16.01.2022
4261 Clouds 30 1013 70 10000 2.06 80 17:51 16.01.2022
4262 Clouds 30 1013 70 10000 2.06 80 16:55 16.01.2022
4263 Clouds 29 1015 79 10000 1.54 80 15:43 16.01.2022
4264 Clouds 27 1015 83 10000 1.03 180 14:29 16.01.2022
4265 Clouds 25 1014 94 10000 1.54 170 13:33 16.01.2022
4266 Clouds 25 1013 94 10000 1.54 170 12:21 16.01.2022
4267 Clouds 24 1012 100 10000 1.03 170 11:27 16.01.2022
4268 Clouds 25 1012 94 10000 1.54 170 10:27 16.01.2022
4269 Clouds 25 1012 94 10000 1.54 170 09:57 16.01.2022
4270 Clouds 25 1012 94 10000 2.06 170 09:23 16.01.2022
4271 Clear 25 1011 94 10000 0 0 08:53 16.01.2022
4272 Clear 25 1013 100 10000 1.03 130 06:35 16.01.2022
4273 Clouds 26 1011 83 10000 1.54 50 00:19 16.01.2022
4274 Thunderstorm 26 1010 89 10000 3.09 30 22:49 15.01.2022
4275 Rain 29 1010 74 10000 3.6 360 21:21 15.01.2022
4276 Clouds 32 1010 66 10000 2.06 70 20:44 15.01.2022
4277 Clouds 32 1010 66 10000 2.06 70 20:18 15.01.2022
4278 Clouds 32 1012 66 10000 1.54 130 19:25 15.01.2022
4279 Clouds 31 1017 70 10000 1.54 90 17:52 15.01.2022
4280 Clouds 29 1015 79 10000 1.54 100 16:43 15.01.2022
4281 Clouds 26 1015 94 10000 2.06 170 14:32 15.01.2022
4282 Mist 25 1014 94 10000 1.03 210 12:38 15.01.2022
4283 Mist 24 1012 100 10000 1.03 230 11:20 15.01.2022
4284 Clouds 24 1012 100 10000 0.51 20 09:35 15.01.2022
4285 Rain 26 1013 89 10000 1.54 350 01:25 15.01.2022
4286 Clouds 26 1011 83 10000 2.06 70 21:57 14.01.2022
4287 Clouds 26 1012 89 10000 2.06 20 20:54 14.01.2022
4288 Clouds 25 1013 94 10000 1.54 350 20:23 14.01.2022
4289 Clouds 24 1014 94 10000 1.03 80 19:49 14.01.2022
4290 Rain 24 1015 100 8000 1.03 80 18:33 14.01.2022
4291 Thunderstorm 23 1017 100 5000 3.6 70 16:51 14.01.2022
4292 Thunderstorm 23 1017 100 5000 3.6 70 16:33 14.01.2022
4293 Rain 23 1017 100 4000 3.09 70 14:49 14.01.2022
4294 Rain 23 1015 100 4000 1.03 170 13:48 14.01.2022
4295 Thunderstorm 23 1015 100 3000 4.63 260 12:34 14.01.2022
4296 Clouds 24 1013 100 1000 4.12 210 11:29 14.01.2022
4297 Clouds 24 1012 100 10000 1.54 30 09:51 14.01.2022
4298 Clouds 24 1012 100 10000 1.54 70 08:52 14.01.2022
4299 Rain 24 1012 100 9000 1.03 130 07:21 14.01.2022
4300 Clear 27 1011 83 10000 1.54 20 01:37 14.01.2022
4301 Clouds 28 1010 78 10000 2.57 80 23:36 13.01.2022
4302 Clouds 29 1009 79 10000 1.54 90 21:41 13.01.2022
4303 Clouds 29 1009 79 10000 1.54 90 21:23 13.01.2022
4304 Clouds 30 1011 74 10000 2.57 80 19:41 13.01.2022
4305 Clouds 30 1011 74 10000 2.57 80 19:22 13.01.2022
4306 Clouds 29 1013 79 10000 3.09 70 17:54 13.01.2022
4307 Clouds 28 1014 78 10000 4.63 60 16:22 13.01.2022
4308 Clouds 27 1014 89 10000 4.12 60 15:37 13.01.2022
4309 Clouds 26 1014 94 10000 3.6 70 14:49 13.01.2022
4310 Clouds 25 1012 100 10000 2.06 70 12:46 13.01.2022
4311 Clouds 25 1011 94 10000 0.51 220 10:25 13.01.2022
4312 Clouds 25 1011 94 10000 2.57 80 09:20 13.01.2022
4313 Clouds 25 1011 94 10000 1.03 50 08:27 13.01.2022
4314 Clouds 25 1011 100 10000 1.03 160 07:24 13.01.2022
4315 Clouds 25 1011 100 10000 1.03 160 05:59 13.01.2022
4316 Clouds 25 1012 100 10000 0 0 05:19 13.01.2022
4317 Clouds 25 1011 100 10000 0 0 02:33 13.01.2022
4318 Clouds 26 1010 89 10000 1.54 20 00:55 13.01.2022
4319 Clouds 26 1009 94 10000 1.54 240 23:49 12.01.2022
4320 Clouds 26 1009 94 10000 1.54 240 23:49 12.01.2022
4321 Clouds 26 1009 94 10000 1.54 240 23:20 12.01.2022
4322 Rain 25 1009 94 10000 1.03 140 21:57 12.01.2022
4323 Rain 25 1008 94 10000 1.54 90 21:23 12.01.2022
4324 Clouds 26 1010 89 10000 6.69 360 20:56 12.01.2022
4325 Clouds 26 1009 89 5000 3.09 20 19:45 12.01.2022
4326 Clouds 31 1011 66 10000 2.57 70 18:42 12.01.2022
4327 Clouds 31 1012 66 10000 1.03 100 17:38 12.01.2022
4328 Clouds 29 1013 70 10000 2.06 80 16:33 12.01.2022
4329 Clouds 28 1013 74 10000 3.6 70 14:48 12.01.2022
4330 Clouds 27 1013 89 10000 2.57 60 13:24 12.01.2022
4331 Clouds 25 1011 94 10000 1.54 90 10:56 12.01.2022
4332 Clouds 24 1010 100 10000 1.03 110 08:43 12.01.2022
4333 Clouds 25 1011 94 10000 1.54 80 07:50 12.01.2022
4334 Clouds 25 1011 94 10000 1.54 80 07:31 12.01.2022
4335 Rain 28 1009 83 10000 2.06 240 23:53 11.01.2022
4336 Clouds 29 1009 79 10000 2.57 230 22:56 11.01.2022
4337 Clouds 29 1009 79 10000 2.57 230 22:23 11.01.2022
4338 Clouds 30 1009 74 10000 3.09 230 20:56 11.01.2022
4339 Rain 30 1009 74 10000 2.57 240 20:20 11.01.2022
4340 Clouds 31 1011 66 10000 4.63 250 18:32 11.01.2022
4341 Clouds 31 1012 66 10000 4.12 250 17:26 11.01.2022
4342 Clouds 29 1013 70 10000 3.09 240 16:38 11.01.2022
4343 Clouds 31 1013 66 10000 1.03 70 15:47 11.01.2022
4344 Clear 30 1013 66 10000 0.51 360 14:42 11.01.2022
4345 Clear 30 1013 66 10000 0.51 360 13:56 11.01.2022
4346 Clear 28 1012 78 10000 0 0 13:36 11.01.2022
4347 Clear 27 1011 83 10000 1.54 30 12:48 11.01.2022
4348 Clear 25 1010 94 10000 1.03 10 11:45 11.01.2022
4349 Clear 25 1009 94 10000 0.51 50 09:39 11.01.2022
4350 Clear 26 1010 83 10000 1.03 60 07:18 11.01.2022
4351 Clouds 29 1009 70 10000 2.57 70 00:32 11.01.2022
4352 Clouds 30 1008 66 10000 1.54 80 23:43 10.01.2022
4353 Clouds 30 1008 66 10000 1.54 80 23:24 10.01.2022
4354 Clouds 31 1008 62 10000 1.03 80 22:19 10.01.2022
4355 Clouds 33 1008 52 10000 1.03 60 21:54 10.01.2022
4356 Clouds 33 1008 52 10000 1.03 60 21:20 10.01.2022
4357 Clouds 32 1009 55 10000 2.06 140 20:57 10.01.2022
4358 Clouds 32 1009 55 10000 2.06 140 20:28 10.01.2022
4359 Clouds 32 1010 58 10000 3.09 170 19:44 10.01.2022
4360 Clouds 32 1010 58 10000 3.09 170 19:21 10.01.2022
4361 Clouds 31 1011 66 10000 1.54 90 18:49 10.01.2022
4362 Clouds 31 1012 66 10000 1.54 80 17:42 10.01.2022
4363 Clouds 31 1013 66 10000 1.54 120 16:42 10.01.2022
4364 Clouds 29 1013 74 10000 1.54 80 15:49 10.01.2022
4365 Clouds 28 1013 83 10000 2.06 70 14:34 10.01.2022
4366 Clouds 26 1012 94 10000 1.03 80 12:18 10.01.2022
4367 Clouds 25 1011 94 10000 1.03 20 11:25 10.01.2022
4368 Clear 25 1010 94 10000 0 0 09:52 10.01.2022
4369 Clear 24 1011 100 10000 0 0 07:31 10.01.2022
4370 Clear 25 1012 94 10000 0.51 110 05:49 10.01.2022
4371 Clear 26 1011 89 10000 0.51 150 01:31 10.01.2022
4372 Clouds 27 1011 83 10000 1.54 200 00:25 10.01.2022
4373 Clouds 28 1011 78 10000 1.54 180 23:40 09.01.2022
4374 Clouds 29 1010 70 10000 1.54 180 22:38 09.01.2022
4375 Clouds 28 1011 74 10000 2.06 180 21:46 09.01.2022
4376 Clouds 28 1011 74 10000 2.06 180 21:24 09.01.2022
4377 Clouds 29 1011 70 10000 2.06 200 20:52 09.01.2022
4378 Clouds 29 1011 70 10000 2.06 200 20:34 09.01.2022
4379 Clouds 28 1012 74 10000 2.06 190 19:45 09.01.2022
4380 Clouds 28 1012 74 10000 2.06 190 19:23 09.01.2022
4381 Clouds 28 1012 74 10000 2.06 190 18:56 09.01.2022
4382 Clouds 28 1013 78 10000 2.06 190 18:34 09.01.2022
4383 Clouds 27 1014 78 10000 1.54 180 17:40 09.01.2022
4384 Clouds 27 1014 78 10000 1.54 180 17:20 09.01.2022
4385 Clouds 27 1015 78 10000 1.54 140 15:58 09.01.2022
4386 Clouds 27 1015 78 10000 1.54 140 15:35 09.01.2022
4387 Clouds 25 1015 88 10000 1.54 150 14:40 09.01.2022
4388 Clouds 25 1014 88 10000 1.54 180 13:51 09.01.2022
4389 Clouds 25 1014 88 10000 1.54 180 13:22 09.01.2022
4390 Clouds 24 1014 94 10000 1.54 170 11:55 09.01.2022
4391 Clouds 24 1013 100 10000 1.54 160 10:53 09.01.2022
4392 Clouds 24 1012 94 10000 0 0 09:50 09.01.2022
4393 Clouds 23 1012 100 10000 0.51 80 08:52 09.01.2022
4394 Clouds 24 1014 88 10000 1.03 50 05:38 09.01.2022
4395 Clouds 25 1012 83 10000 2.06 330 01:24 09.01.2022
4396 Clouds 25 1011 78 10000 4.12 350 23:47 08.01.2022
4397 Rain 25 1011 78 10000 4.12 350 23:26 08.01.2022
4398 Clouds 25 1011 78 10000 6.69 360 22:30 08.01.2022
4399 Clouds 26 1011 78 10000 6.17 360 21:26 08.01.2022
4400 Clouds 26 1011 78 10000 7.2 10 20:42 08.01.2022
4401 Clouds 26 1011 78 10000 7.2 10 20:21 08.01.2022
4402 Clouds 25 1013 88 5000 5.66 360 18:45 08.01.2022
4403 Clouds 25 1013 88 8000 5.14 10 17:22 08.01.2022
4404 Clouds 27 1014 78 10000 4.12 20 15:58 08.01.2022
4405 Clouds 26 1014 83 10000 3.6 10 14:46 08.01.2022
4406 Clouds 25 1013 88 10000 2.57 360 13:29 08.01.2022
4407 Clouds 24 1011 94 10000 2.57 340 11:28 08.01.2022
4408 Clouds 23 1010 94 10000 2.57 330 10:30 08.01.2022
4409 Fog 23 1010 94 10000 2.06 320 09:48 08.01.2022
4410 Fog 23 1010 94 10000 2.06 320 09:28 08.01.2022
4411 Clouds 24 1012 88 10000 2.57 30 03:44 08.01.2022
4412 Rain 25 1010 94 10000 3.6 30 00:57 08.01.2022
4413 Clouds 25 1009 94 10000 1.54 40 22:54 07.01.2022
4414 Clouds 24 1009 100 10000 1.54 180 21:21 07.01.2022
4415 Rain 24 1010 100 5000 2.57 230 20:20 07.01.2022
4416 Rain 25 1011 88 1000 5.14 280 19:25 07.01.2022
4417 Rain 26 1012 89 9000 1.54 350 18:45 07.01.2022
4418 Rain 26 1012 94 7000 2.57 50 17:28 07.01.2022
4419 Clouds 27 1013 83 10000 2.06 40 16:41 07.01.2022
4420 Rain 25 1013 100 8000 1.03 80 14:37 07.01.2022
4421 Rain 25 1012 94 7000 2.06 80 13:41 07.01.2022
4422 Rain 25 1012 94 2000 3.09 70 12:50 07.01.2022
4423 Clouds 26 1008 89 10000 1.54 90 09:46 07.01.2022
4424 Clouds 28 1010 78 10000 2.06 80 02:57 07.01.2022
4425 Clouds 28 1010 78 10000 2.06 80 02:19 07.01.2022
4426 Clouds 25 1009 100 10000 1.03 80 01:41 07.01.2022
4427 Clouds 25 1009 100 10000 1.03 80 01:20 07.01.2022
4428 Clouds 27 1008 83 10000 2.06 220 00:28 07.01.2022
4429 Clouds 31 1007 58 10000 3.09 10 21:39 06.01.2022
4430 Clouds 33 1007 55 10000 2.06 10 20:25 06.01.2022
4431 Clouds 32 1008 51 10000 4.12 360 19:45 06.01.2022
4432 Clouds 33 1009 55 10000 3.6 40 18:59 06.01.2022
4433 Clouds 31 1011 58 10000 4.12 20 17:42 06.01.2022
4434 Clouds 31 1011 58 10000 4.12 20 17:42 06.01.2022
4435 Clouds 31 1011 58 10000 4.12 20 16:58 06.01.2022
4436 Clear 32 1012 58 10000 2.57 40 15:49 06.01.2022
4437 Clear 32 1012 58 10000 2.57 40 15:27 06.01.2022
4438 Clear 29 1012 70 10000 2.57 30 14:55 06.01.2022
4439 Clear 29 1012 70 10000 2.57 30 14:19 06.01.2022
4440 Clear 28 1011 74 10000 3.09 40 12:56 06.01.2022
4441 Clear 26 1009 83 10000 1.54 40 11:43 06.01.2022
4442 Clear 26 1009 83 10000 1.54 40 11:23 06.01.2022
4443 Clear 27 1008 83 10000 0.51 120 08:59 06.01.2022
4444 Clear 28 1009 69 10000 1.54 40 01:37 06.01.2022
4445 Clouds 30 1007 66 10000 1.54 40 23:40 05.01.2022
4446 Clouds 30 1007 66 10000 1.54 40 22:59 05.01.2022
4447 Clouds 32 1006 58 10000 1.54 50 22:33 05.01.2022
4448 Clouds 31 1007 62 10000 1.03 90 21:52 05.01.2022
4449 Clouds 31 1007 62 10000 1.03 90 21:21 05.01.2022
4450 Clouds 30 1007 70 10000 1.54 90 20:19 05.01.2022
4451 Clouds 31 1010 66 10000 1.54 70 18:50 05.01.2022
4452 Clouds 31 1011 58 10000 3.09 70 17:44 05.01.2022
4453 Clouds 31 1011 58 10000 4.12 40 16:51 05.01.2022
4454 Clouds 30 1009 62 10000 4.12 20 15:43 05.01.2022
4455 Clouds 28 1009 74 10000 3.09 30 14:24 05.01.2022
4456 Clouds 26 1011 83 10000 2.06 60 13:25 05.01.2022
4457 Clear 25 1009 88 10000 2.57 40 11:36 05.01.2022
4458 Clear 26 1009 89 10000 2.06 70 07:47 05.01.2022
4459 Clear 26 1009 83 10000 2.57 50 06:25 05.01.2022
4460 Clouds 28 1008 74 10000 2.06 70 00:59 05.01.2022
4461 Clouds 29 1007 70 10000 2.06 80 23:28 04.01.2022
4462 Clouds 30 1007 66 10000 2.57 70 22:55 04.01.2022
4463 Clouds 31 1007 66 10000 1.54 70 21:31 04.01.2022
4464 Clouds 30 1009 66 10000 3.09 80 19:20 04.01.2022
4465 Clouds 31 1009 66 10000 3.09 70 17:52 04.01.2022
4466 Clouds 30 1011 70 10000 3.09 60 16:44 04.01.2022
4467 Clouds 30 1011 70 10000 3.09 60 16:24 04.01.2022
4468 Clouds 29 1012 74 10000 3.09 60 14:54 04.01.2022
4469 Clouds 27 1012 83 10000 3.09 70 14:34 04.01.2022
4470 Clouds 27 1012 83 10000 3.09 60 13:27 04.01.2022
4471 Clear 25 1010 88 10000 2.06 60 10:41 04.01.2022
4472 Clear 25 1009 88 10000 1.54 30 09:20 04.01.2022
4473 Clear 26 1009 83 10000 2.06 20 08:32 04.01.2022
4474 Clear 29 1011 70 10000 2.57 20 02:32 04.01.2022
4475 Clouds 29 1009 70 10000 1.54 30 00:41 04.01.2022
4476 Clouds 30 1008 70 10000 2.57 30 23:26 03.01.2022
4477 Clouds 31 1008 62 10000 3.09 10 21:52 03.01.2022
4478 Clouds 31 1008 62 10000 3.09 10 21:33 03.01.2022
4479 Clouds 32 1009 58 10000 2.57 360 20:22 03.01.2022
4480 Clouds 30 1012 70 10000 3.6 20 18:54 03.01.2022
4481 Clouds 30 1012 70 10000 3.6 20 18:28 03.01.2022
4482 Clouds 30 1013 66 10000 3.6 10 16:58 03.01.2022
4483 Clouds 29 1014 70 10000 3.6 10 15:39 03.01.2022
4484 Clouds 28 1013 74 10000 2.06 20 14:30 03.01.2022
4485 Clear 26 1012 89 10000 1.03 310 12:46 03.01.2022
4486 Clouds 25 1011 94 10000 0.51 20 11:35 03.01.2022
4487 Clouds 26 1012 89 10000 2.06 20 10:36 03.01.2022
4488 Clear 25 1012 88 10000 2.57 30 08:47 03.01.2022
4489 Clear 26 1011 83 10000 1.54 20 07:34 03.01.2022
4490 Clouds 28 1010 78 10000 2.06 30 23:56 02.01.2022
4491 Clouds 29 1010 70 10000 1.54 30 23:22 02.01.2022
4492 Clouds 29 1009 70 10000 2.57 10 22:53 02.01.2022
4493 Clouds 31 1009 66 10000 3.09 30 21:42 02.01.2022
4494 Clouds 30 1009 66 10000 3.6 50 20:33 02.01.2022
4495 Clouds 29 1010 84 10000 1.54 70 19:55 02.01.2022
4496 Clouds 29 1010 84 10000 1.54 70 19:30 02.01.2022
4497 Clouds 31 1011 66 10000 3.6 40 18:46 02.01.2022
4498 Clouds 31 1011 66 10000 3.6 40 17:54 02.01.2022
4499 Clouds 30 1012 74 10000 2.06 70 17:36 02.01.2022
4500 Clouds 30 1012 74 10000 2.06 70 17:18 02.01.2022
4501 Clouds 30 1013 66 10000 3.6 30 16:25 02.01.2022
4502 Clouds 29 1013 74 10000 3.6 40 14:22 02.01.2022
4503 Clear 25 1011 94 10000 1.54 50 12:49 02.01.2022
4504 Clear 25 1011 94 10000 1.54 50 11:58 02.01.2022
4505 Clear 24 1010 94 10000 1.54 20 11:26 02.01.2022
4506 Clear 25 1009 88 10000 2.06 300 10:45 02.01.2022
4507 Clear 25 1009 94 10000 1.03 30 08:46 02.01.2022
4508 Clouds 26 1011 89 10000 1.03 50 03:49 02.01.2022
4509 Rain 28 1009 78 10000 1.54 340 00:58 02.01.2022
4510 Clouds 28 1009 78 10000 2.57 20 23:39 01.01.2022
4511 Clouds 28 1009 78 10000 2.57 20 23:39 01.01.2022
4512 Clouds 28 1009 78 10000 2.57 20 22:55 01.01.2022
4513 Clouds 29 1008 74 10000 3.6 30 22:21 01.01.2022
4514 Clouds 28 1009 78 10000 2.57 40 21:43 01.01.2022
4515 Rain 28 1009 74 10000 4.12 60 20:53 01.01.2022
4516 Clouds 28 1009 74 10000 4.12 60 19:55 01.01.2022
4517 Clouds 28 1011 78 10000 5.14 10 18:58 01.01.2022
4518 Clouds 28 1011 78 10000 5.14 10 17:58 01.01.2022
4519 Clouds 29 1012 79 10000 4.63 30 16:37 01.01.2022
4520 Clouds 29 1012 79 10000 4.63 30 16:19 01.01.2022
4521 Clouds 27 1013 83 10000 3.09 60 15:22 01.01.2022
4522 Clouds 24 1012 100 10000 3.09 30 13:46 01.01.2022
4523 Clouds 24 1012 100 10000 3.09 30 13:46 01.01.2022
4524 Rain 23 1012 100 4000 2.57 50 12:49 01.01.2022
4525 Rain 23 1011 100 3000 3.6 50 11:51 01.01.2022
4526 Rain 23 1011 100 3000 3.6 50 11:22 01.01.2022
4527 Rain 24 1010 100 5000 2.57 60 10:26 01.01.2022
4528 Clouds 25 1009 100 10000 1.03 20 09:41 01.01.2022
4529 Clouds 25 1009 100 10000 1.54 20 08:25 01.01.2022
4530 Mist 25 1010 100 10000 1.03 60 07:43 01.01.2022
4531 Fog 25 1010 100 10000 1.03 160 06:46 01.01.2022
4532 Clouds 25 1011 100 10000 1.03 80 05:26 01.01.2022
4533 Clouds 25 1011 100 10000 1.03 110 04:37 01.01.2022
4534 Clouds 24 1010 100 8000 1.03 120 01:28 01.01.2022
4535 Clouds 29 1008 74 10000 1.54 270 23:35 31.12.2021
4536 Clouds 31 1007 62 10000 3.09 260 21:52 31.12.2021
4537 Clouds 31 1008 62 10000 3.09 340 20:33 31.12.2021
4538 Clouds 30 1009 74 10000 2.57 240 19:30 31.12.2021
4539 Clouds 29 1010 70 10000 1.54 260 18:32 31.12.2021
4540 Clouds 28 1011 78 10000 2.06 220 17:38 31.12.2021
4541 Clouds 28 1011 78 10000 2.06 220 17:18 31.12.2021
4542 Clouds 27 1012 83 9000 1.03 170 16:24 31.12.2021
4543 Clouds 26 1013 89 10000 1.54 210 15:56 31.12.2021
4544 Clouds 26 1013 89 10000 1.54 210 15:28 31.12.2021
4545 Clouds 26 1012 89 10000 1.03 90 14:47 31.12.2021
4546 Clouds 26 1012 89 10000 1.03 90 14:28 31.12.2021
4547 Clouds 25 1012 94 10000 1.03 170 13:36 31.12.2021
4548 Clouds 24 1011 100 10000 0.51 190 12:45 31.12.2021
4549 Clouds 24 1010 100 10000 1.54 170 11:43 31.12.2021
4550 Clouds 24 1010 100 10000 1.54 170 11:24 31.12.2021
4551 Clouds 24 1009 100 10000 1.03 170 10:34 31.12.2021
4552 Clouds 24 1008 100 10000 1.54 190 09:52 31.12.2021
4553 Clouds 24 1008 100 10000 1.54 190 09:32 31.12.2021
4554 Clouds 24 1008 100 10000 1.03 200 08:27 31.12.2021
4555 Clouds 23 1008 100 10000 1.03 100 07:30 31.12.2021
4556 Clouds 25 1010 94 10000 2.06 310 23:23 30.12.2021
4557 Clouds 25 1010 94 10000 3.09 260 22:33 30.12.2021
4558 Clouds 25 1010 94 10000 3.09 260 22:33 30.12.2021
4559 Rain 25 1010 94 10000 3.09 260 21:56 30.12.2021
4560 Rain 24 1010 100 9000 2.57 240 21:36 30.12.2021
4561 Rain 24 1010 94 9000 3.09 280 20:46 30.12.2021
4562 Rain 24 1010 94 9000 3.09 280 20:25 30.12.2021
4563 Rain 24 1010 100 5000 1.03 290 19:45 30.12.2021
4564 Rain 24 1011 94 5000 0.51 90 18:45 30.12.2021
4565 Thunderstorm 24 1011 94 3000 2.57 360 18:18 30.12.2021
4566 Rain 25 1012 100 3000 3.09 260 16:19 30.12.2021
4567 Rain 26 1012 89 10000 2.06 290 15:51 30.12.2021
4568 Clouds 25 1011 94 10000 2.06 340 14:39 30.12.2021
4569 Clouds 25 1012 100 5000 4.12 10 13:49 30.12.2021
4570 Clouds 26 1010 89 10000 1.54 290 12:40 30.12.2021
4571 Clear 26 1010 83 10000 2.57 330 10:58 30.12.2021
4572 Clear 27 1009 83 10000 1.54 260 09:58 30.12.2021
4573 Clear 26 1008 94 10000 2.06 280 08:58 30.12.2021
4574 Clear 26 1011 94 10000 0 0 06:52 30.12.2021
4575 Clouds 26 1011 89 9000 1.03 350 03:43 30.12.2021
4576 Clouds 26 1010 89 10000 2.57 80 02:47 30.12.2021
4577 Clouds 29 1007 74 10000 1.54 30 23:50 29.12.2021
4578 Rain 29 1007 74 10000 1.54 30 23:23 29.12.2021
4579 Clouds 31 1007 62 10000 2.06 30 22:21 29.12.2021
4580 Clouds 30 1007 79 10000 4.12 40 21:43 29.12.2021
4581 Rain 30 1007 74 10000 1.54 60 20:39 29.12.2021
4582 Clouds 31 1009 66 10000 2.06 340 19:48 29.12.2021
4583 Clouds 32 1010 66 10000 1.54 80 18:52 29.12.2021
4584 Clouds 32 1010 66 10000 1.54 80 17:56 29.12.2021
4585 Clouds 32 1011 66 10000 3.09 70 17:28 29.12.2021
4586 Clouds 31 1011 70 10000 3.09 70 16:41 29.12.2021
4587 Clouds 31 1011 70 10000 3.09 70 15:59 29.12.2021
4588 Clouds 29 1012 79 10000 3.6 70 14:24 29.12.2021
4589 Clear 26 1011 94 10000 2.57 60 12:39 29.12.2021
4590 Clear 25 1011 94 10000 2.57 60 11:43 29.12.2021
4591 Clear 25 1010 94 10000 2.57 50 09:59 29.12.2021
4592 Clear 25 1010 94 10000 1.54 60 07:52 29.12.2021
4593 Clear 25 1010 94 10000 1.54 60 07:52 29.12.2021
4594 Clear 26 1011 89 10000 2.06 40 06:40 29.12.2021
4595 Clear 26 1011 89 10000 2.06 40 06:22 29.12.2021
4596 Clear 26 1011 83 10000 3.09 60 05:39 29.12.2021
4597 Clear 27 1011 78 10000 3.09 20 02:48 29.12.2021
4598 Clouds 28 1009 74 10000 2.06 30 00:23 29.12.2021
4599 Clouds 29 1009 74 10000 2.57 40 23:35 28.12.2021
4600 Clouds 30 1008 70 10000 2.57 30 22:42 28.12.2021
4601 Clouds 30 1008 70 10000 2.57 30 22:24 28.12.2021
4602 Clouds 31 1008 70 10000 2.57 90 21:38 28.12.2021
4603 Clouds 31 1009 70 10000 1.54 140 20:40 28.12.2021
4604 Clouds 32 1010 70 10000 1.54 320 19:31 28.12.2021
4605 Clouds 31 1011 70 10000 2.06 80 18:41 28.12.2021
4606 Clouds 31 1011 70 10000 2.06 80 17:59 28.12.2021
4607 Clouds 29 1012 74 10000 1.54 90 16:34 28.12.2021
4608 Clouds 27 1013 83 10000 1.54 80 15:50 28.12.2021
4609 Clouds 27 1013 83 10000 1.54 80 15:22 28.12.2021
4610 Clouds 26 1013 83 10000 1.54 80 14:50 28.12.2021
4611 Clouds 26 1013 83 10000 1.54 80 14:21 28.12.2021
4612 Clouds 24 1012 100 10000 1.03 70 13:42 28.12.2021
4613 Clouds 24 1012 100 10000 1.03 70 13:24 28.12.2021
4614 Clouds 23 1012 100 10000 0.51 70 12:49 28.12.2021
4615 Clouds 23 1011 100 10000 0 0 11:46 28.12.2021
4616 Clouds 23 1009 94 10000 1.03 250 08:35 28.12.2021
4617 Clouds 23 1009 94 10000 1.03 250 06:42 28.12.2021
4618 Clouds 23 1008 100 10000 1.54 70 23:44 27.12.2021
4619 Clouds 23 1008 100 10000 1.54 70 23:24 27.12.2021
4620 Rain 23 1008 94 10000 2.57 80 21:42 27.12.2021
4621 Rain 23 1008 94 10000 2.57 80 21:21 27.12.2021
4622 Rain 23 1008 100 10000 3.09 50 20:23 27.12.2021
4623 Rain 23 1010 100 8000 3.09 20 19:41 27.12.2021
4624 Rain 23 1011 94 5000 2.06 340 18:34 27.12.2021
4625 Rain 23 1013 94 4000 2.06 10 17:48 27.12.2021
4626 Rain 23 1003 94 400 2.06 30 16:40 27.12.2021
4627 Rain 22 1013 100 5000 2.57 20 15:52 27.12.2021
4628 Thunderstorm 22 1014 94 800 6.17 190 14:33 27.12.2021
4629 Clear 28 1011 83 10000 2.57 30 13:39 27.12.2021
4630 Clear 27 1010 89 10000 2.06 30 12:36 27.12.2021
4631 Clear 27 1009 89 10000 2.06 20 10:31 27.12.2021
4632 Clouds 26 1009 89 10000 1.54 360 09:47 27.12.2021
4633 Clear 27 1008 89 10000 1.54 30 07:50 27.12.2021
4634 Clear 27 1008 89 10000 1.54 30 07:29 27.12.2021
4635 Clear 27 1010 89 10000 2.06 40 02:21 27.12.2021
4636 Clouds 28 1008 78 10000 3.09 20 23:58 26.12.2021
4637 Clouds 30 1008 70 10000 3.09 10 23:38 26.12.2021
4638 Clouds 31 1007 66 10000 2.57 20 22:34 26.12.2021
4639 Clouds 31 1007 70 10000 3.09 340 20:59 26.12.2021
4640 Clouds 30 1009 74 10000 2.06 230 19:47 26.12.2021
4641 Clouds 32 1010 62 10000 1.54 20 18:24 26.12.2021
4642 Clouds 32 1011 62 10000 3.09 350 17:24 26.12.2021
4643 Clouds 29 1012 74 10000 4.63 40 14:29 26.12.2021
4644 Clear 28 1012 78 10000 3.09 30 13:40 26.12.2021
4645 Clear 28 1012 78 10000 3.09 30 13:20 26.12.2021
4646 Clear 25 1011 94 10000 2.06 30 12:33 26.12.2021
4647 Clear 25 1010 94 10000 1.03 340 10:42 26.12.2021
4648 Clear 25 1010 88 10000 1.54 30 09:26 26.12.2021
4649 Clear 25 1010 94 10000 2.57 10 08:44 26.12.2021
4650 Clear 25 1010 94 10000 2.57 10 07:58 26.12.2021
4651 Clear 26 1010 94 10000 1.03 100 01:30 26.12.2021
4652 Clouds 27 1009 83 10000 1.03 90 23:58 25.12.2021
4653 Clouds 29 1008 74 10000 2.57 30 23:27 25.12.2021
4654 Clouds 30 1008 70 10000 3.09 40 22:28 25.12.2021
4655 Clouds 31 1008 66 10000 2.57 20 21:00 25.12.2021
4656 Clouds 29 1009 84 10000 1.54 50 19:28 25.12.2021
4657 Rain 28 1011 83 10000 1.03 120 18:56 25.12.2021
4658 Rain 28 1012 83 10000 1.54 160 17:38 25.12.2021
4659 Rain 28 1013 83 10000 1.54 170 16:41 25.12.2021
4660 Clouds 27 1013 83 10000 0.51 180 15:26 25.12.2021
4661 Clouds 25 1012 94 10000 1.03 10 13:41 25.12.2021
4662 Clouds 25 1010 94 10000 1.54 120 11:53 25.12.2021
4663 Mist 24 1009 100 4000 1.54 20 09:57 25.12.2021
4664 Mist 24 1009 100 4000 1.54 20 09:37 25.12.2021
4665 Rain 25 1012 94 10000 1.54 10 04:36 25.12.2021
4666 Rain 24 1010 100 10000 1.03 50 01:27 25.12.2021
4667 Thunderstorm 24 1009 94 7000 1.54 330 23:47 24.12.2021
4668 Clouds 30 1009 74 10000 2.06 200 19:50 24.12.2021
4669 Rain 30 1009 74 10000 2.06 200 19:24 24.12.2021
4670 Clouds 30 1011 74 10000 3.09 250 16:59 24.12.2021
4671 Clouds 29 1012 79 10000 3.09 270 16:23 24.12.2021
4672 Clouds 28 1012 83 10000 2.57 260 15:48 24.12.2021
4673 Clouds 28 1012 83 10000 2.57 260 15:19 24.12.2021
4674 Clouds 27 1013 89 10000 1.54 300 14:31 24.12.2021
4675 Clouds 26 1012 100 10000 1.54 310 13:42 24.12.2021
4676 Mist 26 1011 94 8000 1.54 260 12:49 24.12.2021
4677 Fog 26 1011 94 8000 1.54 260 12:21 24.12.2021
4678 Fog 26 1010 100 7000 1.54 240 11:40 24.12.2021
4679 Fog 26 1010 100 7000 1.54 240 11:18 24.12.2021
4680 Fog 26 1010 94 10000 1.03 300 10:33 24.12.2021
4681 Fog 26 1010 94 10000 1.54 230 08:36 24.12.2021
4682 Fog 26 1010 94 10000 1.54 230 07:58 24.12.2021
4683 Clear 25 1010 100 10000 1.54 10 06:18 24.12.2021
4684 Rain 26 1009 94 10000 1.03 310 00:20 24.12.2021
4685 Rain 26 1008 94 10000 1.03 30 23:33 23.12.2021
4686 Rain 26 1009 94 10000 1.03 10 22:44 23.12.2021
4687 Rain 26 1009 94 10000 1.03 10 22:22 23.12.2021
4688 Rain 26 1009 94 10000 1.54 300 21:38 23.12.2021
4689 Thunderstorm 25 1010 94 3000 3.09 20 20:21 23.12.2021
4690 Thunderstorm 28 1010 89 3000 1.03 170 19:27 23.12.2021
4691 Rain 28 1012 83 10000 2.57 180 17:58 23.12.2021
4692 Rain 28 1012 83 10000 1.54 180 17:18 23.12.2021
4693 Rain 27 1013 89 10000 2.57 230 16:26 23.12.2021
4694 Clouds 27 1013 89 10000 1.03 180 15:32 23.12.2021
4695 Rain 27 1013 94 10000 1.03 170 14:56 23.12.2021
4696 Rain 27 1013 94 10000 1.03 170 14:38 23.12.2021
4697 Clouds 26 1011 94 10000 2.06 170 13:23 23.12.2021
4698 Rain 25 1010 100 10000 1.03 210 10:54 23.12.2021
4699 Clouds 25 1009 100 10000 1.03 180 09:52 23.12.2021
4700 Rain 25 1009 100 10000 1.03 180 09:32 23.12.2021
4701 Rain 25 1009 100 10000 1.03 150 08:25 23.12.2021
4702 Rain 26 1011 89 8000 4.12 40 04:39 23.12.2021
4703 Clouds 28 1008 83 10000 1.54 20 00:34 23.12.2021
4704 Clouds 30 1006 74 10000 1.54 270 22:49 22.12.2021
4705 Clouds 30 1006 74 10000 1.54 270 21:57 22.12.2021
4706 Clouds 30 1006 74 10000 1.03 220 21:30 22.12.2021
4707 Clouds 29 1007 79 10000 1.54 80 20:53 22.12.2021
4708 Clouds 29 1007 79 10000 1.54 80 20:33 22.12.2021
4709 Thunderstorm 33 1007 62 10000 1.54 120 19:37 22.12.2021
4710 Clouds 33 1009 66 10000 1.54 120 18:19 22.12.2021
4711 Clouds 32 1010 70 10000 3.09 60 17:37 22.12.2021
4712 Clouds 30 1011 79 10000 1.54 130 15:49 22.12.2021
4713 Clouds 27 1010 94 10000 1.03 200 13:57 22.12.2021
4714 Clouds 26 1009 100 10000 1.03 200 12:47 22.12.2021
4715 Clouds 26 1008 100 10000 0.51 160 11:37 22.12.2021
4716 Clouds 26 1007 100 10000 1.03 200 09:43 22.12.2021
4717 Clear 26 1008 100 10000 0 0 07:55 22.12.2021
4718 Clear 27 1008 89 10000 2.06 70 05:51 22.12.2021
4719 Clear 27 1008 89 10000 2.06 70 05:31 22.12.2021
4720 Clear 26 1008 94 10000 2.06 80 04:55 22.12.2021
4721 Clear 26 1008 94 10000 2.06 80 04:31 22.12.2021
4722 Clear 26 1008 100 10000 1.54 80 03:34 22.12.2021
4723 Clear 26 1008 94 10000 1.54 80 01:37 22.12.2021
4724 Rain 27 1007 83 10000 1.54 300 23:33 21.12.2021
4725 Rain 27 1006 83 10000 1.54 320 22:29 21.12.2021
4726 Rain 28 1006 83 10000 1.54 340 21:51 21.12.2021
4727 Rain 28 1006 83 10000 1.54 340 21:26 21.12.2021
4728 Rain 28 1006 83 10000 1.03 10 20:23 21.12.2021
4729 Clouds 26 1008 94 9000 2.57 320 19:52 21.12.2021
4730 Clouds 26 1008 94 9000 2.57 320 19:26 21.12.2021
4731 Thunderstorm 32 1008 74 10000 1.54 110 18:22 21.12.2021
4732 Clouds 30 1009 79 10000 2.06 150 17:51 21.12.2021
4733 Clouds 29 1010 79 10000 1.54 140 16:39 21.12.2021
4734 Clouds 28 1010 83 10000 1.03 110 15:29 21.12.2021
4735 Clouds 27 1010 89 10000 1.03 130 13:51 21.12.2021
4736 Clouds 27 1010 89 10000 1.03 130 13:31 21.12.2021
4737 Clouds 25 1008 100 10000 0.51 190 11:57 21.12.2021
4738 Clouds 25 1008 100 10000 0 0 10:37 21.12.2021
4739 Clouds 26 1008 94 10000 1.03 80 09:35 21.12.2021
4740 Clouds 26 1008 94 10000 1.54 60 08:30 21.12.2021
4741 Clear 26 1008 94 10000 0.51 70 07:32 21.12.2021
4742 Clouds 26 1009 94 10000 0 0 06:54 21.12.2021
4743 Clouds 26 1009 100 10000 0.51 70 03:20 21.12.2021
4744 Rain 28 1007 83 10000 2.57 80 00:46 21.12.2021
4745 Thunderstorm 29 1006 79 10000 2.57 80 23:34 20.12.2021
4746 Rain 30 1005 79 10000 1.03 130 22:33 20.12.2021
4747 Rain 31 1005 74 10000 1.03 150 21:48 20.12.2021
4748 Rain 31 1005 74 10000 1.03 150 21:24 20.12.2021
4749 Clouds 30 1006 79 10000 1.03 90 20:48 20.12.2021
4750 Clouds 30 1006 79 10000 1.03 90 19:55 20.12.2021
4751 Clouds 31 1007 70 10000 1.54 170 19:32 20.12.2021
4752 Clouds 31 1007 70 10000 1.54 170 18:55 20.12.2021
4753 Clouds 30 1009 79 10000 1.54 90 17:55 20.12.2021
4754 Clouds 30 1009 79 10000 1.54 90 17:37 20.12.2021
4755 Clouds 30 1010 74 10000 2.06 80 16:42 20.12.2021
4756 Clouds 29 1011 84 10000 1.54 80 15:51 20.12.2021
4757 Clouds 29 1011 84 10000 1.54 80 14:53 20.12.2021
4758 Clouds 27 1010 89 10000 0.51 180 13:18 20.12.2021
4759 Clouds 26 1008 94 10000 1.03 180 11:23 20.12.2021
4760 Clouds 25 1008 94 10000 1.54 210 09:51 20.12.2021
4761 Rain 25 1008 94 10000 1.54 210 09:31 20.12.2021
4762 Rain 25 1008 94 10000 1.54 230 08:42 20.12.2021
4763 Rain 25 1009 88 10000 1.54 240 07:50 20.12.2021
4764 Rain 25 1009 88 10000 1.54 240 07:50 20.12.2021
4765 Rain 25 1009 88 10000 1.54 240 07:30 20.12.2021
4766 Clouds 26 1010 94 10000 2.06 250 04:36 20.12.2021
4767 Rain 27 1007 89 10000 1.54 160 23:59 19.12.2021
4768 Clouds 27 1006 89 10000 1.03 180 22:52 19.12.2021
4769 Rain 28 1006 89 10000 1.54 160 21:50 19.12.2021
4770 Rain 28 1006 89 10000 1.54 160 21:30 19.12.2021
4771 Rain 29 1007 84 10000 1.54 220 20:32 19.12.2021
4772 Rain 29 1007 84 10000 0 0 19:51 19.12.2021
4773 Rain 29 1007 84 10000 0 0 19:22 19.12.2021
4774 Rain 29 1009 84 10000 2.06 250 18:29 19.12.2021
4775 Rain 29 1009 84 10000 2.06 250 18:29 19.12.2021
4776 Rain 30 1009 79 10000 1.54 30 17:53 19.12.2021
4777 Rain 30 1009 79 10000 1.54 30 17:19 19.12.2021
4778 Rain 30 1010 79 10000 1.54 60 16:26 19.12.2021
4779 Rain 30 1010 79 10000 1.54 60 16:26 19.12.2021
4780 Rain 29 1011 84 10000 1.54 70 15:42 19.12.2021
4781 Clouds 29 1011 84 10000 1.54 70 15:20 19.12.2021
4782 Clouds 29 1011 84 10000 0.51 30 14:41 19.12.2021
4783 Clouds 28 1010 89 10000 0.51 70 13:22 19.12.2021
4784 Clouds 27 1010 94 10000 0 0 12:36 19.12.2021
4785 Clouds 27 1010 94 10000 0 0 12:18 19.12.2021
4786 Clouds 26 1009 100 10000 0.51 180 11:18 19.12.2021
4787 Clouds 26 1008 100 10000 1.03 200 10:25 19.12.2021
4788 Mist 26 1008 94 10000 1.54 120 09:37 19.12.2021
4789 Clouds 25 1007 100 10000 1.03 40 08:25 19.12.2021
4790 Rain 26 1010 94 10000 1.03 20 04:45 19.12.2021
4791 Rain 26 1010 94 10000 1.03 20 04:45 19.12.2021
4792 Clouds 26 1009 94 10000 0.51 290 01:19 19.12.2021
4793 Clouds 26 1007 89 10000 2.06 40 00:52 19.12.2021
4794 Rain 27 1007 83 10000 1.54 20 22:36 18.12.2021
4795 Rain 27 1006 83 10000 3.6 10 21:57 18.12.2021
4796 Clouds 27 1006 83 10000 3.6 10 21:35 18.12.2021
4797 Thunderstorm 26 1007 94 10000 3.6 20 20:44 18.12.2021
4798 Clouds 27 1008 89 10000 4.12 20 19:59 18.12.2021
4799 Rain 29 1008 74 10000 4.63 70 19:20 18.12.2021
4800 Clouds 30 1009 79 10000 1.54 80 18:21 18.12.2021
4801 Clouds 30 1010 79 10000 2.57 90 17:48 18.12.2021
4802 Clouds 29 1011 79 10000 2.06 90 16:26 18.12.2021
4803 Clouds 29 1012 84 10000 1.03 130 15:26 18.12.2021
4804 Clouds 27 1012 89 10000 2.06 160 14:32 18.12.2021
4805 Clouds 26 1012 94 10000 1.54 170 13:20 18.12.2021
4806 Clouds 25 1009 100 10000 0.51 160 11:21 18.12.2021
4807 Clouds 25 1008 100 10000 0.51 70 09:39 18.12.2021
4808 Clouds 25 1008 100 10000 0.51 70 08:46 18.12.2021
4809 Clouds 25 1008 100 10000 0.51 70 08:19 18.12.2021
4810 Rain 26 1010 94 10000 0 0 02:20 18.12.2021
4811 Rain 27 1008 83 10000 1.54 270 00:27 18.12.2021
4812 Rain 27 1008 83 10000 3.09 310 23:39 17.12.2021
4813 Clouds 27 1007 83 10000 3.09 350 21:56 17.12.2021
4814 Clouds 27 1006 89 5000 3.09 20 20:51 17.12.2021
4815 Clouds 27 1006 89 5000 3.09 20 20:31 17.12.2021
4816 Clouds 31 1009 70 10000 2.06 60 18:58 17.12.2021
4817 Clouds 31 1009 70 10000 2.06 60 18:38 17.12.2021
4818 Clouds 31 1009 70 10000 2.57 70 17:26 17.12.2021
4819 Clouds 29 1011 79 10000 3.09 60 16:44 17.12.2021
4820 Clouds 29 1011 79 10000 3.09 60 16:19 17.12.2021
4821 Clouds 28 1012 83 10000 2.57 70 15:19 17.12.2021
4822 Clouds 27 1011 89 9000 3.09 70 14:34 17.12.2021
4823 Clouds 25 1010 100 10000 1.54 70 12:46 17.12.2021
4824 Clouds 25 1009 100 10000 1.54 20 11:22 17.12.2021
4825 Clouds 26 1007 94 10000 1.54 60 09:55 17.12.2021
4826 Clouds 26 1007 94 10000 2.57 70 08:58 17.12.2021
4827 Clouds 26 1007 94 10000 2.57 70 08:20 17.12.2021
4828 Clouds 27 1010 89 10000 1.03 80 05:25 17.12.2021
4829 Clouds 27 1009 83 10000 2.57 50 02:52 17.12.2021
4830 Thunderstorm 29 1006 79 10000 4.63 360 22:52 16.12.2021
4831 -273 0 0 0 0 0 22:23 16.12.2021
4832 Thunderstorm 29 1006 79 10000 4.63 360 22:22 16.12.2021
4833 Thunderstorm 31 1005 70 10000 1.03 140 21:44 16.12.2021
4834 Clouds 31 1005 70 10000 1.54 180 20:48 16.12.2021
4835 Clouds 31 1005 70 10000 1.54 180 20:22 16.12.2021
4836 Clouds 31 1007 70 10000 1.54 200 19:31 16.12.2021
4837 Clouds 30 1008 74 10000 2.06 180 18:36 16.12.2021
4838 Clouds 30 1010 74 10000 1.54 140 17:48 16.12.2021
4839 Clouds 28 1011 83 10000 1.54 160 16:37 16.12.2021
4840 Rain 28 1011 83 10000 1.54 160 16:18 16.12.2021
4841 Clouds 27 1011 83 10000 1.03 120 13:47 16.12.2021
4842 Clouds 25 1009 94 10000 1.03 220 12:30 16.12.2021
4843 Clouds 25 1008 94 10000 1.03 200 11:19 16.12.2021
4844 Clouds 25 1009 94 10000 1.54 130 10:41 16.12.2021
4845 Clouds 25 1009 94 10000 1.54 110 09:50 16.12.2021
4846 Rain 25 1010 94 10000 0.51 150 07:18 16.12.2021
4847 Rain 25 1010 94 10000 0.51 120 06:18 16.12.2021
4848 Clouds 25 1007 94 10000 1.54 90 23:59 15.12.2021
4849 Rain 25 1007 94 10000 1.54 90 23:18 15.12.2021
4850 Rain 27 1006 83 10000 1.03 130 22:21 15.12.2021
4851 Rain 27 1007 89 10000 1.03 150 21:44 15.12.2021
4852 Rain 27 1007 89 10000 1.03 150 21:24 15.12.2021
4853 Rain 26 1009 94 10000 1.54 150 19:54 15.12.2021
4854 Rain 26 1009 94 10000 1.54 150 19:18 15.12.2021
4855 Rain 26 1010 94 10000 0.51 60 18:20 15.12.2021
4856 Rain 25 1011 100 10000 1.54 80 17:45 15.12.2021
4857 Rain 25 1011 100 10000 1.54 80 17:21 15.12.2021
4858 Thunderstorm 24 1012 100 2000 3.6 40 15:49 15.12.2021
4859 Thunderstorm 25 1012 100 10000 1.03 190 15:30 15.12.2021
4860 Rain 26 1012 94 10000 1.54 160 14:48 15.12.2021
4861 Thunderstorm 27 1010 89 10000 1.54 30 13:34 15.12.2021
4862 Clouds 26 1009 100 10000 0.51 250 11:52 15.12.2021
4863 Clouds 26 1008 100 10000 0 0 10:20 15.12.2021
4864 Clouds 24 1008 100 10000 0.51 280 08:25 15.12.2021
4865 Clouds 26 1010 100 10000 0.51 80 05:51 15.12.2021
4866 Clear 26 1007 94 10000 0 0 00:37 15.12.2021
4867 Clouds 28 1006 78 10000 0 0 23:27 14.12.2021
4868 Clouds 29 1006 79 10000 1.03 90 22:44 14.12.2021
4869 Clouds 30 1006 74 10000 1.54 70 21:40 14.12.2021
4870 Clouds 30 1007 74 10000 1.03 140 20:21 14.12.2021
4871 Clouds 29 1009 79 10000 2.57 170 19:26 14.12.2021
4872 Clouds 29 1010 79 10000 1.54 150 18:38 14.12.2021
4873 Clouds 29 1010 79 10000 1.54 150 17:53 14.12.2021
4874 Clouds 28 1011 83 10000 1.54 130 16:43 14.12.2021
4875 Clouds 28 1011 83 10000 1.54 130 16:43 14.12.2021
4876 Clouds 27 1011 89 10000 1.03 110 16:18 14.12.2021
4877 Rain 25 1010 94 10000 1.03 180 13:58 14.12.2021
4878 Clouds 25 1009 94 10000 1.03 160 12:48 14.12.2021
4879 Rain 25 1008 94 10000 0.51 40 11:25 14.12.2021
4880 Rain 25 1009 94 10000 1.54 90 10:45 14.12.2021
4881 Rain 25 1009 94 10000 2.06 70 09:54 14.12.2021
4882 Rain 25 1009 100 10000 1.54 90 08:48 14.12.2021
4883 Rain 25 1009 100 10000 1.54 90 08:21 14.12.2021
4884 Rain 25 1009 100 10000 1.54 80 06:40 14.12.2021
4885 Thunderstorm 25 1008 94 5000 1.03 100 23:51 13.12.2021
4886 Rain 29 1007 74 10000 1.54 10 22:24 13.12.2021
4887 Rain 30 1007 74 10000 1.54 90 21:34 13.12.2021
4888 Clouds 29 1007 79 10000 1.03 80 20:51 13.12.2021
4889 Clouds 29 1007 79 10000 1.03 80 20:20 13.12.2021
4890 Rain 31 1008 70 10000 2.57 90 19:49 13.12.2021
4891 Clouds 30 1010 74 10000 1.03 70 17:27 13.12.2021
4892 Clouds 29 1011 79 10000 1.54 90 16:32 13.12.2021
4893 Clouds 28 1011 83 10000 2.57 160 15:43 13.12.2021
4894 Clouds 27 1011 89 10000 1.03 160 14:30 13.12.2021
4895 Clouds 26 1011 94 10000 1.54 200 13:36 13.12.2021
4896 Clouds 25 1010 100 10000 1.03 170 12:39 13.12.2021
4897 Clouds 25 1010 100 10000 0 0 11:50 13.12.2021
4898 Clouds 24 1009 100 10000 1.03 220 11:29 13.12.2021
4899 Clouds 24 1008 100 10000 0 0 10:21 13.12.2021
4900 Rain 24 1007 100 10000 1.03 360 08:43 13.12.2021
4901 Rain 24 1008 100 10000 2.06 20 06:54 13.12.2021
4902 Clouds 24 1009 100 10000 1.03 30 04:52 13.12.2021
4903 Rain 24 1006 100 10000 3.09 360 23:55 12.12.2021
4904 Thunderstorm 24 1006 100 8000 3.09 10 21:57 12.12.2021
4905 Thunderstorm 25 1006 100 3000 4.63 30 20:50 12.12.2021
4906 Rain 31 1006 74 9000 2.57 80 19:35 12.12.2021
4907 Clouds 29 1008 79 5000 2.06 60 17:58 12.12.2021
4908 Clouds 29 1010 79 10000 1.54 60 16:29 12.12.2021
4909 Clouds 28 1010 83 10000 1.54 70 15:54 12.12.2021
4910 Clouds 28 1010 83 10000 1.54 70 15:28 12.12.2021
4911 Clouds 28 1010 78 10000 1.03 40 14:42 12.12.2021
4912 Clouds 26 1010 89 10000 1.54 330 13:56 12.12.2021
4913 Fog 25 1009 94 10000 1.54 340 12:48 12.12.2021
4914 Fog 24 1008 100 10000 1.03 360 11:45 12.12.2021
4915 Fog 24 1008 100 10000 1.03 360 11:25 12.12.2021
4916 Mist 25 1007 94 10000 1.03 340 10:43 12.12.2021
4917 Clouds 25 1006 94 10000 1.03 350 09:48 12.12.2021
4918 Clouds 25 1006 94 10000 1.03 10 08:42 12.12.2021
4919 Clouds 25 1008 94 10000 1.03 350 06:38 12.12.2021
4920 Clouds 25 1008 94 10000 1.54 360 05:28 12.12.2021
4921 Clouds 25 1008 100 10000 1.03 360 04:18 12.12.2021
4922 Rain 25 1006 94 10000 1.03 230 00:45 12.12.2021
4923 Clouds 25 1005 94 10000 2.06 20 22:42 11.12.2021
4924 Clouds 25 1005 94 10000 2.06 20 22:20 11.12.2021
4925 Clouds 25 1005 94 10000 2.06 360 21:25 11.12.2021
4926 Clouds 26 1006 94 10000 1.03 90 19:46 11.12.2021
4927 Rain 26 1006 94 10000 1.03 90 19:20 11.12.2021
4928 Rain 26 1007 94 10000 1.03 250 18:39 11.12.2021
4929 Thunderstorm 25 1008 100 8000 2.06 170 17:41 11.12.2021
4930 Rain 27 1009 94 3000 1.54 180 15:57 11.12.2021
4931 Rain 27 1009 89 5000 1.54 180 15:37 11.12.2021
4932 Rain 27 1009 89 10000 1.54 190 14:21 11.12.2021
4933 Clouds 27 1008 89 10000 0.51 10 12:20 11.12.2021
4934 Clouds 26 1007 94 10000 2.06 310 10:43 11.12.2021
4935 Clouds 26 1006 94 10000 0.51 330 09:38 11.12.2021
4936 Clouds 27 1008 89 10000 2.06 10 03:26 11.12.2021
4937 Clouds 28 1005 83 10000 1.54 40 00:45 11.12.2021
4938 Clouds 29 1004 79 10000 1.54 30 23:40 10.12.2021
4939 Clouds 29 1004 79 10000 1.54 40 22:33 10.12.2021
4940 Clouds 30 1005 74 10000 2.06 10 21:40 10.12.2021
4941 Clouds 30 1005 74 10000 2.57 10 20:22 10.12.2021
4942 Clouds 31 1006 70 10000 1.54 90 19:18 10.12.2021
4943 Clouds 30 1009 74 10000 1.54 130 17:31 10.12.2021
4944 Clouds 29 1011 74 10000 1.03 110 16:34 10.12.2021
4945 Clouds 29 1011 74 10000 1.54 90 15:43 10.12.2021
4946 Clouds 29 1011 74 10000 1.54 90 15:23 10.12.2021
4947 Clouds 28 1010 83 10000 1.03 80 13:53 10.12.2021
4948 Clouds 28 1010 83 10000 1.03 80 13:31 10.12.2021
4949 Clouds 26 1009 94 10000 0.51 80 12:51 10.12.2021
4950 Clouds 25 1009 94 10000 0 0 11:34 10.12.2021
4951 Clouds 25 1009 94 10000 1.03 310 10:50 10.12.2021
4952 Clouds 25 1010 94 10000 1.03 310 09:33 10.12.2021
4953 Clouds 25 1009 94 10000 1.03 320 07:24 10.12.2021
4954 Clouds 25 1010 100 10000 0 0 02:53 10.12.2021
4955 Clouds 25 1009 94 10000 1.03 80 01:32 10.12.2021
4956 Clouds 26 1007 89 10000 1.03 80 23:38 09.12.2021
4957 Clouds 28 1006 78 10000 2.57 40 22:41 09.12.2021
4958 Clouds 28 1006 78 10000 2.57 40 22:20 09.12.2021
4959 Clouds 30 1006 74 10000 3.09 50 21:20 09.12.2021
4960 Clouds 27 1008 83 10000 2.57 60 20:34 09.12.2021
4961 Clouds 28 1010 83 10000 2.57 150 19:22 09.12.2021
4962 Clouds 28 1010 83 10000 2.57 150 18:53 09.12.2021
4963 Rain 26 1012 89 10000 2.57 180 17:57 09.12.2021
4964 Rain 26 1012 89 10000 2.57 180 17:28 09.12.2021
4965 Rain 26 1013 94 10000 2.57 170 16:57 09.12.2021
4966 Rain 26 1013 94 10000 2.57 170 16:20 09.12.2021
4967 Drizzle 26 1012 89 10000 0.51 10 14:52 09.12.2021
4968 Rain 26 1012 94 10000 1.03 50 13:50 09.12.2021
4969 Clouds 26 1011 94 10000 1.03 50 12:47 09.12.2021
4970 Clouds 25 1010 94 10000 0.51 130 11:25 09.12.2021
4971 Clouds 25 1010 94 10000 1.03 30 10:19 09.12.2021
4972 Rain 26 1010 89 10000 2.06 360 06:51 09.12.2021
4973 Clouds 26 1011 83 10000 2.06 10 03:49 09.12.2021
4974 Clouds 28 1008 78 10000 3.09 320 23:50 08.12.2021
4975 Clouds 28 1008 78 10000 3.09 320 23:31 08.12.2021
4976 Clouds 28 1008 78 10000 3.09 320 22:53 08.12.2021
4977 Clouds 30 1007 74 10000 3.6 30 21:50 08.12.2021
4978 Clouds 30 1007 74 10000 3.6 30 21:31 08.12.2021
4979 Clouds 31 1007 66 10000 1.03 140 20:30 08.12.2021
4980 Clouds 31 1008 66 10000 3.09 60 19:48 08.12.2021
4981 Clouds 31 1008 66 10000 3.09 60 18:54 08.12.2021
4982 Clouds 30 1010 74 10000 1.54 80 18:21 08.12.2021
4983 Clouds 29 1012 79 10000 1.03 20 16:44 08.12.2021
4984 Clouds 28 1012 78 10000 1.54 20 15:40 08.12.2021
4985 Clouds 28 1012 78 10000 1.54 20 15:21 08.12.2021
4986 Clouds 26 1012 89 10000 2.57 10 13:21 08.12.2021
4987 Clouds 25 1010 94 10000 2.57 340 10:36 08.12.2021
4988 Clouds 25 1010 94 10000 2.06 330 09:31 08.12.2021
4989 Rain 26 1010 89 10000 2.57 240 07:37 08.12.2021
4990 Clouds 26 1011 94 10000 1.54 350 04:58 08.12.2021
4991 Clouds 26 1009 94 10000 0 0 23:56 07.12.2021
4992 Clouds 25 1009 100 10000 2.06 180 22:37 07.12.2021
4993 Thunderstorm 28 1008 83 10000 1.54 170 21:24 07.12.2021
4994 Clouds 29 1008 79 10000 2.06 170 20:25 07.12.2021
4995 Clouds 29 1010 79 10000 2.57 190 18:56 07.12.2021
4996 Clouds 29 1010 79 10000 2.57 190 18:18 07.12.2021
4997 Clouds 29 1011 74 10000 2.57 200 17:20 07.12.2021
4998 Clouds 29 1012 74 10000 1.54 190 16:36 07.12.2021
4999 Clouds 27 1013 83 10000 1.03 200 15:35 07.12.2021
5000 Clouds 26 1013 83 10000 2.57 260 14:36 07.12.2021
5001 Clouds 25 1013 88 10000 2.57 250 13:19 07.12.2021
5002 Clouds 24 1012 94 10000 2.57 250 12:21 07.12.2021
5003 Clouds 24 1011 100 10000 2.06 280 10:44 07.12.2021
5004 Thunderstorm 23 1010 100 8000 1.54 40 08:46 07.12.2021
5005 Clouds 25 1011 100 10000 1.03 170 06:22 07.12.2021
5006 Clouds 25 1012 100 10000 2.06 230 05:42 07.12.2021
5007 Rain 26 1010 94 10000 2.06 230 00:54 07.12.2021
5008 Clouds 26 1009 94 10000 1.54 230 23:18 06.12.2021
5009 Clouds 27 1008 89 10000 2.57 230 22:39 06.12.2021
5010 Clouds 27 1008 89 10000 2.57 230 21:54 06.12.2021
5011 Rain 27 1009 89 10000 3.09 250 20:44 06.12.2021
5012 Rain 27 1009 89 10000 3.09 250 20:26 06.12.2021
5013 Rain 26 1010 94 10000 3.09 250 19:23 06.12.2021
5014 Rain 26 1011 94 10000 2.06 250 18:29 06.12.2021
5015 Thunderstorm 25 1012 94 5000 1.54 40 17:51 06.12.2021
5016 Rain 24 1013 100 2000 4.12 30 16:56 06.12.2021
5017 Rain 28 1013 89 10000 3.09 30 15:45 06.12.2021
5018 Clouds 27 1012 89 10000 1.03 40 13:47 06.12.2021
5019 Clouds 26 1012 94 10000 1.54 360 12:40 06.12.2021
5020 Clouds 25 1011 100 10000 2.06 350 11:48 06.12.2021
5021 Fog 26 1010 100 10000 2.06 260 09:20 06.12.2021
5022 Clear 27 1011 83 10000 1.54 310 06:43 06.12.2021
5023 Clouds 27 1008 89 10000 0 0 23:52 05.12.2021
5024 Clouds 28 1007 83 10000 1.54 80 21:52 05.12.2021
5025 Clouds 28 1007 83 10000 1.54 80 21:24 05.12.2021
5026 Clouds 28 1008 83 10000 1.03 90 20:19 05.12.2021
5027 Clouds 26 1009 94 10000 1.03 30 19:36 05.12.2021
5028 Clouds 26 1009 94 10000 1.03 30 19:18 05.12.2021
5029 Rain 25 1011 94 10000 3.09 70 18:20 05.12.2021
5030 Thunderstorm 24 1012 100 2000 5.66 40 17:48 05.12.2021
5031 Clouds 30 1013 74 10000 2.57 70 16:50 05.12.2021
5032 Clouds 30 1013 74 10000 2.57 70 16:27 05.12.2021
5033 Clouds 29 1013 74 10000 3.09 70 15:49 05.12.2021
5034 Clouds 28 1013 83 10000 3.09 60 14:43 05.12.2021
5035 Clouds 28 1013 83 10000 3.09 60 14:25 05.12.2021
5036 Clouds 27 1013 83 10000 3.09 50 13:22 05.12.2021
5037 Clouds 26 1012 94 10000 2.06 70 12:40 05.12.2021
5038 Clouds 26 1012 94 10000 2.06 70 12:18 05.12.2021
5039 Clouds 25 1011 94 10000 2.06 40 11:30 05.12.2021
5040 Clouds 25 1009 94 10000 1.54 10 09:59 05.12.2021
5041 Clouds 25 1010 94 10000 0 0 08:29 05.12.2021
5042 Clear 25 1012 100 10000 2.06 20 03:39 05.12.2021
5043 Rain 25 1009 94 10000 2.06 30 23:45 04.12.2021
5044 Clouds 25 1008 94 7000 4.63 10 21:55 04.12.2021
5045 Clouds 29 1008 79 10000 1.03 90 20:57 04.12.2021
5046 Clouds 29 1008 79 10000 1.03 90 20:27 04.12.2021
5047 Clouds 28 1010 83 10000 1.03 70 19:32 04.12.2021
5048 Clouds 29 1011 74 10000 1.54 150 18:21 04.12.2021
5049 Clouds 28 1011 78 10000 1.54 240 17:40 04.12.2021
5050 Clouds 28 1012 74 6000 1.54 220 16:52 04.12.2021
5051 Clouds 28 1013 78 10000 2.06 190 16:31 04.12.2021
5052 Clouds 27 1013 83 10000 1.54 150 15:57 04.12.2021
5053 Mist 25 1011 88 10000 1.54 170 11:54 04.12.2021
5054 Mist 25 1010 94 10000 1.54 170 11:32 04.12.2021
5055 Mist 25 1010 94 10000 1.54 170 10:56 04.12.2021
5056 Fog 25 1009 94 10000 1.03 220 08:49 04.12.2021
5057 Clouds 25 1010 94 10000 1.03 210 06:42 04.12.2021
5058 Clouds 25 1011 94 10000 1.03 210 04:42 04.12.2021
5059 Clouds 25 1009 100 10000 0.51 140 00:35 04.12.2021
5060 Clouds 25 1008 100 10000 0 0 23:27 03.12.2021
5061 Clouds 26 1007 94 10000 1.54 90 22:47 03.12.2021
5062 Clouds 25 1007 94 10000 1.03 90 21:26 03.12.2021
5063 Thunderstorm 25 1008 94 8000 3.09 60 20:55 03.12.2021
5064 Thunderstorm 25 1008 94 8000 3.09 60 20:26 03.12.2021
5065 Thunderstorm 28 1009 83 10000 1.03 70 18:44 03.12.2021
5066 Rain 30 1010 70 10000 1.03 190 17:59 03.12.2021
5067 Clouds 28 1011 78 10000 1.03 220 16:33 03.12.2021
5068 Clouds 25 1011 94 8000 2.06 240 12:59 03.12.2021
5069 Drizzle 25 1011 94 4000 1.03 240 12:20 03.12.2021
5070 Clouds 25 1009 88 10000 2.57 310 10:56 03.12.2021
5071 Clouds 25 1008 88 10000 2.06 330 08:29 03.12.2021
5072 Clouds 26 1009 83 10000 2.06 330 07:43 03.12.2021
5073 Clear 26 1011 83 10000 1.54 20 04:44 03.12.2021
5074 Clouds 26 1009 83 10000 2.57 30 00:48 03.12.2021
5075 Rain 26 1008 83 10000 3.09 20 23:47 02.12.2021
5076 Clouds 27 1007 74 10000 3.09 30 22:36 02.12.2021
5077 Clouds 27 1008 78 10000 6.69 20 21:41 02.12.2021
5078 Clouds 30 1008 66 10000 2.06 160 20:40 02.12.2021
5079 Clouds 30 1008 66 10000 2.06 160 20:20 02.12.2021
5080 Clouds 29 1010 74 10000 2.06 180 18:35 02.12.2021
5081 Clouds 28 1013 78 10000 2.57 180 16:33 02.12.2021
5082 Clouds 27 1013 83 10000 1.54 160 15:30 02.12.2021
5083 Clouds 27 1013 83 10000 0.51 110 14:51 02.12.2021
5084 Clouds 26 1013 89 10000 1.54 180 12:53 02.12.2021
5085 Clouds 24 1012 100 10000 0.51 190 12:19 02.12.2021
5086 Clouds 25 1010 94 10000 1.54 170 10:41 02.12.2021
5087 Clouds 24 1009 100 10000 1.03 220 09:25 02.12.2021
5088 Clouds 26 1010 89 10000 2.06 160 06:45 02.12.2021
5089 Thunderstorm 27 1009 83 10000 2.06 170 00:57 02.12.2021
5090 Rain 29 1008 74 10000 1.03 200 23:30 01.12.2021
5091 Clouds 29 1007 79 10000 2.06 230 22:25 01.12.2021
5092 Clouds 31 1007 66 10000 0.51 230 21:42 01.12.2021
5093 Clouds 32 1008 66 10000 0.51 170 19:59 01.12.2021
5094 Clouds 32 1008 66 10000 0.51 170 19:36 01.12.2021
5095 Clouds 32 1011 66 10000 1.54 100 17:50 01.12.2021
5096 Clouds 30 1012 79 10000 1.03 110 16:58 01.12.2021
5097 Clouds 30 1012 79 10000 1.03 110 15:20 01.12.2021
5098 Clouds 28 1012 89 10000 1.03 190 13:49 01.12.2021
5099 Clouds 28 1012 89 10000 1.03 190 13:30 01.12.2021
5100 Clouds 26 1008 100 10000 1.03 240 10:43 01.12.2021
5101 Clouds 26 1008 100 10000 1.03 240 09:56 01.12.2021
5102 Clear 26 1008 100 10000 1.03 270 08:40 01.12.2021
5103 Clear 26 1009 100 10000 0.51 170 07:38 01.12.2021
5104 Clear 26 1009 100 10000 0.51 170 07:19 01.12.2021
5105 Clouds 27 1010 94 10000 1.03 190 03:47 01.12.2021
5106 Clouds 26 1009 89 10000 0 0 02:34 01.12.2021
5107 Clouds 28 1006 78 10000 2.06 60 23:57 30.11.2021
5108 Clouds 28 1006 78 10000 2.06 60 23:28 30.11.2021
5109 Clouds 29 1006 84 10000 2.57 80 21:55 30.11.2021
5110 Rain 29 1007 79 10000 2.06 70 20:46 30.11.2021
5111 Rain 29 1007 79 10000 2.06 70 20:19 30.11.2021
5112 Clouds 31 1008 70 10000 2.06 80 19:38 30.11.2021
5113 Clouds 32 1009 66 10000 2.57 70 18:42 30.11.2021
5114 Clouds 32 1010 70 10000 3.6 70 17:21 30.11.2021
5115 Clouds 31 1012 74 10000 1.54 110 15:44 30.11.2021
5116 Clear 29 1012 79 10000 1.03 230 14:23 30.11.2021
5117 Clear 30 1011 79 10000 0 0 13:28 30.11.2021
5118 Clear 28 1010 83 10000 0 0 12:52 30.11.2021
5119 Clear 26 1010 89 10000 1.03 360 11:50 30.11.2021
5120 Clear 26 1010 89 10000 1.03 360 11:25 30.11.2021
5121 Clear 25 1009 88 10000 1.54 30 10:34 30.11.2021
5122 Clear 25 1008 88 10000 1.54 50 08:53 30.11.2021
5123 Clear 25 1009 88 10000 1.54 20 08:31 30.11.2021
5124 Clear 26 1009 83 10000 1.54 40 07:48 30.11.2021
5125 Clear 26 1009 83 10000 2.57 10 02:41 30.11.2021
5126 Clear 27 1008 78 10000 3.09 360 01:43 30.11.2021
5127 Clear 27 1007 78 10000 3.6 10 00:33 30.11.2021
5128 Clear 28 1006 69 10000 3.6 20 23:25 29.11.2021
5129 Clear 29 1005 65 10000 4.12 30 22:57 29.11.2021
5130 Clear 29 1005 65 10000 4.12 30 22:34 29.11.2021
5131 Clouds 30 1005 66 10000 4.12 50 21:39 29.11.2021
5132 Clouds 30 1005 66 10000 4.12 50 21:18 29.11.2021
5133 Clouds 29 1007 70 10000 4.12 30 20:40 29.11.2021
5134 Clouds 29 1007 70 10000 4.12 30 19:56 29.11.2021
5135 Clouds 27 1008 78 10000 3.09 10 19:36 29.11.2021
5136 Thunderstorm 25 1009 94 10000 2.57 20 18:52 29.11.2021
5137 Clouds 32 1008 59 10000 1.29 76 17:55 29.11.2021
5138 Clouds 32 1009 58 10000 1.41 60 17:18 29.11.2021
5139 Clouds 30 1010 63 10000 1.74 61 16:29 29.11.2021
5140 Clouds 30 1010 63 10000 1.74 61 15:52 29.11.2021
5141 Clouds 29 1011 75 10000 1.55 76 14:43 29.11.2021
5142 Clouds 27 1011 82 10000 1.38 82 13:34 29.11.2021
5143 Clouds 26 1011 84 10000 1.25 85 12:37 29.11.2021
5144 Clouds 25 1010 89 10000 1.51 84 11:40 29.11.2021
5145 Clouds 23 1009 93 10000 1.5 71 10:51 29.11.2021
5146 Clouds 26 1008 94 10000 1.03 180 09:36 29.11.2021
5147 Clear 26 1010 89 10000 2.06 240 06:21 29.11.2021
5148 Clear 26 1010 94 10000 1.03 260 02:28 29.11.2021
5149 Clouds 27 1009 89 10000 3.09 260 00:42 29.11.2021
5150 Clouds 28 1007 83 10000 2.57 260 23:44 28.11.2021
5151 Clouds 28 1007 83 10000 2.57 260 23:23 28.11.2021
5152 Clouds 29 1007 79 10000 1.54 80 21:49 28.11.2021
5153 Clouds 29 1007 79 10000 1.54 80 21:23 28.11.2021
5154 Clouds 29 1007 74 10000 1.54 20 20:33 28.11.2021
5155 Thunderstorm 29 1008 79 10000 3.09 0 19:25 28.11.2021
5156 Thunderstorm 31 1009 70 10000 2.06 150 18:35 28.11.2021
5157 Thunderstorm 30 1010 79 10000 2.06 110 17:55 28.11.2021
5158 Clouds 30 1011 84 10000 1.54 90 17:31 28.11.2021
5159 Clouds 28 1012 83 10000 1.54 180 16:40 28.11.2021
5160 Clouds 28 1012 83 10000 1.54 180 16:18 28.11.2021
5161 Clouds 28 1012 83 10000 1.03 70 15:31 28.11.2021
5162 Clouds 27 1012 94 10000 0.51 10 14:46 28.11.2021
5163 Mist 27 1011 89 10000 0.51 20 13:18 28.11.2021
5164 Fog 26 1011 94 10000 0 0 12:46 28.11.2021
5165 Fog 25 1009 94 10000 0.51 20 10:58 28.11.2021
5166 Fog 25 1009 94 10000 0.51 20 10:21 28.11.2021
5167 Fog 25 1009 100 10000 0.51 10 09:37 28.11.2021
5168 Fog 25 1009 100 10000 1.54 360 07:32 28.11.2021
5169 Clouds 25 1008 94 10000 0 0 23:56 27.11.2021
5170 Rain 26 1008 89 10000 2.57 20 20:51 27.11.2021
5171 Thunderstorm 26 1009 94 10000 3.6 360 19:18 27.11.2021
5172 Thunderstorm 26 1009 94 10000 3.6 360 19:18 27.11.2021
5173 Clouds 30 1012 74 10000 1.54 150 16:56 27.11.2021
5174 Clouds 29 1013 79 10000 1.54 170 15:57 27.11.2021
5175 Clouds 26 1012 94 10000 1.03 240 13:48 27.11.2021
5176 Clouds 25 1011 94 10000 1.03 210 12:55 27.11.2021
5177 Clouds 25 1010 94 10000 1.54 270 10:48 27.11.2021
5178 Clouds 25 1010 94 10000 1.54 270 09:53 27.11.2021
5179 Clouds 24 1009 94 10000 1.54 310 08:43 27.11.2021
5180 Clouds 25 1011 94 10000 2.06 290 05:18 27.11.2021
5181 Clouds 25 1009 94 10000 1.54 350 01:55 27.11.2021
5182 Clouds 25 1008 94 10000 0 0 23:35 26.11.2021
5183 Clouds 25 1008 94 10000 1.03 160 22:25 26.11.2021
5184 Clouds 25 1008 94 10000 1.54 210 21:36 26.11.2021
5185 Clouds 24 1008 94 10000 2.06 70 20:53 26.11.2021
5186 Clouds 24 1008 94 10000 2.06 70 20:19 26.11.2021
5187 Clouds 24 1009 94 9000 1.54 30 19:47 26.11.2021
5188 Thunderstorm 24 1011 94 4000 2.06 30 18:33 26.11.2021
5189 Thunderstorm 23 1012 100 4000 4.12 60 17:23 26.11.2021
5190 Rain 25 1012 83 3000 3.09 70 15:57 26.11.2021
5191 Clouds 28 1012 89 10000 0 0 13:36 26.11.2021
5192 Clouds 26 1011 94 10000 0 0 12:34 26.11.2021
5193 Clouds 25 1009 100 10000 1.54 270 10:38 26.11.2021
5194 Clouds 25 1009 100 10000 1.03 210 08:59 26.11.2021
5195 Clouds 25 1009 100 10000 1.03 210 08:21 26.11.2021
5196 Clear 25 1010 94 10000 1.54 310 07:29 26.11.2021
5197 Clear 26 1010 89 10000 1.03 280 06:27 26.11.2021
5198 Clear 27 1012 78 10000 1.54 30 04:51 26.11.2021
5199 Clear 26 1011 89 10000 0 0 02:52 26.11.2021
5200 Clouds 29 1007 79 10000 3.09 250 23:27 25.11.2021
5201 Clouds 29 1007 70 10000 3.6 360 21:48 25.11.2021
5202 Rain 31 1008 66 10000 3.6 260 20:29 25.11.2021
5203 Rain 33 1009 62 10000 1.03 80 18:48 25.11.2021
5204 Clouds 32 1010 66 10000 2.57 260 17:48 25.11.2021
5205 Clouds 32 1010 66 10000 2.57 260 17:26 25.11.2021
5206 Clouds 32 1011 70 10000 2.06 80 16:33 25.11.2021
5207 Clouds 31 1012 70 10000 1.54 160 15:49 25.11.2021
5208 Clear 31 1012 70 10000 1.03 160 14:19 25.11.2021
5209 Clear 29 1011 74 10000 0 0 12:28 25.11.2021
5210 Clear 26 1010 83 10000 1.03 40 11:51 25.11.2021
5211 Clouds 27 1009 78 10000 1.03 260 09:41 25.11.2021
5212 Clear 27 1010 94 10000 0.51 360 06:22 25.11.2021
5213 Clear 28 1009 74 10000 1.03 50 02:52 25.11.2021
5214 Clouds 30 1006 66 10000 2.06 80 23:31 24.11.2021
5215 Clouds 31 1007 66 10000 3.09 70 22:26 24.11.2021
5216 Clouds 33 1007 58 10000 1.54 90 21:38 24.11.2021
5217 Clouds 33 1007 58 10000 1.54 90 20:53 24.11.2021
5218 Clouds 33 1007 58 10000 2.06 100 20:26 24.11.2021
5219 Clouds 33 1010 62 10000 2.57 80 18:31 24.11.2021
5220 Clouds 33 1011 62 10000 1.54 110 17:59 24.11.2021
5221 Clouds 31 1013 74 10000 1.54 70 15:47 24.11.2021
5222 Clouds 30 1013 74 10000 1.03 100 14:54 24.11.2021
5223 Clouds 30 1013 74 10000 1.03 100 14:20 24.11.2021
5224 Clear 27 1011 89 10000 1.03 40 12:50 24.11.2021
5225 Clear 25 1010 100 10000 0 0 11:22 24.11.2021
5226 Clear 25 1009 100 10000 0.51 40 10:49 24.11.2021
5227 Clear 25 1009 100 10000 0.51 40 10:27 24.11.2021
5228 Clear 25 1009 100 10000 1.03 70 07:56 24.11.2021
5229 Clear 25 1009 100 10000 0.51 80 06:56 24.11.2021
5230 Clear 26 1010 94 10000 1.54 70 03:57 24.11.2021
5231 Clouds 26 1008 94 10000 0 0 00:58 24.11.2021
5232 Clouds 28 1008 83 10000 1.03 140 22:59 23.11.2021
5233 Clouds 29 1007 79 10000 0 0 22:34 23.11.2021
5234 Clouds 29 1007 74 10000 2.06 70 21:45 23.11.2021
5235 Clouds 31 1008 66 10000 2.06 70 20:21 23.11.2021
5236 Clouds 31 1010 66 10000 1.54 130 18:44 23.11.2021
5237 Clouds 31 1010 66 10000 1.54 130 18:24 23.11.2021
5238 Clouds 30 1012 74 10000 1.54 160 17:23 23.11.2021
5239 Clouds 29 1012 74 10000 1.54 80 16:35 23.11.2021
5240 Clouds 29 1013 74 10000 2.57 70 15:23 23.11.2021
5241 Clouds 28 1013 78 10000 1.54 50 14:32 23.11.2021
5242 Clouds 25 1012 94 10000 1.03 80 11:57 23.11.2021
5243 Clear 24 1010 94 10000 2.06 70 10:24 23.11.2021
5244 Clouds 24 1010 100 10000 1.54 60 09:23 23.11.2021
5245 Clouds 24 1010 100 10000 2.06 60 07:28 23.11.2021
5246 Clouds 25 1011 88 10000 2.06 60 03:56 23.11.2021
5247 Clouds 25 1011 88 10000 1.54 60 03:25 23.11.2021
5248 Clouds 25 1008 94 10000 2.06 30 23:23 22.11.2021
5249 Rain 25 1008 94 10000 2.06 360 22:53 22.11.2021
5250 Rain 25 1008 94 10000 2.06 360 22:29 22.11.2021
5251 Clouds 26 1008 89 9000 1.03 80 21:44 22.11.2021
5252 Clouds 25 1008 94 5000 4.12 330 20:56 22.11.2021
5253 Clouds 26 1008 94 500 4.12 350 19:58 22.11.2021
5254 Clouds 31 1008 66 10000 3.09 240 19:19 22.11.2021
5255 Clouds 30 1010 70 10000 3.6 230 18:40 22.11.2021
5256 Clouds 29 1011 79 10000 4.12 250 17:45 22.11.2021
5257 Clouds 29 1012 79 10000 3.09 240 16:22 22.11.2021
5258 Clouds 28 1013 78 10000 1.54 300 14:20 22.11.2021
5259 Clouds 26 1011 89 10000 1.54 290 12:43 22.11.2021
5260 Clouds 25 1009 94 10000 0 0 10:43 22.11.2021
5261 Clouds 25 1009 100 10000 1.03 230 09:48 22.11.2021
5262 Clouds 25 1009 94 10000 1.54 250 08:41 22.11.2021
5263 Clear 24 1010 94 10000 1.54 210 06:43 22.11.2021
5264 Clouds 27 1007 83 10000 2.06 220 23:35 21.11.2021
5265 Clouds 29 1007 74 10000 2.06 180 22:51 21.11.2021
5266 Clouds 29 1007 74 10000 2.06 180 22:18 21.11.2021
5267 Clouds 29 1008 74 10000 1.54 220 20:42 21.11.2021
5268 Clouds 28 1010 78 10000 1.54 210 19:59 21.11.2021
5269 Clouds 27 1011 83 10000 2.57 220 18:25 21.11.2021
5270 Clouds 27 1013 83 10000 2.06 200 17:39 21.11.2021
5271 Clouds 27 1013 83 10000 2.06 170 16:42 21.11.2021
5272 Clouds 28 1013 74 10000 1.54 330 14:46 21.11.2021
5273 Clouds 26 1012 89 10000 1.54 300 13:47 21.11.2021
5274 Clouds 24 1012 100 10000 1.03 240 12:37 21.11.2021
5275 Clouds 24 1012 100 10000 1.03 240 11:54 21.11.2021
5276 Clouds 24 1011 94 10000 1.54 220 11:35 21.11.2021
5277 Clouds 23 1011 100 10000 0.51 180 10:19 21.11.2021
5278 Rain 23 1010 94 10000 1.54 310 08:45 21.11.2021
5279 Rain 23 1010 94 10000 1.54 310 08:25 21.11.2021
5280 Thunderstorm 23 1011 100 10000 3.09 320 07:48 21.11.2021
5281 Thunderstorm 23 1012 94 8000 1.54 70 05:55 21.11.2021
5282 Rain 23 1012 94 8000 1.54 70 05:25 21.11.2021
5283 Thunderstorm 28 1011 89 10000 2.06 270 03:19 21.11.2021
5284 Rain 27 1011 94 10000 1.54 260 02:52 21.11.2021
5285 Clouds 27 1008 89 10000 1.03 220 00:59 21.11.2021
5286 Clouds 27 1008 89 10000 1.03 220 23:55 20.11.2021
5287 Clouds 30 1007 74 10000 1.54 240 21:46 20.11.2021
5288 Clouds 30 1007 74 10000 1.54 240 21:27 20.11.2021
5289 Clouds 30 1010 74 10000 1.54 180 18:46 20.11.2021
5290 Clouds 30 1010 74 10000 1.54 180 18:26 20.11.2021
5291 Clouds 29 1011 79 10000 1.03 170 17:26 20.11.2021
5292 Clouds 28 1012 78 10000 1.54 210 16:57 20.11.2021
5293 Clouds 27 1012 78 10000 1.03 200 14:47 20.11.2021
5294 Clouds 27 1012 78 10000 1.03 200 14:25 20.11.2021
5295 Clouds 24 1011 94 10000 1.03 210 12:22 20.11.2021
5296 Clouds 23 1010 100 10000 1.54 200 10:52 20.11.2021
5297 Rain 23 1009 100 10000 1.54 180 09:39 20.11.2021
5298 Thunderstorm 23 1010 94 5000 1.03 130 07:37 20.11.2021
5299 Rain 26 1012 94 10000 0.51 160 05:28 20.11.2021
5300 Clouds 26 1011 94 10000 1.54 180 04:50 20.11.2021
5301 Clouds 26 1010 83 10000 2.06 270 01:58 20.11.2021
5302 Clouds 26 1009 89 10000 2.06 250 00:40 20.11.2021
5303 Thunderstorm 27 1008 83 10000 1.54 190 23:41 19.11.2021
5304 Clouds 29 1007 74 10000 2.57 20 22:21 19.11.2021
5305 Clouds 29 1006 79 10000 2.57 240 20:58 19.11.2021
5306 Thunderstorm 30 1007 74 10000 2.57 240 20:36 19.11.2021
5307 Clouds 30 1009 70 10000 3.6 250 19:55 19.11.2021
5308 Clouds 29 1010 79 10000 1.54 170 18:54 19.11.2021
5309 Clouds 29 1010 79 10000 1.54 170 18:23 19.11.2021
5310 Clouds 28 1011 83 10000 2.06 190 17:31 19.11.2021
5311 Clouds 28 1012 83 10000 1.03 120 15:58 19.11.2021
5312 Clouds 27 1012 89 10000 1.03 160 13:55 19.11.2021
5313 Clouds 24 1009 100 10000 0 0 10:28 19.11.2021
5314 Clouds 24 1009 100 10000 0 0 10:28 19.11.2021
5315 Clouds 24 1009 100 10000 0 0 09:38 19.11.2021
5316 Clouds 25 1009 94 10000 1.03 10 08:24 19.11.2021
5317 Clouds 24 1011 100 10000 0 0 04:53 19.11.2021
5318 Rain 25 1010 88 10000 2.06 70 02:35 19.11.2021
5319 Clouds 25 1007 94 10000 1.03 40 23:51 18.11.2021
5320 Rain 26 1006 89 10000 2.06 30 21:56 18.11.2021
5321 Clouds 25 1008 94 10000 1.54 80 20:49 18.11.2021
5322 Clouds 25 1008 94 10000 1.54 80 20:31 18.11.2021
5323 Clouds 25 1010 94 10000 2.06 70 19:52 18.11.2021
5324 Rain 25 1010 94 10000 2.06 70 19:33 18.11.2021
5325 Rain 25 1011 94 10000 2.57 50 18:33 18.11.2021
5326 Rain 25 1012 94 10000 2.57 80 17:51 18.11.2021
5327 Rain 25 1013 94 10000 2.57 80 16:44 18.11.2021
5328 Drizzle 24 1013 100 10000 1.54 80 15:46 18.11.2021
5329 Rain 24 1012 94 5000 1.03 40 13:31 18.11.2021
5330 Rain 23 1011 100 7000 3.09 20 12:34 18.11.2021
5331 Rain 24 1011 94 7000 3.09 350 11:42 18.11.2021
5332 Rain 24 1011 94 7000 3.09 350 11:24 18.11.2021
5333 Rain 24 1010 94 10000 2.06 330 09:44 18.11.2021
5334 Rain 24 1009 100 7000 4.12 360 07:35 18.11.2021
5335 Rain 26 1010 89 10000 3.6 350 05:55 18.11.2021
5336 Clouds 26 1010 89 10000 3.6 350 05:36 18.11.2021
5337 Rain 25 1009 94 10000 0.51 110 01:24 18.11.2021
5338 Rain 25 1007 94 10000 0 0 23:18 17.11.2021
5339 Rain 26 1006 83 10000 0.51 220 22:21 17.11.2021
5340 Rain 26 1006 83 10000 3.09 80 21:39 17.11.2021
5341 Rain 28 1006 78 10000 3.6 60 20:58 17.11.2021
5342 Clouds 31 1008 70 10000 3.6 60 18:34 17.11.2021
5343 Clouds 30 1010 74 10000 2.06 90 17:28 17.11.2021
5344 Clouds 26 1011 94 10000 1.03 80 14:52 17.11.2021
5345 Clouds 25 1010 100 7000 1.03 160 12:41 17.11.2021
5346 Clouds 25 1010 100 7000 1.03 160 11:49 17.11.2021
5347 Clouds 25 1008 94 10000 1.54 70 10:32 17.11.2021
5348 Clouds 24 1008 94 10000 1.54 70 09:25 17.11.2021
5349 Clouds 24 1008 94 10000 1.54 80 07:44 17.11.2021
5350 Clouds 25 1009 94 10000 2.06 360 04:47 17.11.2021
5351 Clouds 24 1010 100 10000 2.06 20 02:37 17.11.2021
5352 Thunderstorm 24 1007 100 5000 4.63 30 23:27 16.11.2021
5353 Rain 27 1006 83 10000 0.51 30 21:27 16.11.2021
5354 Thunderstorm 26 1006 89 10000 3.09 340 20:18 16.11.2021
5355 Rain 31 1008 70 10000 2.57 50 18:54 16.11.2021
5356 Clouds 31 1008 70 10000 2.57 50 18:35 16.11.2021
5357 Clouds 31 1010 70 10000 1.54 80 17:43 16.11.2021
5358 Clouds 30 1011 70 10000 2.57 50 16:52 16.11.2021
5359 Clouds 30 1011 70 10000 2.57 50 16:18 16.11.2021
5360 Clouds 29 1011 79 10000 2.57 70 15:40 16.11.2021
5361 Clouds 25 1009 94 10000 1.03 320 12:34 16.11.2021
5362 Clouds 24 1008 100 10000 0.51 80 09:49 16.11.2021
5363 Thunderstorm 25 1008 94 8000 0.51 170 08:50 16.11.2021
5364 Thunderstorm 25 1009 94 8000 1.54 80 07:34 16.11.2021
5365 Clouds 26 1010 94 10000 1.03 160 04:45 16.11.2021
5366 Rain 25 1006 100 10000 0 0 23:23 15.11.2021
5367 Rain 26 1006 89 10000 4.63 250 22:40 15.11.2021
5368 Thunderstorm 26 1006 89 10000 5.66 330 21:55 15.11.2021
5369 Rain 26 1006 89 10000 5.66 330 21:30 15.11.2021
5370 Rain 32 1005 62 10000 1.03 140 20:29 15.11.2021
5371 Clouds 32 1006 66 10000 3.09 350 18:53 15.11.2021
5372 Clouds 30 1010 79 10000 1.03 150 16:56 15.11.2021
5373 Clouds 29 1011 84 10000 1.54 200 15:48 15.11.2021
5374 Clouds 29 1011 84 10000 1.54 200 15:29 15.11.2021
5375 Clouds 29 1011 79 10000 0.51 40 13:49 15.11.2021
5376 Clear 27 1010 94 10000 0 0 12:18 15.11.2021
5377 Clear 26 1007 89 10000 1.03 40 09:30 15.11.2021
5378 Clear 26 1007 94 10000 1.03 10 07:59 15.11.2021
5379 Clear 26 1009 94 10000 1.54 80 05:25 15.11.2021
5380 Thunderstorm 27 1008 83 10000 2.57 40 00:32 15.11.2021
5381 Thunderstorm 30 1006 79 10000 1.03 180 22:38 14.11.2021
5382 Clouds 30 1006 74 10000 1.03 100 20:51 14.11.2021
5383 Clouds 31 1007 66 10000 1.54 10 19:18 14.11.2021
5384 Thunderstorm 32 1009 62 10000 1.54 250 18:54 14.11.2021
5385 Thunderstorm 32 1009 62 10000 1.54 250 18:36 14.11.2021
5386 Thunderstorm 32 1009 62 10000 1.54 250 18:18 14.11.2021
5387 Thunderstorm 32 1009 66 10000 1.54 170 17:57 14.11.2021
5388 Thunderstorm 32 1009 66 10000 1.54 170 17:39 14.11.2021
5389 Clouds 32 1010 66 10000 1.03 210 17:21 14.11.2021
5390 Clouds 31 1011 74 10000 2.57 200 16:49 14.11.2021
5391 Clouds 31 1011 74 10000 2.57 200 16:21 14.11.2021
5392 Clouds 30 1012 74 10000 2.06 160 15:51 14.11.2021
5393 Clouds 30 1012 74 10000 2.06 160 15:19 14.11.2021
5394 Clouds 29 1012 84 10000 1.03 340 14:33 14.11.2021
5395 Clouds 28 1012 83 10000 1.54 70 13:59 14.11.2021
5396 Clouds 28 1012 83 10000 1.54 70 13:40 14.11.2021
5397 Clouds 27 1011 94 10000 0.51 80 12:45 14.11.2021
5398 Clouds 27 1011 94 10000 0.51 80 12:18 14.11.2021
5399 Clouds 26 1009 94 10000 1.03 30 10:50 14.11.2021
5400 Clouds 26 1009 94 10000 1.03 30 10:27 14.11.2021
5401 Clouds 26 1009 94 10000 1.03 10 08:57 14.11.2021
5402 Clouds 26 1009 94 10000 0 0 07:28 14.11.2021
5403 Clouds 27 1009 83 10000 1.03 180 01:25 14.11.2021
5404 Rain 28 1007 78 10000 2.57 260 22:27 13.11.2021
5405 Rain 29 1006 79 10000 3.09 270 21:57 13.11.2021
5406 Rain 29 1006 79 10000 3.09 270 21:27 13.11.2021
5407 Clouds 28 1008 78 10000 2.57 310 19:50 13.11.2021
5408 Thunderstorm 26 1009 89 8000 4.63 340 18:48 13.11.2021
5409 Thunderstorm 26 1009 89 8000 4.63 340 18:26 13.11.2021
5410 Thunderstorm 29 1010 74 10000 1.54 190 16:48 13.11.2021
5411 Clouds 28 1012 89 10000 3.09 250 15:41 13.11.2021
5412 Clouds 29 1012 84 10000 2.57 250 14:34 13.11.2021
5413 Clouds 28 1012 83 10000 2.57 230 13:45 13.11.2021
5414 Clouds 27 1011 89 10000 2.57 240 12:38 13.11.2021
5415 Clouds 26 1010 94 10000 2.06 240 11:39 13.11.2021
5416 Clouds 25 1010 94 10000 1.03 220 10:45 13.11.2021
5417 Clouds 25 1010 94 10000 1.03 220 10:23 13.11.2021
5418 Clouds 25 1010 94 10000 1.03 220 10:23 13.11.2021
5419 Clouds 25 1010 94 10000 1.03 220 10:23 13.11.2021
5420 Clouds 25 1010 94 10000 1.03 230 09:38 13.11.2021
5421 Clouds 25 1010 94 10000 1.03 230 08:59 13.11.2021
5422 Clouds 25 1010 94 10000 1.03 230 08:34 13.11.2021
5423 Clear 26 1010 89 10000 0 0 06:27 13.11.2021
5424 Clear 27 1011 83 10000 0 0 04:32 13.11.2021
5425 Clear 27 1011 83 10000 1.03 270 01:54 13.11.2021
5426 Clouds 28 1008 74 10000 1.54 20 22:59 12.11.2021
5427 Clouds 30 1007 66 10000 5.14 50 21:50 12.11.2021
5428 Clouds 32 1008 62 10000 1.54 120 20:18 12.11.2021
5429 Clouds 32 1009 70 10000 2.06 90 19:28 12.11.2021
5430 Clouds 31 1010 66 10000 2.06 150 18:46 12.11.2021
5431 Clouds 30 1013 66 10000 3.09 60 16:39 12.11.2021
5432 Clouds 29 1013 74 10000 2.57 60 15:34 12.11.2021
5433 Clouds 25 1012 94 10000 2.57 40 12:54 12.11.2021
5434 Clouds 25 1012 94 10000 2.57 40 12:54 12.11.2021
5435 Clouds 25 1011 94 10000 2.06 80 10:58 12.11.2021
5436 Clouds 25 1010 94 10000 1.54 70 09:45 12.11.2021
5437 Clouds 25 1010 94 10000 1.54 80 08:39 12.11.2021
5438 Clouds 25 1012 94 10000 1.03 80 03:27 12.11.2021
5439 Clouds 25 1009 94 10000 2.06 70 23:42 11.11.2021
5440 Drizzle 25 1008 94 10000 0 0 22:39 11.11.2021
5441 Rain 25 1008 100 10000 0.51 170 21:28 11.11.2021
5442 Rain 25 1008 100 7000 0.51 80 20:48 11.11.2021
5443 Thunderstorm 26 1010 89 10000 1.03 150 19:24 11.11.2021
5444 Rain 26 1012 89 9000 2.57 240 17:58 11.11.2021
5445 Rain 26 1012 89 9000 2.57 240 17:36 11.11.2021
5446 Rain 26 1013 89 10000 2.06 310 15:18 11.11.2021
5447 Rain 27 1013 78 10000 3.09 10 14:30 11.11.2021
5448 Clouds 27 1013 89 7000 2.06 360 13:40 11.11.2021
5449 Clouds 26 1012 94 10000 1.03 200 12:51 11.11.2021
5450 Clouds 26 1011 94 10000 1.03 220 11:30 11.11.2021
5451 Clear 26 1010 89 10000 1.03 300 09:49 11.11.2021
5452 Clear 26 1009 83 10000 0.51 340 08:19 11.11.2021
5453 Clear 26 1010 83 10000 1.54 300 05:55 11.11.2021
5454 Clouds 26 1009 89 10000 0.51 130 00:34 11.11.2021
5455 Clouds 30 1006 66 10000 4.12 320 22:32 10.11.2021
5456 Clouds 30 1006 70 10000 1.54 60 21:33 10.11.2021
5457 Clouds 31 1006 74 10000 1.54 60 20:47 10.11.2021
5458 Clouds 31 1008 70 10000 2.57 80 19:47 10.11.2021
5459 Clouds 31 1008 70 10000 2.57 80 19:28 10.11.2021
5460 Clouds 29 1012 74 10000 2.06 70 16:38 10.11.2021
5461 Clouds 29 1012 74 10000 2.06 70 15:44 10.11.2021
5462 Clouds 27 1011 83 10000 1.54 60 13:52 10.11.2021
5463 Clouds 27 1011 83 10000 1.54 60 13:26 10.11.2021
5464 Clear 24 1010 94 10000 1.54 40 11:36 10.11.2021
5465 Clear 24 1009 94 10000 2.06 30 08:51 10.11.2021
5466 Clear 24 1009 94 10000 2.06 30 08:33 10.11.2021
5467 Clear 25 1010 88 10000 1.54 40 06:40 10.11.2021
5468 Clear 25 1011 88 10000 1.54 40 05:51 10.11.2021
5469 Clouds 27 1009 78 10000 2.06 80 00:27 10.11.2021
5470 Clouds 28 1008 78 10000 1.54 230 21:55 09.11.2021
5471 Clouds 29 1009 74 10000 3.09 260 20:32 09.11.2021
5472 Clouds 29 1009 74 10000 3.09 260 20:32 09.11.2021
5473 Clouds 29 1009 74 10000 3.09 340 19:26 09.11.2021
5474 Rain 28 1011 78 10000 2.57 30 18:37 09.11.2021
5475 Rain 26 1013 94 10000 1.54 270 16:26 09.11.2021
5476 Rain 25 1014 94 9000 1.54 210 14:52 09.11.2021
5477 Rain 25 1012 94 10000 1.03 290 12:53 09.11.2021
5478 Clouds 25 1012 94 10000 1.03 290 11:59 09.11.2021
5479 Fog 25 1011 94 10000 1.03 20 10:46 09.11.2021
5480 Fog 25 1010 94 10000 1.03 360 09:40 09.11.2021
5481 Fog 25 1010 94 10000 1.54 340 08:27 09.11.2021
5482 Fog 25 1010 94 10000 1.03 20 05:57 09.11.2021
5483 Clouds 25 1012 100 10000 0 0 02:25 09.11.2021
5484 Clouds 25 1011 100 10000 1.54 70 01:47 09.11.2021
5485 Clouds 26 1011 94 10000 0.51 260 00:18 09.11.2021
5486 Clouds 26 1009 94 10000 0.51 70 22:59 08.11.2021
5487 Clouds 26 1009 94 10000 0.51 70 22:28 08.11.2021
5488 Rain 26 1008 94 7000 1.03 140 20:56 08.11.2021
5489 Rain 26 1008 89 10000 1.03 180 19:53 08.11.2021
5490 Rain 25 1009 94 10000 1.54 150 18:57 08.11.2021
5491 Thunderstorm 25 1012 94 10000 2.06 200 16:34 08.11.2021
5492 Clouds 29 1013 79 10000 3.6 250 15:26 08.11.2021
5493 Clouds 27 1013 83 10000 4.63 260 14:42 08.11.2021
5494 Clouds 28 1012 78 10000 2.57 290 13:55 08.11.2021
5495 Clouds 26 1012 83 10000 2.06 310 12:35 08.11.2021
5496 Clouds 27 1010 83 10000 2.06 340 11:24 08.11.2021
5497 Clouds 26 1009 89 10000 3.09 360 09:59 08.11.2021
5498 Clear 27 1009 78 10000 3.09 20 08:55 08.11.2021
5499 Clear 27 1009 78 10000 2.06 30 07:36 08.11.2021
5500 Clear 28 1011 74 10000 2.06 50 04:55 08.11.2021
5501 Clear 29 1011 70 10000 2.06 70 03:30 08.11.2021
5502 Clouds 30 1007 70 10000 1.54 80 23:47 07.11.2021
5503 Clouds 31 1007 62 10000 1.54 80 22:20 07.11.2021
5504 Clouds 32 1007 62 10000 1.03 110 21:20 07.11.2021
5505 Clouds 31 1009 66 10000 1.54 70 19:54 07.11.2021
5506 Clouds 31 1010 66 10000 1.03 170 18:22 07.11.2021
5507 Clouds 30 1012 70 10000 2.06 170 16:54 07.11.2021
5508 Clouds 29 1013 74 10000 1.54 160 15:54 07.11.2021
5509 Clouds 28 1013 83 10000 1.03 160 14:34 07.11.2021
5510 Clouds 26 1013 89 10000 1.54 170 13:54 07.11.2021
5511 Clouds 25 1012 94 10000 1.03 170 11:44 07.11.2021
5512 Clouds 24 1011 94 10000 1.03 160 09:57 07.11.2021
5513 Clouds 23 1010 94 10000 1.03 50 08:31 07.11.2021
5514 Clouds 24 1011 94 10000 0.51 60 02:41 07.11.2021
5515 Clouds 24 1009 100 10000 0.51 150 23:40 06.11.2021
5516 Rain 25 1009 88 10000 1.03 80 22:50 06.11.2021
5517 Rain 25 1008 88 10000 1.54 40 21:34 06.11.2021
5518 Rain 25 1008 83 10000 2.06 20 20:52 06.11.2021
5519 Thunderstorm 24 1010 94 10000 1.03 220 18:56 06.11.2021
5520 Thunderstorm 31 1012 74 10000 2.57 0 16:47 06.11.2021
5521 Thunderstorm 31 1012 74 10000 2.57 0 16:47 06.11.2021
5522 Thunderstorm 31 1012 74 10000 2.57 0 16:47 06.11.2021
5523 Thunderstorm 31 1012 74 10000 2.57 0 16:47 06.11.2021
5524 Clouds 30 1012 74 10000 3.09 180 15:21 06.11.2021
5525 Clouds 28 1013 83 10000 2.06 200 13:38 06.11.2021
5526 Clouds 27 1011 89 10000 2.06 230 12:28 06.11.2021
5527 Clear 27 1009 89 10000 1.03 180 09:33 06.11.2021
5528 Clear 26 1008 89 10000 1.03 150 07:55 06.11.2021
5529 Clear 28 1009 83 10000 0 0 02:40 06.11.2021
5530 Clouds 31 1006 58 10000 1.54 40 23:38 05.11.2021
5531 Clouds 33 1006 52 10000 3.09 40 22:39 05.11.2021
5532 Clouds 34 1006 52 10000 2.57 40 21:50 05.11.2021
5533 Clouds 33 1007 55 10000 2.06 80 20:20 05.11.2021
5534 Clouds 33 1009 58 10000 2.06 50 19:48 05.11.2021
5535 Clouds 32 1010 62 10000 2.06 70 18:40 05.11.2021
5536 Clouds 33 1011 66 10000 2.57 50 17:28 05.11.2021
5537 Clouds 32 1012 62 10000 3.09 20 15:43 05.11.2021
5538 Clouds 29 1011 74 10000 1.03 30 13:38 05.11.2021
5539 Clear 25 1010 88 10000 1.03 300 11:27 05.11.2021
5540 Clear 26 1008 89 10000 1.54 90 08:40 05.11.2021
5541 Clear 26 1008 83 10000 2.06 80 07:39 05.11.2021
5542 Clear 26 1009 89 10000 1.54 70 05:32 05.11.2021
5543 Clear 27 1009 83 10000 1.03 60 02:26 05.11.2021
5544 Clouds 27 1007 78 10000 1.03 80 00:51 05.11.2021
5545 Clouds 28 1007 69 10000 1.03 40 23:18 04.11.2021
5546 Clouds 30 1006 62 10000 2.57 360 22:19 04.11.2021
5547 Clouds 29 1006 70 10000 3.6 360 21:32 04.11.2021
5548 Clouds 29 1007 70 10000 3.6 30 20:40 04.11.2021
5549 Rain 29 1007 70 10000 3.6 30 20:20 04.11.2021
5550 Thunderstorm 29 1009 65 10000 3.09 10 19:41 04.11.2021
5551 Thunderstorm 33 1009 62 10000 1.54 130 18:44 04.11.2021
5552 Clouds 31 1011 74 10000 1.54 130 17:48 04.11.2021
5553 Clouds 30 1012 79 10000 1.03 170 16:41 04.11.2021
5554 Clouds 28 1013 78 10000 1.03 70 14:28 04.11.2021
5555 Clouds 25 1010 94 10000 1.54 170 11:44 04.11.2021
5556 Clouds 25 1009 94 10000 1.03 150 09:29 04.11.2021
5557 Clouds 25 1009 94 10000 1.54 160 08:30 04.11.2021
5558 Clouds 26 1009 89 10000 1.54 170 07:34 04.11.2021
5559 Clouds 29 1007 74 10000 1.03 160 23:54 03.11.2021
5560 Clouds 32 1007 58 10000 1.54 150 22:50 03.11.2021
5561 Clouds 32 1007 55 10000 1.03 150 21:48 03.11.2021
5562 Clouds 32 1007 55 10000 1.03 150 21:25 03.11.2021
5563 Clouds 33 1007 55 10000 1.54 110 20:34 03.11.2021
5564 Clouds 33 1008 58 10000 1.54 80 19:40 03.11.2021
5565 Clouds 32 1010 58 10000 1.54 110 18:51 03.11.2021
5566 Clouds 32 1010 58 10000 1.54 110 18:19 03.11.2021
5567 Clouds 32 1012 66 10000 2.06 70 17:34 03.11.2021
5568 Clouds 32 1013 62 10000 2.06 80 16:18 03.11.2021
5569 Clouds 30 1013 74 10000 1.54 80 15:42 03.11.2021
5570 Clouds 28 1012 74 10000 1.54 30 13:49 03.11.2021
5571 Clear 25 1010 94 10000 1.54 360 11:39 03.11.2021
5572 Clear 25 1010 94 10000 1.54 360 10:53 03.11.2021
5573 Clouds 25 1010 94 10000 2.06 40 10:18 03.11.2021
5574 Clouds 25 1009 88 10000 2.57 40 09:28 03.11.2021
5575 Clear 25 1010 94 10000 2.57 50 08:21 03.11.2021
5576 Clear 25 1010 94 10000 1.03 70 07:38 03.11.2021
5577 Clear 26 1011 89 10000 2.06 70 04:24 03.11.2021
5578 Clouds 25 1009 94 10000 0.51 70 01:45 03.11.2021
5579 Clouds 27 1009 83 10000 1.03 90 23:33 02.11.2021
5580 Clouds 28 1008 78 10000 3.09 50 22:29 02.11.2021
5581 Rain 28 1008 78 10000 2.57 20 20:54 02.11.2021
5582 Thunderstorm 27 1008 78 10000 3.09 30 20:23 02.11.2021
5583 Rain 29 1009 74 10000 4.12 70 19:46 02.11.2021
5584 Thunderstorm 29 1009 74 10000 3.09 70 18:36 02.11.2021
5585 Clouds 31 1010 70 10000 4.12 80 17:57 02.11.2021
5586 Clouds 31 1012 70 10000 3.09 80 17:31 02.11.2021
5587 Clouds 30 1013 74 10000 2.57 70 16:27 02.11.2021
5588 Clouds 29 1014 79 10000 2.06 40 14:58 02.11.2021
5589 Clouds 26 1013 94 10000 1.03 90 13:44 02.11.2021
5590 Clouds 26 1013 94 10000 1.03 90 13:25 02.11.2021
5591 Clouds 25 1012 94 10000 0.51 90 12:20 02.11.2021
5592 Clouds 24 1012 100 8000 0.51 90 11:27 02.11.2021
5593 Clouds 24 1011 94 10000 1.54 70 10:45 02.11.2021
5594 Clouds 24 1011 94 10000 1.54 70 10:22 02.11.2021
5595 Clouds 24 1010 94 10000 1.03 60 08:22 02.11.2021
5596 Clouds 25 1011 94 10000 1.03 10 06:32 02.11.2021
5597 Rain 24 1011 100 10000 1.54 80 03:30 02.11.2021
5598 Rain 24 1011 94 10000 1.03 150 00:25 02.11.2021
5599 Rain 25 1010 100 10000 1.03 90 22:19 01.11.2021
5600 Rain 25 1009 88 10000 2.06 320 20:46 01.11.2021
5601 Rain 25 1009 88 10000 2.06 320 20:27 01.11.2021
5602 Thunderstorm 25 1010 88 6000 5.14 360 19:43 01.11.2021
5603 Thunderstorm 25 1010 88 6000 5.14 360 18:54 01.11.2021
5604 Clouds 30 1010 66 7000 5.66 320 17:56 01.11.2021
5605 Clouds 31 1013 70 10000 1.54 90 16:58 01.11.2021
5606 Clouds 31 1013 70 10000 1.54 90 16:32 01.11.2021
5607 Clouds 31 1013 66 10000 2.06 310 15:39 01.11.2021
5608 Clouds 31 1013 66 10000 2.06 310 15:19 01.11.2021
5609 Clouds 29 1013 84 10000 3.09 250 14:38 01.11.2021
5610 Clouds 29 1013 84 10000 3.09 250 14:19 01.11.2021
5611 Clouds 27 1012 89 10000 1.54 250 12:41 01.11.2021
5612 Clouds 26 1011 83 10000 1.03 350 11:39 01.11.2021
5613 Clear 27 1010 78 10000 2.57 310 10:20 01.11.2021
5614 Clear 28 1010 74 10000 2.06 300 08:19 01.11.2021
5615 Clear 28 1010 74 10000 2.57 310 07:46 01.11.2021
5616 Rain 28 1011 74 10000 1.54 360 03:53 01.11.2021
5617 Clouds 29 1009 70 10000 3.09 340 01:44 01.11.2021
5618 Clouds 30 1008 66 10000 3.09 70 23:30 31.10.2021
5619 Clouds 34 1006 55 10000 1.54 100 20:58 31.10.2021
5620 Clouds 34 1009 49 10000 2.06 80 19:24 31.10.2021
5621 Clouds 34 1010 52 10000 1.54 90 18:43 31.10.2021
5622 Clouds 34 1012 52 10000 1.54 90 17:59 31.10.2021
5623 Clouds 32 1013 66 10000 2.06 80 16:27 31.10.2021
5624 Clear 29 1014 79 10000 2.06 80 14:41 31.10.2021
5625 Clear 27 1012 83 10000 1.03 40 12:55 31.10.2021
5626 Clear 26 1011 83 10000 1.54 30 11:42 31.10.2021
5627 Clear 26 1011 83 10000 1.54 30 11:42 31.10.2021
5628 Clouds 26 1011 78 10000 1.54 20 10:48 31.10.2021
5629 Rain 26 1010 89 10000 1.54 70 09:23 31.10.2021
5630 Rain 27 1010 89 10000 1.54 70 08:44 31.10.2021
5631 Rain 28 1010 83 10000 0 0 02:26 31.10.2021
5632 Clouds 30 1007 70 10000 0.51 120 23:54 30.10.2021
5633 Clouds 33 1008 55 10000 2.57 240 21:50 30.10.2021
5634 Clouds 33 1008 55 10000 2.57 240 21:26 30.10.2021
5635 Clouds 31 1010 58 10000 3.6 290 19:40 30.10.2021
5636 Clouds 30 1013 70 10000 3.6 250 17:48 30.10.2021
5637 Clouds 30 1013 70 10000 3.09 250 15:41 30.10.2021
5638 Clear 27 1011 78 10000 2.06 360 13:59 30.10.2021
5639 Clear 27 1011 78 10000 2.06 360 13:38 30.10.2021
5640 Clear 27 1011 78 10000 2.06 360 13:20 30.10.2021
5641 Clear 26 1010 83 10000 2.06 350 11:49 30.10.2021
5642 Clear 26 1010 83 10000 2.06 350 10:44 30.10.2021
5643 Clear 27 1009 74 10000 2.06 350 08:56 30.10.2021
5644 Clear 26 1010 83 10000 2.06 20 07:55 30.10.2021
5645 Clear 28 1011 74 10000 1.03 320 05:46 30.10.2021
5646 Clear 28 1011 74 10000 1.54 320 02:59 30.10.2021
5647 Thunderstorm 29 1009 79 10000 1.54 280 23:21 29.10.2021
5648 Clouds 30 1009 70 10000 1.03 70 22:34 29.10.2021
5649 Clouds 33 1010 58 10000 1.54 130 20:59 29.10.2021
5650 Clouds 33 1010 58 10000 1.54 130 20:32 29.10.2021
5651 Clouds 32 1012 62 10000 1.54 110 19:18 29.10.2021
5652 Clouds 30 1014 79 10000 1.54 180 17:28 29.10.2021
5653 Clouds 28 1015 83 10000 1.03 210 15:26 29.10.2021
5654 Clouds 25 1014 94 10000 1.54 230 12:30 29.10.2021
5655 Clouds 25 1012 94 10000 1.03 250 10:46 29.10.2021
5656 Clouds 24 1012 94 10000 1.03 250 09:27 29.10.2021
5657 Clouds 27 1012 89 10000 1.03 150 00:55 29.10.2021
5658 Clouds 30 1010 66 10000 1.03 150 23:47 28.10.2021
5659 Clouds 31 1010 58 10000 1.54 180 22:21 28.10.2021
5660 Clouds 31 1011 66 10000 2.06 190 20:57 28.10.2021
5661 Clouds 30 1014 74 10000 2.06 190 19:52 28.10.2021
5662 Clouds 29 1015 79 10000 2.06 230 18:36 28.10.2021
5663 Clouds 28 1016 78 10000 2.06 230 17:27 28.10.2021
5664 Clouds 27 1016 83 10000 2.06 230 16:37 28.10.2021
5665 Fog 25 1016 94 10000 1.03 260 14:40 28.10.2021
5666 Fog 25 1015 94 10000 1.54 240 13:32 28.10.2021
5667 Fog 24 1014 100 10000 0.51 200 12:49 28.10.2021
5668 Fog 24 1013 94 10000 1.03 230 11:26 28.10.2021
5669 Clouds 23 1012 100 10000 2.06 10 09:55 28.10.2021
5670 Clouds 23 1012 100 10000 1.54 300 09:35 28.10.2021
5671 Clouds 24 1013 94 10000 1.54 350 08:36 28.10.2021
5672 Clouds 24 1014 94 10000 1.03 300 07:41 28.10.2021
5673 Rain 24 1013 94 10000 3.09 350 01:37 28.10.2021
5674 Rain 25 1011 94 800 5.66 320 22:47 27.10.2021
5675 Thunderstorm 26 1011 94 2000 2.57 300 21:52 27.10.2021
5676 Thunderstorm 27 1011 89 8000 1.54 310 21:18 27.10.2021
5677 Thunderstorm 27 1011 89 8000 1.54 260 20:40 27.10.2021
5678 Thunderstorm 28 1011 83 10000 3.09 270 19:45 27.10.2021
5679 Clouds 28 1013 83 10000 2.57 240 18:55 27.10.2021
5680 Clouds 26 1014 94 10000 2.57 240 16:55 27.10.2021
5681 Rain 25 1014 94 10000 2.06 220 16:24 27.10.2021
5682 Rain 25 1014 100 10000 1.03 180 15:24 27.10.2021
5683 Rain 25 1014 94 10000 1.03 190 14:20 27.10.2021
5684 Clouds 26 1011 94 10000 2.06 220 11:18 27.10.2021
5685 Clouds 27 1010 89 10000 2.57 250 10:36 27.10.2021
5686 Clear 27 1010 94 10000 2.06 280 09:21 27.10.2021
5687 Clear 27 1011 89 10000 1.03 350 07:39 27.10.2021
5688 Clear 27 1012 89 10000 2.06 20 05:38 27.10.2021
5689 Clear 28 1010 83 10000 1.03 80 01:21 27.10.2021
5690 Rain 29 1009 74 10000 1.03 150 00:54 27.10.2021
5691 Rain 30 1008 74 10000 0.51 160 23:52 26.10.2021
5692 Rain 30 1008 70 10000 1.03 170 22:44 26.10.2021
5693 Rain 30 1008 70 10000 1.03 170 22:21 26.10.2021
5694 Clouds 30 1009 74 10000 2.06 170 21:32 26.10.2021
5695 Clouds 30 1012 74 10000 2.57 230 19:48 26.10.2021
5696 Clouds 30 1012 74 10000 2.57 230 18:54 26.10.2021
5697 Clouds 29 1015 79 10000 2.06 180 17:45 26.10.2021
5698 Clouds 27 1015 89 10000 1.54 200 15:46 26.10.2021
5699 Clouds 25 1013 94 10000 2.06 240 12:33 26.10.2021
5700 Clouds 25 1012 94 10000 2.57 260 10:54 26.10.2021
5701 Rain 25 1012 94 10000 2.57 280 08:24 26.10.2021
5702 Rain 25 1013 94 10000 3.09 330 07:22 26.10.2021
5703 Clouds 29 1009 79 10000 0 0 00:19 26.10.2021
5704 Clouds 31 1008 66 10000 1.03 80 23:28 25.10.2021
5705 Clouds 32 1008 62 10000 2.57 70 22:28 25.10.2021
5706 Clouds 33 1008 58 10000 2.57 60 21:42 25.10.2021
5707 Clouds 33 1009 62 10000 3.6 320 20:28 25.10.2021
5708 Clouds 32 1011 62 10000 4.12 60 19:43 25.10.2021
5709 Clouds 32 1011 62 10000 4.12 60 19:22 25.10.2021
5710 Clouds 32 1012 62 10000 3.6 60 18:35 25.10.2021
5711 Clouds 30 1014 70 10000 5.14 60 16:43 25.10.2021
5712 Clouds 29 1013 74 10000 4.12 50 14:48 25.10.2021
5713 Clear 26 1011 89 10000 2.57 40 12:31 25.10.2021
5714 Clear 27 1010 78 10000 2.57 60 10:46 25.10.2021
5715 Clear 27 1010 83 10000 2.06 50 08:58 25.10.2021
5716 Clouds 27 1012 83 10000 3.09 60 06:28 25.10.2021
5717 Clouds 27 1012 83 10000 3.09 60 06:28 25.10.2021
5718 Clouds 27 1012 83 10000 3.09 60 06:28 25.10.2021
5719 Clear 28 1012 78 10000 2.06 30 04:35 25.10.2021
5720 Thunderstorm 29 1009 74 9000 5.14 10 00:51 25.10.2021
5721 Thunderstorm 29 1009 74 9000 5.14 10 00:33 25.10.2021
5722 Thunderstorm 32 1008 58 10000 6.69 350 23:33 24.10.2021
5723 Clouds 33 1008 58 10000 1.54 160 22:38 24.10.2021
5724 Clouds 33 1008 58 10000 1.54 160 22:19 24.10.2021
5725 Clouds 34 1008 52 10000 1.03 100 20:57 24.10.2021
5726 Clouds 33 1009 62 10000 2.57 80 20:32 24.10.2021
5727 Clouds 33 1010 62 10000 2.06 110 19:36 24.10.2021
5728 Clouds 32 1011 66 10000 2.06 80 18:29 24.10.2021
5729 Clouds 31 1012 70 10000 3.09 70 17:43 24.10.2021
5730 Clouds 29 1012 79 10000 1.54 90 15:56 24.10.2021
5731 Clouds 28 1012 83 10000 2.57 70 14:41 24.10.2021
5732 Clouds 26 1011 89 10000 2.06 70 12:58 24.10.2021
5733 Clouds 25 1009 94 10000 2.06 40 11:44 24.10.2021
5734 Clouds 25 1009 94 10000 2.06 40 10:56 24.10.2021
5735 Clear 25 1009 88 10000 1.03 40 09:59 24.10.2021
5736 Clouds 26 1010 89 10000 1.03 320 07:41 24.10.2021
5737 Thunderstorm 27 1008 78 10000 1.54 320 00:57 24.10.2021
5738 Thunderstorm 26 1008 89 8000 2.06 70 23:34 23.10.2021
5739 Thunderstorm 31 1008 66 9000 2.57 170 22:18 23.10.2021
5740 Clouds 30 1010 70 10000 2.06 210 20:36 23.10.2021
5741 Clouds 30 1010 70 10000 2.06 190 18:59 23.10.2021
5742 Clouds 28 1012 65 10000 1.54 350 18:26 23.10.2021
5743 Clouds 26 1012 83 10000 1.54 180 17:43 23.10.2021
5744 Clouds 24 1014 94 9000 1.54 0 16:22 23.10.2021
5745 Clouds 24 1013 94 6000 3.09 290 14:27 23.10.2021
5746 Rain 25 1010 94 10000 1.03 120 03:34 23.10.2021
5747 Rain 26 1009 89 10000 5.66 40 00:19 23.10.2021
5748 Clouds 31 1007 66 10000 5.14 260 22:53 22.10.2021
5749 Clouds 30 1012 66 10000 2.06 210 19:53 22.10.2021
5750 Clouds 30 1013 66 10000 1.54 210 18:41 22.10.2021
5751 Rain 29 1013 65 10000 3.09 250 17:43 22.10.2021
5752 Clouds 27 1013 74 10000 3.6 360 15:25 22.10.2021
5753 Clouds 23 1014 94 10000 1.54 330 13:48 22.10.2021
5754 Fog 23 1011 94 10000 2.57 360 11:18 22.10.2021
5755 Fog 23 1011 94 10000 0.51 260 10:38 22.10.2021
5756 Fog 23 1011 94 10000 0.51 260 09:56 22.10.2021
5757 Fog 23 1011 94 10000 2.06 360 08:31 22.10.2021
5758 Clear 23 1011 94 10000 2.06 20 07:22 22.10.2021
5759 Clouds 24 1013 83 10000 2.06 300 02:57 22.10.2021
5760 Clouds 25 1010 83 10000 3.6 310 23:54 21.10.2021
5761 Clouds 25 1010 83 10000 3.6 310 23:29 21.10.2021
5762 Rain 24 1010 88 10000 4.12 300 21:39 21.10.2021
5763 Rain 24 1011 88 10000 3.6 340 20:27 21.10.2021
5764 Thunderstorm 23 1012 100 10000 2.57 10 19:57 21.10.2021
5765 Thunderstorm 23 1012 100 10000 2.57 10 19:28 21.10.2021
5766 Rain 32 1009 56 10000 1.44 210 18:43 21.10.2021
5767 Thunderstorm 23 1015 100 1000 4.63 20 17:54 21.10.2021
5768 Thunderstorm 23 1015 100 1000 4.63 20 17:32 21.10.2021
5769 Thunderstorm 23 1015 100 1000 4.63 20 17:32 21.10.2021
5770 Clouds 28 1014 78 10000 0.51 240 15:34 21.10.2021
5771 Clouds 27 1013 89 10000 1.54 230 14:57 21.10.2021
5772 Clouds 27 1013 89 10000 1.54 230 14:37 21.10.2021
5773 Clouds 27 1013 89 10000 1.54 230 14:37 21.10.2021
5774 Clear 26 1011 94 10000 1.03 220 12:44 21.10.2021
5775 Clouds 27 1010 89 10000 2.57 280 09:56 21.10.2021
5776 Clouds 28 1010 83 10000 2.06 290 08:21 21.10.2021
5777 Clear 28 1010 83 10000 2.57 280 07:23 21.10.2021
5778 Thunderstorm 28 1010 78 10000 1.03 140 00:52 21.10.2021
5779 Clouds 30 1008 70 10000 2.57 170 22:41 20.10.2021
5780 Thunderstorm 32 1008 58 10000 1.54 260 21:51 20.10.2021
5781 Thunderstorm 32 1008 58 10000 1.54 260 21:27 20.10.2021
5782 Clouds 33 1009 55 10000 2.57 260 20:46 20.10.2021
5783 Rain 33 1009 55 10000 2.57 260 20:26 20.10.2021
5784 Clouds 32 1011 58 10000 3.09 310 19:28 20.10.2021
5785 Clouds 32 1012 62 10000 3.09 230 18:45 20.10.2021
5786 Clouds 30 1014 66 10000 1.54 170 17:39 20.10.2021
5787 Clouds 31 1014 66 10000 2.06 60 15:26 20.10.2021
5788 Clouds 27 1011 89 10000 1.54 270 10:21 20.10.2021
5789 Clear 26 1011 89 10000 1.03 70 07:43 20.10.2021
5790 Clear 29 1011 70 10000 1.03 40 02:41 20.10.2021
5791 Clouds 29 1009 70 10000 1.54 30 00:34 20.10.2021
5792 Clouds 29 1009 70 10000 1.54 70 23:32 19.10.2021
5793 Clouds 33 1009 58 10000 2.06 170 21:40 19.10.2021
5794 Clouds 33 1010 52 10000 2.06 130 20:36 19.10.2021
5795 Clouds 33 1010 52 10000 2.06 130 20:18 19.10.2021
5796 Clouds 32 1012 58 10000 2.06 170 19:37 19.10.2021
5797 Clouds 31 1014 62 10000 2.57 170 18:45 19.10.2021
5798 Clouds 31 1015 62 10000 2.06 180 17:52 19.10.2021
5799 Clouds 28 1015 78 10000 1.03 140 15:30 19.10.2021
5800 Clear 27 1015 83 10000 1.03 100 14:44 19.10.2021
5801 Clear 27 1015 83 10000 1.03 100 13:56 19.10.2021
5802 Clouds 24 1013 94 10000 0 0 12:24 19.10.2021
5803 Clouds 24 1012 94 10000 0.51 70 11:30 19.10.2021
5804 Clouds 24 1011 100 10000 0.51 120 09:55 19.10.2021
5805 Clouds 24 1011 100 10000 0.51 120 09:55 19.10.2021
5806 Clouds 24 1011 100 10000 0 0 08:57 19.10.2021
5807 Clouds 27 1011 83 10000 1.03 190 02:38 19.10.2021
5808 Clouds 28 1009 69 10000 1.54 80 00:20 19.10.2021
5809 Clouds 29 1009 70 10000 1.54 170 23:41 18.10.2021
5810 Clouds 29 1009 70 10000 1.54 170 22:57 18.10.2021
5811 Clouds 29 1010 74 10000 1.54 180 22:30 18.10.2021
5812 Clouds 28 1012 74 10000 2.06 180 20:53 18.10.2021
5813 Clouds 28 1012 74 10000 2.06 180 20:30 18.10.2021
5814 Clouds 29 1013 65 10000 3.6 360 19:41 18.10.2021
5815 Clouds 29 1013 65 10000 3.6 360 19:20 18.10.2021
5816 Rain 27 1015 78 10000 2.57 40 16:59 18.10.2021
5817 Clouds 25 1016 94 10000 2.06 30 14:57 18.10.2021
5818 Clouds 25 1012 88 10000 1.03 60 12:28 18.10.2021
5819 Clouds 24 1010 100 10000 0 0 10:25 18.10.2021
5820 Clouds 24 1010 94 10000 1.03 80 09:25 18.10.2021
5821 Clouds 25 1010 88 10000 2.06 230 01:23 18.10.2021
5822 Rain 25 1012 83 10000 5.66 10 23:20 17.10.2021
5823 Clouds 27 1010 74 10000 2.06 230 21:45 17.10.2021
5824 Clouds 27 1010 74 10000 2.06 230 20:58 17.10.2021
5825 Clouds 26 1011 78 10000 2.06 170 20:26 17.10.2021
5826 Clouds 25 1012 83 10000 3.09 170 19:38 17.10.2021
5827 Rain 35 1009 40 10000 0.87 70 18:35 17.10.2021
5828 Rain 27 1014 78 10000 3.09 110 16:49 17.10.2021
5829 Clouds 30 1013 74 10000 1.54 10 14:42 17.10.2021
5830 Clouds 30 1013 74 10000 1.54 10 14:22 17.10.2021
5831 Clouds 28 1012 89 6000 1.54 100 13:33 17.10.2021
5832 Clouds 28 1010 74 9000 1.03 10 11:54 17.10.2021
5833 Clear 28 1009 78 10000 1.54 10 10:20 17.10.2021
5834 Clear 28 1010 89 10000 1.54 260 09:22 17.10.2021
5835 Clear 28 1011 89 10000 1.03 90 06:52 17.10.2021
5836 Clouds 32 1007 58 10000 1.54 80 00:49 17.10.2021
5837 Clouds 33 1007 55 10000 2.06 70 23:33 16.10.2021
5838 Clouds 35 1008 49 10000 3.09 70 21:28 16.10.2021
5839 Clouds 35 1009 49 10000 2.57 80 20:30 16.10.2021
5840 Clouds 35 1010 52 10000 2.06 90 19:42 16.10.2021
5841 Clouds 35 1010 52 10000 2.06 90 19:20 16.10.2021
5842 Clouds 34 1012 55 10000 2.57 90 18:46 16.10.2021
5843 Clouds 34 1012 55 10000 2.57 90 18:28 16.10.2021
5844 Clouds 34 1013 59 10000 1.54 80 17:52 16.10.2021
5845 Clouds 34 1013 59 10000 1.54 80 17:21 16.10.2021
5846 Clear 30 1012 62 10000 3.09 70 13:54 16.10.2021
5847 Clear 28 1010 78 10000 1.54 50 11:26 16.10.2021
5848 Clear 28 1010 78 10000 1.54 50 09:45 16.10.2021
5849 Clear 30 1010 70 10000 3.09 70 06:48 16.10.2021
5850 Clouds 31 1007 70 10000 1.54 80 01:24 16.10.2021
5851 Clouds 33 1007 58 10000 1.54 80 23:27 15.10.2021
5852 Clouds 35 1007 52 10000 2.06 80 22:22 15.10.2021
5853 Clouds 35 1008 49 10000 2.57 70 21:50 15.10.2021
5854 Clouds 35 1008 49 10000 2.57 70 21:20 15.10.2021
5855 Clouds 35 1009 52 10000 2.57 90 20:44 15.10.2021
5856 Clouds 35 1010 52 10000 2.06 80 19:21 15.10.2021
5857 Clouds 35 1011 55 10000 2.06 80 18:29 15.10.2021
5858 Clear 33 1012 62 10000 2.57 70 16:19 15.10.2021
5859 Clear 30 1012 70 10000 3.6 80 14:37 15.10.2021
5860 Clear 28 1010 74 10000 2.06 70 12:28 15.10.2021
5861 Clear 28 1010 74 10000 2.06 70 12:28 15.10.2021
5862 Clear 27 1009 78 10000 2.57 60 11:20 15.10.2021
5863 Clear 28 1008 78 10000 2.06 70 10:34 15.10.2021
5864 Clear 28 1008 74 10000 2.06 50 08:36 15.10.2021
5865 Clear 30 1009 66 10000 2.57 60 05:31 15.10.2021
5866 Clouds 32 1006 58 10000 2.06 70 00:30 15.10.2021
5867 Clouds 34 1006 52 10000 1.54 70 23:34 14.10.2021
5868 Clouds 34 1006 52 10000 1.54 70 23:34 14.10.2021
5869 Clouds 34 1006 52 10000 2.06 80 22:40 14.10.2021
5870 Clouds 35 1006 49 10000 2.57 80 21:40 14.10.2021
5871 Clouds 36 1007 46 10000 2.57 90 20:22 14.10.2021
5872 Clouds 35 1008 46 10000 2.06 90 19:49 14.10.2021
5873 Clouds 34 1009 55 10000 2.06 120 18:44 14.10.2021
5874 Clouds 34 1010 52 10000 4.12 70 17:24 14.10.2021
5875 Clear 33 1010 58 10000 3.09 60 16:33 14.10.2021
5876 Clear 32 1010 62 10000 3.09 70 15:20 14.10.2021
5877 Clear 30 1010 70 10000 2.57 60 14:30 14.10.2021
5878 Clear 27 1009 83 10000 0.51 50 13:35 14.10.2021
5879 Clear 26 1007 89 10000 1.54 30 11:40 14.10.2021
5880 Clear 27 1007 83 10000 1.54 10 09:33 14.10.2021
5881 Clouds 26 1007 71 10000 1.15 257 06:27 14.10.2021
5882 Clouds 30 1006 56 10000 1.55 305 00:49 14.10.2021
5883 Clouds 31 1007 62 10000 4.12 330 22:46 13.10.2021
5884 Clouds 34 1007 55 10000 1.54 190 21:37 13.10.2021
5885 Clouds 33 1008 58 10000 2.06 210 20:46 13.10.2021
5886 Clouds 33 1009 55 10000 2.57 250 19:41 13.10.2021
5887 Clouds 32 1010 58 9000 2.57 270 18:48 13.10.2021
5888 Clouds 32 1011 62 10000 3.09 240 17:28 13.10.2021
5889 Clouds 30 1012 74 10000 3.6 240 14:55 13.10.2021
5890 Clouds 30 1012 74 10000 1.03 200 14:34 13.10.2021
5891 Clear 27 1010 78 10000 1.03 340 12:48 13.10.2021
5892 Clear 28 1009 74 10000 1.54 330 11:38 13.10.2021
5893 Clear 28 1009 74 10000 1.54 340 10:21 13.10.2021
5894 Clear 28 1008 74 10000 1.03 10 07:54 13.10.2021
5895 Clear 30 1010 70 10000 1.03 40 04:50 13.10.2021
5896 Rain 31 1009 62 10000 1.54 30 02:22 13.10.2021
5897 Clouds 33 1007 55 10000 2.06 80 23:38 12.10.2021
5898 Clouds 33 1007 55 10000 2.06 80 22:53 12.10.2021
5899 Clouds 32 1007 62 10000 1.03 80 22:34 12.10.2021
5900 Clouds 35 1008 49 10000 2.06 340 20:54 12.10.2021
5901 Clouds 33 1009 55 10000 1.54 70 20:31 12.10.2021
5902 Clouds 34 1010 55 10000 2.57 90 19:42 12.10.2021
5903 Clouds 34 1012 55 10000 1.54 140 18:26 12.10.2021
5904 Clouds 33 1013 55 10000 3.6 70 17:29 12.10.2021
5905 Clouds 32 1013 66 10000 2.57 60 16:24 12.10.2021
5906 Clouds 31 1013 74 10000 1.03 90 15:33 12.10.2021
5907 Clear 28 1012 78 10000 0 0 13:46 12.10.2021
5908 Clear 28 1012 78 10000 0 0 13:18 12.10.2021
5909 Clear 26 1010 83 10000 1.03 350 11:30 12.10.2021
5910 Clear 25 1009 88 10000 1.03 70 09:41 12.10.2021
5911 Clear 26 1009 83 10000 1.54 60 08:26 12.10.2021
5912 Clear 28 1011 74 10000 1.03 320 06:45 12.10.2021
5913 Clear 28 1011 78 10000 0 0 04:39 12.10.2021
5914 Clouds 29 1011 70 10000 2.06 10 02:55 12.10.2021
5915 Rain 33 1008 62 10000 1.54 70 23:49 11.10.2021
5916 Rain 33 1008 62 10000 1.54 70 23:28 11.10.2021
5917 Rain 33 1008 62 10000 1.54 70 23:28 11.10.2021
5918 Clouds 34 1007 59 10000 2.06 90 22:47 11.10.2021
5919 Clouds 35 1008 55 10000 1.54 120 21:25 11.10.2021
5920 Clouds 34 1010 59 10000 3.6 60 19:53 11.10.2021
5921 Clouds 34 1010 59 10000 3.6 60 19:34 11.10.2021
5922 Clouds 34 1011 59 10000 2.57 70 18:23 11.10.2021
5923 Clouds 32 1013 66 10000 3.6 80 16:40 11.10.2021
5924 Clouds 32 1013 66 10000 3.6 80 16:20 11.10.2021
5925 Clear 31 1012 70 10000 3.6 60 15:44 11.10.2021
5926 Clear 31 1012 70 10000 3.6 60 14:53 11.10.2021
5927 Clear 30 1012 74 10000 3.09 60 14:19 11.10.2021
5928 Clear 29 1011 74 10000 2.57 60 13:35 11.10.2021
5929 Clear 27 1009 78 10000 1.54 50 11:18 11.10.2021
5930 Clear 27 1009 78 10000 1.03 360 09:46 11.10.2021
5931 Clear 27 1009 78 10000 1.03 30 07:57 11.10.2021
5932 Clouds 30 1008 66 10000 2.06 40 01:44 11.10.2021
5933 Rain 30 1008 66 10000 2.06 40 00:57 11.10.2021
5934 Rain 31 1007 62 10000 1.54 80 00:37 11.10.2021
5935 Clouds 34 1007 49 10000 1.54 160 22:35 10.10.2021
5936 Clouds 34 1008 55 10000 1.54 110 21:49 10.10.2021
5937 Clouds 33 1009 55 10000 2.06 140 20:57 10.10.2021
5938 Clouds 33 1009 55 10000 2.06 140 20:38 10.10.2021
5939 Clouds 33 1009 55 10000 2.06 140 20:19 10.10.2021
5940 Clouds 34 1010 55 10000 1.54 140 19:40 10.10.2021
5941 Clouds 34 1010 55 10000 1.54 140 18:55 10.10.2021
5942 Clouds 34 1011 52 10000 1.54 90 17:58 10.10.2021
5943 Clouds 30 1013 74 10000 1.54 210 15:48 10.10.2021
5944 Clear 28 1012 83 10000 1.03 210 14:45 10.10.2021
5945 Clear 27 1011 89 10000 1.03 250 13:39 10.10.2021
5946 Clear 25 1011 94 10000 0 0 12:43 10.10.2021
5947 Clouds 26 1009 83 10000 1.54 20 11:30 10.10.2021
5948 Clouds 26 1009 83 10000 1.54 20 10:25 10.10.2021
5949 Clouds 26 1008 83 10000 1.54 50 08:54 10.10.2021
5950 Clouds 26 1008 83 10000 2.57 30 07:57 10.10.2021
5951 Clear 28 1009 83 10000 2.06 20 03:47 10.10.2021
5952 Clear 29 1008 79 10000 1.03 60 01:43 10.10.2021
5953 Clouds 29 1008 74 10000 1.03 90 00:41 10.10.2021
5954 Clouds 31 1008 62 10000 2.06 80 23:23 09.10.2021
5955 Clouds 31 1009 70 10000 1.03 90 21:53 09.10.2021
5956 Rain 31 1008 66 10000 2.06 80 21:29 09.10.2021
5957 Clouds 32 1011 62 10000 1.54 120 19:50 09.10.2021
5958 Clouds 32 1011 62 10000 1.54 120 19:31 09.10.2021
5959 Clouds 30 1012 74 10000 1.03 210 18:34 09.10.2021
5960 Clouds 30 1013 66 10000 2.06 220 17:43 09.10.2021
5961 Clouds 29 1013 74 10000 3.09 250 16:19 09.10.2021
5962 Clouds 26 1011 89 10000 2.06 320 13:47 09.10.2021
5963 Clouds 26 1011 89 10000 2.06 320 13:24 09.10.2021
5964 Mist 26 1010 89 10000 1.54 300 11:56 09.10.2021
5965 Clear 26 1009 94 10000 0 0 10:42 09.10.2021
5966 Clear 26 1009 94 10000 0 0 09:54 09.10.2021
5967 Clear 26 1010 94 10000 1.03 260 08:32 09.10.2021
5968 Clear 26 1010 94 10000 1.03 230 07:49 09.10.2021
5969 Clear 26 1010 94 10000 1.54 240 05:55 09.10.2021
5970 Clouds 27 1010 89 10000 2.06 260 04:18 09.10.2021
5971 Clouds 28 1008 83 10000 3.09 280 02:43 09.10.2021
5972 Clouds 28 1008 78 10000 2.57 270 23:55 08.10.2021
5973 Clouds 29 1008 74 10000 3.09 250 23:31 08.10.2021
5974 Clouds 30 1008 70 10000 3.6 270 22:25 08.10.2021
5975 Clouds 29 1009 74 10000 3.09 250 21:35 08.10.2021
5976 Rain 29 1011 70 10000 3.09 240 19:39 08.10.2021
5977 Clouds 28 1012 78 10000 1.54 220 17:36 08.10.2021
5978 Clouds 27 1013 83 10000 1.03 170 16:53 08.10.2021
5979 Clouds 27 1013 83 10000 1.03 170 16:24 08.10.2021
5980 Clouds 26 1012 94 10000 1.54 160 13:58 08.10.2021
5981 Clouds 26 1011 89 10000 1.03 70 13:35 08.10.2021
5982 Clouds 25 1010 94 10000 1.54 350 11:40 08.10.2021
5983 Rain 25 1009 94 10000 1.03 180 10:41 08.10.2021
5984 Rain 25 1008 94 10000 1.54 200 09:44 08.10.2021
5985 Rain 27 1007 83 10000 2.57 250 00:34 08.10.2021
5986 Clouds 28 1007 78 10000 3.09 270 23:21 07.10.2021
5987 Rain 27 1006 83 10000 1.03 80 21:46 07.10.2021
5988 Rain 27 1006 83 10000 1.03 80 21:26 07.10.2021
5989 Rain 26 1008 89 10000 1.03 180 20:22 07.10.2021
5990 Thunderstorm 25 1009 83 10000 1.03 200 19:29 07.10.2021
5991 Thunderstorm 33 1010 62 10000 2.06 170 18:24 07.10.2021
5992 Clouds 32 1010 66 10000 2.06 180 17:26 07.10.2021
5993 Clouds 30 1011 74 10000 1.54 230 15:53 07.10.2021
5994 Clouds 29 1011 79 10000 1.03 200 14:21 07.10.2021
5995 Mist 28 1010 83 10000 0 0 13:38 07.10.2021
5996 Mist 27 1009 89 10000 1.03 200 12:45 07.10.2021
5997 Clear 26 1010 94 10000 1.54 260 10:56 07.10.2021
5998 Clear 26 1010 94 10000 1.03 260 10:19 07.10.2021
5999 Clear 26 1010 94 10000 0.51 280 09:34 07.10.2021
6000 Clear 26 1010 94 10000 0.51 270 08:51 07.10.2021
6001 Clear 26 1010 94 10000 0.51 270 07:43 07.10.2021
6002 Clear 26 1010 94 10000 0.51 270 07:20 07.10.2021
6003 Clear 28 1008 83 10000 0 0 02:50 07.10.2021
6004 Rain 29 1007 79 10000 0 0 00:29 07.10.2021
6005 Clouds 33 1007 58 10000 1.03 70 22:51 06.10.2021
6006 Clouds 33 1007 58 10000 1.03 70 21:53 06.10.2021
6007 Clouds 24 1008 100 10000 2.57 80 20:38 06.10.2021
6008 Clouds 24 1008 100 10000 2.57 80 19:53 06.10.2021
6009 Clouds 34 1011 55 10000 2.06 100 18:41 06.10.2021
6010 Clouds 33 1012 55 10000 2.57 70 16:58 06.10.2021
6011 Clear 31 1012 62 10000 1.54 80 15:30 06.10.2021
6012 Clear 29 1012 79 10000 2.06 60 14:22 06.10.2021
6013 Clear 27 1011 89 10000 1.03 80 12:59 06.10.2021
6014 Clear 27 1010 78 10000 1.54 60 12:41 06.10.2021
6015 Clear 27 1010 78 10000 1.54 60 12:21 06.10.2021
6016 Clear 26 1009 78 10000 0 0 10:18 06.10.2021
6017 Clear 27 1010 78 10000 1.54 50 09:39 06.10.2021
6018 Clear 27 1010 78 10000 1.03 40 08:42 06.10.2021
6019 Clear 27 1010 78 10000 1.54 60 07:48 06.10.2021
6020 Clear 28 1011 69 10000 1.54 80 05:26 06.10.2021
6021 Clouds 31 1006 51 10000 3.09 70 00:28 06.10.2021
6022 Clouds 31 1006 51 10000 3.09 70 23:57 05.10.2021
6023 Clouds 32 1006 48 10000 3.09 70 23:38 05.10.2021
6024 Clouds 32 1006 48 10000 3.09 70 23:20 05.10.2021
6025 Clouds 32 1006 51 10000 4.12 80 22:27 05.10.2021
6026 Clouds 32 1006 51 10000 4.12 80 22:27 05.10.2021
6027 Clouds 34 1007 49 10000 4.12 80 21:47 05.10.2021
6028 Clouds 34 1008 52 10000 4.12 60 20:41 05.10.2021
6029 Clouds 34 1008 52 10000 4.12 60 20:23 05.10.2021
6030 Clouds 32 1009 58 10000 3.6 80 19:42 05.10.2021
6031 Clouds 33 1009 58 10000 3.6 60 18:49 05.10.2021
6032 Clouds 31 1011 66 10000 3.6 70 16:38 05.10.2021
6033 Clear 29 1010 74 10000 3.6 70 14:36 05.10.2021
6034 Clear 27 1010 83 10000 2.57 50 13:34 05.10.2021
6035 Clear 26 1009 83 10000 2.06 50 12:46 05.10.2021
6036 Clear 26 1009 83 10000 2.06 50 11:59 05.10.2021
6037 Clear 27 1008 83 10000 2.57 70 10:44 05.10.2021
6038 Clear 27 1008 83 10000 2.06 80 09:25 05.10.2021
6039 Clear 27 1010 89 10000 2.06 80 03:57 05.10.2021
6040 Clouds 28 1006 83 10000 2.57 60 23:53 04.10.2021
6041 Clouds 26 1006 89 9000 3.6 90 22:35 04.10.2021
6042 Clouds 33 1009 62 10000 3.09 70 19:38 04.10.2021
6043 Clouds 33 1010 62 10000 3.6 70 18:34 04.10.2021
6044 Clouds 31 1012 70 10000 3.09 70 16:24 04.10.2021
6045 Clouds 30 1012 70 10000 3.09 70 15:31 04.10.2021
6046 Clear 29 1011 79 10000 2.57 70 14:42 04.10.2021
6047 Clear 27 1010 83 10000 1.54 80 13:50 04.10.2021
6048 Clear 27 1010 83 10000 1.54 80 13:24 04.10.2021
6049 Clear 26 1009 89 10000 1.03 60 12:26 04.10.2021
6050 Clear 26 1008 83 10000 2.06 50 11:30 04.10.2021
6051 Clear 26 1008 83 10000 1.54 20 09:59 04.10.2021
6052 Clear 26 1008 89 10000 1.54 50 08:40 04.10.2021
6053 Clear 26 1008 89 10000 1.54 50 07:19 04.10.2021
6054 Clouds 29 1006 70 10000 2.57 60 00:29 04.10.2021
6055 Clouds 32 1006 62 10000 2.06 80 22:34 03.10.2021
6056 Clouds 30 1007 70 10000 1.03 80 21:39 03.10.2021
6057 Clouds 32 1008 62 10000 2.57 80 20:59 03.10.2021
6058 Clouds 31 1009 62 10000 2.57 60 19:57 03.10.2021
6059 Clouds 31 1010 66 10000 2.57 70 18:34 03.10.2021
6060 Clouds 30 1011 74 10000 2.06 70 17:48 03.10.2021
6061 Clouds 29 1012 74 10000 3.09 70 15:57 03.10.2021
6062 Clouds 27 1010 89 10000 1.54 80 14:46 03.10.2021
6063 Clouds 26 1010 89 10000 1.54 70 13:58 03.10.2021
6064 Clouds 26 1010 89 10000 1.54 70 13:21 03.10.2021
6065 Clouds 25 1009 94 10000 1.03 60 12:29 03.10.2021
6066 Clouds 25 1008 94 10000 2.06 80 10:37 03.10.2021
6067 Clouds 25 1009 88 10000 1.54 50 08:36 03.10.2021
6068 Clouds 25 1008 94 10000 2.57 30 01:30 03.10.2021
6069 Thunderstorm 26 1007 83 6000 5.14 20 22:34 02.10.2021
6070 Clouds 29 1008 74 10000 0.51 70 20:56 02.10.2021
6071 Thunderstorm 29 1010 70 10000 2.06 340 19:40 02.10.2021
6072 Rain 30 1011 66 10000 2.57 180 18:51 02.10.2021
6073 Clouds 30 1013 70 10000 2.06 180 17:41 02.10.2021
6074 Clouds 30 1013 70 10000 2.06 180 17:19 02.10.2021
6075 Clouds 27 1012 78 10000 1.03 180 14:49 02.10.2021
6076 Clouds 29 1014 74 10000 2.06 90 16:34 30.09.2021
6077 Clouds 27 1013 83 10000 1.03 90 14:48 30.09.2021
6078 Mist 24 1011 94 10000 0.51 190 12:36 30.09.2021
6079 Clear 24 1010 94 10000 0 0 11:35 30.09.2021
6080 Clear 24 1010 94 10000 0 0 10:41 30.09.2021
6081 Clear 24 1010 94 10000 1.03 70 08:56 30.09.2021
6082 Clear 24 1010 94 10000 0.51 80 08:27 30.09.2021
6083 Clear 24 1011 100 10000 0 0 06:41 30.09.2021
6084 Clouds 24 1011 94 10000 0 0 04:36 30.09.2021
6085 Clouds 25 1009 88 10000 0 0 00:40 30.09.2021
6086 Clouds 25 1008 88 10000 2.06 80 23:29 29.09.2021
6087 Clouds 25 1009 83 10000 2.57 350 21:55 29.09.2021
6088 Rain 25 1009 83 10000 2.57 350 20:57 29.09.2021
6089 Rain 25 1011 88 10000 2.57 350 20:22 29.09.2021
6090 Rain 25 1011 88 10000 2.06 350 19:38 29.09.2021
6091 Thunderstorm 25 1014 94 10000 3.6 70 18:22 29.09.2021
6092 Clouds 30 1015 74 10000 1.54 110 16:56 29.09.2021
6093 Clouds 30 1015 74 10000 1.54 110 16:32 29.09.2021
6094 Clouds 29 1014 79 10000 2.06 210 15:43 29.09.2021
6095 Clouds 29 1013 74 10000 0.51 150 14:38 29.09.2021
6096 Clear 26 1012 83 10000 1.03 20 13:34 29.09.2021
6097 Clouds 25 1011 83 10000 1.03 30 12:40 29.09.2021
6098 Clear 25 1011 83 10000 1.54 360 11:24 29.09.2021
6099 Clear 26 1010 83 10000 1.54 360 10:32 29.09.2021
6100 Clouds 25 1010 88 10000 1.03 290 09:43 29.09.2021
6101 Clouds 26 1010 83 10000 1.03 300 08:23 29.09.2021
6102 Clear 26 1011 83 10000 1.03 210 06:53 29.09.2021
6103 Clouds 29 1008 70 10000 2.57 360 00:43 29.09.2021
6104 Thunderstorm 30 1009 74 10000 1.54 180 22:52 28.09.2021
6105 Rain 30 1009 74 10000 1.54 180 22:22 28.09.2021
6106 Clouds 31 1009 66 10000 2.57 140 21:23 28.09.2021
6107 Clouds 31 1012 70 10000 1.54 90 19:53 28.09.2021
6108 Clouds 31 1012 70 10000 1.54 90 19:32 28.09.2021
6109 Clouds 30 1014 74 10000 2.57 100 18:41 28.09.2021
6110 Rain 27 1015 83 10000 1.03 150 16:58 28.09.2021
6111 Clouds 26 1015 89 10000 1.03 140 15:21 28.09.2021
6112 Clouds 25 1013 94 10000 1.03 160 13:27 28.09.2021
6113 Clouds 25 1013 88 10000 1.03 160 12:26 28.09.2021
6114 Clouds 24 1012 94 10000 1.03 170 11:51 28.09.2021
6115 Clouds 24 1012 94 10000 1.03 170 11:32 28.09.2021
6116 Clouds 24 1012 94 10000 0 0 10:30 28.09.2021
6117 Clouds 24 1012 94 10000 1.03 170 09:29 28.09.2021
6118 Clouds 24 1012 94 10000 1.54 200 08:44 28.09.2021
6119 Clouds 24 1012 94 10000 1.54 200 08:24 28.09.2021
6120 Clouds 25 1013 88 10000 1.54 180 06:46 28.09.2021
6121 Clear 24 1012 88 10000 0 0 02:56 28.09.2021
6122 Clouds 26 1011 78 10000 2.06 310 00:34 28.09.2021
6123 Clouds 25 1011 78 10000 1.54 10 23:52 27.09.2021
6124 Clouds 25 1011 78 10000 1.54 10 23:25 27.09.2021
6125 Clouds 24 1011 88 10000 1.03 70 22:44 27.09.2021
6126 Clouds 24 1012 94 10000 1.03 180 21:38 27.09.2021
6127 Rain 24 1013 88 8000 1.54 80 20:29 27.09.2021
6128 Rain 25 1014 83 7000 3.09 70 19:40 27.09.2021
6129 Clouds 29 1015 84 10000 2.57 160 18:55 27.09.2021
6130 Clouds 28 1016 83 10000 1.03 160 17:41 27.09.2021
6131 Clouds 28 1016 83 10000 1.03 160 17:21 27.09.2021
6132 Rain 26 1016 94 9000 2.06 290 16:37 27.09.2021
6133 Rain 26 1016 94 9000 2.06 290 16:37 27.09.2021
6134 Clouds 27 1016 89 10000 2.57 250 15:39 27.09.2021
6135 Clouds 25 1015 100 8000 2.06 230 13:57 27.09.2021
6136 Mist 25 1013 94 10000 2.06 260 12:26 27.09.2021
6137 Clear 25 1012 88 10000 1.03 180 10:51 27.09.2021
6138 Clear 25 1013 88 10000 1.03 150 09:42 27.09.2021
6139 Clear 25 1013 88 10000 1.03 180 08:26 27.09.2021
6140 Clear 26 1014 89 10000 1.03 220 04:51 27.09.2021
6141 Clouds 26 1011 83 10000 1.03 160 00:21 27.09.2021
6142 Clouds 27 1011 78 10000 1.03 170 22:18 26.09.2021
6143 Clouds 27 1011 78 10000 2.06 150 21:30 26.09.2021
6144 Thunderstorm 27 1012 74 10000 2.57 170 20:38 26.09.2021
6145 Thunderstorm 28 1013 74 10000 3.6 160 19:59 26.09.2021
6146 Thunderstorm 28 1013 74 10000 3.6 160 19:26 26.09.2021
6147 Thunderstorm 28 1013 74 10000 3.6 160 19:26 26.09.2021
6148 Thunderstorm 28 1013 74 10000 3.6 160 19:26 26.09.2021
6149 Thunderstorm 28 1013 74 10000 3.6 160 19:26 26.09.2021
6150 Thunderstorm 28 1013 74 10000 3.6 160 19:26 26.09.2021
6151 Thunderstorm 28 1013 74 10000 3.6 160 19:26 26.09.2021
6152 Clouds 30 1015 70 10000 1.54 270 18:41 26.09.2021
6153 Clouds 29 1016 74 10000 1.54 250 17:48 26.09.2021
6154 Clouds 29 1016 74 10000 1.54 250 17:20 26.09.2021
6155 Clouds 29 1016 74 10000 2.06 30 16:24 26.09.2021
6156 Clouds 27 1016 83 10000 2.57 20 15:47 26.09.2021
6157 Clouds 27 1015 78 10000 1.03 270 14:23 26.09.2021
6158 Clouds 26 1014 89 10000 1.54 250 13:43 26.09.2021
6159 Clouds 25 1013 88 10000 1.03 200 12:31 26.09.2021
6160 Clouds 25 1013 88 10000 1.03 200 11:56 26.09.2021
6161 Clear 26 1013 73 10000 1.03 280 11:32 26.09.2021
6162 Clear 27 1014 69 10000 2.06 280 09:52 26.09.2021
6163 Clear 27 1014 69 10000 2.57 300 08:52 26.09.2021
6164 Clouds 27 1011 74 10000 1.54 360 01:18 26.09.2021
6165 Clouds 27 1011 74 10000 1.54 360 01:18 26.09.2021
6166 Thunderstorm 31 1011 70 10000 3.6 270 00:18 26.09.2021
6167 Clouds 33 1010 58 10000 1.03 120 22:40 25.09.2021
6168 Clouds 33 1010 58 10000 1.03 120 22:20 25.09.2021
6169 Clouds 32 1011 62 10000 2.57 220 21:47 25.09.2021
6170 Clouds 32 1011 62 10000 2.57 220 20:53 25.09.2021
6171 Clouds 32 1012 66 10000 3.09 240 19:53 25.09.2021
6172 Clouds 30 1014 74 10000 2.06 220 18:31 25.09.2021
6173 Clouds 30 1015 79 10000 2.06 190 17:46 25.09.2021
6174 Clouds 27 1015 78 10000 1.54 240 14:46 25.09.2021
6175 Clouds 26 1014 89 10000 0.51 180 13:55 25.09.2021
6176 Clouds 26 1014 83 10000 0 0 12:46 25.09.2021
6177 Rain 26 1013 83 10000 1.03 160 11:29 25.09.2021
6178 Clouds 26 1013 83 10000 1.03 160 10:20 25.09.2021
6179 Clouds 26 1013 83 10000 2.06 160 09:22 25.09.2021
6180 Clouds 27 1013 83 10000 1.54 160 07:48 25.09.2021
6181 Clouds 29 1011 74 10000 1.03 160 00:52 25.09.2021
6182 Clouds 31 1011 66 10000 1.03 130 22:18 24.09.2021
6183 Clouds 31 1011 66 10000 1.54 160 21:34 24.09.2021
6184 Clouds 31 1012 66 10000 1.54 190 20:32 24.09.2021
6185 Clouds 30 1013 66 10000 1.03 160 19:32 24.09.2021
6186 Clouds 30 1013 66 10000 1.03 160 19:32 24.09.2021
6187 Clouds 29 1014 65 10000 1.54 170 18:21 24.09.2021
6188 Clouds 29 1014 65 10000 1.54 170 17:53 24.09.2021
6189 Clouds 29 1015 70 10000 1.54 100 17:34 24.09.2021
6190 Clouds 27 1016 74 10000 1.03 40 15:50 24.09.2021
6191 Clear 25 1013 83 10000 1.54 340 13:27 24.09.2021
6192 Clouds 25 1012 83 10000 2.06 320 12:43 24.09.2021
6193 Clouds 25 1012 83 10000 2.06 320 12:25 24.09.2021
6194 Clouds 25 1012 83 10000 2.06 320 12:25 24.09.2021
6195 Clouds 25 1011 88 10000 1.03 210 10:53 24.09.2021
6196 Clouds 25 1011 88 10000 1.03 210 09:55 24.09.2021
6197 Clouds 26 1012 83 8000 2.06 310 08:21 24.09.2021
6198 Clear 26 1012 89 10000 1.03 190 06:59 24.09.2021
6199 Clear 26 1012 89 10000 1.03 200 05:57 24.09.2021
6200 Clear 27 1012 74 10000 1.54 260 03:56 24.09.2021
6201 Rain 25 1009 94 10000 1.54 300 22:37 23.09.2021
6202 Rain 26 1009 94 6000 1.54 140 21:59 23.09.2021
6203 Rain 26 1009 94 6000 1.54 140 20:54 23.09.2021
6204 Clouds 32 1010 62 10000 1.54 110 20:31 23.09.2021
6205 Clouds 32 1012 66 10000 1.54 80 18:32 23.09.2021
6206 Clouds 29 1013 74 10000 2.06 230 15:53 23.09.2021
6207 Clouds 29 1013 70 10000 1.54 330 15:19 23.09.2021
6208 Clouds 27 1013 83 10000 2.57 270 14:24 23.09.2021
6209 Clear 27 1011 78 10000 2.06 290 13:26 23.09.2021
6210 Clear 27 1011 78 10000 2.06 290 12:54 23.09.2021
6211 Clear 26 1011 78 10000 2.06 300 12:26 23.09.2021
6212 Clear 26 1011 78 10000 2.06 300 11:56 23.09.2021
6213 Clear 27 1009 74 10000 2.06 340 10:30 23.09.2021
6214 Clear 27 1009 74 10000 2.06 340 09:54 23.09.2021
6215 Clear 27 1009 74 10000 2.06 340 08:55 23.09.2021
6216 Clear 29 1011 74 10000 1.54 10 05:29 23.09.2021
6217 Clouds 32 1006 62 10000 3.09 70 23:48 22.09.2021
6218 Clouds 33 1006 58 10000 2.06 80 22:49 22.09.2021
6219 Clouds 33 1006 58 10000 2.06 80 22:18 22.09.2021
6220 Clouds 33 1007 58 10000 2.06 70 21:42 22.09.2021
6221 Clouds 33 1007 58 10000 2.06 70 20:57 22.09.2021
6222 Clouds 34 1009 59 10000 2.06 100 19:47 22.09.2021
6223 Clouds 34 1009 59 10000 2.06 100 19:26 22.09.2021
6224 Clouds 33 1011 58 10000 2.06 80 18:25 22.09.2021
6225 Clouds 34 1011 44 10000 1.11 83 16:57 22.09.2021
6226 Clouds 30 1012 74 10000 2.06 80 15:38 22.09.2021
6227 Clouds 28 1012 83 10000 1.54 80 14:25 22.09.2021
6228 Clouds 27 1011 89 10000 1.03 60 12:55 22.09.2021
6229 Clear 27 1010 94 10000 2.06 70 10:59 22.09.2021
6230 Clear 27 1010 94 10000 2.06 90 09:29 22.09.2021
6231 Clear 27 1010 94 10000 1.54 70 08:36 22.09.2021
6232 Clear 28 1010 89 10000 2.06 80 07:30 22.09.2021
6233 Clear 28 1010 89 10000 2.06 70 06:19 22.09.2021
6234 Clear 28 1011 89 10000 1.54 80 05:42 22.09.2021
6235 Clear 28 1010 83 10000 1.54 90 03:58 22.09.2021
6236 Clear 29 1009 79 10000 1.54 60 02:55 22.09.2021
6237 Clouds 32 1008 58 10000 3.09 80 23:31 21.09.2021
6238 Clouds 33 1010 62 10000 3.6 60 21:47 21.09.2021
6239 Clouds 36 1008 39 10000 1.68 89 20:27 21.09.2021
6240 Clouds 32 1011 62 10000 3.09 350 19:24 21.09.2021
6241 Clouds 35 1011 42 10000 2.48 96 18:19 21.09.2021
6242 Clouds 30 1014 79 10000 1.54 80 16:41 21.09.2021
6243 Clouds 30 1014 79 10000 1.54 80 15:56 21.09.2021
6244 Clouds 30 1013 74 10000 3.09 60 14:58 21.09.2021
6245 Clouds 26 1012 89 10000 1.03 50 13:57 21.09.2021
6246 Clouds 26 1012 89 10000 1.03 50 13:39 21.09.2021
6247 Clouds 25 1011 94 10000 1.54 30 12:44 21.09.2021
6248 Clouds 25 1010 94 10000 1.54 40 10:39 21.09.2021
6249 Clear 25 1010 94 10000 2.06 90 08:45 21.09.2021
6250 Clear 26 1011 89 10000 2.06 70 07:37 21.09.2021
6251 Clouds 27 1010 78 10000 1.54 170 01:53 21.09.2021
6252 Clouds 29 1009 74 10000 2.06 70 22:50 20.09.2021
6253 Clouds 29 1009 74 10000 3.6 350 21:42 20.09.2021
6254 Clouds 29 1009 74 10000 3.6 350 21:20 20.09.2021
6255 Clouds 33 1010 58 10000 2.06 90 19:46 20.09.2021
6256 Clouds 32 1013 66 10000 1.54 70 17:54 20.09.2021
6257 Clouds 32 1013 66 10000 1.54 70 16:57 20.09.2021
6258 Clear 30 1013 70 10000 1.54 40 15:57 20.09.2021
6259 Clear 30 1013 70 10000 1.54 40 15:34 20.09.2021
6260 Clear 28 1013 74 10000 2.06 360 14:26 20.09.2021
6261 Clouds 24 1011 88 10000 0 0 12:44 20.09.2021
6262 Clouds 24 1011 88 10000 0 0 12:21 20.09.2021
6263 Clear 25 1010 88 10000 2.57 360 10:49 20.09.2021
6264 Clouds 25 1010 88 10000 1.03 10 09:48 20.09.2021
6265 Clouds 25 1010 88 10000 1.03 10 09:29 20.09.2021
6266 Clear 26 1010 83 10000 1.54 350 08:34 20.09.2021
6267 Clear 25 1012 88 10000 2.06 20 06:21 20.09.2021
6268 Thunderstorm 30 1009 66 7000 3.6 60 22:57 19.09.2021
6269 Rain 31 1009 66 10000 2.06 230 21:48 19.09.2021
6270 Clouds 31 1009 66 10000 2.06 230 20:59 19.09.2021
6271 Clouds 31 1009 62 10000 3.09 250 19:54 19.09.2021
6272 Clouds 30 1013 74 10000 2.06 230 18:42 19.09.2021
6273 Clouds 29 1014 74 10000 2.57 230 17:33 19.09.2021
6274 Clouds 28 1014 78 10000 3.6 240 16:33 19.09.2021
6275 Clouds 28 1014 78 10000 2.57 260 15:31 19.09.2021
6276 Clouds 27 1013 83 10000 1.54 300 14:48 19.09.2021
6277 Clouds 26 1013 89 10000 1.54 340 13:49 19.09.2021
6278 Fog 25 1011 94 10000 1.03 40 12:52 19.09.2021
6279 Clouds 25 1011 100 10000 1.54 250 11:42 19.09.2021
6280 Clouds 25 1011 100 10000 1.54 250 11:21 19.09.2021
6281 Clouds 26 1010 89 10000 1.54 310 09:50 19.09.2021
6282 Clouds 26 1010 89 10000 1.54 310 09:21 19.09.2021
6283 Clear 26 1014 89 10000 1.03 260 06:43 19.09.2021
6284 Clouds 27 1009 83 10000 2.57 260 00:40 19.09.2021
6285 Clouds 28 1009 78 10000 2.57 240 22:54 18.09.2021
6286 Clouds 28 1010 78 10000 3.09 250 21:40 18.09.2021
6287 Clouds 27 1011 83 10000 2.06 230 20:46 18.09.2021
6288 Clouds 27 1012 83 10000 1.03 180 19:42 18.09.2021
6289 Rain 27 1012 83 10000 1.03 180 19:21 18.09.2021
6290 Rain 26 1013 89 10000 1.54 310 18:38 18.09.2021
6291 Rain 26 1013 89 10000 1.54 310 17:59 18.09.2021
6292 Rain 24 1015 94 10000 1.54 200 16:34 18.09.2021
6293 Thunderstorm 27 1012 74 10000 1.54 310 13:51 18.09.2021
6294 Clouds 27 1012 74 10000 1.54 310 13:31 18.09.2021
6295 Clouds 26 1012 78 10000 1.54 330 12:51 18.09.2021
6296 Clouds 26 1012 78 10000 2.06 350 11:42 18.09.2021
6297 Clouds 26 1011 89 10000 2.06 240 10:37 18.09.2021
6298 Clouds 26 1011 89 10000 2.06 240 09:52 18.09.2021
6299 Clear 26 1011 78 10000 1.54 280 09:20 18.09.2021
6300 Clear 26 1012 78 10000 1.03 30 07:36 18.09.2021
6301 Rain 25 1010 86 10000 2.29 219 00:42 18.09.2021
6302 Clouds 27 1010 77 10000 2.15 256 23:53 17.09.2021
6303 Clouds 30 1009 63 10000 1.51 274 22:42 17.09.2021
6304 Clouds 30 1008 64 10000 1.45 343 22:21 17.09.2021
6305 Clouds 31 1010 66 10000 1.54 160 21:24 17.09.2021
6306 Clouds 29 1013 74 10000 2.06 160 19:26 17.09.2021
6307 Rain 29 1015 74 10000 2.57 220 17:55 17.09.2021
6308 Clouds 28 1016 74 10000 2.06 160 16:27 17.09.2021
6309 Clouds 26 1015 94 10000 2.57 350 14:24 17.09.2021
6310 Clear 24 1013 94 10000 0.51 60 11:30 17.09.2021
6311 Clear 24 1014 94 10000 0.51 60 08:55 17.09.2021
6312 Clouds 24 1014 94 10000 0.51 90 07:33 17.09.2021
6313 Clouds 27 1013 69 10000 1.54 310 03:54 17.09.2021
6314 Rain 29 1010 58 9000 1.54 360 23:35 16.09.2021
6315 Rain 29 1011 58 10000 2.57 30 22:28 16.09.2021
6316 Rain 31 1012 51 10000 4.12 10 21:52 16.09.2021
6317 Rain 31 1012 51 10000 4.12 10 21:26 16.09.2021
6318 Clouds 32 1013 62 10000 2.06 160 20:19 16.09.2021
6319 Clouds 31 1015 66 10000 2.57 160 18:21 16.09.2021
6320 Clouds 31 1016 66 10000 2.57 150 17:33 16.09.2021
6321 Clouds 30 1016 58 10000 1.03 120 14:59 16.09.2021
6322 Clouds 28 1016 74 10000 1.03 100 14:26 16.09.2021
6323 Clouds 25 1014 83 10000 1.03 150 12:51 16.09.2021
6324 Clouds 25 1014 83 10000 1.03 150 12:29 16.09.2021
6325 Clouds 26 1012 94 10000 1.54 140 11:28 16.09.2021
6326 Clouds 26 1012 94 10000 1.54 120 10:33 16.09.2021
6327 Clouds 26 1012 94 10000 1.54 120 09:58 16.09.2021
6328 Clear 27 1013 89 10000 2.06 160 08:42 16.09.2021
6329 Clear 27 1013 89 10000 2.06 170 07:36 16.09.2021
6330 Clear 28 1014 83 10000 2.06 180 06:46 16.09.2021
6331 Clear 26 1014 89 10000 0.51 160 05:40 16.09.2021
6332 Clear 29 1011 70 10000 1.54 200 01:41 16.09.2021
6333 Clouds 31 1010 62 10000 1.03 150 23:47 15.09.2021
6334 Clouds 32 1011 62 10000 3.09 150 22:47 15.09.2021
6335 Clouds 32 1011 62 10000 3.09 150 22:47 15.09.2021
6336 Clouds 33 1012 55 10000 2.06 80 21:48 15.09.2021
6337 Clouds 33 1012 55 10000 2.06 80 21:29 15.09.2021
6338 Clouds 33 1012 55 10000 2.06 100 19:58 15.09.2021
6339 Clouds 33 1014 58 10000 2.57 90 19:27 15.09.2021
6340 Clouds 32 1015 62 10000 2.57 80 18:20 15.09.2021
6341 Clouds 32 1015 62 10000 2.57 60 16:59 15.09.2021
6342 Clouds 29 1015 79 10000 2.06 50 15:46 15.09.2021
6343 Clear 27 1015 83 10000 2.06 70 14:45 15.09.2021
6344 Clear 27 1015 83 10000 2.06 70 14:45 15.09.2021
6345 Clouds 26 1014 89 10000 1.54 160 13:52 15.09.2021
6346 Clouds 26 1014 89 10000 1.54 160 13:30 15.09.2021
6347 Clear 26 1013 89 10000 1.54 170 12:48 15.09.2021
6348 Clouds 27 1012 78 10000 0 0 11:52 15.09.2021
6349 Clouds 27 1012 78 10000 0 0 11:52 15.09.2021
6350 Clouds 27 1012 78 10000 0 0 11:31 15.09.2021
6351 Clouds 27 1012 78 10000 0 0 10:55 15.09.2021
6352 Clear 27 1011 78 10000 1.54 300 09:29 15.09.2021
6353 Clear 28 1012 74 10000 1.03 270 07:48 15.09.2021
6354 Clear 27 1013 83 10000 0 0 04:55 15.09.2021
6355 Clouds 33 1009 55 10000 1.03 100 23:45 14.09.2021
6356 Clouds 33 1009 55 10000 2.06 140 21:41 14.09.2021
6357 Clouds 34 1011 52 10000 2.06 80 20:39 14.09.2021
6358 Clouds 34 1012 52 10000 2.06 70 19:42 14.09.2021
6359 Clouds 33 1014 55 10000 3.09 20 17:40 14.09.2021
6360 Clouds 33 1014 55 10000 3.09 20 16:59 14.09.2021
6361 Clear 30 1014 66 10000 2.57 50 15:33 14.09.2021
6362 Clear 28 1014 74 10000 4.12 40 14:31 14.09.2021
6363 Clouds 25 1012 88 10000 1.03 50 12:39 14.09.2021
6364 Clear 26 1012 89 10000 1.54 330 10:54 14.09.2021
6365 Clear 26 1012 89 10000 1.54 330 10:54 14.09.2021
6366 Clear 25 1012 94 10000 1.54 310 09:50 14.09.2021
6367 Clear 25 1012 94 10000 2.06 320 08:41 14.09.2021
6368 Clear 27 1013 83 10000 2.06 320 06:24 14.09.2021
6369 Clouds 30 1009 66 10000 2.06 340 00:31 14.09.2021
6370 Clouds 31 1010 62 10000 4.63 290 22:48 13.09.2021
6371 Clouds 31 1010 62 10000 4.63 290 22:23 13.09.2021
6372 Thunderstorm 34 1010 55 10000 2.06 70 21:45 13.09.2021
6373 Clouds 34 1011 55 10000 2.06 90 20:50 13.09.2021
6374 Clouds 34 1013 52 10000 2.57 80 18:46 13.09.2021
6375 Clouds 33 1014 52 10000 3.6 70 17:49 13.09.2021
6376 Clouds 32 1015 66 10000 2.06 80 16:50 13.09.2021
6377 Clouds 31 1015 70 10000 1.03 110 15:30 13.09.2021
6378 Clouds 26 1013 94 10000 0.51 160 11:55 13.09.2021
6379 Clouds 26 1013 94 10000 0.51 160 10:58 13.09.2021
6380 Clouds 27 1012 94 10000 1.03 160 09:36 13.09.2021
6381 Clear 29 1013 70 10000 1.03 60 04:57 13.09.2021
6382 Clouds 33 1010 55 10000 1.03 70 23:32 12.09.2021
6383 Clouds 32 1010 58 10000 1.54 80 22:25 12.09.2021
6384 Clouds 33 1011 58 10000 1.54 100 21:36 12.09.2021
6385 Clouds 33 1012 58 10000 1.03 80 20:28 12.09.2021
6386 Clouds 33 1013 55 10000 2.57 40 19:50 12.09.2021
6387 Clouds 33 1013 55 10000 2.57 40 19:19 12.09.2021
6388 Clouds 33 1013 55 10000 2.57 40 19:19 12.09.2021
6389 Clouds 33 1010 62 10000 2.06 90 18:20 12.09.2021
6390 Clouds 30 1015 74 10000 1.54 190 16:30 12.09.2021
6391 Clouds 30 1015 74 10000 1.54 190 16:30 12.09.2021
6392 Clouds 30 1015 74 10000 1.54 190 16:30 12.09.2021
6393 Clear 28 1015 74 10000 1.54 230 14:50 12.09.2021
6394 Clear 25 1022 88 10000 0.51 160 12:47 12.09.2021
6395 Rain 27 1013 78 10000 1.54 280 10:44 12.09.2021
6396 Clear 27 1013 83 10000 2.06 250 08:59 12.09.2021
6397 Clear 27 1013 83 10000 2.06 250 08:36 12.09.2021
6398 Clouds 30 1011 66 10000 2.06 40 00:56 12.09.2021
6399 Clouds 32 1010 58 10000 3.09 70 23:19 11.09.2021
6400 Clouds 34 1010 52 10000 2.06 80 21:41 11.09.2021
6401 Clouds 34 1012 55 10000 2.57 90 20:18 11.09.2021
6402 Clouds 34 1012 55 10000 2.57 90 20:18 11.09.2021
6403 Clouds 32 1014 66 10000 1.54 100 18:35 11.09.2021
6404 Clouds 32 1015 70 10000 1.54 150 17:29 11.09.2021
6405 Clouds 28 1015 83 10000 1.54 230 15:39 11.09.2021
6406 Clouds 26 1013 94 10000 1.54 240 13:30 11.09.2021
6407 Clear 26 1012 100 10000 1.03 220 11:47 11.09.2021
6408 Clear 26 1012 94 10000 2.06 250 10:51 11.09.2021
6409 Clear 27 1011 89 10000 1.54 240 09:30 11.09.2021
6410 Clear 27 1012 89 10000 1.54 210 07:44 11.09.2021
6411 Clear 27 1012 89 10000 0 0 06:31 11.09.2021
6412 Clouds 32 1009 62 10000 1.54 90 22:48 10.09.2021
6413 Clouds 32 1009 62 10000 1.54 90 22:22 10.09.2021
6414 Clouds 32 1010 62 10000 2.06 90 21:43 10.09.2021
6415 Clouds 33 1012 62 10000 2.06 120 19:33 10.09.2021
6416 Clouds 31 1013 70 10000 2.06 90 18:00 10.09.2021
6417 Clouds 28 1015 83 10000 1.54 180 16:34 10.09.2021
6418 Clouds 26 1013 94 10000 1.54 170 13:52 10.09.2021
6419 Clouds 26 1012 89 10000 2.06 170 11:38 10.09.2021
6420 Clear 26 1012 94 10000 1.03 200 08:27 10.09.2021
6421 Clear 27 1012 89 10000 1.54 250 07:44 10.09.2021
6422 Clouds 28 1009 83 10000 2.06 240 00:41 10.09.2021
6423 Clouds 30 1009 74 10000 1.54 150 21:56 09.09.2021
6424 Rain 30 1011 66 10000 2.06 170 20:48 09.09.2021
6425 Rain 30 1011 66 10000 2.06 170 20:29 09.09.2021
6426 Clouds 28 1013 69 10000 1.54 160 18:50 09.09.2021
6427 Clouds 28 1014 74 10000 2.57 220 17:51 09.09.2021
6428 Rain 27 1014 78 10000 2.57 250 16:39 09.09.2021
6429 Rain 26 1015 78 9000 1.54 310 15:26 09.09.2021
6430 Thunderstorm 25 1012 83 9000 3.6 30 12:33 09.09.2021
6431 Thunderstorm 25 1012 88 9000 3.09 170 11:23 09.09.2021
6432 Clouds 27 1011 89 10000 2.06 250 09:39 09.09.2021
6433 Clouds 27 1011 89 10000 1.54 260 07:56 09.09.2021
6434 Clear 29 1012 79 10000 1.54 310 05:51 09.09.2021
6435 Clear 30 1008 79 10000 2.57 260 00:43 09.09.2021
6436 Clouds 30 1009 70 10000 1.54 20 21:49 08.09.2021
6437 Clouds 30 1009 70 10000 1.54 20 20:54 08.09.2021
6438 Clouds 34 1010 62 10000 2.06 80 19:46 08.09.2021
6439 Clouds 32 1012 66 10000 1.54 60 18:47 08.09.2021
6440 Clouds 32 1012 66 10000 1.54 60 18:25 08.09.2021
6441 Clouds 33 1013 58 10000 3.09 40 17:40 08.09.2021
6442 Clouds 29 1013 79 10000 1.54 230 15:35 08.09.2021
6443 Clear 27 1011 78 10000 2.06 330 13:45 08.09.2021
6444 Clear 27 1011 78 10000 2.57 330 12:41 08.09.2021
6445 Clear 27 1011 78 10000 2.57 330 12:23 08.09.2021
6446 Clear 27 1010 78 10000 1.54 360 11:26 08.09.2021
6447 Clear 27 1010 78 10000 3.09 350 10:31 08.09.2021
6448 Clear 27 1010 78 10000 3.09 350 09:55 08.09.2021
6449 Clear 28 1011 83 10000 3.09 20 07:45 08.09.2021
6450 Clear 28 1011 83 10000 3.09 20 07:45 08.09.2021
6451 Clear 27 1011 89 10000 0 0 06:43 08.09.2021
6452 Clouds 33 1008 55 10000 1.03 90 23:28 07.09.2021
6453 Clouds 34 1009 52 10000 1.03 100 22:19 07.09.2021
6454 Clouds 34 1010 52 10000 2.06 100 20:42 07.09.2021
6455 Clouds 33 1011 55 10000 1.54 130 18:53 07.09.2021
6456 Clouds 33 1012 58 10000 2.06 90 18:28 07.09.2021
6457 Clouds 32 1013 62 10000 2.57 100 17:25 07.09.2021
6458 Clear 30 1013 70 10000 1.54 90 15:56 07.09.2021
6459 Clear 29 1012 70 10000 1.54 80 14:48 07.09.2021
6460 Clear 27 1011 78 10000 1.03 70 13:52 07.09.2021
6461 Clear 25 1010 83 10000 1.54 50 11:58 07.09.2021
6462 Clear 27 1011 78 10000 1.54 90 10:48 07.09.2021
6463 Clear 27 1011 78 10000 1.54 70 09:40 07.09.2021
6464 Clear 28 1011 74 10000 2.06 70 07:46 07.09.2021
6465 Clear 28 1011 74 10000 2.57 80 06:19 07.09.2021
6466 Clear 28 1009 78 10000 1.03 80 02:38 07.09.2021
6467 Clouds 30 1009 70 10000 1.03 70 00:55 07.09.2021
6468 Clouds 32 1009 58 10000 1.54 80 23:43 06.09.2021
6469 Clouds 32 1009 58 10000 1.54 80 23:21 06.09.2021
6470 Clouds 33 1009 58 10000 1.03 90 22:46 06.09.2021
6471 Clouds 33 1010 58 10000 1.54 90 21:52 06.09.2021
6472 Clouds 32 1012 62 10000 2.06 100 19:36 06.09.2021
6473 Clouds 32 1012 62 10000 2.06 100 19:18 06.09.2021
6474 Clouds 32 1013 66 10000 2.06 90 18:33 06.09.2021
6475 Clouds 31 1014 66 10000 2.57 80 17:37 06.09.2021
6476 Clouds 31 1014 66 10000 2.57 80 17:37 06.09.2021
6477 Clouds 30 1014 74 10000 2.06 80 15:59 06.09.2021
6478 Clouds 28 1013 78 10000 1.03 110 14:34 06.09.2021
6479 Clear 24 1012 94 10000 0 0 12:48 06.09.2021
6480 Clouds 24 1011 94 10000 1.54 60 11:33 06.09.2021
6481 Clouds 25 1011 88 10000 1.54 50 09:59 06.09.2021
6482 Clear 25 1012 88 10000 1.54 30 07:34 06.09.2021
6483 Thunderstorm 26 1008 89 10000 1.54 40 01:32 06.09.2021
6484 Clouds 32 1007 62 10000 1.54 80 23:20 05.09.2021
6485 Clouds 32 1007 62 10000 1.54 90 22:31 05.09.2021
6486 Clouds 32 1007 62 10000 1.54 90 21:55 05.09.2021
6487 Clouds 32 1009 62 10000 2.57 80 21:19 05.09.2021
6488 Clouds 33 1011 62 10000 2.57 70 19:22 05.09.2021
6489 Clouds 30 1013 70 10000 3.6 70 17:37 05.09.2021
6490 Clouds 30 1013 70 10000 3.6 70 17:36 05.09.2021
6491 Clouds 28 1013 74 10000 5.14 50 15:40 05.09.2021
6492 Clouds 27 1013 83 10000 3.6 60 14:45 05.09.2021
6493 Clear 26 1010 89 10000 1.54 40 12:34 05.09.2021
6494 Clouds 25 1010 88 10000 1.54 60 10:59 05.09.2021
6495 Clear 25 1010 88 10000 0 0 10:34 05.09.2021
6496 Clear 25 1011 88 10000 0.51 110 09:25 05.09.2021
6497 Clear 26 1011 83 10000 0 0 08:23 05.09.2021
6498 Clear 26 1010 83 10000 0 0 03:20 05.09.2021
6499 Clouds 29 1007 74 10000 1.54 90 00:32 05.09.2021
6500 Clouds 30 1007 74 10000 1.03 120 23:46 04.09.2021
6501 Clouds 30 1008 74 10000 1.03 90 22:36 04.09.2021
6502 Clouds 30 1008 74 10000 1.03 90 21:59 04.09.2021
6503 Clouds 30 1010 74 10000 2.06 80 19:54 04.09.2021
6504 Clouds 31 1011 66 10000 2.57 90 19:29 04.09.2021
6505 Clouds 31 1013 66 10000 2.57 50 16:27 04.09.2021
6506 Clear 25 1011 88 10000 2.57 360 13:36 04.09.2021
6507 Clouds 25 1010 88 10000 2.06 330 11:20 04.09.2021
6508 Clouds 25 1011 83 10000 1.03 230 09:26 04.09.2021
6509 Clouds 26 1012 78 10000 1.54 250 06:55 04.09.2021
6510 Clouds 29 1009 74 10000 1.03 180 00:27 04.09.2021
6511 Clouds 29 1008 79 10000 0.51 150 23:32 03.09.2021
6512 Clouds 27 1008 83 10000 1.03 140 22:39 03.09.2021
6513 Clouds 27 1008 78 8000 3.6 0 21:35 03.09.2021
6514 Clouds 33 1009 55 10000 2.57 180 20:43 03.09.2021
6515 Clouds 32 1012 62 10000 2.06 160 19:55 03.09.2021
6516 Clouds 32 1012 62 10000 2.06 160 19:19 03.09.2021
6517 Clouds 31 1014 70 10000 2.06 180 17:53 03.09.2021
6518 Clouds 30 1014 74 10000 2.57 180 16:37 03.09.2021
6519 Clouds 29 1014 79 10000 1.03 120 14:58 03.09.2021
6520 Clear 26 1012 94 10000 0.51 30 12:24 03.09.2021
6521 Clear 26 1011 89 10000 0.51 20 10:31 03.09.2021
6522 Clear 26 1011 94 10000 1.03 70 08:59 03.09.2021
6523 Clear 27 1012 89 10000 1.03 210 07:44 03.09.2021
6524 Clear 28 1011 78 10000 1.03 170 01:40 03.09.2021
6525 Clouds 31 1009 58 10000 2.06 240 23:20 02.09.2021
6526 Clouds 32 1010 58 10000 2.57 230 21:35 02.09.2021
6527 Clouds 31 1012 70 10000 2.06 210 19:55 02.09.2021
6528 Clouds 29 1014 65 10000 2.57 240 17:32 02.09.2021
6529 Clouds 27 1014 83 10000 2.06 230 15:52 02.09.2021
6530 Clouds 24 1013 94 10000 1.54 360 13:57 02.09.2021
6531 Clouds 24 1012 94 10000 1.54 350 12:48 02.09.2021
6532 Clouds 23 1013 100 10000 0.51 310 11:35 02.09.2021
6533 Clouds 24 1013 94 10000 1.03 310 09:40 02.09.2021
6534 Clouds 24 1014 94 10000 1.03 330 07:48 02.09.2021
6535 Clouds 24 1014 94 10000 1.03 330 07:18 02.09.2021
6536 Clouds 24 1014 94 10000 1.03 330 07:18 02.09.2021
6537 Clouds 24 1013 94 10000 2.57 40 02:56 02.09.2021
6538 Rain 24 1012 100 9000 2.06 10 01:56 02.09.2021
6539 Rain 24 1012 100 9000 2.06 10 01:25 02.09.2021
6540 Rain 27 1011 78 10000 1.54 60 23:39 01.09.2021
6541 Clouds 28 1011 78 10000 3.6 250 22:39 01.09.2021
6542 Clouds 30 1011 70 10000 3.09 250 21:39 01.09.2021
6543 Clouds 28 1012 69 9000 3.09 300 20:29 01.09.2021
6544 Clouds 28 1013 74 4000 3.6 310 18:33 01.09.2021
6545 Clouds 29 1014 79 10000 3.6 260 17:38 01.09.2021
6546 Clouds 28 1015 78 10000 3.09 250 16:47 01.09.2021
6547 Clouds 27 1015 89 10000 1.54 220 15:27 01.09.2021
6548 Fog 25 1012 94 10000 1.03 180 11:50 01.09.2021
6549 Fog 25 1012 94 10000 0.51 190 10:59 01.09.2021
6550 Clouds 24 1012 100 10000 1.03 120 08:46 01.09.2021
6551 Clouds 24 1013 100 10000 0.51 160 07:51 01.09.2021
6552 Clouds 25 1011 94 10000 2.57 320 01:48 01.09.2021
6553 Thunderstorm 25 1010 94 7000 3.09 60 22:33 31.08.2021
6554 Rain 26 1010 89 10000 2.06 70 21:23 31.08.2021
6555 Clouds 29 1012 65 10000 2.57 280 19:45 31.08.2021
6556 Clouds 28 1013 78 10000 4.12 260 18:28 31.08.2021
6557 Clouds 29 1014 74 10000 2.57 240 17:36 31.08.2021
6558 Clouds 27 1014 83 10000 2.06 230 16:52 31.08.2021
6559 Clouds 27 1014 83 10000 2.06 230 16:24 31.08.2021
6560 Mist 24 1012 100 10000 0 0 12:57 31.08.2021
6561 Fog 24 1011 100 10000 1.03 240 11:27 31.08.2021
6562 Mist 23 1011 94 10000 0 0 10:52 31.08.2021
6563 Mist 23 1011 94 10000 1.03 10 09:44 31.08.2021
6564 Mist 23 1011 100 10000 1.03 90 08:38 31.08.2021
6565 Fog 24 1012 94 10000 1.03 120 05:58 31.08.2021
6566 Clouds 24 1010 100 10000 1.03 150 01:36 31.08.2021
6567 Clouds 25 1010 88 10000 3.09 260 23:35 30.08.2021
6568 Rain 23 1011 94 5000 1.03 40 21:43 30.08.2021
6569 Thunderstorm 23 1012 94 3000 1.54 10 20:42 30.08.2021
6570 Thunderstorm 22 1012 100 1500 4.63 60 20:18 30.08.2021
6571 Thunderstorm 27 1012 83 3000 2.06 60 19:29 30.08.2021
6572 Clouds 30 1013 70 10000 2.57 180 18:30 30.08.2021
6573 Clouds 28 1013 78 10000 2.06 190 17:44 30.08.2021
6574 Clouds 28 1014 78 10000 2.57 170 16:19 30.08.2021
6575 Clouds 26 1013 83 10000 1.03 210 14:51 30.08.2021
6576 Clouds 25 1012 83 10000 2.57 270 13:28 30.08.2021
6577 Clouds 24 1011 88 10000 2.06 310 12:24 30.08.2021
6578 Thunderstorm 27 1011 89 10000 2.57 330 08:27 30.08.2021
6579 Clouds 31 1009 66 10000 1.54 90 22:26 29.08.2021
6580 Clouds 31 1010 70 10000 2.06 80 21:32 29.08.2021
6581 Clouds 31 1012 70 10000 2.06 100 19:33 29.08.2021
6582 Clouds 31 1013 70 10000 2.57 70 18:47 29.08.2021
6583 Clouds 29 1014 79 10000 2.06 80 17:41 29.08.2021
6584 Clouds 28 1015 83 10000 1.54 240 15:30 29.08.2021
6585 Fog 27 1014 89 10000 1.54 190 13:57 29.08.2021
6586 Fog 26 1013 94 10000 1.03 310 12:58 29.08.2021
6587 Fog 25 1012 100 10000 2.06 30 12:21 29.08.2021
6588 Fog 25 1012 100 10000 0.51 240 11:41 29.08.2021
6589 Fog 26 1012 94 10000 1.54 240 10:49 29.08.2021
6590 Fog 26 1012 94 10000 1.54 240 10:30 29.08.2021
6591 Fog 26 1012 94 10000 1.54 240 10:30 29.08.2021
6592 Clouds 26 1012 94 10000 1.54 230 09:44 29.08.2021
6593 Clouds 26 1013 94 10000 1.03 220 06:38 29.08.2021
6594 Clouds 28 1010 74 10000 3.09 30 23:33 28.08.2021
6595 Rain 26 1011 78 10000 2.06 160 20:46 28.08.2021
6596 Thunderstorm 28 1011 74 10000 3.09 80 19:36 28.08.2021
6597 Clouds 32 1011 70 10000 1.54 90 18:27 28.08.2021
6598 Clouds 32 1013 70 10000 1.54 90 17:47 28.08.2021
6599 Clouds 30 1013 74 10000 1.54 140 16:56 28.08.2021
6600 Clouds 29 1013 79 10000 1.03 220 15:20 28.08.2021
6601 Clouds 29 1013 84 10000 1.03 140 13:59 28.08.2021
6602 Clear 27 1012 89 10000 1.54 280 13:40 28.08.2021
6603 Clear 26 1011 89 10000 1.03 220 12:35 28.08.2021
6604 Clear 26 1011 89 10000 1.03 220 12:35 28.08.2021
6605 Clear 26 1011 89 10000 1.03 230 11:40 28.08.2021
6606 Clear 26 1011 89 10000 1.03 220 10:18 28.08.2021
6607 Clear 27 1011 83 10000 1.03 200 07:57 28.08.2021
6608 Clouds 31 1008 66 10000 1.54 80 00:59 28.08.2021
6609 Clouds 35 1007 52 10000 1.03 100 21:29 27.08.2021
6610 Clouds 34 1008 55 10000 1.54 120 20:52 27.08.2021
6611 Clouds 34 1009 55 10000 1.54 90 19:43 27.08.2021
6612 Clouds 33 1010 55 10000 2.57 80 18:39 27.08.2021
6613 Clear 33 1011 58 10000 3.6 70 17:54 27.08.2021
6614 Clear 32 1011 62 10000 3.09 80 16:41 27.08.2021
6615 Clear 29 1011 74 10000 4.12 50 14:46 27.08.2021
6616 Clear 27 1010 83 10000 2.57 70 13:30 27.08.2021
6617 Clear 27 1009 83 10000 2.06 90 12:27 27.08.2021
6618 Clear 28 1008 78 10000 1.03 60 10:58 27.08.2021
6619 Clear 28 1008 78 10000 1.03 60 10:36 27.08.2021
6620 Clear 27 1009 83 10000 1.54 40 08:57 27.08.2021
6621 Clear 27 1009 83 10000 1.54 40 08:35 27.08.2021
6622 Clouds 28 1010 74 10000 1.03 40 05:37 27.08.2021
6623 Clouds 31 1006 62 10000 2.06 70 00:47 27.08.2021
6624 Clouds 31 1006 62 10000 2.06 70 00:28 27.08.2021
6625 Clouds 34 1006 55 10000 1.54 90 22:26 26.08.2021
6626 Clouds 34 1007 55 10000 2.57 80 21:47 26.08.2021
6627 Clouds 34 1009 55 10000 2.06 100 19:33 26.08.2021
6628 Clouds 33 1011 58 10000 2.57 70 17:52 26.08.2021
6629 Clouds 33 1011 58 10000 2.57 70 17:25 26.08.2021
6630 Clear 31 1012 62 10000 2.57 80 16:26 26.08.2021
6631 Clear 29 1011 70 10000 3.09 60 14:21 26.08.2021
6632 Clear 27 1010 74 10000 1.54 60 13:20 26.08.2021
6633 Clear 26 1009 73 10000 2.06 70 12:33 26.08.2021
6634 Clear 26 1009 83 10000 2.06 30 11:37 26.08.2021